<?xml version="1.0" encoding="UTF-8" standalone="no" ?>
<gpx xmlns="http://www.topografix.com/GPX/1/1" xmlns:xsi="http://www.w3.org/2001/XMLSchema-instance" xsi:schemaLocation="http://www.topografix.com/GPX/1/1 http://www.topografix.com/GPX/1/1/gpx.xsd" version="1.1" creator="VisuGPX - https://www.visugpx.com">
  <metadata>
    <name>Parcours Rumes groupe B du 6 novembre 2018</name>
    <desc><![CDATA[Parcours Rumes du groupe B du 6 novembre 2018]]></desc>
  </metadata>
  <trk>
    <name><![CDATA[Rumes]]></name>
    <trkseg>
      <trkpt lat="50.55531" lon="3.30412">
        <ele>56.166862</ele>
        <time>2018-11-06T12:32:07Z</time>
      </trkpt>
      <trkpt lat="50.55583" lon="3.30377">
        <ele>56.176598</ele>
        <time>2018-11-06T12:32:09Z</time>
      </trkpt>
      <trkpt lat="50.55587" lon="3.30379">
        <ele>56.120502</ele>
        <time>2018-11-06T12:32:11Z</time>
      </trkpt>
      <trkpt lat="50.5559" lon="3.30384">
        <ele>56.060284</ele>
        <time>2018-11-06T12:32:13Z</time>
      </trkpt>
      <trkpt lat="50.55592" lon="3.30388">
        <ele>56.07552</ele>
        <time>2018-11-06T12:32:15Z</time>
      </trkpt>
      <trkpt lat="50.55595" lon="3.30392">
        <ele>56.089088</ele>
        <time>2018-11-06T12:32:17Z</time>
      </trkpt>
      <trkpt lat="50.556" lon="3.30394">
        <ele>56.104145</ele>
        <time>2018-11-06T12:32:19Z</time>
      </trkpt>
      <trkpt lat="50.55606" lon="3.30393">
        <ele>56.082092</ele>
        <time>2018-11-06T12:32:21Z</time>
      </trkpt>
      <trkpt lat="50.55612" lon="3.30389">
        <ele>56.093819</ele>
        <time>2018-11-06T12:32:23Z</time>
      </trkpt>
      <trkpt lat="50.55618" lon="3.30385">
        <ele>55.981895</ele>
        <time>2018-11-06T12:32:25Z</time>
      </trkpt>
      <trkpt lat="50.55624" lon="3.30382">
        <ele>55.920387</ele>
        <time>2018-11-06T12:32:27Z</time>
      </trkpt>
      <trkpt lat="50.55632" lon="3.30378">
        <ele>55.827381</ele>
        <time>2018-11-06T12:32:29Z</time>
      </trkpt>
      <trkpt lat="50.55639" lon="3.30374">
        <ele>55.597179</ele>
        <time>2018-11-06T12:32:31Z</time>
      </trkpt>
      <trkpt lat="50.55647" lon="3.30371">
        <ele>55.52425</ele>
        <time>2018-11-06T12:32:33Z</time>
      </trkpt>
      <trkpt lat="50.55655" lon="3.30368">
        <ele>55.454967</ele>
        <time>2018-11-06T12:32:35Z</time>
      </trkpt>
      <trkpt lat="50.55663" lon="3.30364">
        <ele>55.395721</ele>
        <time>2018-11-06T12:32:37Z</time>
      </trkpt>
      <trkpt lat="50.55672" lon="3.30361">
        <ele>55.321613</ele>
        <time>2018-11-06T12:32:39Z</time>
      </trkpt>
      <trkpt lat="50.55681" lon="3.30358">
        <ele>55.233093</ele>
        <time>2018-11-06T12:32:41Z</time>
      </trkpt>
      <trkpt lat="50.55689" lon="3.30357">
        <ele>55.153728</ele>
        <time>2018-11-06T12:32:43Z</time>
      </trkpt>
      <trkpt lat="50.55698" lon="3.30357">
        <ele>55.069996</ele>
        <time>2018-11-06T12:32:45Z</time>
      </trkpt>
      <trkpt lat="50.55707" lon="3.30356">
        <ele>55.007397</ele>
        <time>2018-11-06T12:32:47Z</time>
      </trkpt>
      <trkpt lat="50.55715" lon="3.30355">
        <ele>54.947674</ele>
        <time>2018-11-06T12:32:49Z</time>
      </trkpt>
      <trkpt lat="50.55723" lon="3.30352">
        <ele>54.85606</ele>
        <time>2018-11-06T12:32:51Z</time>
      </trkpt>
      <trkpt lat="50.5573" lon="3.30348">
        <ele>54.76173</ele>
        <time>2018-11-06T12:32:53Z</time>
      </trkpt>
      <trkpt lat="50.55737" lon="3.30342">
        <ele>54.619781</ele>
        <time>2018-11-06T12:32:55Z</time>
      </trkpt>
      <trkpt lat="50.55743" lon="3.30334">
        <ele>54.492126</ele>
        <time>2018-11-06T12:32:57Z</time>
      </trkpt>
      <trkpt lat="50.55748" lon="3.30325">
        <ele>54.420807</ele>
        <time>2018-11-06T12:32:59Z</time>
      </trkpt>
      <trkpt lat="50.55753" lon="3.30316">
        <ele>54.368462</ele>
        <time>2018-11-06T12:33:01Z</time>
      </trkpt>
      <trkpt lat="50.55756" lon="3.30305">
        <ele>54.307526</ele>
        <time>2018-11-06T12:33:03Z</time>
      </trkpt>
      <trkpt lat="50.55759" lon="3.30295">
        <ele>54.270832</ele>
        <time>2018-11-06T12:33:05Z</time>
      </trkpt>
      <trkpt lat="50.55764" lon="3.30287">
        <ele>54.23394</ele>
        <time>2018-11-06T12:33:07Z</time>
      </trkpt>
      <trkpt lat="50.55771" lon="3.30283">
        <ele>54.236198</ele>
        <time>2018-11-06T12:33:09Z</time>
      </trkpt>
      <trkpt lat="50.55778" lon="3.30285">
        <ele>54.235527</ele>
        <time>2018-11-06T12:33:11Z</time>
      </trkpt>
      <trkpt lat="50.55786" lon="3.30289">
        <ele>54.306572</ele>
        <time>2018-11-06T12:33:13Z</time>
      </trkpt>
      <trkpt lat="50.55793" lon="3.30292">
        <ele>54.318901</ele>
        <time>2018-11-06T12:33:15Z</time>
      </trkpt>
      <trkpt lat="50.558" lon="3.30294">
        <ele>54.341393</ele>
        <time>2018-11-06T12:33:17Z</time>
      </trkpt>
      <trkpt lat="50.55805" lon="3.30297">
        <ele>54.403004</ele>
        <time>2018-11-06T12:33:19Z</time>
      </trkpt>
      <trkpt lat="50.55811" lon="3.30299">
        <ele>54.505993</ele>
        <time>2018-11-06T12:33:21Z</time>
      </trkpt>
      <trkpt lat="50.55816" lon="3.303">
        <ele>54.628693</ele>
        <time>2018-11-06T12:33:23Z</time>
      </trkpt>
      <trkpt lat="50.55821" lon="3.30302">
        <ele>54.771423</ele>
        <time>2018-11-06T12:33:25Z</time>
      </trkpt>
      <trkpt lat="50.55825" lon="3.30304">
        <ele>54.860725</ele>
        <time>2018-11-06T12:33:27Z</time>
      </trkpt>
      <trkpt lat="50.55831" lon="3.30306">
        <ele>55.01598</ele>
        <time>2018-11-06T12:33:29Z</time>
      </trkpt>
      <trkpt lat="50.55837" lon="3.30308">
        <ele>55.150116</ele>
        <time>2018-11-06T12:33:31Z</time>
      </trkpt>
      <trkpt lat="50.55842" lon="3.3031">
        <ele>55.359051</ele>
        <time>2018-11-06T12:33:33Z</time>
      </trkpt>
      <trkpt lat="50.55848" lon="3.30313">
        <ele>55.557457</ele>
        <time>2018-11-06T12:33:35Z</time>
      </trkpt>
      <trkpt lat="50.55854" lon="3.30315">
        <ele>55.639252</ele>
        <time>2018-11-06T12:33:37Z</time>
      </trkpt>
      <trkpt lat="50.5586" lon="3.30317">
        <ele>55.805969</ele>
        <time>2018-11-06T12:33:39Z</time>
      </trkpt>
      <trkpt lat="50.55866" lon="3.3032">
        <ele>55.987617</ele>
        <time>2018-11-06T12:33:41Z</time>
      </trkpt>
      <trkpt lat="50.55872" lon="3.30322">
        <ele>56.159992</ele>
        <time>2018-11-06T12:33:43Z</time>
      </trkpt>
      <trkpt lat="50.55879" lon="3.30325">
        <ele>56.348705</ele>
        <time>2018-11-06T12:33:45Z</time>
      </trkpt>
      <trkpt lat="50.55885" lon="3.30327">
        <ele>56.486858</ele>
        <time>2018-11-06T12:33:47Z</time>
      </trkpt>
      <trkpt lat="50.55892" lon="3.3033">
        <ele>56.662804</ele>
        <time>2018-11-06T12:33:49Z</time>
      </trkpt>
      <trkpt lat="50.55898" lon="3.30332">
        <ele>56.792336</ele>
        <time>2018-11-06T12:33:51Z</time>
      </trkpt>
      <trkpt lat="50.55904" lon="3.30335">
        <ele>56.972034</ele>
        <time>2018-11-06T12:33:53Z</time>
      </trkpt>
      <trkpt lat="50.55911" lon="3.30337">
        <ele>57.145977</ele>
        <time>2018-11-06T12:33:55Z</time>
      </trkpt>
      <trkpt lat="50.55918" lon="3.3034">
        <ele>57.323738</ele>
        <time>2018-11-06T12:33:57Z</time>
      </trkpt>
      <trkpt lat="50.55924" lon="3.30343">
        <ele>57.515728</ele>
        <time>2018-11-06T12:33:59Z</time>
      </trkpt>
      <trkpt lat="50.5593" lon="3.30345">
        <ele>57.684162</ele>
        <time>2018-11-06T12:34:01Z</time>
      </trkpt>
      <trkpt lat="50.55935" lon="3.30347">
        <ele>57.827911</ele>
        <time>2018-11-06T12:34:03Z</time>
      </trkpt>
      <trkpt lat="50.55939" lon="3.30348">
        <ele>57.940296</ele>
        <time>2018-11-06T12:34:05Z</time>
      </trkpt>
      <trkpt lat="50.55942" lon="3.3035">
        <ele>58.05011</ele>
        <time>2018-11-06T12:34:07Z</time>
      </trkpt>
      <trkpt lat="50.55945" lon="3.30351">
        <ele>58.118824</ele>
        <time>2018-11-06T12:34:09Z</time>
      </trkpt>
      <trkpt lat="50.55947" lon="3.30352">
        <ele>58.203133</ele>
        <time>2018-11-06T12:34:11Z</time>
      </trkpt>
      <trkpt lat="50.5595" lon="3.30353">
        <ele>58.605843</ele>
        <time>2018-11-06T12:34:50Z</time>
      </trkpt>
      <trkpt lat="50.55956" lon="3.30355">
        <ele>58.661034</ele>
        <time>2018-11-06T12:34:52Z</time>
      </trkpt>
      <trkpt lat="50.55961" lon="3.30356">
        <ele>58.66375</ele>
        <time>2018-11-06T12:34:54Z</time>
      </trkpt>
      <trkpt lat="50.55967" lon="3.30359">
        <ele>58.687725</ele>
        <time>2018-11-06T12:34:56Z</time>
      </trkpt>
      <trkpt lat="50.55974" lon="3.30362">
        <ele>58.694672</ele>
        <time>2018-11-06T12:34:58Z</time>
      </trkpt>
      <trkpt lat="50.5598" lon="3.30364">
        <ele>58.763531</ele>
        <time>2018-11-06T12:35:00Z</time>
      </trkpt>
      <trkpt lat="50.55987" lon="3.30367">
        <ele>58.792198</ele>
        <time>2018-11-06T12:35:02Z</time>
      </trkpt>
      <trkpt lat="50.55994" lon="3.3037">
        <ele>58.73661</ele>
        <time>2018-11-06T12:35:04Z</time>
      </trkpt>
      <trkpt lat="50.56001" lon="3.30372">
        <ele>58.72987</ele>
        <time>2018-11-06T12:35:06Z</time>
      </trkpt>
      <trkpt lat="50.56007" lon="3.30374">
        <ele>58.729179</ele>
        <time>2018-11-06T12:35:08Z</time>
      </trkpt>
      <trkpt lat="50.56014" lon="3.30376">
        <ele>58.691029</ele>
        <time>2018-11-06T12:35:10Z</time>
      </trkpt>
      <trkpt lat="50.56022" lon="3.30379">
        <ele>58.698128</ele>
        <time>2018-11-06T12:35:12Z</time>
      </trkpt>
      <trkpt lat="50.56028" lon="3.30382">
        <ele>58.709717</ele>
        <time>2018-11-06T12:35:14Z</time>
      </trkpt>
      <trkpt lat="50.56036" lon="3.30385">
        <ele>58.69743</ele>
        <time>2018-11-06T12:35:16Z</time>
      </trkpt>
      <trkpt lat="50.56043" lon="3.30387">
        <ele>58.702076</ele>
        <time>2018-11-06T12:35:18Z</time>
      </trkpt>
      <trkpt lat="50.5605" lon="3.3039">
        <ele>58.778057</ele>
        <time>2018-11-06T12:35:20Z</time>
      </trkpt>
      <trkpt lat="50.56057" lon="3.30392">
        <ele>58.808846</ele>
        <time>2018-11-06T12:35:22Z</time>
      </trkpt>
      <trkpt lat="50.56064" lon="3.30395">
        <ele>58.811115</ele>
        <time>2018-11-06T12:35:24Z</time>
      </trkpt>
      <trkpt lat="50.5607" lon="3.30397">
        <ele>58.768726</ele>
        <time>2018-11-06T12:35:26Z</time>
      </trkpt>
      <trkpt lat="50.56078" lon="3.30401">
        <ele>58.700508</ele>
        <time>2018-11-06T12:35:28Z</time>
      </trkpt>
      <trkpt lat="50.56086" lon="3.30404">
        <ele>58.654274</ele>
        <time>2018-11-06T12:35:30Z</time>
      </trkpt>
      <trkpt lat="50.56093" lon="3.30407">
        <ele>58.627464</ele>
        <time>2018-11-06T12:35:32Z</time>
      </trkpt>
      <trkpt lat="50.56101" lon="3.3041">
        <ele>58.557873</ele>
        <time>2018-11-06T12:35:34Z</time>
      </trkpt>
      <trkpt lat="50.56109" lon="3.30413">
        <ele>58.52483</ele>
        <time>2018-11-06T12:35:36Z</time>
      </trkpt>
      <trkpt lat="50.56117" lon="3.30418">
        <ele>58.505959</ele>
        <time>2018-11-06T12:35:38Z</time>
      </trkpt>
      <trkpt lat="50.56125" lon="3.30424">
        <ele>58.502563</ele>
        <time>2018-11-06T12:35:40Z</time>
      </trkpt>
      <trkpt lat="50.56133" lon="3.30431">
        <ele>58.478111</ele>
        <time>2018-11-06T12:35:42Z</time>
      </trkpt>
      <trkpt lat="50.56139" lon="3.30439">
        <ele>58.519054</ele>
        <time>2018-11-06T12:35:44Z</time>
      </trkpt>
      <trkpt lat="50.56147" lon="3.30447">
        <ele>58.527996</ele>
        <time>2018-11-06T12:35:46Z</time>
      </trkpt>
      <trkpt lat="50.56154" lon="3.30457">
        <ele>58.529442</ele>
        <time>2018-11-06T12:35:48Z</time>
      </trkpt>
      <trkpt lat="50.56161" lon="3.30466">
        <ele>58.579498</ele>
        <time>2018-11-06T12:35:50Z</time>
      </trkpt>
      <trkpt lat="50.56168" lon="3.30476">
        <ele>58.602917</ele>
        <time>2018-11-06T12:35:52Z</time>
      </trkpt>
      <trkpt lat="50.56176" lon="3.30485">
        <ele>58.597229</ele>
        <time>2018-11-06T12:35:54Z</time>
      </trkpt>
      <trkpt lat="50.56184" lon="3.30495">
        <ele>58.611389</ele>
        <time>2018-11-06T12:35:56Z</time>
      </trkpt>
      <trkpt lat="50.56192" lon="3.30506">
        <ele>58.628754</ele>
        <time>2018-11-06T12:35:58Z</time>
      </trkpt>
      <trkpt lat="50.562" lon="3.30516">
        <ele>58.679512</ele>
        <time>2018-11-06T12:36:00Z</time>
      </trkpt>
      <trkpt lat="50.56207" lon="3.30526">
        <ele>58.647697</ele>
        <time>2018-11-06T12:36:02Z</time>
      </trkpt>
      <trkpt lat="50.56214" lon="3.30536">
        <ele>58.620007</ele>
        <time>2018-11-06T12:36:04Z</time>
      </trkpt>
      <trkpt lat="50.56221" lon="3.30545">
        <ele>58.663441</ele>
        <time>2018-11-06T12:36:06Z</time>
      </trkpt>
      <trkpt lat="50.56229" lon="3.30554">
        <ele>58.711456</ele>
        <time>2018-11-06T12:36:08Z</time>
      </trkpt>
      <trkpt lat="50.56237" lon="3.30562">
        <ele>58.721352</ele>
        <time>2018-11-06T12:36:10Z</time>
      </trkpt>
      <trkpt lat="50.56245" lon="3.30569">
        <ele>58.766113</ele>
        <time>2018-11-06T12:36:12Z</time>
      </trkpt>
      <trkpt lat="50.56253" lon="3.30576">
        <ele>58.823711</ele>
        <time>2018-11-06T12:36:14Z</time>
      </trkpt>
      <trkpt lat="50.56261" lon="3.30582">
        <ele>58.83791</ele>
        <time>2018-11-06T12:36:16Z</time>
      </trkpt>
      <trkpt lat="50.5627" lon="3.30588">
        <ele>58.834381</ele>
        <time>2018-11-06T12:36:18Z</time>
      </trkpt>
      <trkpt lat="50.56279" lon="3.30595">
        <ele>58.825939</ele>
        <time>2018-11-06T12:36:20Z</time>
      </trkpt>
      <trkpt lat="50.56287" lon="3.30603">
        <ele>58.736977</ele>
        <time>2018-11-06T12:36:22Z</time>
      </trkpt>
      <trkpt lat="50.56295" lon="3.30611">
        <ele>58.654961</ele>
        <time>2018-11-06T12:36:24Z</time>
      </trkpt>
      <trkpt lat="50.56303" lon="3.3062">
        <ele>58.569008</ele>
        <time>2018-11-06T12:36:26Z</time>
      </trkpt>
      <trkpt lat="50.5631" lon="3.3063">
        <ele>58.451782</ele>
        <time>2018-11-06T12:36:28Z</time>
      </trkpt>
      <trkpt lat="50.56317" lon="3.30642">
        <ele>58.356262</ele>
        <time>2018-11-06T12:36:30Z</time>
      </trkpt>
      <trkpt lat="50.56322" lon="3.30656">
        <ele>58.263481</ele>
        <time>2018-11-06T12:36:32Z</time>
      </trkpt>
      <trkpt lat="50.56324" lon="3.30671">
        <ele>58.205311</ele>
        <time>2018-11-06T12:36:34Z</time>
      </trkpt>
      <trkpt lat="50.56322" lon="3.30687">
        <ele>58.126366</ele>
        <time>2018-11-06T12:36:36Z</time>
      </trkpt>
      <trkpt lat="50.56319" lon="3.30702">
        <ele>58.059059</ele>
        <time>2018-11-06T12:36:38Z</time>
      </trkpt>
      <trkpt lat="50.56315" lon="3.30717">
        <ele>57.952503</ele>
        <time>2018-11-06T12:36:40Z</time>
      </trkpt>
      <trkpt lat="50.56311" lon="3.30732">
        <ele>57.902107</ele>
        <time>2018-11-06T12:36:42Z</time>
      </trkpt>
      <trkpt lat="50.56307" lon="3.30745">
        <ele>57.823547</ele>
        <time>2018-11-06T12:36:44Z</time>
      </trkpt>
      <trkpt lat="50.56303" lon="3.30758">
        <ele>57.699486</ele>
        <time>2018-11-06T12:36:46Z</time>
      </trkpt>
      <trkpt lat="50.56299" lon="3.30771">
        <ele>57.59771</ele>
        <time>2018-11-06T12:36:48Z</time>
      </trkpt>
      <trkpt lat="50.56296" lon="3.30784">
        <ele>57.565632</ele>
        <time>2018-11-06T12:36:50Z</time>
      </trkpt>
      <trkpt lat="50.56294" lon="3.30799">
        <ele>57.479023</ele>
        <time>2018-11-06T12:36:52Z</time>
      </trkpt>
      <trkpt lat="50.56293" lon="3.30814">
        <ele>57.344707</ele>
        <time>2018-11-06T12:36:54Z</time>
      </trkpt>
      <trkpt lat="50.56292" lon="3.30829">
        <ele>57.186836</ele>
        <time>2018-11-06T12:36:56Z</time>
      </trkpt>
      <trkpt lat="50.56291" lon="3.30843">
        <ele>57.056915</ele>
        <time>2018-11-06T12:36:58Z</time>
      </trkpt>
      <trkpt lat="50.5629" lon="3.30858">
        <ele>56.984283</ele>
        <time>2018-11-06T12:37:00Z</time>
      </trkpt>
      <trkpt lat="50.5629" lon="3.30871">
        <ele>56.915386</ele>
        <time>2018-11-06T12:37:02Z</time>
      </trkpt>
      <trkpt lat="50.56292" lon="3.30884">
        <ele>56.834942</ele>
        <time>2018-11-06T12:37:04Z</time>
      </trkpt>
      <trkpt lat="50.56294" lon="3.30898">
        <ele>56.772602</ele>
        <time>2018-11-06T12:37:06Z</time>
      </trkpt>
      <trkpt lat="50.56299" lon="3.30909">
        <ele>56.713799</ele>
        <time>2018-11-06T12:37:08Z</time>
      </trkpt>
      <trkpt lat="50.56306" lon="3.3092">
        <ele>56.668549</ele>
        <time>2018-11-06T12:37:10Z</time>
      </trkpt>
      <trkpt lat="50.56313" lon="3.3093">
        <ele>56.594353</ele>
        <time>2018-11-06T12:37:12Z</time>
      </trkpt>
      <trkpt lat="50.5632" lon="3.3094">
        <ele>56.520416</ele>
        <time>2018-11-06T12:37:14Z</time>
      </trkpt>
      <trkpt lat="50.56327" lon="3.3095">
        <ele>56.352093</ele>
        <time>2018-11-06T12:37:16Z</time>
      </trkpt>
      <trkpt lat="50.56334" lon="3.30959">
        <ele>56.220001</ele>
        <time>2018-11-06T12:37:18Z</time>
      </trkpt>
      <trkpt lat="50.56342" lon="3.3097">
        <ele>56.079487</ele>
        <time>2018-11-06T12:37:20Z</time>
      </trkpt>
      <trkpt lat="50.56349" lon="3.30982">
        <ele>55.948906</ele>
        <time>2018-11-06T12:37:22Z</time>
      </trkpt>
      <trkpt lat="50.56357" lon="3.30993">
        <ele>55.843811</ele>
        <time>2018-11-06T12:37:24Z</time>
      </trkpt>
      <trkpt lat="50.56365" lon="3.31006">
        <ele>55.766998</ele>
        <time>2018-11-06T12:37:26Z</time>
      </trkpt>
      <trkpt lat="50.56372" lon="3.3102">
        <ele>55.659039</ele>
        <time>2018-11-06T12:37:28Z</time>
      </trkpt>
      <trkpt lat="50.56379" lon="3.31034">
        <ele>55.546051</ele>
        <time>2018-11-06T12:37:30Z</time>
      </trkpt>
      <trkpt lat="50.56385" lon="3.31048">
        <ele>55.396435</ele>
        <time>2018-11-06T12:37:32Z</time>
      </trkpt>
      <trkpt lat="50.56391" lon="3.31064">
        <ele>55.246529</ele>
        <time>2018-11-06T12:37:34Z</time>
      </trkpt>
      <trkpt lat="50.56397" lon="3.3108">
        <ele>55.127197</ele>
        <time>2018-11-06T12:37:36Z</time>
      </trkpt>
      <trkpt lat="50.56403" lon="3.31094">
        <ele>54.982929</ele>
        <time>2018-11-06T12:37:38Z</time>
      </trkpt>
      <trkpt lat="50.56411" lon="3.31106">
        <ele>54.808968</ele>
        <time>2018-11-06T12:37:40Z</time>
      </trkpt>
      <trkpt lat="50.56421" lon="3.31113">
        <ele>54.628429</ele>
        <time>2018-11-06T12:37:42Z</time>
      </trkpt>
      <trkpt lat="50.56431" lon="3.31115">
        <ele>54.445576</ele>
        <time>2018-11-06T12:37:44Z</time>
      </trkpt>
      <trkpt lat="50.56443" lon="3.31113">
        <ele>54.244263</ele>
        <time>2018-11-06T12:37:46Z</time>
      </trkpt>
      <trkpt lat="50.56454" lon="3.31106">
        <ele>54.024273</ele>
        <time>2018-11-06T12:37:48Z</time>
      </trkpt>
      <trkpt lat="50.56464" lon="3.31095">
        <ele>53.868523</ele>
        <time>2018-11-06T12:37:50Z</time>
      </trkpt>
      <trkpt lat="50.56474" lon="3.31085">
        <ele>53.628777</ele>
        <time>2018-11-06T12:37:52Z</time>
      </trkpt>
      <trkpt lat="50.56485" lon="3.31077">
        <ele>53.331871</ele>
        <time>2018-11-06T12:37:54Z</time>
      </trkpt>
      <trkpt lat="50.56497" lon="3.31071">
        <ele>53.133869</ele>
        <time>2018-11-06T12:37:56Z</time>
      </trkpt>
      <trkpt lat="50.56509" lon="3.31067">
        <ele>52.987621</ele>
        <time>2018-11-06T12:37:58Z</time>
      </trkpt>
      <trkpt lat="50.56521" lon="3.31066">
        <ele>52.89167</ele>
        <time>2018-11-06T12:38:00Z</time>
      </trkpt>
      <trkpt lat="50.56533" lon="3.31068">
        <ele>52.754375</ele>
        <time>2018-11-06T12:38:02Z</time>
      </trkpt>
      <trkpt lat="50.56543" lon="3.3107">
        <ele>52.562553</ele>
        <time>2018-11-06T12:38:04Z</time>
      </trkpt>
      <trkpt lat="50.56553" lon="3.31072">
        <ele>52.480827</ele>
        <time>2018-11-06T12:38:06Z</time>
      </trkpt>
      <trkpt lat="50.56562" lon="3.31074">
        <ele>52.333546</ele>
        <time>2018-11-06T12:38:08Z</time>
      </trkpt>
      <trkpt lat="50.56572" lon="3.31075">
        <ele>52.275715</ele>
        <time>2018-11-06T12:38:10Z</time>
      </trkpt>
      <trkpt lat="50.56581" lon="3.31077">
        <ele>52.212288</ele>
        <time>2018-11-06T12:38:12Z</time>
      </trkpt>
      <trkpt lat="50.56591" lon="3.31079">
        <ele>52.131218</ele>
        <time>2018-11-06T12:38:14Z</time>
      </trkpt>
      <trkpt lat="50.566" lon="3.31081">
        <ele>52.151001</ele>
        <time>2018-11-06T12:38:16Z</time>
      </trkpt>
      <trkpt lat="50.5661" lon="3.31083">
        <ele>52.146954</ele>
        <time>2018-11-06T12:38:18Z</time>
      </trkpt>
      <trkpt lat="50.5662" lon="3.31084">
        <ele>52.193825</ele>
        <time>2018-11-06T12:38:20Z</time>
      </trkpt>
      <trkpt lat="50.5663" lon="3.31086">
        <ele>52.24826</ele>
        <time>2018-11-06T12:38:22Z</time>
      </trkpt>
      <trkpt lat="50.56641" lon="3.31091">
        <ele>52.342537</ele>
        <time>2018-11-06T12:38:24Z</time>
      </trkpt>
      <trkpt lat="50.56652" lon="3.31098">
        <ele>52.388325</ele>
        <time>2018-11-06T12:38:26Z</time>
      </trkpt>
      <trkpt lat="50.56664" lon="3.31106">
        <ele>52.418823</ele>
        <time>2018-11-06T12:38:28Z</time>
      </trkpt>
      <trkpt lat="50.56677" lon="3.31115">
        <ele>52.463074</ele>
        <time>2018-11-06T12:38:30Z</time>
      </trkpt>
      <trkpt lat="50.56692" lon="3.31125">
        <ele>52.469513</ele>
        <time>2018-11-06T12:38:32Z</time>
      </trkpt>
      <trkpt lat="50.56708" lon="3.31136">
        <ele>52.515919</ele>
        <time>2018-11-06T12:38:34Z</time>
      </trkpt>
      <trkpt lat="50.56725" lon="3.31147">
        <ele>52.48922</ele>
        <time>2018-11-06T12:38:36Z</time>
      </trkpt>
      <trkpt lat="50.56742" lon="3.31159">
        <ele>52.413971</ele>
        <time>2018-11-06T12:38:38Z</time>
      </trkpt>
      <trkpt lat="50.5676" lon="3.31171">
        <ele>52.287422</ele>
        <time>2018-11-06T12:38:40Z</time>
      </trkpt>
      <trkpt lat="50.56778" lon="3.31183">
        <ele>52.161751</ele>
        <time>2018-11-06T12:38:42Z</time>
      </trkpt>
      <trkpt lat="50.56795" lon="3.31194">
        <ele>51.960327</ele>
        <time>2018-11-06T12:38:44Z</time>
      </trkpt>
      <trkpt lat="50.56811" lon="3.31205">
        <ele>51.760742</ele>
        <time>2018-11-06T12:38:46Z</time>
      </trkpt>
      <trkpt lat="50.56827" lon="3.31216">
        <ele>51.527962</ele>
        <time>2018-11-06T12:38:48Z</time>
      </trkpt>
      <trkpt lat="50.56842" lon="3.31225">
        <ele>51.239727</ele>
        <time>2018-11-06T12:38:50Z</time>
      </trkpt>
      <trkpt lat="50.56857" lon="3.31235">
        <ele>50.950924</ele>
        <time>2018-11-06T12:38:52Z</time>
      </trkpt>
      <trkpt lat="50.56871" lon="3.31245">
        <ele>50.634911</ele>
        <time>2018-11-06T12:38:54Z</time>
      </trkpt>
      <trkpt lat="50.56885" lon="3.31254">
        <ele>50.303886</ele>
        <time>2018-11-06T12:38:56Z</time>
      </trkpt>
      <trkpt lat="50.56899" lon="3.31262">
        <ele>49.964077</ele>
        <time>2018-11-06T12:38:58Z</time>
      </trkpt>
      <trkpt lat="50.56911" lon="3.31269">
        <ele>49.634701</ele>
        <time>2018-11-06T12:39:00Z</time>
      </trkpt>
      <trkpt lat="50.56924" lon="3.31273">
        <ele>49.293991</ele>
        <time>2018-11-06T12:39:02Z</time>
      </trkpt>
      <trkpt lat="50.56938" lon="3.31272">
        <ele>49.069664</ele>
        <time>2018-11-06T12:39:04Z</time>
      </trkpt>
      <trkpt lat="50.56952" lon="3.31268">
        <ele>48.725395</ele>
        <time>2018-11-06T12:39:06Z</time>
      </trkpt>
      <trkpt lat="50.56965" lon="3.31262">
        <ele>48.380169</ele>
        <time>2018-11-06T12:39:08Z</time>
      </trkpt>
      <trkpt lat="50.56977" lon="3.31255">
        <ele>48.116741</ele>
        <time>2018-11-06T12:39:10Z</time>
      </trkpt>
      <trkpt lat="50.5699" lon="3.31249">
        <ele>47.813622</ele>
        <time>2018-11-06T12:39:12Z</time>
      </trkpt>
      <trkpt lat="50.57003" lon="3.31243">
        <ele>47.568645</ele>
        <time>2018-11-06T12:39:14Z</time>
      </trkpt>
      <trkpt lat="50.57016" lon="3.31236">
        <ele>47.294258</ele>
        <time>2018-11-06T12:39:16Z</time>
      </trkpt>
      <trkpt lat="50.57029" lon="3.31231">
        <ele>47.186913</ele>
        <time>2018-11-06T12:39:18Z</time>
      </trkpt>
      <trkpt lat="50.57041" lon="3.31224">
        <ele>46.996937</ele>
        <time>2018-11-06T12:39:20Z</time>
      </trkpt>
      <trkpt lat="50.57054" lon="3.31218">
        <ele>46.785149</ele>
        <time>2018-11-06T12:39:22Z</time>
      </trkpt>
      <trkpt lat="50.57067" lon="3.31212">
        <ele>46.69973</ele>
        <time>2018-11-06T12:39:24Z</time>
      </trkpt>
      <trkpt lat="50.57079" lon="3.31203">
        <ele>46.550819</ele>
        <time>2018-11-06T12:39:26Z</time>
      </trkpt>
      <trkpt lat="50.57091" lon="3.31194">
        <ele>46.43018</ele>
        <time>2018-11-06T12:39:28Z</time>
      </trkpt>
      <trkpt lat="50.57103" lon="3.31184">
        <ele>46.309181</ele>
        <time>2018-11-06T12:39:30Z</time>
      </trkpt>
      <trkpt lat="50.57113" lon="3.31172">
        <ele>46.190861</ele>
        <time>2018-11-06T12:39:32Z</time>
      </trkpt>
      <trkpt lat="50.57122" lon="3.31161">
        <ele>46.062019</ele>
        <time>2018-11-06T12:39:34Z</time>
      </trkpt>
      <trkpt lat="50.5713" lon="3.31148">
        <ele>45.971992</ele>
        <time>2018-11-06T12:39:36Z</time>
      </trkpt>
      <trkpt lat="50.57138" lon="3.31135">
        <ele>45.858879</ele>
        <time>2018-11-06T12:39:38Z</time>
      </trkpt>
      <trkpt lat="50.57144" lon="3.31122">
        <ele>45.822578</ele>
        <time>2018-11-06T12:39:40Z</time>
      </trkpt>
      <trkpt lat="50.57149" lon="3.31112">
        <ele>45.688728</ele>
        <time>2018-11-06T12:39:42Z</time>
      </trkpt>
      <trkpt lat="50.57153" lon="3.31107">
        <ele>45.504738</ele>
        <time>2018-11-06T12:39:44Z</time>
      </trkpt>
      <trkpt lat="50.57155" lon="3.31104">
        <ele>44.926182</ele>
        <time>2018-11-06T12:39:53Z</time>
      </trkpt>
      <trkpt lat="50.57158" lon="3.31099">
        <ele>44.797489</ele>
        <time>2018-11-06T12:39:55Z</time>
      </trkpt>
      <trkpt lat="50.5716" lon="3.31093">
        <ele>44.629318</ele>
        <time>2018-11-06T12:39:57Z</time>
      </trkpt>
      <trkpt lat="50.57164" lon="3.31086">
        <ele>44.437984</ele>
        <time>2018-11-06T12:39:59Z</time>
      </trkpt>
      <trkpt lat="50.57165" lon="3.31081">
        <ele>43.69276</ele>
        <time>2018-11-06T12:40:20Z</time>
      </trkpt>
      <trkpt lat="50.57166" lon="3.3108">
        <ele>43.698139</ele>
        <time>2018-11-06T12:40:22Z</time>
      </trkpt>
      <trkpt lat="50.57167" lon="3.31079">
        <ele>43.664886</ele>
        <time>2018-11-06T12:40:24Z</time>
      </trkpt>
      <trkpt lat="50.57169" lon="3.31075">
        <ele>43.260105</ele>
        <time>2018-11-06T12:48:50Z</time>
      </trkpt>
      <trkpt lat="50.57171" lon="3.31066">
        <ele>43.286373</ele>
        <time>2018-11-06T12:48:52Z</time>
      </trkpt>
      <trkpt lat="50.57175" lon="3.31061">
        <ele>43.284271</ele>
        <time>2018-11-06T12:48:54Z</time>
      </trkpt>
      <trkpt lat="50.57179" lon="3.31054">
        <ele>43.282612</ele>
        <time>2018-11-06T12:48:56Z</time>
      </trkpt>
      <trkpt lat="50.57184" lon="3.31046">
        <ele>43.323586</ele>
        <time>2018-11-06T12:48:58Z</time>
      </trkpt>
      <trkpt lat="50.57188" lon="3.31038">
        <ele>43.298866</ele>
        <time>2018-11-06T12:49:00Z</time>
      </trkpt>
      <trkpt lat="50.57194" lon="3.31029">
        <ele>43.294582</ele>
        <time>2018-11-06T12:49:02Z</time>
      </trkpt>
      <trkpt lat="50.572" lon="3.31019">
        <ele>43.315075</ele>
        <time>2018-11-06T12:49:04Z</time>
      </trkpt>
      <trkpt lat="50.57205" lon="3.31009">
        <ele>43.317993</ele>
        <time>2018-11-06T12:49:06Z</time>
      </trkpt>
      <trkpt lat="50.5721" lon="3.30999">
        <ele>43.32917</ele>
        <time>2018-11-06T12:49:08Z</time>
      </trkpt>
      <trkpt lat="50.57216" lon="3.30989">
        <ele>43.321705</ele>
        <time>2018-11-06T12:49:10Z</time>
      </trkpt>
      <trkpt lat="50.57221" lon="3.30979">
        <ele>43.155067</ele>
        <time>2018-11-06T12:49:12Z</time>
      </trkpt>
      <trkpt lat="50.57226" lon="3.3097">
        <ele>43.160843</ele>
        <time>2018-11-06T12:49:14Z</time>
      </trkpt>
      <trkpt lat="50.57231" lon="3.30961">
        <ele>43.393707</ele>
        <time>2018-11-06T12:49:16Z</time>
      </trkpt>
      <trkpt lat="50.57236" lon="3.30952">
        <ele>43.321472</ele>
        <time>2018-11-06T12:49:18Z</time>
      </trkpt>
      <trkpt lat="50.57241" lon="3.30943">
        <ele>43.51363</ele>
        <time>2018-11-06T12:49:20Z</time>
      </trkpt>
      <trkpt lat="50.57245" lon="3.30934">
        <ele>43.515114</ele>
        <time>2018-11-06T12:49:22Z</time>
      </trkpt>
      <trkpt lat="50.5725" lon="3.30926">
        <ele>41.474266</ele>
        <time>2018-11-06T12:49:24Z</time>
      </trkpt>
      <trkpt lat="50.57254" lon="3.30918">
        <ele>41.58033</ele>
        <time>2018-11-06T12:49:26Z</time>
      </trkpt>
      <trkpt lat="50.57259" lon="3.30909">
        <ele>41.520645</ele>
        <time>2018-11-06T12:49:28Z</time>
      </trkpt>
      <trkpt lat="50.57264" lon="3.309">
        <ele>41.554642</ele>
        <time>2018-11-06T12:49:30Z</time>
      </trkpt>
      <trkpt lat="50.5727" lon="3.30892">
        <ele>41.494286</ele>
        <time>2018-11-06T12:49:32Z</time>
      </trkpt>
      <trkpt lat="50.57277" lon="3.30884">
        <ele>41.486687</ele>
        <time>2018-11-06T12:49:34Z</time>
      </trkpt>
      <trkpt lat="50.57284" lon="3.30876">
        <ele>41.493214</ele>
        <time>2018-11-06T12:49:36Z</time>
      </trkpt>
      <trkpt lat="50.57291" lon="3.30869">
        <ele>41.494347</ele>
        <time>2018-11-06T12:49:38Z</time>
      </trkpt>
      <trkpt lat="50.57299" lon="3.30862">
        <ele>41.472965</ele>
        <time>2018-11-06T12:49:40Z</time>
      </trkpt>
      <trkpt lat="50.57307" lon="3.30856">
        <ele>41.529358</ele>
        <time>2018-11-06T12:49:42Z</time>
      </trkpt>
      <trkpt lat="50.57316" lon="3.30852">
        <ele>41.569832</ele>
        <time>2018-11-06T12:49:44Z</time>
      </trkpt>
      <trkpt lat="50.57325" lon="3.30848">
        <ele>41.597958</ele>
        <time>2018-11-06T12:49:46Z</time>
      </trkpt>
      <trkpt lat="50.57334" lon="3.30845">
        <ele>41.654877</ele>
        <time>2018-11-06T12:49:48Z</time>
      </trkpt>
      <trkpt lat="50.57344" lon="3.30841">
        <ele>41.71529</ele>
        <time>2018-11-06T12:49:50Z</time>
      </trkpt>
      <trkpt lat="50.57353" lon="3.30838">
        <ele>42.063435</ele>
        <time>2018-11-06T12:49:52Z</time>
      </trkpt>
      <trkpt lat="50.57362" lon="3.30835">
        <ele>42.107395</ele>
        <time>2018-11-06T12:49:54Z</time>
      </trkpt>
      <trkpt lat="50.57372" lon="3.30832">
        <ele>42.065521</ele>
        <time>2018-11-06T12:49:56Z</time>
      </trkpt>
      <trkpt lat="50.57381" lon="3.30829">
        <ele>42.166706</ele>
        <time>2018-11-06T12:49:58Z</time>
      </trkpt>
      <trkpt lat="50.57391" lon="3.30826">
        <ele>42.198547</ele>
        <time>2018-11-06T12:50:00Z</time>
      </trkpt>
      <trkpt lat="50.57401" lon="3.30823">
        <ele>42.304634</ele>
        <time>2018-11-06T12:50:02Z</time>
      </trkpt>
      <trkpt lat="50.5741" lon="3.3082">
        <ele>44.438412</ele>
        <time>2018-11-06T12:50:04Z</time>
      </trkpt>
      <trkpt lat="50.5742" lon="3.30816">
        <ele>44.44569</ele>
        <time>2018-11-06T12:50:06Z</time>
      </trkpt>
      <trkpt lat="50.57429" lon="3.30813">
        <ele>44.479877</ele>
        <time>2018-11-06T12:50:08Z</time>
      </trkpt>
      <trkpt lat="50.57438" lon="3.30808">
        <ele>44.686169</ele>
        <time>2018-11-06T12:50:10Z</time>
      </trkpt>
      <trkpt lat="50.57447" lon="3.30803">
        <ele>44.809822</ele>
        <time>2018-11-06T12:50:12Z</time>
      </trkpt>
      <trkpt lat="50.57456" lon="3.30799">
        <ele>44.960567</ele>
        <time>2018-11-06T12:50:14Z</time>
      </trkpt>
      <trkpt lat="50.57465" lon="3.30793">
        <ele>45.072975</ele>
        <time>2018-11-06T12:50:16Z</time>
      </trkpt>
      <trkpt lat="50.5747" lon="3.30784">
        <ele>45.201504</ele>
        <time>2018-11-06T12:50:18Z</time>
      </trkpt>
      <trkpt lat="50.57473" lon="3.30773">
        <ele>45.350071</ele>
        <time>2018-11-06T12:50:20Z</time>
      </trkpt>
      <trkpt lat="50.57471" lon="3.30759">
        <ele>45.482063</ele>
        <time>2018-11-06T12:50:22Z</time>
      </trkpt>
      <trkpt lat="50.57467" lon="3.30746">
        <ele>45.586842</ele>
        <time>2018-11-06T12:50:24Z</time>
      </trkpt>
      <trkpt lat="50.57463" lon="3.30732">
        <ele>45.669273</ele>
        <time>2018-11-06T12:50:26Z</time>
      </trkpt>
      <trkpt lat="50.57458" lon="3.30719">
        <ele>45.807652</ele>
        <time>2018-11-06T12:50:28Z</time>
      </trkpt>
      <trkpt lat="50.57454" lon="3.30705">
        <ele>45.866673</ele>
        <time>2018-11-06T12:50:30Z</time>
      </trkpt>
      <trkpt lat="50.5745" lon="3.30691">
        <ele>45.964588</ele>
        <time>2018-11-06T12:50:32Z</time>
      </trkpt>
      <trkpt lat="50.57446" lon="3.30677">
        <ele>46.057396</ele>
        <time>2018-11-06T12:50:34Z</time>
      </trkpt>
      <trkpt lat="50.57442" lon="3.30663">
        <ele>46.106918</ele>
        <time>2018-11-06T12:50:36Z</time>
      </trkpt>
      <trkpt lat="50.57438" lon="3.30649">
        <ele>46.178692</ele>
        <time>2018-11-06T12:50:38Z</time>
      </trkpt>
      <trkpt lat="50.57435" lon="3.30634">
        <ele>46.218338</ele>
        <time>2018-11-06T12:50:40Z</time>
      </trkpt>
      <trkpt lat="50.57434" lon="3.30619">
        <ele>46.288857</ele>
        <time>2018-11-06T12:50:42Z</time>
      </trkpt>
      <trkpt lat="50.57434" lon="3.30604">
        <ele>46.357662</ele>
        <time>2018-11-06T12:50:44Z</time>
      </trkpt>
      <trkpt lat="50.57435" lon="3.30589">
        <ele>46.434227</ele>
        <time>2018-11-06T12:50:46Z</time>
      </trkpt>
      <trkpt lat="50.57436" lon="3.30574">
        <ele>46.446144</ele>
        <time>2018-11-06T12:50:48Z</time>
      </trkpt>
      <trkpt lat="50.57438" lon="3.30559">
        <ele>46.539055</ele>
        <time>2018-11-06T12:50:50Z</time>
      </trkpt>
      <trkpt lat="50.57439" lon="3.30546">
        <ele>46.561119</ele>
        <time>2018-11-06T12:50:52Z</time>
      </trkpt>
      <trkpt lat="50.57441" lon="3.30534">
        <ele>46.655388</ele>
        <time>2018-11-06T12:50:54Z</time>
      </trkpt>
      <trkpt lat="50.57442" lon="3.30523">
        <ele>46.731911</ele>
        <time>2018-11-06T12:50:56Z</time>
      </trkpt>
      <trkpt lat="50.57447" lon="3.30517">
        <ele>46.826916</ele>
        <time>2018-11-06T12:50:58Z</time>
      </trkpt>
      <trkpt lat="50.57454" lon="3.30516">
        <ele>46.893303</ele>
        <time>2018-11-06T12:51:00Z</time>
      </trkpt>
      <trkpt lat="50.57464" lon="3.30519">
        <ele>46.942375</ele>
        <time>2018-11-06T12:51:02Z</time>
      </trkpt>
      <trkpt lat="50.57473" lon="3.30521">
        <ele>47.025917</ele>
        <time>2018-11-06T12:51:04Z</time>
      </trkpt>
      <trkpt lat="50.57484" lon="3.30523">
        <ele>47.081253</ele>
        <time>2018-11-06T12:51:06Z</time>
      </trkpt>
      <trkpt lat="50.57494" lon="3.30524">
        <ele>47.145016</ele>
        <time>2018-11-06T12:51:08Z</time>
      </trkpt>
      <trkpt lat="50.57504" lon="3.30525">
        <ele>47.236397</ele>
        <time>2018-11-06T12:51:10Z</time>
      </trkpt>
      <trkpt lat="50.57514" lon="3.30527">
        <ele>47.294376</ele>
        <time>2018-11-06T12:51:12Z</time>
      </trkpt>
      <trkpt lat="50.57524" lon="3.30529">
        <ele>47.344658</ele>
        <time>2018-11-06T12:51:14Z</time>
      </trkpt>
      <trkpt lat="50.57534" lon="3.3053">
        <ele>47.398708</ele>
        <time>2018-11-06T12:51:16Z</time>
      </trkpt>
      <trkpt lat="50.57544" lon="3.3053">
        <ele>47.429214</ele>
        <time>2018-11-06T12:51:18Z</time>
      </trkpt>
      <trkpt lat="50.57554" lon="3.30531">
        <ele>47.464573</ele>
        <time>2018-11-06T12:51:20Z</time>
      </trkpt>
      <trkpt lat="50.57563" lon="3.30531">
        <ele>47.52438</ele>
        <time>2018-11-06T12:51:22Z</time>
      </trkpt>
      <trkpt lat="50.57573" lon="3.3053">
        <ele>47.511787</ele>
        <time>2018-11-06T12:51:24Z</time>
      </trkpt>
      <trkpt lat="50.57583" lon="3.3053">
        <ele>47.557556</ele>
        <time>2018-11-06T12:51:26Z</time>
      </trkpt>
      <trkpt lat="50.57592" lon="3.30529">
        <ele>47.590458</ele>
        <time>2018-11-06T12:51:28Z</time>
      </trkpt>
      <trkpt lat="50.57601" lon="3.30529">
        <ele>47.642506</ele>
        <time>2018-11-06T12:51:30Z</time>
      </trkpt>
      <trkpt lat="50.5761" lon="3.30528">
        <ele>47.682762</ele>
        <time>2018-11-06T12:51:32Z</time>
      </trkpt>
      <trkpt lat="50.57619" lon="3.30527">
        <ele>47.719669</ele>
        <time>2018-11-06T12:51:34Z</time>
      </trkpt>
      <trkpt lat="50.57628" lon="3.30526">
        <ele>47.721745</ele>
        <time>2018-11-06T12:51:36Z</time>
      </trkpt>
      <trkpt lat="50.57637" lon="3.30526">
        <ele>47.765709</ele>
        <time>2018-11-06T12:51:38Z</time>
      </trkpt>
      <trkpt lat="50.57645" lon="3.30525">
        <ele>47.783741</ele>
        <time>2018-11-06T12:51:40Z</time>
      </trkpt>
      <trkpt lat="50.57655" lon="3.30524">
        <ele>47.864906</ele>
        <time>2018-11-06T12:51:42Z</time>
      </trkpt>
      <trkpt lat="50.57665" lon="3.30524">
        <ele>47.891048</ele>
        <time>2018-11-06T12:51:44Z</time>
      </trkpt>
      <trkpt lat="50.57674" lon="3.30523">
        <ele>47.961441</ele>
        <time>2018-11-06T12:51:46Z</time>
      </trkpt>
      <trkpt lat="50.57684" lon="3.30522">
        <ele>48.015251</ele>
        <time>2018-11-06T12:51:48Z</time>
      </trkpt>
      <trkpt lat="50.57694" lon="3.30521">
        <ele>48.057106</ele>
        <time>2018-11-06T12:51:50Z</time>
      </trkpt>
      <trkpt lat="50.57703" lon="3.3052">
        <ele>48.08596</ele>
        <time>2018-11-06T12:51:52Z</time>
      </trkpt>
      <trkpt lat="50.57713" lon="3.3052">
        <ele>48.182915</ele>
        <time>2018-11-06T12:51:54Z</time>
      </trkpt>
      <trkpt lat="50.57723" lon="3.30519">
        <ele>48.239174</ele>
        <time>2018-11-06T12:51:56Z</time>
      </trkpt>
      <trkpt lat="50.57732" lon="3.30518">
        <ele>48.293682</ele>
        <time>2018-11-06T12:51:58Z</time>
      </trkpt>
      <trkpt lat="50.57742" lon="3.30517">
        <ele>48.401482</ele>
        <time>2018-11-06T12:52:00Z</time>
      </trkpt>
      <trkpt lat="50.57752" lon="3.30517">
        <ele>48.442833</ele>
        <time>2018-11-06T12:52:02Z</time>
      </trkpt>
      <trkpt lat="50.57761" lon="3.30516">
        <ele>48.57233</ele>
        <time>2018-11-06T12:52:04Z</time>
      </trkpt>
      <trkpt lat="50.57771" lon="3.30515">
        <ele>48.71703</ele>
        <time>2018-11-06T12:52:06Z</time>
      </trkpt>
      <trkpt lat="50.57781" lon="3.30514">
        <ele>48.878723</ele>
        <time>2018-11-06T12:52:08Z</time>
      </trkpt>
      <trkpt lat="50.5779" lon="3.30513">
        <ele>48.970951</ele>
        <time>2018-11-06T12:52:10Z</time>
      </trkpt>
      <trkpt lat="50.578" lon="3.30512">
        <ele>49.015656</ele>
        <time>2018-11-06T12:52:12Z</time>
      </trkpt>
      <trkpt lat="50.57809" lon="3.30511">
        <ele>49.072735</ele>
        <time>2018-11-06T12:52:14Z</time>
      </trkpt>
      <trkpt lat="50.57819" lon="3.30508">
        <ele>49.162388</ele>
        <time>2018-11-06T12:52:16Z</time>
      </trkpt>
      <trkpt lat="50.57828" lon="3.30506">
        <ele>49.190651</ele>
        <time>2018-11-06T12:52:18Z</time>
      </trkpt>
      <trkpt lat="50.57837" lon="3.30503">
        <ele>49.260983</ele>
        <time>2018-11-06T12:52:20Z</time>
      </trkpt>
      <trkpt lat="50.57847" lon="3.30498">
        <ele>49.390545</ele>
        <time>2018-11-06T12:52:22Z</time>
      </trkpt>
      <trkpt lat="50.57856" lon="3.30493">
        <ele>49.46669</ele>
        <time>2018-11-06T12:52:24Z</time>
      </trkpt>
      <trkpt lat="50.57865" lon="3.30487">
        <ele>49.616596</ele>
        <time>2018-11-06T12:52:26Z</time>
      </trkpt>
      <trkpt lat="50.57874" lon="3.30481">
        <ele>49.700081</ele>
        <time>2018-11-06T12:52:28Z</time>
      </trkpt>
      <trkpt lat="50.57882" lon="3.30474">
        <ele>49.839806</ele>
        <time>2018-11-06T12:52:30Z</time>
      </trkpt>
      <trkpt lat="50.57891" lon="3.30467">
        <ele>49.978039</ele>
        <time>2018-11-06T12:52:32Z</time>
      </trkpt>
      <trkpt lat="50.579" lon="3.3046">
        <ele>50.159294</ele>
        <time>2018-11-06T12:52:34Z</time>
      </trkpt>
      <trkpt lat="50.57909" lon="3.30453">
        <ele>50.261181</ele>
        <time>2018-11-06T12:52:36Z</time>
      </trkpt>
      <trkpt lat="50.57918" lon="3.30446">
        <ele>50.373482</ele>
        <time>2018-11-06T12:52:38Z</time>
      </trkpt>
      <trkpt lat="50.57926" lon="3.30441">
        <ele>50.435841</ele>
        <time>2018-11-06T12:52:40Z</time>
      </trkpt>
      <trkpt lat="50.57934" lon="3.30434">
        <ele>50.485634</ele>
        <time>2018-11-06T12:52:42Z</time>
      </trkpt>
      <trkpt lat="50.57943" lon="3.30428">
        <ele>50.56002</ele>
        <time>2018-11-06T12:52:44Z</time>
      </trkpt>
      <trkpt lat="50.57951" lon="3.30422">
        <ele>50.549934</ele>
        <time>2018-11-06T12:52:46Z</time>
      </trkpt>
      <trkpt lat="50.57959" lon="3.30415">
        <ele>50.624165</ele>
        <time>2018-11-06T12:52:48Z</time>
      </trkpt>
      <trkpt lat="50.57967" lon="3.30409">
        <ele>50.710419</ele>
        <time>2018-11-06T12:52:50Z</time>
      </trkpt>
      <trkpt lat="50.57975" lon="3.30403">
        <ele>50.833862</ele>
        <time>2018-11-06T12:52:52Z</time>
      </trkpt>
      <trkpt lat="50.57983" lon="3.30397">
        <ele>50.894966</ele>
        <time>2018-11-06T12:52:54Z</time>
      </trkpt>
      <trkpt lat="50.57992" lon="3.3039">
        <ele>50.993237</ele>
        <time>2018-11-06T12:52:56Z</time>
      </trkpt>
      <trkpt lat="50.58" lon="3.30384">
        <ele>51.083626</ele>
        <time>2018-11-06T12:52:58Z</time>
      </trkpt>
      <trkpt lat="50.58009" lon="3.30377">
        <ele>51.223938</ele>
        <time>2018-11-06T12:53:00Z</time>
      </trkpt>
      <trkpt lat="50.58017" lon="3.30371">
        <ele>51.305779</ele>
        <time>2018-11-06T12:53:02Z</time>
      </trkpt>
      <trkpt lat="50.58025" lon="3.30364">
        <ele>51.330914</ele>
        <time>2018-11-06T12:53:04Z</time>
      </trkpt>
      <trkpt lat="50.58033" lon="3.30358">
        <ele>51.394043</ele>
        <time>2018-11-06T12:53:06Z</time>
      </trkpt>
      <trkpt lat="50.58042" lon="3.30351">
        <ele>51.41695</ele>
        <time>2018-11-06T12:53:08Z</time>
      </trkpt>
      <trkpt lat="50.58051" lon="3.30344">
        <ele>51.449451</ele>
        <time>2018-11-06T12:53:10Z</time>
      </trkpt>
      <trkpt lat="50.58059" lon="3.30337">
        <ele>51.479797</ele>
        <time>2018-11-06T12:53:12Z</time>
      </trkpt>
      <trkpt lat="50.58068" lon="3.3033">
        <ele>51.458546</ele>
        <time>2018-11-06T12:53:14Z</time>
      </trkpt>
      <trkpt lat="50.58077" lon="3.30324">
        <ele>51.4813</ele>
        <time>2018-11-06T12:53:16Z</time>
      </trkpt>
      <trkpt lat="50.58086" lon="3.30317">
        <ele>51.530926</ele>
        <time>2018-11-06T12:53:18Z</time>
      </trkpt>
      <trkpt lat="50.58094" lon="3.3031">
        <ele>51.632805</ele>
        <time>2018-11-06T12:53:20Z</time>
      </trkpt>
      <trkpt lat="50.58103" lon="3.30303">
        <ele>51.802345</ele>
        <time>2018-11-06T12:53:22Z</time>
      </trkpt>
      <trkpt lat="50.58112" lon="3.30296">
        <ele>51.93914</ele>
        <time>2018-11-06T12:53:24Z</time>
      </trkpt>
      <trkpt lat="50.58121" lon="3.30289">
        <ele>52.040459</ele>
        <time>2018-11-06T12:53:26Z</time>
      </trkpt>
      <trkpt lat="50.5813" lon="3.30282">
        <ele>52.102215</ele>
        <time>2018-11-06T12:53:28Z</time>
      </trkpt>
      <trkpt lat="50.58139" lon="3.30275">
        <ele>52.139992</ele>
        <time>2018-11-06T12:53:30Z</time>
      </trkpt>
      <trkpt lat="50.58147" lon="3.30268">
        <ele>52.180885</ele>
        <time>2018-11-06T12:53:32Z</time>
      </trkpt>
      <trkpt lat="50.58156" lon="3.30261">
        <ele>52.193764</ele>
        <time>2018-11-06T12:53:34Z</time>
      </trkpt>
      <trkpt lat="50.58165" lon="3.30254">
        <ele>52.2687</ele>
        <time>2018-11-06T12:53:36Z</time>
      </trkpt>
      <trkpt lat="50.58173" lon="3.30247">
        <ele>52.345146</ele>
        <time>2018-11-06T12:53:38Z</time>
      </trkpt>
      <trkpt lat="50.58182" lon="3.3024">
        <ele>52.425667</ele>
        <time>2018-11-06T12:53:40Z</time>
      </trkpt>
      <trkpt lat="50.58191" lon="3.30234">
        <ele>52.454185</ele>
        <time>2018-11-06T12:53:42Z</time>
      </trkpt>
      <trkpt lat="50.58199" lon="3.30227">
        <ele>52.563042</ele>
        <time>2018-11-06T12:53:44Z</time>
      </trkpt>
      <trkpt lat="50.58208" lon="3.3022">
        <ele>52.629467</ele>
        <time>2018-11-06T12:53:46Z</time>
      </trkpt>
      <trkpt lat="50.58217" lon="3.30214">
        <ele>52.775673</ele>
        <time>2018-11-06T12:53:48Z</time>
      </trkpt>
      <trkpt lat="50.58225" lon="3.30207">
        <ele>52.90276</ele>
        <time>2018-11-06T12:53:50Z</time>
      </trkpt>
      <trkpt lat="50.58234" lon="3.302">
        <ele>53.036633</ele>
        <time>2018-11-06T12:53:52Z</time>
      </trkpt>
      <trkpt lat="50.58243" lon="3.30193">
        <ele>53.134529</ele>
        <time>2018-11-06T12:53:54Z</time>
      </trkpt>
      <trkpt lat="50.58252" lon="3.30186">
        <ele>53.193901</ele>
        <time>2018-11-06T12:53:56Z</time>
      </trkpt>
      <trkpt lat="50.58261" lon="3.30179">
        <ele>53.29311</ele>
        <time>2018-11-06T12:53:58Z</time>
      </trkpt>
      <trkpt lat="50.5827" lon="3.30172">
        <ele>53.360161</ele>
        <time>2018-11-06T12:54:00Z</time>
      </trkpt>
      <trkpt lat="50.58279" lon="3.30165">
        <ele>53.358418</ele>
        <time>2018-11-06T12:54:02Z</time>
      </trkpt>
      <trkpt lat="50.58287" lon="3.30158">
        <ele>53.370819</ele>
        <time>2018-11-06T12:54:04Z</time>
      </trkpt>
      <trkpt lat="50.58296" lon="3.30152">
        <ele>53.432259</ele>
        <time>2018-11-06T12:54:06Z</time>
      </trkpt>
      <trkpt lat="50.58304" lon="3.30145">
        <ele>53.467609</ele>
        <time>2018-11-06T12:54:08Z</time>
      </trkpt>
      <trkpt lat="50.58313" lon="3.30138">
        <ele>53.487518</ele>
        <time>2018-11-06T12:54:10Z</time>
      </trkpt>
      <trkpt lat="50.58322" lon="3.30132">
        <ele>53.597797</ele>
        <time>2018-11-06T12:54:12Z</time>
      </trkpt>
      <trkpt lat="50.58331" lon="3.30125">
        <ele>53.736107</ele>
        <time>2018-11-06T12:54:14Z</time>
      </trkpt>
      <trkpt lat="50.58339" lon="3.30118">
        <ele>53.79895</ele>
        <time>2018-11-06T12:54:16Z</time>
      </trkpt>
      <trkpt lat="50.58347" lon="3.30111">
        <ele>53.862865</ele>
        <time>2018-11-06T12:54:18Z</time>
      </trkpt>
      <trkpt lat="50.58356" lon="3.30105">
        <ele>53.938332</ele>
        <time>2018-11-06T12:54:20Z</time>
      </trkpt>
      <trkpt lat="50.58365" lon="3.30098">
        <ele>53.995106</ele>
        <time>2018-11-06T12:54:22Z</time>
      </trkpt>
      <trkpt lat="50.58374" lon="3.30091">
        <ele>54.084034</ele>
        <time>2018-11-06T12:54:24Z</time>
      </trkpt>
      <trkpt lat="50.58382" lon="3.30085">
        <ele>54.136047</ele>
        <time>2018-11-06T12:54:26Z</time>
      </trkpt>
      <trkpt lat="50.58391" lon="3.30078">
        <ele>54.187988</ele>
        <time>2018-11-06T12:54:28Z</time>
      </trkpt>
      <trkpt lat="50.584" lon="3.30071">
        <ele>54.250786</ele>
        <time>2018-11-06T12:54:30Z</time>
      </trkpt>
      <trkpt lat="50.58408" lon="3.30064">
        <ele>54.3274</ele>
        <time>2018-11-06T12:54:32Z</time>
      </trkpt>
      <trkpt lat="50.58417" lon="3.30058">
        <ele>54.385052</ele>
        <time>2018-11-06T12:54:34Z</time>
      </trkpt>
      <trkpt lat="50.58426" lon="3.30051">
        <ele>54.457039</ele>
        <time>2018-11-06T12:54:36Z</time>
      </trkpt>
      <trkpt lat="50.58434" lon="3.30044">
        <ele>54.501884</ele>
        <time>2018-11-06T12:54:38Z</time>
      </trkpt>
      <trkpt lat="50.58443" lon="3.30037">
        <ele>54.564323</ele>
        <time>2018-11-06T12:54:40Z</time>
      </trkpt>
      <trkpt lat="50.58451" lon="3.30031">
        <ele>54.631115</ele>
        <time>2018-11-06T12:54:42Z</time>
      </trkpt>
      <trkpt lat="50.5846" lon="3.30024">
        <ele>54.729328</ele>
        <time>2018-11-06T12:54:44Z</time>
      </trkpt>
      <trkpt lat="50.58469" lon="3.30017">
        <ele>54.760876</ele>
        <time>2018-11-06T12:54:46Z</time>
      </trkpt>
      <trkpt lat="50.58477" lon="3.3001">
        <ele>54.852592</ele>
        <time>2018-11-06T12:54:48Z</time>
      </trkpt>
      <trkpt lat="50.58486" lon="3.30003">
        <ele>55.013538</ele>
        <time>2018-11-06T12:54:50Z</time>
      </trkpt>
      <trkpt lat="50.58495" lon="3.29996">
        <ele>55.105644</ele>
        <time>2018-11-06T12:54:52Z</time>
      </trkpt>
      <trkpt lat="50.58503" lon="3.2999">
        <ele>55.171852</ele>
        <time>2018-11-06T12:54:54Z</time>
      </trkpt>
      <trkpt lat="50.58512" lon="3.29983">
        <ele>55.164448</ele>
        <time>2018-11-06T12:54:56Z</time>
      </trkpt>
      <trkpt lat="50.58521" lon="3.29976">
        <ele>55.233406</ele>
        <time>2018-11-06T12:54:58Z</time>
      </trkpt>
      <trkpt lat="50.58529" lon="3.29969">
        <ele>55.344139</ele>
        <time>2018-11-06T12:55:00Z</time>
      </trkpt>
      <trkpt lat="50.58537" lon="3.29963">
        <ele>55.45628</ele>
        <time>2018-11-06T12:55:02Z</time>
      </trkpt>
      <trkpt lat="50.58546" lon="3.29957">
        <ele>55.539234</ele>
        <time>2018-11-06T12:55:04Z</time>
      </trkpt>
      <trkpt lat="50.58555" lon="3.2995">
        <ele>55.623383</ele>
        <time>2018-11-06T12:55:06Z</time>
      </trkpt>
      <trkpt lat="50.58563" lon="3.29943">
        <ele>55.737343</ele>
        <time>2018-11-06T12:55:08Z</time>
      </trkpt>
      <trkpt lat="50.58572" lon="3.29937">
        <ele>55.84264</ele>
        <time>2018-11-06T12:55:10Z</time>
      </trkpt>
      <trkpt lat="50.5858" lon="3.2993">
        <ele>55.901459</ele>
        <time>2018-11-06T12:55:12Z</time>
      </trkpt>
      <trkpt lat="50.58589" lon="3.29923">
        <ele>55.987663</ele>
        <time>2018-11-06T12:55:14Z</time>
      </trkpt>
      <trkpt lat="50.58597" lon="3.29916">
        <ele>56.084545</ele>
        <time>2018-11-06T12:55:16Z</time>
      </trkpt>
      <trkpt lat="50.58606" lon="3.29909">
        <ele>56.22271</ele>
        <time>2018-11-06T12:55:18Z</time>
      </trkpt>
      <trkpt lat="50.58614" lon="3.29902">
        <ele>56.316875</ele>
        <time>2018-11-06T12:55:20Z</time>
      </trkpt>
      <trkpt lat="50.58622" lon="3.29894">
        <ele>56.44408</ele>
        <time>2018-11-06T12:55:22Z</time>
      </trkpt>
      <trkpt lat="50.5863" lon="3.29886">
        <ele>56.591438</ele>
        <time>2018-11-06T12:55:24Z</time>
      </trkpt>
      <trkpt lat="50.58638" lon="3.29877">
        <ele>56.611828</ele>
        <time>2018-11-06T12:55:26Z</time>
      </trkpt>
      <trkpt lat="50.58646" lon="3.29869">
        <ele>56.71574</ele>
        <time>2018-11-06T12:55:28Z</time>
      </trkpt>
      <trkpt lat="50.58654" lon="3.2986">
        <ele>56.839241</ele>
        <time>2018-11-06T12:55:30Z</time>
      </trkpt>
      <trkpt lat="50.58662" lon="3.2985">
        <ele>56.939342</ele>
        <time>2018-11-06T12:55:32Z</time>
      </trkpt>
      <trkpt lat="50.58669" lon="3.2984">
        <ele>57.056202</ele>
        <time>2018-11-06T12:55:34Z</time>
      </trkpt>
      <trkpt lat="50.58676" lon="3.2983">
        <ele>57.193745</ele>
        <time>2018-11-06T12:55:36Z</time>
      </trkpt>
      <trkpt lat="50.58683" lon="3.2982">
        <ele>57.288025</ele>
        <time>2018-11-06T12:55:38Z</time>
      </trkpt>
      <trkpt lat="50.5869" lon="3.29809">
        <ele>57.382782</ele>
        <time>2018-11-06T12:55:40Z</time>
      </trkpt>
      <trkpt lat="50.58697" lon="3.29798">
        <ele>57.465809</ele>
        <time>2018-11-06T12:55:42Z</time>
      </trkpt>
      <trkpt lat="50.58704" lon="3.29786">
        <ele>57.535309</ele>
        <time>2018-11-06T12:55:44Z</time>
      </trkpt>
      <trkpt lat="50.5871" lon="3.29775">
        <ele>57.605358</ele>
        <time>2018-11-06T12:55:46Z</time>
      </trkpt>
      <trkpt lat="50.58716" lon="3.29763">
        <ele>57.685921</ele>
        <time>2018-11-06T12:55:48Z</time>
      </trkpt>
      <trkpt lat="50.58722" lon="3.29751">
        <ele>57.752983</ele>
        <time>2018-11-06T12:55:50Z</time>
      </trkpt>
      <trkpt lat="50.58728" lon="3.29739">
        <ele>57.811565</ele>
        <time>2018-11-06T12:55:52Z</time>
      </trkpt>
      <trkpt lat="50.58733" lon="3.29728">
        <ele>57.941765</ele>
        <time>2018-11-06T12:55:54Z</time>
      </trkpt>
      <trkpt lat="50.58738" lon="3.29715">
        <ele>58.080147</ele>
        <time>2018-11-06T12:55:56Z</time>
      </trkpt>
      <trkpt lat="50.58743" lon="3.29702">
        <ele>58.207764</ele>
        <time>2018-11-06T12:55:58Z</time>
      </trkpt>
      <trkpt lat="50.58748" lon="3.29689">
        <ele>58.342052</ele>
        <time>2018-11-06T12:56:00Z</time>
      </trkpt>
      <trkpt lat="50.58753" lon="3.29676">
        <ele>58.485737</ele>
        <time>2018-11-06T12:56:02Z</time>
      </trkpt>
      <trkpt lat="50.58757" lon="3.29662">
        <ele>58.640556</ele>
        <time>2018-11-06T12:56:04Z</time>
      </trkpt>
      <trkpt lat="50.58762" lon="3.29648">
        <ele>58.761604</ele>
        <time>2018-11-06T12:56:06Z</time>
      </trkpt>
      <trkpt lat="50.58765" lon="3.29634">
        <ele>58.93055</ele>
        <time>2018-11-06T12:56:08Z</time>
      </trkpt>
      <trkpt lat="50.58769" lon="3.2962">
        <ele>58.995014</ele>
        <time>2018-11-06T12:56:10Z</time>
      </trkpt>
      <trkpt lat="50.58773" lon="3.29606">
        <ele>59.057823</ele>
        <time>2018-11-06T12:56:12Z</time>
      </trkpt>
      <trkpt lat="50.58777" lon="3.29593">
        <ele>59.177479</ele>
        <time>2018-11-06T12:56:14Z</time>
      </trkpt>
      <trkpt lat="50.5878" lon="3.29579">
        <ele>59.287605</ele>
        <time>2018-11-06T12:56:16Z</time>
      </trkpt>
      <trkpt lat="50.58783" lon="3.29565">
        <ele>59.425819</ele>
        <time>2018-11-06T12:56:18Z</time>
      </trkpt>
      <trkpt lat="50.58787" lon="3.29551">
        <ele>59.594501</ele>
        <time>2018-11-06T12:56:20Z</time>
      </trkpt>
      <trkpt lat="50.58791" lon="3.29538">
        <ele>59.798828</ele>
        <time>2018-11-06T12:56:22Z</time>
      </trkpt>
      <trkpt lat="50.58795" lon="3.29524">
        <ele>59.956169</ele>
        <time>2018-11-06T12:56:24Z</time>
      </trkpt>
      <trkpt lat="50.58798" lon="3.2951">
        <ele>60.122761</ele>
        <time>2018-11-06T12:56:26Z</time>
      </trkpt>
      <trkpt lat="50.58802" lon="3.29495">
        <ele>60.269421</ele>
        <time>2018-11-06T12:56:28Z</time>
      </trkpt>
      <trkpt lat="50.58806" lon="3.29481">
        <ele>60.421936</ele>
        <time>2018-11-06T12:56:30Z</time>
      </trkpt>
      <trkpt lat="50.58809" lon="3.29467">
        <ele>60.582214</ele>
        <time>2018-11-06T12:56:32Z</time>
      </trkpt>
      <trkpt lat="50.58812" lon="3.29453">
        <ele>60.763153</ele>
        <time>2018-11-06T12:56:34Z</time>
      </trkpt>
      <trkpt lat="50.58816" lon="3.29439">
        <ele>60.844841</ele>
        <time>2018-11-06T12:56:36Z</time>
      </trkpt>
      <trkpt lat="50.5882" lon="3.29425">
        <ele>60.887592</ele>
        <time>2018-11-06T12:56:38Z</time>
      </trkpt>
      <trkpt lat="50.58824" lon="3.29411">
        <ele>61.000103</ele>
        <time>2018-11-06T12:56:40Z</time>
      </trkpt>
      <trkpt lat="50.58828" lon="3.29397">
        <ele>61.108196</ele>
        <time>2018-11-06T12:56:42Z</time>
      </trkpt>
      <trkpt lat="50.58831" lon="3.29383">
        <ele>61.159283</ele>
        <time>2018-11-06T12:56:44Z</time>
      </trkpt>
      <trkpt lat="50.58835" lon="3.29369">
        <ele>61.201557</ele>
        <time>2018-11-06T12:56:46Z</time>
      </trkpt>
      <trkpt lat="50.58839" lon="3.29355">
        <ele>61.241508</ele>
        <time>2018-11-06T12:56:48Z</time>
      </trkpt>
      <trkpt lat="50.58843" lon="3.29341">
        <ele>61.293877</ele>
        <time>2018-11-06T12:56:50Z</time>
      </trkpt>
      <trkpt lat="50.58847" lon="3.29328">
        <ele>61.431999</ele>
        <time>2018-11-06T12:56:52Z</time>
      </trkpt>
      <trkpt lat="50.58851" lon="3.29315">
        <ele>61.491169</ele>
        <time>2018-11-06T12:56:54Z</time>
      </trkpt>
      <trkpt lat="50.58856" lon="3.29302">
        <ele>61.578217</ele>
        <time>2018-11-06T12:56:56Z</time>
      </trkpt>
      <trkpt lat="50.58861" lon="3.29291">
        <ele>61.681267</ele>
        <time>2018-11-06T12:56:58Z</time>
      </trkpt>
      <trkpt lat="50.58867" lon="3.29279">
        <ele>61.76767</ele>
        <time>2018-11-06T12:57:00Z</time>
      </trkpt>
      <trkpt lat="50.58873" lon="3.29268">
        <ele>61.858269</ele>
        <time>2018-11-06T12:57:02Z</time>
      </trkpt>
      <trkpt lat="50.5888" lon="3.29257">
        <ele>61.935005</ele>
        <time>2018-11-06T12:57:04Z</time>
      </trkpt>
      <trkpt lat="50.58886" lon="3.29248">
        <ele>62.080986</ele>
        <time>2018-11-06T12:57:06Z</time>
      </trkpt>
      <trkpt lat="50.58893" lon="3.29238">
        <ele>62.210247</ele>
        <time>2018-11-06T12:57:08Z</time>
      </trkpt>
      <trkpt lat="50.58901" lon="3.2923">
        <ele>62.341621</ele>
        <time>2018-11-06T12:57:10Z</time>
      </trkpt>
      <trkpt lat="50.58908" lon="3.29221">
        <ele>62.477875</ele>
        <time>2018-11-06T12:57:12Z</time>
      </trkpt>
      <trkpt lat="50.58915" lon="3.29214">
        <ele>62.597332</ele>
        <time>2018-11-06T12:57:14Z</time>
      </trkpt>
      <trkpt lat="50.58924" lon="3.29207">
        <ele>62.716377</ele>
        <time>2018-11-06T12:57:16Z</time>
      </trkpt>
      <trkpt lat="50.58932" lon="3.29202">
        <ele>62.8424</ele>
        <time>2018-11-06T12:57:18Z</time>
      </trkpt>
      <trkpt lat="50.5894" lon="3.29196">
        <ele>62.952599</ele>
        <time>2018-11-06T12:57:20Z</time>
      </trkpt>
      <trkpt lat="50.58948" lon="3.29192">
        <ele>63.026085</ele>
        <time>2018-11-06T12:57:22Z</time>
      </trkpt>
      <trkpt lat="50.58957" lon="3.29188">
        <ele>63.135284</ele>
        <time>2018-11-06T12:57:24Z</time>
      </trkpt>
      <trkpt lat="50.58966" lon="3.29185">
        <ele>63.2771</ele>
        <time>2018-11-06T12:57:26Z</time>
      </trkpt>
      <trkpt lat="50.58975" lon="3.29182">
        <ele>63.482933</ele>
        <time>2018-11-06T12:57:28Z</time>
      </trkpt>
      <trkpt lat="50.58983" lon="3.2918">
        <ele>63.639488</ele>
        <time>2018-11-06T12:57:30Z</time>
      </trkpt>
      <trkpt lat="50.58992" lon="3.29179">
        <ele>63.811653</ele>
        <time>2018-11-06T12:57:32Z</time>
      </trkpt>
      <trkpt lat="50.59001" lon="3.29178">
        <ele>64.018265</ele>
        <time>2018-11-06T12:57:34Z</time>
      </trkpt>
      <trkpt lat="50.5901" lon="3.29178">
        <ele>64.19545</ele>
        <time>2018-11-06T12:57:36Z</time>
      </trkpt>
      <trkpt lat="50.59019" lon="3.29179">
        <ele>64.381516</ele>
        <time>2018-11-06T12:57:38Z</time>
      </trkpt>
      <trkpt lat="50.59028" lon="3.2918">
        <ele>64.471992</ele>
        <time>2018-11-06T12:57:40Z</time>
      </trkpt>
      <trkpt lat="50.59037" lon="3.29182">
        <ele>64.6605</ele>
        <time>2018-11-06T12:57:42Z</time>
      </trkpt>
      <trkpt lat="50.59045" lon="3.29185">
        <ele>64.718979</ele>
        <time>2018-11-06T12:57:44Z</time>
      </trkpt>
      <trkpt lat="50.59054" lon="3.29188">
        <ele>64.85318</ele>
        <time>2018-11-06T12:57:46Z</time>
      </trkpt>
      <trkpt lat="50.59063" lon="3.29191">
        <ele>64.991127</ele>
        <time>2018-11-06T12:57:48Z</time>
      </trkpt>
      <trkpt lat="50.59071" lon="3.29194">
        <ele>65.144165</ele>
        <time>2018-11-06T12:57:50Z</time>
      </trkpt>
      <trkpt lat="50.59081" lon="3.29197">
        <ele>65.304474</ele>
        <time>2018-11-06T12:57:52Z</time>
      </trkpt>
      <trkpt lat="50.59089" lon="3.29199">
        <ele>65.436096</ele>
        <time>2018-11-06T12:57:54Z</time>
      </trkpt>
      <trkpt lat="50.59098" lon="3.29202">
        <ele>65.626167</ele>
        <time>2018-11-06T12:57:56Z</time>
      </trkpt>
      <trkpt lat="50.59107" lon="3.29205">
        <ele>65.822983</ele>
        <time>2018-11-06T12:57:58Z</time>
      </trkpt>
      <trkpt lat="50.59115" lon="3.29208">
        <ele>66.093124</ele>
        <time>2018-11-06T12:58:00Z</time>
      </trkpt>
      <trkpt lat="50.59124" lon="3.2921">
        <ele>66.344284</ele>
        <time>2018-11-06T12:58:02Z</time>
      </trkpt>
      <trkpt lat="50.59132" lon="3.29213">
        <ele>66.600525</ele>
        <time>2018-11-06T12:58:04Z</time>
      </trkpt>
      <trkpt lat="50.59141" lon="3.29216">
        <ele>66.844765</ele>
        <time>2018-11-06T12:58:06Z</time>
      </trkpt>
      <trkpt lat="50.5915" lon="3.29219">
        <ele>67.088173</ele>
        <time>2018-11-06T12:58:08Z</time>
      </trkpt>
      <trkpt lat="50.59158" lon="3.29221">
        <ele>67.313255</ele>
        <time>2018-11-06T12:58:10Z</time>
      </trkpt>
      <trkpt lat="50.59167" lon="3.29224">
        <ele>67.56945</ele>
        <time>2018-11-06T12:58:12Z</time>
      </trkpt>
      <trkpt lat="50.59175" lon="3.29227">
        <ele>67.797775</ele>
        <time>2018-11-06T12:58:14Z</time>
      </trkpt>
      <trkpt lat="50.59184" lon="3.29229">
        <ele>67.959854</ele>
        <time>2018-11-06T12:58:16Z</time>
      </trkpt>
      <trkpt lat="50.59192" lon="3.29232">
        <ele>68.210648</ele>
        <time>2018-11-06T12:58:18Z</time>
      </trkpt>
      <trkpt lat="50.59201" lon="3.29235">
        <ele>68.51017</ele>
        <time>2018-11-06T12:58:20Z</time>
      </trkpt>
      <trkpt lat="50.59209" lon="3.29237">
        <ele>68.788956</ele>
        <time>2018-11-06T12:58:22Z</time>
      </trkpt>
      <trkpt lat="50.59218" lon="3.2924">
        <ele>69.082489</ele>
        <time>2018-11-06T12:58:24Z</time>
      </trkpt>
      <trkpt lat="50.59227" lon="3.29242">
        <ele>69.239243</ele>
        <time>2018-11-06T12:58:26Z</time>
      </trkpt>
      <trkpt lat="50.59235" lon="3.29245">
        <ele>69.579857</ele>
        <time>2018-11-06T12:58:28Z</time>
      </trkpt>
      <trkpt lat="50.59243" lon="3.29248">
        <ele>69.89122</ele>
        <time>2018-11-06T12:58:30Z</time>
      </trkpt>
      <trkpt lat="50.59252" lon="3.2925">
        <ele>70.166924</ele>
        <time>2018-11-06T12:58:32Z</time>
      </trkpt>
      <trkpt lat="50.59261" lon="3.29253">
        <ele>70.481598</ele>
        <time>2018-11-06T12:58:34Z</time>
      </trkpt>
      <trkpt lat="50.59269" lon="3.29256">
        <ele>70.803772</ele>
        <time>2018-11-06T12:58:36Z</time>
      </trkpt>
      <trkpt lat="50.59278" lon="3.29258">
        <ele>71.02269</ele>
        <time>2018-11-06T12:58:38Z</time>
      </trkpt>
      <trkpt lat="50.59288" lon="3.29257">
        <ele>71.226089</ele>
        <time>2018-11-06T12:58:40Z</time>
      </trkpt>
      <trkpt lat="50.59297" lon="3.29254">
        <ele>71.460983</ele>
        <time>2018-11-06T12:58:42Z</time>
      </trkpt>
      <trkpt lat="50.59306" lon="3.29247">
        <ele>71.68306</ele>
        <time>2018-11-06T12:58:44Z</time>
      </trkpt>
      <trkpt lat="50.59315" lon="3.2924">
        <ele>71.856529</ele>
        <time>2018-11-06T12:58:46Z</time>
      </trkpt>
      <trkpt lat="50.59323" lon="3.29232">
        <ele>72.050797</ele>
        <time>2018-11-06T12:58:48Z</time>
      </trkpt>
      <trkpt lat="50.59332" lon="3.29225">
        <ele>72.22966</ele>
        <time>2018-11-06T12:58:50Z</time>
      </trkpt>
      <trkpt lat="50.5934" lon="3.29217">
        <ele>72.414665</ele>
        <time>2018-11-06T12:58:52Z</time>
      </trkpt>
      <trkpt lat="50.59348" lon="3.29209">
        <ele>72.556396</ele>
        <time>2018-11-06T12:58:54Z</time>
      </trkpt>
      <trkpt lat="50.59355" lon="3.29201">
        <ele>72.777237</ele>
        <time>2018-11-06T12:58:56Z</time>
      </trkpt>
      <trkpt lat="50.59363" lon="3.29192">
        <ele>72.887268</ele>
        <time>2018-11-06T12:58:58Z</time>
      </trkpt>
      <trkpt lat="50.5937" lon="3.29183">
        <ele>73.070847</ele>
        <time>2018-11-06T12:59:00Z</time>
      </trkpt>
      <trkpt lat="50.59378" lon="3.29173">
        <ele>73.237427</ele>
        <time>2018-11-06T12:59:02Z</time>
      </trkpt>
      <trkpt lat="50.59385" lon="3.29163">
        <ele>73.352402</ele>
        <time>2018-11-06T12:59:04Z</time>
      </trkpt>
      <trkpt lat="50.59392" lon="3.29152">
        <ele>73.444168</ele>
        <time>2018-11-06T12:59:06Z</time>
      </trkpt>
      <trkpt lat="50.59399" lon="3.29141">
        <ele>73.499382</ele>
        <time>2018-11-06T12:59:08Z</time>
      </trkpt>
      <trkpt lat="50.59406" lon="3.29129">
        <ele>73.561615</ele>
        <time>2018-11-06T12:59:10Z</time>
      </trkpt>
      <trkpt lat="50.59412" lon="3.29117">
        <ele>73.579178</ele>
        <time>2018-11-06T12:59:12Z</time>
      </trkpt>
      <trkpt lat="50.59419" lon="3.29105">
        <ele>73.62561</ele>
        <time>2018-11-06T12:59:14Z</time>
      </trkpt>
      <trkpt lat="50.59426" lon="3.29092">
        <ele>73.671951</ele>
        <time>2018-11-06T12:59:16Z</time>
      </trkpt>
      <trkpt lat="50.59433" lon="3.2908">
        <ele>73.758232</ele>
        <time>2018-11-06T12:59:18Z</time>
      </trkpt>
      <trkpt lat="50.5944" lon="3.29068">
        <ele>73.780495</ele>
        <time>2018-11-06T12:59:20Z</time>
      </trkpt>
      <trkpt lat="50.59448" lon="3.29055">
        <ele>73.856979</ele>
        <time>2018-11-06T12:59:22Z</time>
      </trkpt>
      <trkpt lat="50.59457" lon="3.29044">
        <ele>73.879738</ele>
        <time>2018-11-06T12:59:24Z</time>
      </trkpt>
      <trkpt lat="50.59467" lon="3.29036">
        <ele>73.917664</ele>
        <time>2018-11-06T12:59:26Z</time>
      </trkpt>
      <trkpt lat="50.59479" lon="3.29032">
        <ele>73.926926</ele>
        <time>2018-11-06T12:59:28Z</time>
      </trkpt>
      <trkpt lat="50.59491" lon="3.29034">
        <ele>73.92244</ele>
        <time>2018-11-06T12:59:30Z</time>
      </trkpt>
      <trkpt lat="50.59502" lon="3.29039">
        <ele>73.870903</ele>
        <time>2018-11-06T12:59:32Z</time>
      </trkpt>
      <trkpt lat="50.59513" lon="3.29048">
        <ele>73.813805</ele>
        <time>2018-11-06T12:59:34Z</time>
      </trkpt>
      <trkpt lat="50.59523" lon="3.29059">
        <ele>73.689568</ele>
        <time>2018-11-06T12:59:36Z</time>
      </trkpt>
      <trkpt lat="50.59534" lon="3.29069">
        <ele>73.502602</ele>
        <time>2018-11-06T12:59:38Z</time>
      </trkpt>
      <trkpt lat="50.59545" lon="3.2908">
        <ele>73.339828</ele>
        <time>2018-11-06T12:59:40Z</time>
      </trkpt>
      <trkpt lat="50.59556" lon="3.2909">
        <ele>73.252762</ele>
        <time>2018-11-06T12:59:42Z</time>
      </trkpt>
      <trkpt lat="50.59568" lon="3.29101">
        <ele>73.008141</ele>
        <time>2018-11-06T12:59:44Z</time>
      </trkpt>
      <trkpt lat="50.59579" lon="3.29111">
        <ele>72.817062</ele>
        <time>2018-11-06T12:59:46Z</time>
      </trkpt>
      <trkpt lat="50.59591" lon="3.29123">
        <ele>72.591644</ele>
        <time>2018-11-06T12:59:48Z</time>
      </trkpt>
      <trkpt lat="50.59602" lon="3.29136">
        <ele>72.363922</ele>
        <time>2018-11-06T12:59:50Z</time>
      </trkpt>
      <trkpt lat="50.59613" lon="3.2915">
        <ele>72.113647</ele>
        <time>2018-11-06T12:59:52Z</time>
      </trkpt>
      <trkpt lat="50.59624" lon="3.29166">
        <ele>71.854019</ele>
        <time>2018-11-06T12:59:54Z</time>
      </trkpt>
      <trkpt lat="50.59633" lon="3.29182">
        <ele>71.600777</ele>
        <time>2018-11-06T12:59:56Z</time>
      </trkpt>
      <trkpt lat="50.59642" lon="3.29198">
        <ele>71.297417</ele>
        <time>2018-11-06T12:59:58Z</time>
      </trkpt>
      <trkpt lat="50.59652" lon="3.29214">
        <ele>71.038788</ele>
        <time>2018-11-06T13:00:00Z</time>
      </trkpt>
      <trkpt lat="50.59661" lon="3.29229">
        <ele>70.758644</ele>
        <time>2018-11-06T13:00:02Z</time>
      </trkpt>
      <trkpt lat="50.59673" lon="3.29242">
        <ele>70.38221</ele>
        <time>2018-11-06T13:00:04Z</time>
      </trkpt>
      <trkpt lat="50.59685" lon="3.29253">
        <ele>70.018326</ele>
        <time>2018-11-06T13:00:06Z</time>
      </trkpt>
      <trkpt lat="50.59699" lon="3.29262">
        <ele>69.692627</ele>
        <time>2018-11-06T13:00:08Z</time>
      </trkpt>
      <trkpt lat="50.59713" lon="3.29268">
        <ele>69.360374</ele>
        <time>2018-11-06T13:00:10Z</time>
      </trkpt>
      <trkpt lat="50.59728" lon="3.2927">
        <ele>68.964844</ele>
        <time>2018-11-06T13:00:12Z</time>
      </trkpt>
      <trkpt lat="50.59744" lon="3.29272">
        <ele>68.617905</ele>
        <time>2018-11-06T13:00:14Z</time>
      </trkpt>
      <trkpt lat="50.59758" lon="3.29272">
        <ele>68.212074</ele>
        <time>2018-11-06T13:00:16Z</time>
      </trkpt>
      <trkpt lat="50.59773" lon="3.29273">
        <ele>67.807495</ele>
        <time>2018-11-06T13:00:18Z</time>
      </trkpt>
      <trkpt lat="50.59789" lon="3.29271">
        <ele>67.355576</ele>
        <time>2018-11-06T13:00:20Z</time>
      </trkpt>
      <trkpt lat="50.59806" lon="3.29269">
        <ele>66.805992</ele>
        <time>2018-11-06T13:00:22Z</time>
      </trkpt>
      <trkpt lat="50.59824" lon="3.29265">
        <ele>66.361923</ele>
        <time>2018-11-06T13:00:24Z</time>
      </trkpt>
      <trkpt lat="50.59843" lon="3.29262">
        <ele>66.077538</ele>
        <time>2018-11-06T13:00:26Z</time>
      </trkpt>
      <trkpt lat="50.59861" lon="3.29258">
        <ele>65.588547</ele>
        <time>2018-11-06T13:00:28Z</time>
      </trkpt>
      <trkpt lat="50.5988" lon="3.29255">
        <ele>65.190063</ele>
        <time>2018-11-06T13:00:30Z</time>
      </trkpt>
      <trkpt lat="50.59897" lon="3.29252">
        <ele>64.675613</ele>
        <time>2018-11-06T13:00:32Z</time>
      </trkpt>
      <trkpt lat="50.59915" lon="3.29249">
        <ele>64.10817</ele>
        <time>2018-11-06T13:00:34Z</time>
      </trkpt>
      <trkpt lat="50.59934" lon="3.29246">
        <ele>63.608044</ele>
        <time>2018-11-06T13:00:36Z</time>
      </trkpt>
      <trkpt lat="50.59953" lon="3.29243">
        <ele>62.958965</ele>
        <time>2018-11-06T13:00:38Z</time>
      </trkpt>
      <trkpt lat="50.59973" lon="3.2924">
        <ele>62.227989</ele>
        <time>2018-11-06T13:00:40Z</time>
      </trkpt>
      <trkpt lat="50.59991" lon="3.29237">
        <ele>61.631828</ele>
        <time>2018-11-06T13:00:42Z</time>
      </trkpt>
      <trkpt lat="50.60008" lon="3.29234">
        <ele>60.934357</ele>
        <time>2018-11-06T13:00:44Z</time>
      </trkpt>
      <trkpt lat="50.60023" lon="3.29231">
        <ele>60.287239</ele>
        <time>2018-11-06T13:00:46Z</time>
      </trkpt>
      <trkpt lat="50.60037" lon="3.29228">
        <ele>59.573219</ele>
        <time>2018-11-06T13:00:48Z</time>
      </trkpt>
      <trkpt lat="50.60051" lon="3.29226">
        <ele>58.835106</ele>
        <time>2018-11-06T13:00:50Z</time>
      </trkpt>
      <trkpt lat="50.60062" lon="3.29223">
        <ele>58.48539</ele>
        <time>2018-11-06T13:00:52Z</time>
      </trkpt>
      <trkpt lat="50.6007" lon="3.29215">
        <ele>57.841938</ele>
        <time>2018-11-06T13:00:54Z</time>
      </trkpt>
      <trkpt lat="50.60075" lon="3.29203">
        <ele>57.134277</ele>
        <time>2018-11-06T13:00:56Z</time>
      </trkpt>
      <trkpt lat="50.60078" lon="3.29189">
        <ele>56.508919</ele>
        <time>2018-11-06T13:00:58Z</time>
      </trkpt>
      <trkpt lat="50.60078" lon="3.29174">
        <ele>55.939991</ele>
        <time>2018-11-06T13:01:00Z</time>
      </trkpt>
      <trkpt lat="50.60078" lon="3.29158">
        <ele>55.362225</ele>
        <time>2018-11-06T13:01:02Z</time>
      </trkpt>
      <trkpt lat="50.60078" lon="3.2914">
        <ele>54.873608</ele>
        <time>2018-11-06T13:01:04Z</time>
      </trkpt>
      <trkpt lat="50.60078" lon="3.29123">
        <ele>54.297615</ele>
        <time>2018-11-06T13:01:06Z</time>
      </trkpt>
      <trkpt lat="50.60077" lon="3.29105">
        <ele>53.771126</ele>
        <time>2018-11-06T13:01:08Z</time>
      </trkpt>
      <trkpt lat="50.60076" lon="3.29088">
        <ele>53.235413</ele>
        <time>2018-11-06T13:01:10Z</time>
      </trkpt>
      <trkpt lat="50.60077" lon="3.29071">
        <ele>52.701221</ele>
        <time>2018-11-06T13:01:12Z</time>
      </trkpt>
      <trkpt lat="50.60077" lon="3.29054">
        <ele>52.339546</ele>
        <time>2018-11-06T13:01:14Z</time>
      </trkpt>
      <trkpt lat="50.60075" lon="3.29038">
        <ele>51.941948</ele>
        <time>2018-11-06T13:01:16Z</time>
      </trkpt>
      <trkpt lat="50.60075" lon="3.29023">
        <ele>51.54134</ele>
        <time>2018-11-06T13:01:18Z</time>
      </trkpt>
      <trkpt lat="50.60075" lon="3.29008">
        <ele>51.335827</ele>
        <time>2018-11-06T13:01:20Z</time>
      </trkpt>
      <trkpt lat="50.60075" lon="3.28993">
        <ele>51.045753</ele>
        <time>2018-11-06T13:01:22Z</time>
      </trkpt>
      <trkpt lat="50.60075" lon="3.28978">
        <ele>50.864647</ele>
        <time>2018-11-06T13:01:24Z</time>
      </trkpt>
      <trkpt lat="50.60076" lon="3.28963">
        <ele>50.731926</ele>
        <time>2018-11-06T13:01:26Z</time>
      </trkpt>
      <trkpt lat="50.60076" lon="3.28947">
        <ele>50.592384</ele>
        <time>2018-11-06T13:01:28Z</time>
      </trkpt>
      <trkpt lat="50.60076" lon="3.28931">
        <ele>50.532387</ele>
        <time>2018-11-06T13:01:30Z</time>
      </trkpt>
      <trkpt lat="50.60076" lon="3.28915">
        <ele>50.49617</ele>
        <time>2018-11-06T13:01:32Z</time>
      </trkpt>
      <trkpt lat="50.60077" lon="3.289">
        <ele>50.380039</ele>
        <time>2018-11-06T13:01:34Z</time>
      </trkpt>
      <trkpt lat="50.60078" lon="3.28886">
        <ele>50.264706</ele>
        <time>2018-11-06T13:01:36Z</time>
      </trkpt>
      <trkpt lat="50.6008" lon="3.28871">
        <ele>50.205757</ele>
        <time>2018-11-06T13:01:38Z</time>
      </trkpt>
      <trkpt lat="50.60083" lon="3.28856">
        <ele>50.171696</ele>
        <time>2018-11-06T13:01:40Z</time>
      </trkpt>
      <trkpt lat="50.60085" lon="3.28841">
        <ele>50.171646</ele>
        <time>2018-11-06T13:01:42Z</time>
      </trkpt>
      <trkpt lat="50.60088" lon="3.28826">
        <ele>50.158058</ele>
        <time>2018-11-06T13:01:44Z</time>
      </trkpt>
      <trkpt lat="50.60091" lon="3.28812">
        <ele>50.19561</ele>
        <time>2018-11-06T13:01:46Z</time>
      </trkpt>
      <trkpt lat="50.60095" lon="3.28797">
        <ele>50.274136</ele>
        <time>2018-11-06T13:01:48Z</time>
      </trkpt>
      <trkpt lat="50.60098" lon="3.28782">
        <ele>50.275429</ele>
        <time>2018-11-06T13:01:50Z</time>
      </trkpt>
      <trkpt lat="50.60101" lon="3.28768">
        <ele>50.346939</ele>
        <time>2018-11-06T13:01:52Z</time>
      </trkpt>
      <trkpt lat="50.60104" lon="3.28753">
        <ele>50.357109</ele>
        <time>2018-11-06T13:01:54Z</time>
      </trkpt>
      <trkpt lat="50.60106" lon="3.28738">
        <ele>50.392723</ele>
        <time>2018-11-06T13:01:56Z</time>
      </trkpt>
      <trkpt lat="50.60107" lon="3.28722">
        <ele>50.439308</ele>
        <time>2018-11-06T13:01:58Z</time>
      </trkpt>
      <trkpt lat="50.60106" lon="3.28707">
        <ele>50.488327</ele>
        <time>2018-11-06T13:02:00Z</time>
      </trkpt>
      <trkpt lat="50.60106" lon="3.28691">
        <ele>50.517967</ele>
        <time>2018-11-06T13:02:02Z</time>
      </trkpt>
      <trkpt lat="50.60104" lon="3.28676">
        <ele>50.598713</ele>
        <time>2018-11-06T13:02:04Z</time>
      </trkpt>
      <trkpt lat="50.60101" lon="3.28661">
        <ele>50.667038</ele>
        <time>2018-11-06T13:02:06Z</time>
      </trkpt>
      <trkpt lat="50.60099" lon="3.28647">
        <ele>50.733948</ele>
        <time>2018-11-06T13:02:08Z</time>
      </trkpt>
      <trkpt lat="50.60096" lon="3.28633">
        <ele>50.767544</ele>
        <time>2018-11-06T13:02:10Z</time>
      </trkpt>
      <trkpt lat="50.60094" lon="3.28619">
        <ele>50.834396</ele>
        <time>2018-11-06T13:02:12Z</time>
      </trkpt>
      <trkpt lat="50.60091" lon="3.28605">
        <ele>50.942749</ele>
        <time>2018-11-06T13:02:14Z</time>
      </trkpt>
      <trkpt lat="50.60089" lon="3.28591">
        <ele>51.045036</ele>
        <time>2018-11-06T13:02:16Z</time>
      </trkpt>
      <trkpt lat="50.60087" lon="3.28577">
        <ele>51.208214</ele>
        <time>2018-11-06T13:02:18Z</time>
      </trkpt>
      <trkpt lat="50.60084" lon="3.28563">
        <ele>51.304424</ele>
        <time>2018-11-06T13:02:20Z</time>
      </trkpt>
      <trkpt lat="50.60082" lon="3.28549">
        <ele>51.317497</ele>
        <time>2018-11-06T13:02:22Z</time>
      </trkpt>
      <trkpt lat="50.60079" lon="3.28534">
        <ele>51.422436</ele>
        <time>2018-11-06T13:02:24Z</time>
      </trkpt>
      <trkpt lat="50.60077" lon="3.2852">
        <ele>51.52816</ele>
        <time>2018-11-06T13:02:26Z</time>
      </trkpt>
      <trkpt lat="50.60075" lon="3.28505">
        <ele>51.626305</ele>
        <time>2018-11-06T13:02:28Z</time>
      </trkpt>
      <trkpt lat="50.60072" lon="3.28491">
        <ele>51.605919</ele>
        <time>2018-11-06T13:02:30Z</time>
      </trkpt>
      <trkpt lat="50.6007" lon="3.28475">
        <ele>51.675629</ele>
        <time>2018-11-06T13:02:32Z</time>
      </trkpt>
      <trkpt lat="50.60068" lon="3.2846">
        <ele>51.769978</ele>
        <time>2018-11-06T13:02:34Z</time>
      </trkpt>
      <trkpt lat="50.60067" lon="3.28444">
        <ele>51.883186</ele>
        <time>2018-11-06T13:02:36Z</time>
      </trkpt>
      <trkpt lat="50.60066" lon="3.28428">
        <ele>51.979652</ele>
        <time>2018-11-06T13:02:38Z</time>
      </trkpt>
      <trkpt lat="50.60065" lon="3.28412">
        <ele>52.06189</ele>
        <time>2018-11-06T13:02:40Z</time>
      </trkpt>
      <trkpt lat="50.60064" lon="3.28396">
        <ele>52.147247</ele>
        <time>2018-11-06T13:02:42Z</time>
      </trkpt>
      <trkpt lat="50.60063" lon="3.28381">
        <ele>52.188293</ele>
        <time>2018-11-06T13:02:44Z</time>
      </trkpt>
      <trkpt lat="50.60062" lon="3.28367">
        <ele>52.173473</ele>
        <time>2018-11-06T13:02:46Z</time>
      </trkpt>
      <trkpt lat="50.6006" lon="3.28353">
        <ele>52.23</ele>
        <time>2018-11-06T13:02:48Z</time>
      </trkpt>
      <trkpt lat="50.60056" lon="3.28342">
        <ele>52.279316</ele>
        <time>2018-11-06T13:02:50Z</time>
      </trkpt>
      <trkpt lat="50.60049" lon="3.28335">
        <ele>52.342712</ele>
        <time>2018-11-06T13:02:52Z</time>
      </trkpt>
      <trkpt lat="50.60041" lon="3.2833">
        <ele>52.394726</ele>
        <time>2018-11-06T13:02:54Z</time>
      </trkpt>
      <trkpt lat="50.60034" lon="3.28325">
        <ele>52.367867</ele>
        <time>2018-11-06T13:02:56Z</time>
      </trkpt>
      <trkpt lat="50.60027" lon="3.28319">
        <ele>52.425495</ele>
        <time>2018-11-06T13:02:58Z</time>
      </trkpt>
      <trkpt lat="50.60019" lon="3.28314">
        <ele>52.48119</ele>
        <time>2018-11-06T13:03:00Z</time>
      </trkpt>
      <trkpt lat="50.60012" lon="3.28309">
        <ele>52.576275</ele>
        <time>2018-11-06T13:03:02Z</time>
      </trkpt>
      <trkpt lat="50.60004" lon="3.28304">
        <ele>52.644764</ele>
        <time>2018-11-06T13:03:04Z</time>
      </trkpt>
      <trkpt lat="50.59997" lon="3.28298">
        <ele>52.763233</ele>
        <time>2018-11-06T13:03:06Z</time>
      </trkpt>
      <trkpt lat="50.59989" lon="3.28292">
        <ele>52.810333</ele>
        <time>2018-11-06T13:03:08Z</time>
      </trkpt>
      <trkpt lat="50.59982" lon="3.28287">
        <ele>52.828545</ele>
        <time>2018-11-06T13:03:10Z</time>
      </trkpt>
      <trkpt lat="50.59974" lon="3.28281">
        <ele>52.923908</ele>
        <time>2018-11-06T13:03:12Z</time>
      </trkpt>
      <trkpt lat="50.59966" lon="3.28275">
        <ele>53.034485</ele>
        <time>2018-11-06T13:03:14Z</time>
      </trkpt>
      <trkpt lat="50.59958" lon="3.28269">
        <ele>53.131477</ele>
        <time>2018-11-06T13:03:16Z</time>
      </trkpt>
      <trkpt lat="50.5995" lon="3.28263">
        <ele>53.164528</ele>
        <time>2018-11-06T13:03:18Z</time>
      </trkpt>
      <trkpt lat="50.59942" lon="3.28257">
        <ele>53.264088</ele>
        <time>2018-11-06T13:03:20Z</time>
      </trkpt>
      <trkpt lat="50.59934" lon="3.28251">
        <ele>53.338142</ele>
        <time>2018-11-06T13:03:22Z</time>
      </trkpt>
      <trkpt lat="50.59926" lon="3.28245">
        <ele>53.4356</ele>
        <time>2018-11-06T13:03:24Z</time>
      </trkpt>
      <trkpt lat="50.59917" lon="3.28238">
        <ele>53.491997</ele>
        <time>2018-11-06T13:03:26Z</time>
      </trkpt>
      <trkpt lat="50.59909" lon="3.28232">
        <ele>53.560799</ele>
        <time>2018-11-06T13:03:28Z</time>
      </trkpt>
      <trkpt lat="50.59901" lon="3.28227">
        <ele>53.60955</ele>
        <time>2018-11-06T13:03:30Z</time>
      </trkpt>
      <trkpt lat="50.59893" lon="3.28221">
        <ele>53.654938</ele>
        <time>2018-11-06T13:03:32Z</time>
      </trkpt>
      <trkpt lat="50.59885" lon="3.28214">
        <ele>53.742622</ele>
        <time>2018-11-06T13:03:34Z</time>
      </trkpt>
      <trkpt lat="50.59878" lon="3.28209">
        <ele>53.887348</ele>
        <time>2018-11-06T13:03:36Z</time>
      </trkpt>
      <trkpt lat="50.5987" lon="3.28204">
        <ele>54.023994</ele>
        <time>2018-11-06T13:03:38Z</time>
      </trkpt>
      <trkpt lat="50.59863" lon="3.28199">
        <ele>54.083538</ele>
        <time>2018-11-06T13:03:40Z</time>
      </trkpt>
      <trkpt lat="50.59856" lon="3.28193">
        <ele>54.201099</ele>
        <time>2018-11-06T13:03:42Z</time>
      </trkpt>
      <trkpt lat="50.59849" lon="3.28188">
        <ele>54.308033</ele>
        <time>2018-11-06T13:03:44Z</time>
      </trkpt>
      <trkpt lat="50.59842" lon="3.28181">
        <ele>54.344475</ele>
        <time>2018-11-06T13:03:46Z</time>
      </trkpt>
      <trkpt lat="50.59834" lon="3.28176">
        <ele>54.375122</ele>
        <time>2018-11-06T13:03:48Z</time>
      </trkpt>
      <trkpt lat="50.59826" lon="3.28171">
        <ele>54.466625</ele>
        <time>2018-11-06T13:03:50Z</time>
      </trkpt>
      <trkpt lat="50.59819" lon="3.28165">
        <ele>54.519325</ele>
        <time>2018-11-06T13:03:52Z</time>
      </trkpt>
      <trkpt lat="50.59811" lon="3.2816">
        <ele>54.583702</ele>
        <time>2018-11-06T13:03:54Z</time>
      </trkpt>
      <trkpt lat="50.59804" lon="3.28154">
        <ele>54.619102</ele>
        <time>2018-11-06T13:03:56Z</time>
      </trkpt>
      <trkpt lat="50.59797" lon="3.28149">
        <ele>54.700939</ele>
        <time>2018-11-06T13:03:58Z</time>
      </trkpt>
      <trkpt lat="50.5979" lon="3.28143">
        <ele>54.80674</ele>
        <time>2018-11-06T13:04:00Z</time>
      </trkpt>
      <trkpt lat="50.59782" lon="3.28137">
        <ele>54.923065</ele>
        <time>2018-11-06T13:04:02Z</time>
      </trkpt>
      <trkpt lat="50.59775" lon="3.28132">
        <ele>54.993885</ele>
        <time>2018-11-06T13:04:04Z</time>
      </trkpt>
      <trkpt lat="50.59768" lon="3.28127">
        <ele>55.137733</ele>
        <time>2018-11-06T13:04:06Z</time>
      </trkpt>
      <trkpt lat="50.5976" lon="3.28121">
        <ele>55.338329</ele>
        <time>2018-11-06T13:04:08Z</time>
      </trkpt>
      <trkpt lat="50.59753" lon="3.28116">
        <ele>55.503563</ele>
        <time>2018-11-06T13:04:10Z</time>
      </trkpt>
      <trkpt lat="50.59745" lon="3.2811">
        <ele>55.599659</ele>
        <time>2018-11-06T13:04:12Z</time>
      </trkpt>
      <trkpt lat="50.59737" lon="3.28105">
        <ele>55.686798</ele>
        <time>2018-11-06T13:04:14Z</time>
      </trkpt>
      <trkpt lat="50.5973" lon="3.28099">
        <ele>55.788555</ele>
        <time>2018-11-06T13:04:16Z</time>
      </trkpt>
      <trkpt lat="50.59723" lon="3.28094">
        <ele>55.911842</ele>
        <time>2018-11-06T13:04:18Z</time>
      </trkpt>
      <trkpt lat="50.59716" lon="3.28088">
        <ele>55.961617</ele>
        <time>2018-11-06T13:04:20Z</time>
      </trkpt>
      <trkpt lat="50.59708" lon="3.28081">
        <ele>56.043652</ele>
        <time>2018-11-06T13:04:22Z</time>
      </trkpt>
      <trkpt lat="50.59701" lon="3.28075">
        <ele>56.116547</ele>
        <time>2018-11-06T13:04:24Z</time>
      </trkpt>
      <trkpt lat="50.59694" lon="3.28067">
        <ele>56.153656</ele>
        <time>2018-11-06T13:04:26Z</time>
      </trkpt>
      <trkpt lat="50.59686" lon="3.28059">
        <ele>56.332375</ele>
        <time>2018-11-06T13:04:28Z</time>
      </trkpt>
      <trkpt lat="50.59679" lon="3.28051">
        <ele>56.4669</ele>
        <time>2018-11-06T13:04:30Z</time>
      </trkpt>
      <trkpt lat="50.59671" lon="3.28043">
        <ele>56.547607</ele>
        <time>2018-11-06T13:04:32Z</time>
      </trkpt>
      <trkpt lat="50.59664" lon="3.28035">
        <ele>56.648186</ele>
        <time>2018-11-06T13:04:34Z</time>
      </trkpt>
      <trkpt lat="50.59656" lon="3.28026">
        <ele>56.791359</ele>
        <time>2018-11-06T13:04:36Z</time>
      </trkpt>
      <trkpt lat="50.59649" lon="3.28019">
        <ele>56.930866</ele>
        <time>2018-11-06T13:04:38Z</time>
      </trkpt>
      <trkpt lat="50.59642" lon="3.28011">
        <ele>57.011681</ele>
        <time>2018-11-06T13:04:40Z</time>
      </trkpt>
      <trkpt lat="50.59634" lon="3.28004">
        <ele>57.080242</ele>
        <time>2018-11-06T13:04:42Z</time>
      </trkpt>
      <trkpt lat="50.59627" lon="3.27996">
        <ele>57.16082</ele>
        <time>2018-11-06T13:04:44Z</time>
      </trkpt>
      <trkpt lat="50.5962" lon="3.27989">
        <ele>57.235432</ele>
        <time>2018-11-06T13:04:46Z</time>
      </trkpt>
      <trkpt lat="50.59613" lon="3.27981">
        <ele>57.289692</ele>
        <time>2018-11-06T13:04:48Z</time>
      </trkpt>
      <trkpt lat="50.59605" lon="3.27974">
        <ele>57.279133</ele>
        <time>2018-11-06T13:04:50Z</time>
      </trkpt>
      <trkpt lat="50.59597" lon="3.27967">
        <ele>57.3643</ele>
        <time>2018-11-06T13:04:52Z</time>
      </trkpt>
      <trkpt lat="50.59589" lon="3.2796">
        <ele>57.467304</ele>
        <time>2018-11-06T13:04:54Z</time>
      </trkpt>
      <trkpt lat="50.59582" lon="3.27954">
        <ele>57.470501</ele>
        <time>2018-11-06T13:04:56Z</time>
      </trkpt>
      <trkpt lat="50.59575" lon="3.27948">
        <ele>57.471436</ele>
        <time>2018-11-06T13:04:58Z</time>
      </trkpt>
      <trkpt lat="50.59567" lon="3.27942">
        <ele>57.560783</ele>
        <time>2018-11-06T13:05:00Z</time>
      </trkpt>
      <trkpt lat="50.59559" lon="3.27937">
        <ele>57.674927</ele>
        <time>2018-11-06T13:05:02Z</time>
      </trkpt>
      <trkpt lat="50.59552" lon="3.27931">
        <ele>57.765118</ele>
        <time>2018-11-06T13:05:04Z</time>
      </trkpt>
      <trkpt lat="50.59544" lon="3.27926">
        <ele>57.819183</ele>
        <time>2018-11-06T13:05:06Z</time>
      </trkpt>
      <trkpt lat="50.59536" lon="3.2792">
        <ele>57.891735</ele>
        <time>2018-11-06T13:05:08Z</time>
      </trkpt>
      <trkpt lat="50.59528" lon="3.27915">
        <ele>57.976067</ele>
        <time>2018-11-06T13:05:10Z</time>
      </trkpt>
      <trkpt lat="50.59521" lon="3.2791">
        <ele>58.056751</ele>
        <time>2018-11-06T13:05:12Z</time>
      </trkpt>
      <trkpt lat="50.59514" lon="3.27905">
        <ele>58.120758</ele>
        <time>2018-11-06T13:05:14Z</time>
      </trkpt>
      <trkpt lat="50.59506" lon="3.27899">
        <ele>58.170448</ele>
        <time>2018-11-06T13:05:16Z</time>
      </trkpt>
      <trkpt lat="50.59499" lon="3.27894">
        <ele>58.20393</ele>
        <time>2018-11-06T13:05:18Z</time>
      </trkpt>
      <trkpt lat="50.59491" lon="3.27889">
        <ele>58.234753</ele>
        <time>2018-11-06T13:05:20Z</time>
      </trkpt>
      <trkpt lat="50.59483" lon="3.27883">
        <ele>58.329628</ele>
        <time>2018-11-06T13:05:22Z</time>
      </trkpt>
      <trkpt lat="50.59475" lon="3.27878">
        <ele>58.395008</ele>
        <time>2018-11-06T13:05:24Z</time>
      </trkpt>
      <trkpt lat="50.59467" lon="3.27872">
        <ele>58.47295</ele>
        <time>2018-11-06T13:05:26Z</time>
      </trkpt>
      <trkpt lat="50.5946" lon="3.27865">
        <ele>58.537151</ele>
        <time>2018-11-06T13:05:28Z</time>
      </trkpt>
      <trkpt lat="50.59452" lon="3.27859">
        <ele>58.612221</ele>
        <time>2018-11-06T13:05:30Z</time>
      </trkpt>
      <trkpt lat="50.59445" lon="3.27852">
        <ele>58.751446</ele>
        <time>2018-11-06T13:05:32Z</time>
      </trkpt>
      <trkpt lat="50.59437" lon="3.27845">
        <ele>58.860504</ele>
        <time>2018-11-06T13:05:34Z</time>
      </trkpt>
      <trkpt lat="50.5943" lon="3.27839">
        <ele>59.012604</ele>
        <time>2018-11-06T13:05:36Z</time>
      </trkpt>
      <trkpt lat="50.59422" lon="3.27832">
        <ele>59.126312</ele>
        <time>2018-11-06T13:05:38Z</time>
      </trkpt>
      <trkpt lat="50.59414" lon="3.27824">
        <ele>59.183006</ele>
        <time>2018-11-06T13:05:40Z</time>
      </trkpt>
      <trkpt lat="50.59407" lon="3.27817">
        <ele>59.207966</ele>
        <time>2018-11-06T13:05:42Z</time>
      </trkpt>
      <trkpt lat="50.59399" lon="3.2781">
        <ele>59.240479</ele>
        <time>2018-11-06T13:05:44Z</time>
      </trkpt>
      <trkpt lat="50.59391" lon="3.27803">
        <ele>59.272167</ele>
        <time>2018-11-06T13:05:46Z</time>
      </trkpt>
      <trkpt lat="50.59382" lon="3.27796">
        <ele>59.270733</ele>
        <time>2018-11-06T13:05:48Z</time>
      </trkpt>
      <trkpt lat="50.59374" lon="3.2779">
        <ele>59.255646</ele>
        <time>2018-11-06T13:05:50Z</time>
      </trkpt>
      <trkpt lat="50.59364" lon="3.27784">
        <ele>59.189281</ele>
        <time>2018-11-06T13:05:52Z</time>
      </trkpt>
      <trkpt lat="50.59355" lon="3.27779">
        <ele>59.165394</ele>
        <time>2018-11-06T13:05:54Z</time>
      </trkpt>
      <trkpt lat="50.59346" lon="3.27775">
        <ele>59.143005</ele>
        <time>2018-11-06T13:05:56Z</time>
      </trkpt>
      <trkpt lat="50.59338" lon="3.2777">
        <ele>59.096611</ele>
        <time>2018-11-06T13:05:58Z</time>
      </trkpt>
      <trkpt lat="50.59329" lon="3.27766">
        <ele>59.001892</ele>
        <time>2018-11-06T13:06:00Z</time>
      </trkpt>
      <trkpt lat="50.59319" lon="3.27761">
        <ele>58.9842</ele>
        <time>2018-11-06T13:06:02Z</time>
      </trkpt>
      <trkpt lat="50.59311" lon="3.27756">
        <ele>58.886097</ele>
        <time>2018-11-06T13:06:04Z</time>
      </trkpt>
      <trkpt lat="50.59301" lon="3.27751">
        <ele>58.845894</ele>
        <time>2018-11-06T13:06:06Z</time>
      </trkpt>
      <trkpt lat="50.59292" lon="3.27746">
        <ele>58.763622</ele>
        <time>2018-11-06T13:06:08Z</time>
      </trkpt>
      <trkpt lat="50.59282" lon="3.27742">
        <ele>58.682732</ele>
        <time>2018-11-06T13:06:10Z</time>
      </trkpt>
      <trkpt lat="50.59273" lon="3.27739">
        <ele>58.542694</ele>
        <time>2018-11-06T13:06:12Z</time>
      </trkpt>
      <trkpt lat="50.59263" lon="3.27736">
        <ele>58.392998</ele>
        <time>2018-11-06T13:06:14Z</time>
      </trkpt>
      <trkpt lat="50.59253" lon="3.27733">
        <ele>58.282185</ele>
        <time>2018-11-06T13:06:16Z</time>
      </trkpt>
      <trkpt lat="50.59244" lon="3.2773">
        <ele>58.162678</ele>
        <time>2018-11-06T13:06:18Z</time>
      </trkpt>
      <trkpt lat="50.59235" lon="3.27727">
        <ele>58.068226</ele>
        <time>2018-11-06T13:06:20Z</time>
      </trkpt>
      <trkpt lat="50.59226" lon="3.27724">
        <ele>57.974251</ele>
        <time>2018-11-06T13:06:22Z</time>
      </trkpt>
      <trkpt lat="50.59216" lon="3.27721">
        <ele>57.850475</ele>
        <time>2018-11-06T13:06:24Z</time>
      </trkpt>
      <trkpt lat="50.59207" lon="3.27716">
        <ele>57.753395</ele>
        <time>2018-11-06T13:06:26Z</time>
      </trkpt>
      <trkpt lat="50.59198" lon="3.27711">
        <ele>57.635353</ele>
        <time>2018-11-06T13:06:28Z</time>
      </trkpt>
      <trkpt lat="50.59191" lon="3.27704">
        <ele>57.551441</ele>
        <time>2018-11-06T13:06:30Z</time>
      </trkpt>
      <trkpt lat="50.59185" lon="3.27694">
        <ele>57.536491</ele>
        <time>2018-11-06T13:06:32Z</time>
      </trkpt>
      <trkpt lat="50.59182" lon="3.2768">
        <ele>57.422577</ele>
        <time>2018-11-06T13:06:34Z</time>
      </trkpt>
      <trkpt lat="50.59179" lon="3.27666">
        <ele>57.347725</ele>
        <time>2018-11-06T13:06:36Z</time>
      </trkpt>
      <trkpt lat="50.59177" lon="3.27651">
        <ele>57.276112</ele>
        <time>2018-11-06T13:06:38Z</time>
      </trkpt>
      <trkpt lat="50.59176" lon="3.27636">
        <ele>57.257149</ele>
        <time>2018-11-06T13:06:40Z</time>
      </trkpt>
      <trkpt lat="50.59174" lon="3.27619">
        <ele>57.252808</ele>
        <time>2018-11-06T13:06:42Z</time>
      </trkpt>
      <trkpt lat="50.59173" lon="3.27604">
        <ele>57.169342</ele>
        <time>2018-11-06T13:06:44Z</time>
      </trkpt>
      <trkpt lat="50.59173" lon="3.27588">
        <ele>57.102379</ele>
        <time>2018-11-06T13:06:46Z</time>
      </trkpt>
      <trkpt lat="50.59172" lon="3.27572">
        <ele>57.019226</ele>
        <time>2018-11-06T13:06:48Z</time>
      </trkpt>
      <trkpt lat="50.59171" lon="3.27556">
        <ele>56.980183</ele>
        <time>2018-11-06T13:06:50Z</time>
      </trkpt>
      <trkpt lat="50.59168" lon="3.27541">
        <ele>56.930561</ele>
        <time>2018-11-06T13:06:52Z</time>
      </trkpt>
      <trkpt lat="50.59165" lon="3.27526">
        <ele>56.89962</ele>
        <time>2018-11-06T13:06:54Z</time>
      </trkpt>
      <trkpt lat="50.59161" lon="3.27512">
        <ele>56.846672</ele>
        <time>2018-11-06T13:06:56Z</time>
      </trkpt>
      <trkpt lat="50.59158" lon="3.27498">
        <ele>56.797039</ele>
        <time>2018-11-06T13:06:58Z</time>
      </trkpt>
      <trkpt lat="50.59155" lon="3.27484">
        <ele>56.744011</ele>
        <time>2018-11-06T13:07:00Z</time>
      </trkpt>
      <trkpt lat="50.5915" lon="3.2747">
        <ele>56.688892</ele>
        <time>2018-11-06T13:07:02Z</time>
      </trkpt>
      <trkpt lat="50.59146" lon="3.27456">
        <ele>56.664806</ele>
        <time>2018-11-06T13:07:04Z</time>
      </trkpt>
      <trkpt lat="50.59143" lon="3.27443">
        <ele>56.72818</ele>
        <time>2018-11-06T13:07:06Z</time>
      </trkpt>
      <trkpt lat="50.59139" lon="3.27429">
        <ele>56.748268</ele>
        <time>2018-11-06T13:07:08Z</time>
      </trkpt>
      <trkpt lat="50.59134" lon="3.27415">
        <ele>56.728718</ele>
        <time>2018-11-06T13:07:10Z</time>
      </trkpt>
      <trkpt lat="50.5913" lon="3.27401">
        <ele>56.767059</ele>
        <time>2018-11-06T13:07:12Z</time>
      </trkpt>
      <trkpt lat="50.59126" lon="3.27386">
        <ele>56.792633</ele>
        <time>2018-11-06T13:07:14Z</time>
      </trkpt>
      <trkpt lat="50.59121" lon="3.27372">
        <ele>56.771599</ele>
        <time>2018-11-06T13:07:16Z</time>
      </trkpt>
      <trkpt lat="50.59116" lon="3.27358">
        <ele>56.726097</ele>
        <time>2018-11-06T13:07:18Z</time>
      </trkpt>
      <trkpt lat="50.59112" lon="3.27344">
        <ele>56.689903</ele>
        <time>2018-11-06T13:07:20Z</time>
      </trkpt>
      <trkpt lat="50.59107" lon="3.2733">
        <ele>56.594414</ele>
        <time>2018-11-06T13:07:22Z</time>
      </trkpt>
      <trkpt lat="50.59102" lon="3.27318">
        <ele>56.596142</ele>
        <time>2018-11-06T13:07:24Z</time>
      </trkpt>
      <trkpt lat="50.59097" lon="3.27304">
        <ele>56.526997</ele>
        <time>2018-11-06T13:07:26Z</time>
      </trkpt>
      <trkpt lat="50.59092" lon="3.27291">
        <ele>56.511803</ele>
        <time>2018-11-06T13:07:28Z</time>
      </trkpt>
      <trkpt lat="50.59087" lon="3.27277">
        <ele>56.444008</ele>
        <time>2018-11-06T13:07:30Z</time>
      </trkpt>
      <trkpt lat="50.59082" lon="3.27263">
        <ele>56.399975</ele>
        <time>2018-11-06T13:07:32Z</time>
      </trkpt>
      <trkpt lat="50.59078" lon="3.2725">
        <ele>56.354687</ele>
        <time>2018-11-06T13:07:34Z</time>
      </trkpt>
      <trkpt lat="50.59071" lon="3.27236">
        <ele>56.319733</ele>
        <time>2018-11-06T13:07:36Z</time>
      </trkpt>
      <trkpt lat="50.59066" lon="3.27224">
        <ele>56.265625</ele>
        <time>2018-11-06T13:07:38Z</time>
      </trkpt>
      <trkpt lat="50.5906" lon="3.27211">
        <ele>56.243805</ele>
        <time>2018-11-06T13:07:40Z</time>
      </trkpt>
      <trkpt lat="50.59055" lon="3.27198">
        <ele>56.197224</ele>
        <time>2018-11-06T13:07:42Z</time>
      </trkpt>
      <trkpt lat="50.59049" lon="3.27185">
        <ele>56.198719</ele>
        <time>2018-11-06T13:07:44Z</time>
      </trkpt>
      <trkpt lat="50.59043" lon="3.27172">
        <ele>56.114647</ele>
        <time>2018-11-06T13:07:46Z</time>
      </trkpt>
      <trkpt lat="50.59037" lon="3.27159">
        <ele>56.043297</ele>
        <time>2018-11-06T13:07:48Z</time>
      </trkpt>
      <trkpt lat="50.59032" lon="3.27146">
        <ele>55.977669</ele>
        <time>2018-11-06T13:07:50Z</time>
      </trkpt>
      <trkpt lat="50.59026" lon="3.27133">
        <ele>55.965412</ele>
        <time>2018-11-06T13:07:52Z</time>
      </trkpt>
      <trkpt lat="50.59021" lon="3.2712">
        <ele>55.893303</ele>
        <time>2018-11-06T13:07:54Z</time>
      </trkpt>
      <trkpt lat="50.59016" lon="3.27106">
        <ele>55.881432</ele>
        <time>2018-11-06T13:07:56Z</time>
      </trkpt>
      <trkpt lat="50.59012" lon="3.27092">
        <ele>55.87381</ele>
        <time>2018-11-06T13:07:58Z</time>
      </trkpt>
      <trkpt lat="50.59008" lon="3.27078">
        <ele>55.824879</ele>
        <time>2018-11-06T13:08:00Z</time>
      </trkpt>
      <trkpt lat="50.59003" lon="3.27064">
        <ele>55.786335</ele>
        <time>2018-11-06T13:08:02Z</time>
      </trkpt>
      <trkpt lat="50.59" lon="3.2705">
        <ele>55.75285</ele>
        <time>2018-11-06T13:08:04Z</time>
      </trkpt>
      <trkpt lat="50.58997" lon="3.27036">
        <ele>55.736866</ele>
        <time>2018-11-06T13:08:06Z</time>
      </trkpt>
      <trkpt lat="50.58994" lon="3.27022">
        <ele>55.724213</ele>
        <time>2018-11-06T13:08:08Z</time>
      </trkpt>
      <trkpt lat="50.58991" lon="3.27009">
        <ele>55.69709</ele>
        <time>2018-11-06T13:08:10Z</time>
      </trkpt>
      <trkpt lat="50.58988" lon="3.26996">
        <ele>55.70562</ele>
        <time>2018-11-06T13:08:12Z</time>
      </trkpt>
      <trkpt lat="50.58985" lon="3.26982">
        <ele>55.648895</ele>
        <time>2018-11-06T13:08:14Z</time>
      </trkpt>
      <trkpt lat="50.58982" lon="3.26968">
        <ele>55.669373</ele>
        <time>2018-11-06T13:08:16Z</time>
      </trkpt>
      <trkpt lat="50.58979" lon="3.26953">
        <ele>55.617176</ele>
        <time>2018-11-06T13:08:18Z</time>
      </trkpt>
      <trkpt lat="50.58976" lon="3.26938">
        <ele>55.586266</ele>
        <time>2018-11-06T13:08:20Z</time>
      </trkpt>
      <trkpt lat="50.58973" lon="3.26924">
        <ele>55.538647</ele>
        <time>2018-11-06T13:08:22Z</time>
      </trkpt>
      <trkpt lat="50.5897" lon="3.2691">
        <ele>55.507496</ele>
        <time>2018-11-06T13:08:24Z</time>
      </trkpt>
      <trkpt lat="50.58967" lon="3.26897">
        <ele>55.414635</ele>
        <time>2018-11-06T13:08:26Z</time>
      </trkpt>
      <trkpt lat="50.58965" lon="3.26884">
        <ele>55.375111</ele>
        <time>2018-11-06T13:08:28Z</time>
      </trkpt>
      <trkpt lat="50.58962" lon="3.26873">
        <ele>55.369347</ele>
        <time>2018-11-06T13:08:30Z</time>
      </trkpt>
      <trkpt lat="50.58958" lon="3.26862">
        <ele>55.311817</ele>
        <time>2018-11-06T13:08:32Z</time>
      </trkpt>
      <trkpt lat="50.58953" lon="3.26855">
        <ele>55.250294</ele>
        <time>2018-11-06T13:08:34Z</time>
      </trkpt>
      <trkpt lat="50.58949" lon="3.26848">
        <ele>55.196266</ele>
        <time>2018-11-06T13:08:36Z</time>
      </trkpt>
      <trkpt lat="50.58946" lon="3.26841">
        <ele>55.108814</ele>
        <time>2018-11-06T13:08:38Z</time>
      </trkpt>
      <trkpt lat="50.58944" lon="3.26834">
        <ele>55.091042</ele>
        <time>2018-11-06T13:08:40Z</time>
      </trkpt>
      <trkpt lat="50.58939" lon="3.26828">
        <ele>55.054432</ele>
        <time>2018-11-06T13:08:42Z</time>
      </trkpt>
      <trkpt lat="50.58932" lon="3.26828">
        <ele>55.063377</ele>
        <time>2018-11-06T13:08:44Z</time>
      </trkpt>
      <trkpt lat="50.58924" lon="3.26833">
        <ele>55.022911</ele>
        <time>2018-11-06T13:08:46Z</time>
      </trkpt>
      <trkpt lat="50.58916" lon="3.26837">
        <ele>54.989403</ele>
        <time>2018-11-06T13:08:48Z</time>
      </trkpt>
      <trkpt lat="50.58907" lon="3.26842">
        <ele>54.928967</ele>
        <time>2018-11-06T13:08:50Z</time>
      </trkpt>
      <trkpt lat="50.58899" lon="3.26848">
        <ele>54.934227</ele>
        <time>2018-11-06T13:08:52Z</time>
      </trkpt>
      <trkpt lat="50.58892" lon="3.26853">
        <ele>54.89259</ele>
        <time>2018-11-06T13:08:54Z</time>
      </trkpt>
      <trkpt lat="50.58884" lon="3.26859">
        <ele>54.923767</ele>
        <time>2018-11-06T13:08:56Z</time>
      </trkpt>
      <trkpt lat="50.58877" lon="3.26866">
        <ele>54.947399</ele>
        <time>2018-11-06T13:08:58Z</time>
      </trkpt>
      <trkpt lat="50.58869" lon="3.26873">
        <ele>54.998394</ele>
        <time>2018-11-06T13:09:00Z</time>
      </trkpt>
      <trkpt lat="50.58862" lon="3.26881">
        <ele>55.036957</ele>
        <time>2018-11-06T13:09:02Z</time>
      </trkpt>
      <trkpt lat="50.58855" lon="3.2689">
        <ele>55.087841</ele>
        <time>2018-11-06T13:09:04Z</time>
      </trkpt>
      <trkpt lat="50.58847" lon="3.26898">
        <ele>55.188469</ele>
        <time>2018-11-06T13:09:06Z</time>
      </trkpt>
      <trkpt lat="50.5884" lon="3.26907">
        <ele>55.2281</ele>
        <time>2018-11-06T13:09:08Z</time>
      </trkpt>
      <trkpt lat="50.58833" lon="3.26916">
        <ele>55.300373</ele>
        <time>2018-11-06T13:09:10Z</time>
      </trkpt>
      <trkpt lat="50.58826" lon="3.26925">
        <ele>55.32888</ele>
        <time>2018-11-06T13:09:12Z</time>
      </trkpt>
      <trkpt lat="50.58818" lon="3.26933">
        <ele>55.391376</ele>
        <time>2018-11-06T13:09:14Z</time>
      </trkpt>
      <trkpt lat="50.58812" lon="3.26942">
        <ele>55.475452</ele>
        <time>2018-11-06T13:09:16Z</time>
      </trkpt>
      <trkpt lat="50.58804" lon="3.26952">
        <ele>55.556831</ele>
        <time>2018-11-06T13:09:18Z</time>
      </trkpt>
      <trkpt lat="50.58797" lon="3.26962">
        <ele>55.630074</ele>
        <time>2018-11-06T13:09:20Z</time>
      </trkpt>
      <trkpt lat="50.5879" lon="3.26973">
        <ele>55.66687</ele>
        <time>2018-11-06T13:09:22Z</time>
      </trkpt>
      <trkpt lat="50.58783" lon="3.26983">
        <ele>55.697865</ele>
        <time>2018-11-06T13:09:24Z</time>
      </trkpt>
      <trkpt lat="50.58777" lon="3.26994">
        <ele>55.728687</ele>
        <time>2018-11-06T13:09:26Z</time>
      </trkpt>
      <trkpt lat="50.5877" lon="3.27005">
        <ele>55.7771</ele>
        <time>2018-11-06T13:09:28Z</time>
      </trkpt>
      <trkpt lat="50.58764" lon="3.27016">
        <ele>55.8461</ele>
        <time>2018-11-06T13:09:30Z</time>
      </trkpt>
      <trkpt lat="50.58757" lon="3.27028">
        <ele>55.857338</ele>
        <time>2018-11-06T13:09:32Z</time>
      </trkpt>
      <trkpt lat="50.58752" lon="3.27041">
        <ele>55.864235</ele>
        <time>2018-11-06T13:09:34Z</time>
      </trkpt>
      <trkpt lat="50.58746" lon="3.27053">
        <ele>55.900215</ele>
        <time>2018-11-06T13:09:36Z</time>
      </trkpt>
      <trkpt lat="50.58742" lon="3.27065">
        <ele>55.90807</ele>
        <time>2018-11-06T13:09:38Z</time>
      </trkpt>
      <trkpt lat="50.58737" lon="3.27078">
        <ele>55.850739</ele>
        <time>2018-11-06T13:09:40Z</time>
      </trkpt>
      <trkpt lat="50.58732" lon="3.2709">
        <ele>55.845806</ele>
        <time>2018-11-06T13:09:42Z</time>
      </trkpt>
      <trkpt lat="50.58726" lon="3.27102">
        <ele>55.820576</ele>
        <time>2018-11-06T13:09:44Z</time>
      </trkpt>
      <trkpt lat="50.58721" lon="3.27113">
        <ele>55.782845</ele>
        <time>2018-11-06T13:09:46Z</time>
      </trkpt>
      <trkpt lat="50.58716" lon="3.27125">
        <ele>55.730083</ele>
        <time>2018-11-06T13:09:48Z</time>
      </trkpt>
      <trkpt lat="50.58709" lon="3.27136">
        <ele>55.717781</ele>
        <time>2018-11-06T13:09:50Z</time>
      </trkpt>
      <trkpt lat="50.58703" lon="3.27146">
        <ele>55.688957</ele>
        <time>2018-11-06T13:09:52Z</time>
      </trkpt>
      <trkpt lat="50.58696" lon="3.27156">
        <ele>55.622906</ele>
        <time>2018-11-06T13:09:54Z</time>
      </trkpt>
      <trkpt lat="50.58689" lon="3.27165">
        <ele>55.577923</ele>
        <time>2018-11-06T13:09:56Z</time>
      </trkpt>
      <trkpt lat="50.58681" lon="3.27173">
        <ele>55.495525</ele>
        <time>2018-11-06T13:09:58Z</time>
      </trkpt>
      <trkpt lat="50.58673" lon="3.2718">
        <ele>55.415413</ele>
        <time>2018-11-06T13:10:00Z</time>
      </trkpt>
      <trkpt lat="50.58665" lon="3.27187">
        <ele>55.35601</ele>
        <time>2018-11-06T13:10:02Z</time>
      </trkpt>
      <trkpt lat="50.58656" lon="3.27192">
        <ele>55.351704</ele>
        <time>2018-11-06T13:10:04Z</time>
      </trkpt>
      <trkpt lat="50.58647" lon="3.27197">
        <ele>55.326225</ele>
        <time>2018-11-06T13:10:06Z</time>
      </trkpt>
      <trkpt lat="50.58638" lon="3.272">
        <ele>55.327679</ele>
        <time>2018-11-06T13:10:08Z</time>
      </trkpt>
      <trkpt lat="50.5863" lon="3.27202">
        <ele>55.308258</ele>
        <time>2018-11-06T13:10:10Z</time>
      </trkpt>
      <trkpt lat="50.58621" lon="3.27204">
        <ele>55.268608</ele>
        <time>2018-11-06T13:10:12Z</time>
      </trkpt>
      <trkpt lat="50.58613" lon="3.27205">
        <ele>55.29002</ele>
        <time>2018-11-06T13:10:14Z</time>
      </trkpt>
      <trkpt lat="50.58605" lon="3.27207">
        <ele>55.265667</ele>
        <time>2018-11-06T13:10:16Z</time>
      </trkpt>
      <trkpt lat="50.58596" lon="3.27208">
        <ele>55.214592</ele>
        <time>2018-11-06T13:10:18Z</time>
      </trkpt>
      <trkpt lat="50.58588" lon="3.27208">
        <ele>55.238731</ele>
        <time>2018-11-06T13:10:20Z</time>
      </trkpt>
      <trkpt lat="50.58579" lon="3.27209">
        <ele>55.22047</ele>
        <time>2018-11-06T13:10:22Z</time>
      </trkpt>
      <trkpt lat="50.58569" lon="3.27209">
        <ele>55.170013</ele>
        <time>2018-11-06T13:10:24Z</time>
      </trkpt>
      <trkpt lat="50.58559" lon="3.2721">
        <ele>55.103199</ele>
        <time>2018-11-06T13:10:26Z</time>
      </trkpt>
      <trkpt lat="50.5855" lon="3.2721">
        <ele>55.086876</ele>
        <time>2018-11-06T13:10:28Z</time>
      </trkpt>
      <trkpt lat="50.5854" lon="3.2721">
        <ele>55.039661</ele>
        <time>2018-11-06T13:10:30Z</time>
      </trkpt>
      <trkpt lat="50.5853" lon="3.27211">
        <ele>54.987812</ele>
        <time>2018-11-06T13:10:32Z</time>
      </trkpt>
      <trkpt lat="50.58521" lon="3.27211">
        <ele>54.971588</ele>
        <time>2018-11-06T13:10:34Z</time>
      </trkpt>
      <trkpt lat="50.58511" lon="3.27211">
        <ele>54.963947</ele>
        <time>2018-11-06T13:10:36Z</time>
      </trkpt>
      <trkpt lat="50.58502" lon="3.27211">
        <ele>54.935173</ele>
        <time>2018-11-06T13:10:38Z</time>
      </trkpt>
      <trkpt lat="50.58493" lon="3.27211">
        <ele>54.913933</ele>
        <time>2018-11-06T13:10:40Z</time>
      </trkpt>
      <trkpt lat="50.58484" lon="3.27211">
        <ele>54.905426</ele>
        <time>2018-11-06T13:10:42Z</time>
      </trkpt>
      <trkpt lat="50.58475" lon="3.27211">
        <ele>54.881176</ele>
        <time>2018-11-06T13:10:44Z</time>
      </trkpt>
      <trkpt lat="50.58466" lon="3.27211">
        <ele>54.818733</ele>
        <time>2018-11-06T13:10:46Z</time>
      </trkpt>
      <trkpt lat="50.58458" lon="3.27211">
        <ele>54.786858</ele>
        <time>2018-11-06T13:10:48Z</time>
      </trkpt>
      <trkpt lat="50.58448" lon="3.27211">
        <ele>54.686348</ele>
        <time>2018-11-06T13:10:50Z</time>
      </trkpt>
      <trkpt lat="50.58439" lon="3.27212">
        <ele>54.652168</ele>
        <time>2018-11-06T13:10:52Z</time>
      </trkpt>
      <trkpt lat="50.58431" lon="3.27212">
        <ele>54.626167</ele>
        <time>2018-11-06T13:10:54Z</time>
      </trkpt>
      <trkpt lat="50.58421" lon="3.27212">
        <ele>54.608562</ele>
        <time>2018-11-06T13:10:56Z</time>
      </trkpt>
      <trkpt lat="50.58413" lon="3.27212">
        <ele>54.601307</ele>
        <time>2018-11-06T13:10:58Z</time>
      </trkpt>
      <trkpt lat="50.58403" lon="3.27213">
        <ele>54.533562</ele>
        <time>2018-11-06T13:11:00Z</time>
      </trkpt>
      <trkpt lat="50.58394" lon="3.27213">
        <ele>54.523659</ele>
        <time>2018-11-06T13:11:02Z</time>
      </trkpt>
      <trkpt lat="50.58385" lon="3.27213">
        <ele>54.501137</ele>
        <time>2018-11-06T13:11:04Z</time>
      </trkpt>
      <trkpt lat="50.58376" lon="3.27214">
        <ele>54.507538</ele>
        <time>2018-11-06T13:11:06Z</time>
      </trkpt>
      <trkpt lat="50.58367" lon="3.27214">
        <ele>54.55489</ele>
        <time>2018-11-06T13:11:08Z</time>
      </trkpt>
      <trkpt lat="50.58358" lon="3.27215">
        <ele>54.477516</ele>
        <time>2018-11-06T13:11:10Z</time>
      </trkpt>
      <trkpt lat="50.58349" lon="3.27215">
        <ele>54.441601</ele>
        <time>2018-11-06T13:11:12Z</time>
      </trkpt>
      <trkpt lat="50.58341" lon="3.27214">
        <ele>54.44175</ele>
        <time>2018-11-06T13:11:14Z</time>
      </trkpt>
      <trkpt lat="50.58332" lon="3.27213">
        <ele>54.415855</ele>
        <time>2018-11-06T13:11:16Z</time>
      </trkpt>
      <trkpt lat="50.58323" lon="3.27212">
        <ele>54.358624</ele>
        <time>2018-11-06T13:11:18Z</time>
      </trkpt>
      <trkpt lat="50.58314" lon="3.2721">
        <ele>54.361603</ele>
        <time>2018-11-06T13:11:20Z</time>
      </trkpt>
      <trkpt lat="50.58305" lon="3.27208">
        <ele>54.375343</ele>
        <time>2018-11-06T13:11:22Z</time>
      </trkpt>
      <trkpt lat="50.58297" lon="3.27205">
        <ele>54.395355</ele>
        <time>2018-11-06T13:11:24Z</time>
      </trkpt>
      <trkpt lat="50.58288" lon="3.27202">
        <ele>54.365814</ele>
        <time>2018-11-06T13:11:26Z</time>
      </trkpt>
      <trkpt lat="50.58279" lon="3.27199">
        <ele>54.316986</ele>
        <time>2018-11-06T13:11:28Z</time>
      </trkpt>
      <trkpt lat="50.58271" lon="3.27196">
        <ele>54.307606</ele>
        <time>2018-11-06T13:11:30Z</time>
      </trkpt>
      <trkpt lat="50.58262" lon="3.27192">
        <ele>54.324135</ele>
        <time>2018-11-06T13:11:32Z</time>
      </trkpt>
      <trkpt lat="50.58253" lon="3.27189">
        <ele>54.300983</ele>
        <time>2018-11-06T13:11:34Z</time>
      </trkpt>
      <trkpt lat="50.58244" lon="3.27186">
        <ele>54.252106</ele>
        <time>2018-11-06T13:11:36Z</time>
      </trkpt>
      <trkpt lat="50.58236" lon="3.27183">
        <ele>54.17107</ele>
        <time>2018-11-06T13:11:38Z</time>
      </trkpt>
      <trkpt lat="50.58227" lon="3.2718">
        <ele>54.167164</ele>
        <time>2018-11-06T13:11:40Z</time>
      </trkpt>
      <trkpt lat="50.58219" lon="3.27177">
        <ele>54.155052</ele>
        <time>2018-11-06T13:11:42Z</time>
      </trkpt>
      <trkpt lat="50.5821" lon="3.27174">
        <ele>54.114471</ele>
        <time>2018-11-06T13:11:44Z</time>
      </trkpt>
      <trkpt lat="50.58201" lon="3.27171">
        <ele>54.102783</ele>
        <time>2018-11-06T13:11:46Z</time>
      </trkpt>
      <trkpt lat="50.58192" lon="3.27167">
        <ele>54.048912</ele>
        <time>2018-11-06T13:11:48Z</time>
      </trkpt>
      <trkpt lat="50.58183" lon="3.27164">
        <ele>54.061993</ele>
        <time>2018-11-06T13:11:50Z</time>
      </trkpt>
      <trkpt lat="50.58175" lon="3.27162">
        <ele>54.066357</ele>
        <time>2018-11-06T13:11:52Z</time>
      </trkpt>
      <trkpt lat="50.58167" lon="3.27159">
        <ele>54.038624</ele>
        <time>2018-11-06T13:11:54Z</time>
      </trkpt>
      <trkpt lat="50.58159" lon="3.27157">
        <ele>54.010529</ele>
        <time>2018-11-06T13:11:56Z</time>
      </trkpt>
      <trkpt lat="50.58151" lon="3.27154">
        <ele>54.04063</ele>
        <time>2018-11-06T13:11:58Z</time>
      </trkpt>
      <trkpt lat="50.58143" lon="3.27151">
        <ele>54.009144</ele>
        <time>2018-11-06T13:12:00Z</time>
      </trkpt>
      <trkpt lat="50.58136" lon="3.27147">
        <ele>53.965172</ele>
        <time>2018-11-06T13:12:02Z</time>
      </trkpt>
      <trkpt lat="50.58128" lon="3.27144">
        <ele>53.931679</ele>
        <time>2018-11-06T13:12:04Z</time>
      </trkpt>
      <trkpt lat="50.58119" lon="3.2714">
        <ele>53.900738</ele>
        <time>2018-11-06T13:12:06Z</time>
      </trkpt>
      <trkpt lat="50.58111" lon="3.27137">
        <ele>53.887615</ele>
        <time>2018-11-06T13:12:08Z</time>
      </trkpt>
      <trkpt lat="50.58104" lon="3.27135">
        <ele>53.87133</ele>
        <time>2018-11-06T13:12:10Z</time>
      </trkpt>
      <trkpt lat="50.58096" lon="3.27132">
        <ele>53.81324</ele>
        <time>2018-11-06T13:12:12Z</time>
      </trkpt>
      <trkpt lat="50.58087" lon="3.27129">
        <ele>53.751686</ele>
        <time>2018-11-06T13:12:14Z</time>
      </trkpt>
      <trkpt lat="50.58079" lon="3.27128">
        <ele>53.688118</ele>
        <time>2018-11-06T13:12:16Z</time>
      </trkpt>
      <trkpt lat="50.5807" lon="3.27126">
        <ele>53.64447</ele>
        <time>2018-11-06T13:12:18Z</time>
      </trkpt>
      <trkpt lat="50.58062" lon="3.27124">
        <ele>53.633965</ele>
        <time>2018-11-06T13:12:20Z</time>
      </trkpt>
      <trkpt lat="50.58055" lon="3.27124">
        <ele>53.596352</ele>
        <time>2018-11-06T13:12:22Z</time>
      </trkpt>
      <trkpt lat="50.58047" lon="3.27124">
        <ele>53.600777</ele>
        <time>2018-11-06T13:12:24Z</time>
      </trkpt>
      <trkpt lat="50.5804" lon="3.27124">
        <ele>53.550011</ele>
        <time>2018-11-06T13:12:26Z</time>
      </trkpt>
      <trkpt lat="50.58032" lon="3.27125">
        <ele>53.450878</ele>
        <time>2018-11-06T13:12:28Z</time>
      </trkpt>
      <trkpt lat="50.58023" lon="3.27128">
        <ele>53.391949</ele>
        <time>2018-11-06T13:12:30Z</time>
      </trkpt>
      <trkpt lat="50.58015" lon="3.2713">
        <ele>53.373573</ele>
        <time>2018-11-06T13:12:32Z</time>
      </trkpt>
      <trkpt lat="50.58007" lon="3.27133">
        <ele>53.350758</ele>
        <time>2018-11-06T13:12:34Z</time>
      </trkpt>
      <trkpt lat="50.57999" lon="3.27136">
        <ele>53.304436</ele>
        <time>2018-11-06T13:12:36Z</time>
      </trkpt>
      <trkpt lat="50.57991" lon="3.2714">
        <ele>53.302692</ele>
        <time>2018-11-06T13:12:38Z</time>
      </trkpt>
      <trkpt lat="50.57983" lon="3.27144">
        <ele>53.269875</ele>
        <time>2018-11-06T13:12:40Z</time>
      </trkpt>
      <trkpt lat="50.57976" lon="3.27147">
        <ele>53.306774</ele>
        <time>2018-11-06T13:12:42Z</time>
      </trkpt>
      <trkpt lat="50.57968" lon="3.2715">
        <ele>53.3148</ele>
        <time>2018-11-06T13:12:44Z</time>
      </trkpt>
      <trkpt lat="50.5796" lon="3.27153">
        <ele>53.325603</ele>
        <time>2018-11-06T13:12:46Z</time>
      </trkpt>
      <trkpt lat="50.57952" lon="3.27155">
        <ele>53.289375</ele>
        <time>2018-11-06T13:12:48Z</time>
      </trkpt>
      <trkpt lat="50.57944" lon="3.27156">
        <ele>53.360115</ele>
        <time>2018-11-06T13:12:50Z</time>
      </trkpt>
      <trkpt lat="50.57936" lon="3.27157">
        <ele>53.408852</ele>
        <time>2018-11-06T13:12:52Z</time>
      </trkpt>
      <trkpt lat="50.57928" lon="3.27157">
        <ele>53.499733</ele>
        <time>2018-11-06T13:12:54Z</time>
      </trkpt>
      <trkpt lat="50.5792" lon="3.27156">
        <ele>53.553059</ele>
        <time>2018-11-06T13:12:56Z</time>
      </trkpt>
      <trkpt lat="50.57912" lon="3.27155">
        <ele>53.578228</ele>
        <time>2018-11-06T13:12:58Z</time>
      </trkpt>
      <trkpt lat="50.57904" lon="3.27153">
        <ele>53.586475</ele>
        <time>2018-11-06T13:13:00Z</time>
      </trkpt>
      <trkpt lat="50.57896" lon="3.27151">
        <ele>53.645924</ele>
        <time>2018-11-06T13:13:02Z</time>
      </trkpt>
      <trkpt lat="50.57888" lon="3.27148">
        <ele>53.677113</ele>
        <time>2018-11-06T13:13:04Z</time>
      </trkpt>
      <trkpt lat="50.5788" lon="3.27145">
        <ele>53.685871</ele>
        <time>2018-11-06T13:13:06Z</time>
      </trkpt>
      <trkpt lat="50.57873" lon="3.27143">
        <ele>53.750023</ele>
        <time>2018-11-06T13:13:08Z</time>
      </trkpt>
      <trkpt lat="50.57865" lon="3.2714">
        <ele>53.864937</ele>
        <time>2018-11-06T13:13:10Z</time>
      </trkpt>
      <trkpt lat="50.57858" lon="3.27136">
        <ele>53.909508</ele>
        <time>2018-11-06T13:13:12Z</time>
      </trkpt>
      <trkpt lat="50.5785" lon="3.27133">
        <ele>53.975899</ele>
        <time>2018-11-06T13:13:14Z</time>
      </trkpt>
      <trkpt lat="50.57842" lon="3.2713">
        <ele>54.063244</ele>
        <time>2018-11-06T13:13:16Z</time>
      </trkpt>
      <trkpt lat="50.57834" lon="3.27127">
        <ele>54.089691</ele>
        <time>2018-11-06T13:13:18Z</time>
      </trkpt>
      <trkpt lat="50.57826" lon="3.27124">
        <ele>54.125175</ele>
        <time>2018-11-06T13:13:20Z</time>
      </trkpt>
      <trkpt lat="50.57818" lon="3.27121">
        <ele>54.098579</ele>
        <time>2018-11-06T13:13:22Z</time>
      </trkpt>
      <trkpt lat="50.5781" lon="3.27118">
        <ele>54.108051</ele>
        <time>2018-11-06T13:13:24Z</time>
      </trkpt>
      <trkpt lat="50.57802" lon="3.27115">
        <ele>54.19326</ele>
        <time>2018-11-06T13:13:26Z</time>
      </trkpt>
      <trkpt lat="50.57795" lon="3.27112">
        <ele>54.258453</ele>
        <time>2018-11-06T13:13:28Z</time>
      </trkpt>
      <trkpt lat="50.57787" lon="3.27109">
        <ele>54.291492</ele>
        <time>2018-11-06T13:13:30Z</time>
      </trkpt>
      <trkpt lat="50.5778" lon="3.27105">
        <ele>54.282368</ele>
        <time>2018-11-06T13:13:32Z</time>
      </trkpt>
      <trkpt lat="50.57772" lon="3.271">
        <ele>54.307392</ele>
        <time>2018-11-06T13:13:34Z</time>
      </trkpt>
      <trkpt lat="50.57765" lon="3.27095">
        <ele>54.329979</ele>
        <time>2018-11-06T13:13:36Z</time>
      </trkpt>
      <trkpt lat="50.57758" lon="3.27092">
        <ele>54.362427</ele>
        <time>2018-11-06T13:13:38Z</time>
      </trkpt>
      <trkpt lat="50.5775" lon="3.2709">
        <ele>54.376137</ele>
        <time>2018-11-06T13:13:40Z</time>
      </trkpt>
      <trkpt lat="50.57742" lon="3.27088">
        <ele>54.405876</ele>
        <time>2018-11-06T13:13:42Z</time>
      </trkpt>
      <trkpt lat="50.57734" lon="3.27087">
        <ele>54.407768</ele>
        <time>2018-11-06T13:13:44Z</time>
      </trkpt>
      <trkpt lat="50.57725" lon="3.27085">
        <ele>54.459023</ele>
        <time>2018-11-06T13:13:46Z</time>
      </trkpt>
      <trkpt lat="50.57716" lon="3.27084">
        <ele>54.495758</ele>
        <time>2018-11-06T13:13:48Z</time>
      </trkpt>
      <trkpt lat="50.57707" lon="3.27083">
        <ele>54.460182</ele>
        <time>2018-11-06T13:13:50Z</time>
      </trkpt>
      <trkpt lat="50.57698" lon="3.2708">
        <ele>54.480263</ele>
        <time>2018-11-06T13:13:52Z</time>
      </trkpt>
      <trkpt lat="50.5769" lon="3.27077">
        <ele>54.50816</ele>
        <time>2018-11-06T13:13:54Z</time>
      </trkpt>
      <trkpt lat="50.57682" lon="3.27075">
        <ele>54.467884</ele>
        <time>2018-11-06T13:13:56Z</time>
      </trkpt>
      <trkpt lat="50.57674" lon="3.27072">
        <ele>54.490284</ele>
        <time>2018-11-06T13:13:58Z</time>
      </trkpt>
      <trkpt lat="50.57666" lon="3.27069">
        <ele>54.507824</ele>
        <time>2018-11-06T13:14:00Z</time>
      </trkpt>
      <trkpt lat="50.57659" lon="3.27065">
        <ele>54.548302</ele>
        <time>2018-11-06T13:14:02Z</time>
      </trkpt>
      <trkpt lat="50.57651" lon="3.27062">
        <ele>54.578278</ele>
        <time>2018-11-06T13:14:04Z</time>
      </trkpt>
      <trkpt lat="50.57644" lon="3.27059">
        <ele>54.557373</ele>
        <time>2018-11-06T13:14:06Z</time>
      </trkpt>
      <trkpt lat="50.57636" lon="3.27056">
        <ele>54.574371</ele>
        <time>2018-11-06T13:14:08Z</time>
      </trkpt>
      <trkpt lat="50.57629" lon="3.27053">
        <ele>54.574444</ele>
        <time>2018-11-06T13:14:10Z</time>
      </trkpt>
      <trkpt lat="50.57621" lon="3.2705">
        <ele>54.637707</ele>
        <time>2018-11-06T13:14:12Z</time>
      </trkpt>
      <trkpt lat="50.57613" lon="3.27047">
        <ele>54.670776</ele>
        <time>2018-11-06T13:14:14Z</time>
      </trkpt>
      <trkpt lat="50.57605" lon="3.27044">
        <ele>54.703846</ele>
        <time>2018-11-06T13:14:16Z</time>
      </trkpt>
      <trkpt lat="50.57597" lon="3.27042">
        <ele>54.71516</ele>
        <time>2018-11-06T13:14:18Z</time>
      </trkpt>
      <trkpt lat="50.5759" lon="3.27038">
        <ele>54.810181</ele>
        <time>2018-11-06T13:14:20Z</time>
      </trkpt>
      <trkpt lat="50.57582" lon="3.27034">
        <ele>54.752739</ele>
        <time>2018-11-06T13:14:22Z</time>
      </trkpt>
      <trkpt lat="50.57573" lon="3.27031">
        <ele>54.787251</ele>
        <time>2018-11-06T13:14:24Z</time>
      </trkpt>
      <trkpt lat="50.57566" lon="3.27028">
        <ele>54.832497</ele>
        <time>2018-11-06T13:14:26Z</time>
      </trkpt>
      <trkpt lat="50.57557" lon="3.27024">
        <ele>54.834557</ele>
        <time>2018-11-06T13:14:28Z</time>
      </trkpt>
      <trkpt lat="50.57549" lon="3.27021">
        <ele>54.849529</ele>
        <time>2018-11-06T13:14:30Z</time>
      </trkpt>
      <trkpt lat="50.57541" lon="3.27015">
        <ele>54.897289</ele>
        <time>2018-11-06T13:14:32Z</time>
      </trkpt>
      <trkpt lat="50.57533" lon="3.2701">
        <ele>54.931297</ele>
        <time>2018-11-06T13:14:34Z</time>
      </trkpt>
      <trkpt lat="50.57525" lon="3.27004">
        <ele>54.921516</ele>
        <time>2018-11-06T13:14:36Z</time>
      </trkpt>
      <trkpt lat="50.57517" lon="3.26998">
        <ele>54.976643</ele>
        <time>2018-11-06T13:14:38Z</time>
      </trkpt>
      <trkpt lat="50.57509" lon="3.26991">
        <ele>54.948647</ele>
        <time>2018-11-06T13:14:40Z</time>
      </trkpt>
      <trkpt lat="50.57502" lon="3.26984">
        <ele>54.984997</ele>
        <time>2018-11-06T13:14:42Z</time>
      </trkpt>
      <trkpt lat="50.57495" lon="3.26976">
        <ele>55.028492</ele>
        <time>2018-11-06T13:14:44Z</time>
      </trkpt>
      <trkpt lat="50.57488" lon="3.26968">
        <ele>55.035046</ele>
        <time>2018-11-06T13:14:46Z</time>
      </trkpt>
      <trkpt lat="50.57481" lon="3.2696">
        <ele>55.051186</ele>
        <time>2018-11-06T13:14:48Z</time>
      </trkpt>
      <trkpt lat="50.57474" lon="3.26953">
        <ele>55.099403</ele>
        <time>2018-11-06T13:14:50Z</time>
      </trkpt>
      <trkpt lat="50.57467" lon="3.26946">
        <ele>55.107922</ele>
        <time>2018-11-06T13:14:52Z</time>
      </trkpt>
      <trkpt lat="50.5746" lon="3.26939">
        <ele>55.159588</ele>
        <time>2018-11-06T13:14:54Z</time>
      </trkpt>
      <trkpt lat="50.57454" lon="3.26933">
        <ele>55.208569</ele>
        <time>2018-11-06T13:14:56Z</time>
      </trkpt>
      <trkpt lat="50.57447" lon="3.26928">
        <ele>55.315117</ele>
        <time>2018-11-06T13:14:58Z</time>
      </trkpt>
      <trkpt lat="50.5744" lon="3.26924">
        <ele>55.407776</ele>
        <time>2018-11-06T13:15:00Z</time>
      </trkpt>
      <trkpt lat="50.57433" lon="3.2692">
        <ele>55.546764</ele>
        <time>2018-11-06T13:15:02Z</time>
      </trkpt>
      <trkpt lat="50.57426" lon="3.26916">
        <ele>55.702049</ele>
        <time>2018-11-06T13:15:04Z</time>
      </trkpt>
      <trkpt lat="50.57419" lon="3.26911">
        <ele>55.843895</ele>
        <time>2018-11-06T13:15:06Z</time>
      </trkpt>
      <trkpt lat="50.57412" lon="3.26906">
        <ele>55.990211</ele>
        <time>2018-11-06T13:15:08Z</time>
      </trkpt>
      <trkpt lat="50.57406" lon="3.26902">
        <ele>56.164471</ele>
        <time>2018-11-06T13:15:10Z</time>
      </trkpt>
      <trkpt lat="50.57398" lon="3.269">
        <ele>56.365002</ele>
        <time>2018-11-06T13:15:12Z</time>
      </trkpt>
      <trkpt lat="50.57391" lon="3.26898">
        <ele>56.608814</ele>
        <time>2018-11-06T13:15:14Z</time>
      </trkpt>
      <trkpt lat="50.57383" lon="3.26896">
        <ele>56.855721</ele>
        <time>2018-11-06T13:15:16Z</time>
      </trkpt>
      <trkpt lat="50.57375" lon="3.26894">
        <ele>56.992096</ele>
        <time>2018-11-06T13:15:18Z</time>
      </trkpt>
      <trkpt lat="50.57367" lon="3.26893">
        <ele>57.250214</ele>
        <time>2018-11-06T13:15:20Z</time>
      </trkpt>
      <trkpt lat="50.5736" lon="3.26892">
        <ele>57.57135</ele>
        <time>2018-11-06T13:15:22Z</time>
      </trkpt>
      <trkpt lat="50.57353" lon="3.26891">
        <ele>57.848122</ele>
        <time>2018-11-06T13:15:24Z</time>
      </trkpt>
      <trkpt lat="50.57346" lon="3.26891">
        <ele>58.149086</ele>
        <time>2018-11-06T13:15:26Z</time>
      </trkpt>
      <trkpt lat="50.57339" lon="3.2689">
        <ele>58.468342</ele>
        <time>2018-11-06T13:15:28Z</time>
      </trkpt>
      <trkpt lat="50.57332" lon="3.2689">
        <ele>58.753868</ele>
        <time>2018-11-06T13:15:30Z</time>
      </trkpt>
      <trkpt lat="50.57326" lon="3.26889">
        <ele>59.003399</ele>
        <time>2018-11-06T13:15:32Z</time>
      </trkpt>
      <trkpt lat="50.57319" lon="3.26888">
        <ele>59.299675</ele>
        <time>2018-11-06T13:15:34Z</time>
      </trkpt>
      <trkpt lat="50.57312" lon="3.26888">
        <ele>59.571217</ele>
        <time>2018-11-06T13:15:36Z</time>
      </trkpt>
      <trkpt lat="50.57305" lon="3.26887">
        <ele>59.804253</ele>
        <time>2018-11-06T13:15:38Z</time>
      </trkpt>
      <trkpt lat="50.57298" lon="3.26887">
        <ele>60.028198</ele>
        <time>2018-11-06T13:15:40Z</time>
      </trkpt>
      <trkpt lat="50.57291" lon="3.26887">
        <ele>60.234856</ele>
        <time>2018-11-06T13:15:42Z</time>
      </trkpt>
      <trkpt lat="50.57283" lon="3.26888">
        <ele>60.382008</ele>
        <time>2018-11-06T13:15:44Z</time>
      </trkpt>
      <trkpt lat="50.57277" lon="3.26889">
        <ele>60.545277</ele>
        <time>2018-11-06T13:15:46Z</time>
      </trkpt>
      <trkpt lat="50.57269" lon="3.2689">
        <ele>60.771187</ele>
        <time>2018-11-06T13:15:48Z</time>
      </trkpt>
      <trkpt lat="50.57262" lon="3.26893">
        <ele>60.923683</ele>
        <time>2018-11-06T13:15:50Z</time>
      </trkpt>
      <trkpt lat="50.57254" lon="3.26895">
        <ele>60.993401</ele>
        <time>2018-11-06T13:15:52Z</time>
      </trkpt>
      <trkpt lat="50.57245" lon="3.26897">
        <ele>61.056694</ele>
        <time>2018-11-06T13:15:54Z</time>
      </trkpt>
      <trkpt lat="50.57237" lon="3.269">
        <ele>61.065247</ele>
        <time>2018-11-06T13:15:56Z</time>
      </trkpt>
      <trkpt lat="50.57228" lon="3.26901">
        <ele>61.101135</ele>
        <time>2018-11-06T13:15:58Z</time>
      </trkpt>
      <trkpt lat="50.57219" lon="3.26902">
        <ele>61.11869</ele>
        <time>2018-11-06T13:16:00Z</time>
      </trkpt>
      <trkpt lat="50.57209" lon="3.26903">
        <ele>61.098091</ele>
        <time>2018-11-06T13:16:02Z</time>
      </trkpt>
      <trkpt lat="50.57199" lon="3.26903">
        <ele>60.976349</ele>
        <time>2018-11-06T13:16:04Z</time>
      </trkpt>
      <trkpt lat="50.57189" lon="3.26901">
        <ele>60.87896</ele>
        <time>2018-11-06T13:16:06Z</time>
      </trkpt>
      <trkpt lat="50.57179" lon="3.26899">
        <ele>60.703583</ele>
        <time>2018-11-06T13:16:08Z</time>
      </trkpt>
      <trkpt lat="50.57169" lon="3.26897">
        <ele>60.503407</ele>
        <time>2018-11-06T13:16:10Z</time>
      </trkpt>
      <trkpt lat="50.57158" lon="3.26893">
        <ele>60.317619</ele>
        <time>2018-11-06T13:16:12Z</time>
      </trkpt>
      <trkpt lat="50.57147" lon="3.26889">
        <ele>60.048431</ele>
        <time>2018-11-06T13:16:14Z</time>
      </trkpt>
      <trkpt lat="50.57135" lon="3.26884">
        <ele>59.802467</ele>
        <time>2018-11-06T13:16:16Z</time>
      </trkpt>
      <trkpt lat="50.57125" lon="3.26877">
        <ele>59.510956</ele>
        <time>2018-11-06T13:16:18Z</time>
      </trkpt>
      <trkpt lat="50.57114" lon="3.2687">
        <ele>59.124134</ele>
        <time>2018-11-06T13:16:20Z</time>
      </trkpt>
      <trkpt lat="50.57105" lon="3.26863">
        <ele>58.765663</ele>
        <time>2018-11-06T13:16:22Z</time>
      </trkpt>
      <trkpt lat="50.57096" lon="3.26856">
        <ele>58.348259</ele>
        <time>2018-11-06T13:16:24Z</time>
      </trkpt>
      <trkpt lat="50.57087" lon="3.26849">
        <ele>57.904949</ele>
        <time>2018-11-06T13:16:26Z</time>
      </trkpt>
      <trkpt lat="50.57077" lon="3.26842">
        <ele>57.461586</ele>
        <time>2018-11-06T13:16:28Z</time>
      </trkpt>
      <trkpt lat="50.57068" lon="3.26836">
        <ele>57.193501</ele>
        <time>2018-11-06T13:16:30Z</time>
      </trkpt>
      <trkpt lat="50.57058" lon="3.26831">
        <ele>56.717628</ele>
        <time>2018-11-06T13:16:32Z</time>
      </trkpt>
      <trkpt lat="50.5705" lon="3.26826">
        <ele>56.161755</ele>
        <time>2018-11-06T13:16:34Z</time>
      </trkpt>
      <trkpt lat="50.57042" lon="3.26823">
        <ele>55.610332</ele>
        <time>2018-11-06T13:16:36Z</time>
      </trkpt>
      <trkpt lat="50.57036" lon="3.26821">
        <ele>55.070263</ele>
        <time>2018-11-06T13:16:38Z</time>
      </trkpt>
      <trkpt lat="50.5703" lon="3.26819">
        <ele>54.570648</ele>
        <time>2018-11-06T13:16:40Z</time>
      </trkpt>
      <trkpt lat="50.57022" lon="3.26816">
        <ele>53.989307</ele>
        <time>2018-11-06T13:16:42Z</time>
      </trkpt>
      <trkpt lat="50.57013" lon="3.26813">
        <ele>53.418591</ele>
        <time>2018-11-06T13:16:44Z</time>
      </trkpt>
      <trkpt lat="50.57004" lon="3.2681">
        <ele>52.938988</ele>
        <time>2018-11-06T13:16:46Z</time>
      </trkpt>
      <trkpt lat="50.56994" lon="3.26807">
        <ele>52.44706</ele>
        <time>2018-11-06T13:16:48Z</time>
      </trkpt>
      <trkpt lat="50.56982" lon="3.26803">
        <ele>51.940834</ele>
        <time>2018-11-06T13:16:50Z</time>
      </trkpt>
      <trkpt lat="50.56971" lon="3.26798">
        <ele>51.491264</ele>
        <time>2018-11-06T13:16:52Z</time>
      </trkpt>
      <trkpt lat="50.56962" lon="3.26786">
        <ele>50.991173</ele>
        <time>2018-11-06T13:16:54Z</time>
      </trkpt>
      <trkpt lat="50.56955" lon="3.2677">
        <ele>50.58744</ele>
        <time>2018-11-06T13:16:56Z</time>
      </trkpt>
      <trkpt lat="50.56951" lon="3.26752">
        <ele>49.982063</ele>
        <time>2018-11-06T13:16:58Z</time>
      </trkpt>
      <trkpt lat="50.5695" lon="3.26732">
        <ele>49.785603</ele>
        <time>2018-11-06T13:17:00Z</time>
      </trkpt>
      <trkpt lat="50.56951" lon="3.26713">
        <ele>49.36797</ele>
        <time>2018-11-06T13:17:02Z</time>
      </trkpt>
      <trkpt lat="50.56952" lon="3.26694">
        <ele>48.85733</ele>
        <time>2018-11-06T13:17:04Z</time>
      </trkpt>
      <trkpt lat="50.56954" lon="3.26675">
        <ele>48.507252</ele>
        <time>2018-11-06T13:17:06Z</time>
      </trkpt>
      <trkpt lat="50.56956" lon="3.26657">
        <ele>48.163902</ele>
        <time>2018-11-06T13:17:08Z</time>
      </trkpt>
      <trkpt lat="50.56957" lon="3.2664">
        <ele>47.839485</ele>
        <time>2018-11-06T13:17:10Z</time>
      </trkpt>
      <trkpt lat="50.56958" lon="3.26624">
        <ele>47.506428</ele>
        <time>2018-11-06T13:17:12Z</time>
      </trkpt>
      <trkpt lat="50.56957" lon="3.2661">
        <ele>47.292072</ele>
        <time>2018-11-06T13:17:14Z</time>
      </trkpt>
      <trkpt lat="50.56957" lon="3.26596">
        <ele>47.111176</ele>
        <time>2018-11-06T13:17:16Z</time>
      </trkpt>
      <trkpt lat="50.56955" lon="3.26585">
        <ele>46.86866</ele>
        <time>2018-11-06T13:17:18Z</time>
      </trkpt>
      <trkpt lat="50.56957" lon="3.26577">
        <ele>46.709503</ele>
        <time>2018-11-06T13:17:20Z</time>
      </trkpt>
      <trkpt lat="50.56961" lon="3.26574">
        <ele>46.506432</ele>
        <time>2018-11-06T13:17:22Z</time>
      </trkpt>
      <trkpt lat="50.56963" lon="3.26573">
        <ele>46.37458</ele>
        <time>2018-11-06T13:17:24Z</time>
      </trkpt>
      <trkpt lat="50.56966" lon="3.26573">
        <ele>46.245434</ele>
        <time>2018-11-06T13:17:26Z</time>
      </trkpt>
      <trkpt lat="50.56966" lon="3.26572">
        <ele>45.658638</ele>
        <time>2018-11-06T13:19:00Z</time>
      </trkpt>
      <trkpt lat="50.56961" lon="3.26573">
        <ele>45.632576</ele>
        <time>2018-11-06T13:19:02Z</time>
      </trkpt>
      <trkpt lat="50.56955" lon="3.26575">
        <ele>45.596684</ele>
        <time>2018-11-06T13:19:04Z</time>
      </trkpt>
      <trkpt lat="50.56948" lon="3.26574">
        <ele>45.754395</ele>
        <time>2018-11-06T13:19:32Z</time>
      </trkpt>
      <trkpt lat="50.56943" lon="3.26571">
        <ele>45.809376</ele>
        <time>2018-11-06T13:19:34Z</time>
      </trkpt>
      <trkpt lat="50.56938" lon="3.26567">
        <ele>45.864037</ele>
        <time>2018-11-06T13:19:36Z</time>
      </trkpt>
      <trkpt lat="50.56932" lon="3.26564">
        <ele>45.966957</ele>
        <time>2018-11-06T13:19:38Z</time>
      </trkpt>
      <trkpt lat="50.56924" lon="3.26563">
        <ele>46.005398</ele>
        <time>2018-11-06T13:19:40Z</time>
      </trkpt>
      <trkpt lat="50.56916" lon="3.26563">
        <ele>46.04874</ele>
        <time>2018-11-06T13:19:42Z</time>
      </trkpt>
      <trkpt lat="50.56908" lon="3.26564">
        <ele>46.145164</ele>
        <time>2018-11-06T13:19:44Z</time>
      </trkpt>
      <trkpt lat="50.569" lon="3.26565">
        <ele>46.190365</ele>
        <time>2018-11-06T13:19:46Z</time>
      </trkpt>
      <trkpt lat="50.56891" lon="3.26566">
        <ele>46.260303</ele>
        <time>2018-11-06T13:19:48Z</time>
      </trkpt>
      <trkpt lat="50.56883" lon="3.26568">
        <ele>46.301094</ele>
        <time>2018-11-06T13:19:50Z</time>
      </trkpt>
      <trkpt lat="50.56875" lon="3.26569">
        <ele>46.324959</ele>
        <time>2018-11-06T13:19:52Z</time>
      </trkpt>
      <trkpt lat="50.56867" lon="3.2657">
        <ele>46.339252</ele>
        <time>2018-11-06T13:19:54Z</time>
      </trkpt>
      <trkpt lat="50.56859" lon="3.26571">
        <ele>46.394638</ele>
        <time>2018-11-06T13:19:56Z</time>
      </trkpt>
      <trkpt lat="50.56851" lon="3.26572">
        <ele>46.448582</ele>
        <time>2018-11-06T13:19:58Z</time>
      </trkpt>
      <trkpt lat="50.56843" lon="3.26571">
        <ele>46.466995</ele>
        <time>2018-11-06T13:20:00Z</time>
      </trkpt>
      <trkpt lat="50.56835" lon="3.2657">
        <ele>46.486992</ele>
        <time>2018-11-06T13:20:02Z</time>
      </trkpt>
      <trkpt lat="50.56827" lon="3.26568">
        <ele>46.517281</ele>
        <time>2018-11-06T13:20:04Z</time>
      </trkpt>
      <trkpt lat="50.56818" lon="3.26564">
        <ele>46.517681</ele>
        <time>2018-11-06T13:20:06Z</time>
      </trkpt>
      <trkpt lat="50.5681" lon="3.26561">
        <ele>46.538662</ele>
        <time>2018-11-06T13:20:08Z</time>
      </trkpt>
      <trkpt lat="50.56803" lon="3.26558">
        <ele>46.540112</ele>
        <time>2018-11-06T13:20:10Z</time>
      </trkpt>
      <trkpt lat="50.56796" lon="3.26555">
        <ele>46.529602</ele>
        <time>2018-11-06T13:20:12Z</time>
      </trkpt>
      <trkpt lat="50.56788" lon="3.26552">
        <ele>46.486137</ele>
        <time>2018-11-06T13:20:14Z</time>
      </trkpt>
      <trkpt lat="50.5678" lon="3.26548">
        <ele>46.473621</ele>
        <time>2018-11-06T13:20:16Z</time>
      </trkpt>
      <trkpt lat="50.56772" lon="3.26543">
        <ele>46.44841</ele>
        <time>2018-11-06T13:20:18Z</time>
      </trkpt>
      <trkpt lat="50.56765" lon="3.26535">
        <ele>46.428684</ele>
        <time>2018-11-06T13:20:20Z</time>
      </trkpt>
      <trkpt lat="50.56759" lon="3.26524">
        <ele>46.412384</ele>
        <time>2018-11-06T13:20:22Z</time>
      </trkpt>
      <trkpt lat="50.56755" lon="3.26511">
        <ele>46.320545</ele>
        <time>2018-11-06T13:20:24Z</time>
      </trkpt>
      <trkpt lat="50.56753" lon="3.265">
        <ele>46.253269</ele>
        <time>2018-11-06T13:20:26Z</time>
      </trkpt>
      <trkpt lat="50.56753" lon="3.26487">
        <ele>46.202988</ele>
        <time>2018-11-06T13:20:28Z</time>
      </trkpt>
      <trkpt lat="50.56754" lon="3.26475">
        <ele>46.133858</ele>
        <time>2018-11-06T13:20:30Z</time>
      </trkpt>
      <trkpt lat="50.56757" lon="3.26463">
        <ele>46.096416</ele>
        <time>2018-11-06T13:20:32Z</time>
      </trkpt>
      <trkpt lat="50.56761" lon="3.26451">
        <ele>46.076935</ele>
        <time>2018-11-06T13:20:34Z</time>
      </trkpt>
      <trkpt lat="50.56765" lon="3.26438">
        <ele>46.093868</ele>
        <time>2018-11-06T13:20:36Z</time>
      </trkpt>
      <trkpt lat="50.56768" lon="3.26426">
        <ele>46.109955</ele>
        <time>2018-11-06T13:20:38Z</time>
      </trkpt>
      <trkpt lat="50.56772" lon="3.26414">
        <ele>46.092674</ele>
        <time>2018-11-06T13:20:40Z</time>
      </trkpt>
      <trkpt lat="50.56776" lon="3.26401">
        <ele>46.072105</ele>
        <time>2018-11-06T13:20:42Z</time>
      </trkpt>
      <trkpt lat="50.5678" lon="3.26388">
        <ele>46.087788</ele>
        <time>2018-11-06T13:20:44Z</time>
      </trkpt>
      <trkpt lat="50.56784" lon="3.26375">
        <ele>46.100441</ele>
        <time>2018-11-06T13:20:46Z</time>
      </trkpt>
      <trkpt lat="50.56788" lon="3.26363">
        <ele>46.129406</ele>
        <time>2018-11-06T13:20:48Z</time>
      </trkpt>
      <trkpt lat="50.5679" lon="3.26351">
        <ele>46.148384</ele>
        <time>2018-11-06T13:20:50Z</time>
      </trkpt>
      <trkpt lat="50.56792" lon="3.26339">
        <ele>46.220345</ele>
        <time>2018-11-06T13:20:52Z</time>
      </trkpt>
      <trkpt lat="50.56796" lon="3.26327">
        <ele>46.312763</ele>
        <time>2018-11-06T13:20:54Z</time>
      </trkpt>
      <trkpt lat="50.56799" lon="3.26314">
        <ele>46.415977</ele>
        <time>2018-11-06T13:20:56Z</time>
      </trkpt>
      <trkpt lat="50.56802" lon="3.263">
        <ele>46.464394</ele>
        <time>2018-11-06T13:20:58Z</time>
      </trkpt>
      <trkpt lat="50.56806" lon="3.26287">
        <ele>46.529213</ele>
        <time>2018-11-06T13:21:00Z</time>
      </trkpt>
      <trkpt lat="50.5681" lon="3.26273">
        <ele>46.572433</ele>
        <time>2018-11-06T13:21:02Z</time>
      </trkpt>
      <trkpt lat="50.56815" lon="3.26259">
        <ele>46.664574</ele>
        <time>2018-11-06T13:21:04Z</time>
      </trkpt>
      <trkpt lat="50.56819" lon="3.26245">
        <ele>46.712421</ele>
        <time>2018-11-06T13:21:06Z</time>
      </trkpt>
      <trkpt lat="50.56824" lon="3.26232">
        <ele>46.861145</ele>
        <time>2018-11-06T13:21:08Z</time>
      </trkpt>
      <trkpt lat="50.56828" lon="3.26219">
        <ele>46.899918</ele>
        <time>2018-11-06T13:21:10Z</time>
      </trkpt>
      <trkpt lat="50.56832" lon="3.26207">
        <ele>47.003212</ele>
        <time>2018-11-06T13:21:12Z</time>
      </trkpt>
      <trkpt lat="50.56837" lon="3.26193">
        <ele>47.087341</ele>
        <time>2018-11-06T13:21:14Z</time>
      </trkpt>
      <trkpt lat="50.56841" lon="3.2618">
        <ele>47.183758</ele>
        <time>2018-11-06T13:21:16Z</time>
      </trkpt>
      <trkpt lat="50.56846" lon="3.26167">
        <ele>47.27681</ele>
        <time>2018-11-06T13:21:18Z</time>
      </trkpt>
      <trkpt lat="50.5685" lon="3.26154">
        <ele>47.346352</ele>
        <time>2018-11-06T13:21:20Z</time>
      </trkpt>
      <trkpt lat="50.56855" lon="3.26141">
        <ele>47.435719</ele>
        <time>2018-11-06T13:21:22Z</time>
      </trkpt>
      <trkpt lat="50.56859" lon="3.26129">
        <ele>47.511581</ele>
        <time>2018-11-06T13:21:24Z</time>
      </trkpt>
      <trkpt lat="50.56863" lon="3.26116">
        <ele>47.602245</ele>
        <time>2018-11-06T13:21:26Z</time>
      </trkpt>
      <trkpt lat="50.56868" lon="3.26104">
        <ele>47.667671</ele>
        <time>2018-11-06T13:21:28Z</time>
      </trkpt>
      <trkpt lat="50.56872" lon="3.2609">
        <ele>47.754787</ele>
        <time>2018-11-06T13:21:30Z</time>
      </trkpt>
      <trkpt lat="50.56876" lon="3.26077">
        <ele>47.807518</ele>
        <time>2018-11-06T13:21:32Z</time>
      </trkpt>
      <trkpt lat="50.56879" lon="3.26063">
        <ele>47.80571</ele>
        <time>2018-11-06T13:21:34Z</time>
      </trkpt>
      <trkpt lat="50.56883" lon="3.26048">
        <ele>47.835499</ele>
        <time>2018-11-06T13:21:36Z</time>
      </trkpt>
      <trkpt lat="50.56886" lon="3.26033">
        <ele>47.868397</ele>
        <time>2018-11-06T13:21:38Z</time>
      </trkpt>
      <trkpt lat="50.56889" lon="3.26019">
        <ele>47.906467</ele>
        <time>2018-11-06T13:21:40Z</time>
      </trkpt>
      <trkpt lat="50.56892" lon="3.26004">
        <ele>47.919384</ele>
        <time>2018-11-06T13:21:42Z</time>
      </trkpt>
      <trkpt lat="50.56896" lon="3.25989">
        <ele>47.94746</ele>
        <time>2018-11-06T13:21:44Z</time>
      </trkpt>
      <trkpt lat="50.56899" lon="3.25973">
        <ele>47.948185</ele>
        <time>2018-11-06T13:21:46Z</time>
      </trkpt>
      <trkpt lat="50.56902" lon="3.25958">
        <ele>47.953438</ele>
        <time>2018-11-06T13:21:48Z</time>
      </trkpt>
      <trkpt lat="50.56905" lon="3.25943">
        <ele>47.912872</ele>
        <time>2018-11-06T13:21:50Z</time>
      </trkpt>
      <trkpt lat="50.56909" lon="3.25928">
        <ele>47.845303</ele>
        <time>2018-11-06T13:21:52Z</time>
      </trkpt>
      <trkpt lat="50.56912" lon="3.25913">
        <ele>47.80806</ele>
        <time>2018-11-06T13:21:54Z</time>
      </trkpt>
      <trkpt lat="50.56915" lon="3.25898">
        <ele>47.782051</ele>
        <time>2018-11-06T13:21:56Z</time>
      </trkpt>
      <trkpt lat="50.56918" lon="3.25883">
        <ele>47.734169</ele>
        <time>2018-11-06T13:21:58Z</time>
      </trkpt>
      <trkpt lat="50.56921" lon="3.25868">
        <ele>47.643467</ele>
        <time>2018-11-06T13:22:00Z</time>
      </trkpt>
      <trkpt lat="50.56924" lon="3.25854">
        <ele>47.625237</ele>
        <time>2018-11-06T13:22:02Z</time>
      </trkpt>
      <trkpt lat="50.56928" lon="3.2584">
        <ele>47.622261</ele>
        <time>2018-11-06T13:22:04Z</time>
      </trkpt>
      <trkpt lat="50.56931" lon="3.25825">
        <ele>47.623764</ele>
        <time>2018-11-06T13:22:06Z</time>
      </trkpt>
      <trkpt lat="50.56934" lon="3.25811">
        <ele>47.634533</ele>
        <time>2018-11-06T13:22:08Z</time>
      </trkpt>
      <trkpt lat="50.56938" lon="3.25797">
        <ele>47.6334</ele>
        <time>2018-11-06T13:22:10Z</time>
      </trkpt>
      <trkpt lat="50.56941" lon="3.25782">
        <ele>47.588963</ele>
        <time>2018-11-06T13:22:12Z</time>
      </trkpt>
      <trkpt lat="50.56944" lon="3.25767">
        <ele>47.554417</ele>
        <time>2018-11-06T13:22:14Z</time>
      </trkpt>
      <trkpt lat="50.56948" lon="3.25753">
        <ele>47.536003</ele>
        <time>2018-11-06T13:22:16Z</time>
      </trkpt>
      <trkpt lat="50.56952" lon="3.25739">
        <ele>47.505424</ele>
        <time>2018-11-06T13:22:18Z</time>
      </trkpt>
      <trkpt lat="50.56955" lon="3.25726">
        <ele>47.47686</ele>
        <time>2018-11-06T13:22:20Z</time>
      </trkpt>
      <trkpt lat="50.56959" lon="3.25713">
        <ele>47.530067</ele>
        <time>2018-11-06T13:22:22Z</time>
      </trkpt>
      <trkpt lat="50.56963" lon="3.25699">
        <ele>47.520607</ele>
        <time>2018-11-06T13:22:24Z</time>
      </trkpt>
      <trkpt lat="50.56966" lon="3.25686">
        <ele>47.543915</ele>
        <time>2018-11-06T13:22:26Z</time>
      </trkpt>
      <trkpt lat="50.56969" lon="3.25673">
        <ele>47.53651</ele>
        <time>2018-11-06T13:22:28Z</time>
      </trkpt>
      <trkpt lat="50.56972" lon="3.2566">
        <ele>47.607243</ele>
        <time>2018-11-06T13:22:30Z</time>
      </trkpt>
      <trkpt lat="50.56975" lon="3.25647">
        <ele>47.657143</ele>
        <time>2018-11-06T13:22:32Z</time>
      </trkpt>
      <trkpt lat="50.56978" lon="3.25633">
        <ele>47.703369</ele>
        <time>2018-11-06T13:22:34Z</time>
      </trkpt>
      <trkpt lat="50.56981" lon="3.2562">
        <ele>47.797691</ele>
        <time>2018-11-06T13:22:36Z</time>
      </trkpt>
      <trkpt lat="50.56984" lon="3.25606">
        <ele>47.852531</ele>
        <time>2018-11-06T13:22:38Z</time>
      </trkpt>
      <trkpt lat="50.56987" lon="3.25593">
        <ele>47.994392</ele>
        <time>2018-11-06T13:22:40Z</time>
      </trkpt>
      <trkpt lat="50.5699" lon="3.25579">
        <ele>48.079842</ele>
        <time>2018-11-06T13:22:42Z</time>
      </trkpt>
      <trkpt lat="50.56992" lon="3.25566">
        <ele>48.189556</ele>
        <time>2018-11-06T13:22:44Z</time>
      </trkpt>
      <trkpt lat="50.56994" lon="3.25553">
        <ele>48.271244</ele>
        <time>2018-11-06T13:22:46Z</time>
      </trkpt>
      <trkpt lat="50.56997" lon="3.2554">
        <ele>48.327217</ele>
        <time>2018-11-06T13:22:48Z</time>
      </trkpt>
      <trkpt lat="50.57" lon="3.25526">
        <ele>48.374489</ele>
        <time>2018-11-06T13:22:50Z</time>
      </trkpt>
      <trkpt lat="50.57002" lon="3.25513">
        <ele>48.446907</ele>
        <time>2018-11-06T13:22:52Z</time>
      </trkpt>
      <trkpt lat="50.57005" lon="3.255">
        <ele>48.533638</ele>
        <time>2018-11-06T13:22:54Z</time>
      </trkpt>
      <trkpt lat="50.57007" lon="3.25487">
        <ele>48.656803</ele>
        <time>2018-11-06T13:22:56Z</time>
      </trkpt>
      <trkpt lat="50.57011" lon="3.25474">
        <ele>48.824951</ele>
        <time>2018-11-06T13:22:58Z</time>
      </trkpt>
      <trkpt lat="50.57014" lon="3.25462">
        <ele>48.918861</ele>
        <time>2018-11-06T13:23:00Z</time>
      </trkpt>
      <trkpt lat="50.57018" lon="3.25449">
        <ele>49.018345</ele>
        <time>2018-11-06T13:23:02Z</time>
      </trkpt>
      <trkpt lat="50.57023" lon="3.25438">
        <ele>49.192833</ele>
        <time>2018-11-06T13:23:04Z</time>
      </trkpt>
      <trkpt lat="50.57027" lon="3.25426">
        <ele>49.254421</ele>
        <time>2018-11-06T13:23:06Z</time>
      </trkpt>
      <trkpt lat="50.57032" lon="3.25414">
        <ele>49.374653</ele>
        <time>2018-11-06T13:23:08Z</time>
      </trkpt>
      <trkpt lat="50.57036" lon="3.25402">
        <ele>49.573345</ele>
        <time>2018-11-06T13:23:10Z</time>
      </trkpt>
      <trkpt lat="50.57041" lon="3.2539">
        <ele>49.759636</ele>
        <time>2018-11-06T13:23:12Z</time>
      </trkpt>
      <trkpt lat="50.57047" lon="3.25378">
        <ele>49.966579</ele>
        <time>2018-11-06T13:23:14Z</time>
      </trkpt>
      <trkpt lat="50.57051" lon="3.25366">
        <ele>50.149803</ele>
        <time>2018-11-06T13:23:16Z</time>
      </trkpt>
      <trkpt lat="50.57056" lon="3.25353">
        <ele>50.319817</ele>
        <time>2018-11-06T13:23:18Z</time>
      </trkpt>
      <trkpt lat="50.57061" lon="3.2534">
        <ele>50.540821</ele>
        <time>2018-11-06T13:23:20Z</time>
      </trkpt>
      <trkpt lat="50.57065" lon="3.25327">
        <ele>50.717384</ele>
        <time>2018-11-06T13:23:22Z</time>
      </trkpt>
      <trkpt lat="50.5707" lon="3.25314">
        <ele>50.898582</ele>
        <time>2018-11-06T13:23:24Z</time>
      </trkpt>
      <trkpt lat="50.57074" lon="3.253">
        <ele>51.091991</ele>
        <time>2018-11-06T13:23:26Z</time>
      </trkpt>
      <trkpt lat="50.57077" lon="3.25286">
        <ele>51.324718</ele>
        <time>2018-11-06T13:23:28Z</time>
      </trkpt>
      <trkpt lat="50.57081" lon="3.25272">
        <ele>51.584766</ele>
        <time>2018-11-06T13:23:30Z</time>
      </trkpt>
      <trkpt lat="50.57084" lon="3.25257">
        <ele>51.804962</ele>
        <time>2018-11-06T13:23:32Z</time>
      </trkpt>
      <trkpt lat="50.57087" lon="3.25242">
        <ele>51.996315</ele>
        <time>2018-11-06T13:23:34Z</time>
      </trkpt>
      <trkpt lat="50.5709" lon="3.25227">
        <ele>52.220428</ele>
        <time>2018-11-06T13:23:36Z</time>
      </trkpt>
      <trkpt lat="50.57094" lon="3.25213">
        <ele>52.386009</ele>
        <time>2018-11-06T13:23:38Z</time>
      </trkpt>
      <trkpt lat="50.57097" lon="3.25198">
        <ele>52.548561</ele>
        <time>2018-11-06T13:23:40Z</time>
      </trkpt>
      <trkpt lat="50.571" lon="3.25184">
        <ele>52.642921</ele>
        <time>2018-11-06T13:23:42Z</time>
      </trkpt>
      <trkpt lat="50.57103" lon="3.2517">
        <ele>52.831196</ele>
        <time>2018-11-06T13:23:44Z</time>
      </trkpt>
      <trkpt lat="50.57107" lon="3.25155">
        <ele>52.96627</ele>
        <time>2018-11-06T13:23:46Z</time>
      </trkpt>
      <trkpt lat="50.5711" lon="3.25138">
        <ele>53.146294</ele>
        <time>2018-11-06T13:23:48Z</time>
      </trkpt>
      <trkpt lat="50.57111" lon="3.25122">
        <ele>53.25227</ele>
        <time>2018-11-06T13:23:50Z</time>
      </trkpt>
      <trkpt lat="50.5711" lon="3.25105">
        <ele>53.366383</ele>
        <time>2018-11-06T13:23:52Z</time>
      </trkpt>
      <trkpt lat="50.57108" lon="3.25089">
        <ele>53.433636</ele>
        <time>2018-11-06T13:23:54Z</time>
      </trkpt>
      <trkpt lat="50.57104" lon="3.25074">
        <ele>53.546021</ele>
        <time>2018-11-06T13:23:56Z</time>
      </trkpt>
      <trkpt lat="50.57099" lon="3.2506">
        <ele>53.59198</ele>
        <time>2018-11-06T13:23:58Z</time>
      </trkpt>
      <trkpt lat="50.57093" lon="3.25048">
        <ele>53.545937</ele>
        <time>2018-11-06T13:24:00Z</time>
      </trkpt>
      <trkpt lat="50.57087" lon="3.25037">
        <ele>53.56678</ele>
        <time>2018-11-06T13:24:02Z</time>
      </trkpt>
      <trkpt lat="50.57079" lon="3.25027">
        <ele>53.543964</ele>
        <time>2018-11-06T13:24:04Z</time>
      </trkpt>
      <trkpt lat="50.57069" lon="3.25019">
        <ele>53.507011</ele>
        <time>2018-11-06T13:24:06Z</time>
      </trkpt>
      <trkpt lat="50.5706" lon="3.2501">
        <ele>53.483673</ele>
        <time>2018-11-06T13:24:08Z</time>
      </trkpt>
      <trkpt lat="50.5705" lon="3.25001">
        <ele>53.385643</ele>
        <time>2018-11-06T13:24:10Z</time>
      </trkpt>
      <trkpt lat="50.5704" lon="3.24994">
        <ele>53.316124</ele>
        <time>2018-11-06T13:24:12Z</time>
      </trkpt>
      <trkpt lat="50.57032" lon="3.24987">
        <ele>53.2812</ele>
        <time>2018-11-06T13:24:14Z</time>
      </trkpt>
      <trkpt lat="50.57025" lon="3.24982">
        <ele>53.182568</ele>
        <time>2018-11-06T13:24:16Z</time>
      </trkpt>
      <trkpt lat="50.57019" lon="3.24979">
        <ele>53.123737</ele>
        <time>2018-11-06T13:24:18Z</time>
      </trkpt>
      <trkpt lat="50.57013" lon="3.24975">
        <ele>53.052986</ele>
        <time>2018-11-06T13:24:20Z</time>
      </trkpt>
      <trkpt lat="50.57005" lon="3.24969">
        <ele>52.969444</ele>
        <time>2018-11-06T13:24:22Z</time>
      </trkpt>
      <trkpt lat="50.56997" lon="3.24962">
        <ele>52.919453</ele>
        <time>2018-11-06T13:24:24Z</time>
      </trkpt>
      <trkpt lat="50.56988" lon="3.24956">
        <ele>52.811077</ele>
        <time>2018-11-06T13:24:26Z</time>
      </trkpt>
      <trkpt lat="50.56978" lon="3.24949">
        <ele>52.700813</ele>
        <time>2018-11-06T13:24:28Z</time>
      </trkpt>
      <trkpt lat="50.56967" lon="3.24943">
        <ele>52.588982</ele>
        <time>2018-11-06T13:24:30Z</time>
      </trkpt>
      <trkpt lat="50.56956" lon="3.24938">
        <ele>52.506386</ele>
        <time>2018-11-06T13:24:32Z</time>
      </trkpt>
      <trkpt lat="50.56945" lon="3.24931">
        <ele>52.421448</ele>
        <time>2018-11-06T13:24:34Z</time>
      </trkpt>
      <trkpt lat="50.56934" lon="3.24925">
        <ele>52.275677</ele>
        <time>2018-11-06T13:24:36Z</time>
      </trkpt>
      <trkpt lat="50.56923" lon="3.24919">
        <ele>52.158344</ele>
        <time>2018-11-06T13:24:38Z</time>
      </trkpt>
      <trkpt lat="50.56913" lon="3.24912">
        <ele>52.028229</ele>
        <time>2018-11-06T13:24:40Z</time>
      </trkpt>
      <trkpt lat="50.56902" lon="3.24906">
        <ele>51.905678</ele>
        <time>2018-11-06T13:24:42Z</time>
      </trkpt>
      <trkpt lat="50.56892" lon="3.249">
        <ele>51.784157</ele>
        <time>2018-11-06T13:24:44Z</time>
      </trkpt>
      <trkpt lat="50.56881" lon="3.24893">
        <ele>51.675903</ele>
        <time>2018-11-06T13:24:46Z</time>
      </trkpt>
      <trkpt lat="50.56871" lon="3.24887">
        <ele>51.554638</ele>
        <time>2018-11-06T13:24:48Z</time>
      </trkpt>
      <trkpt lat="50.5686" lon="3.24881">
        <ele>51.440773</ele>
        <time>2018-11-06T13:24:50Z</time>
      </trkpt>
      <trkpt lat="50.5685" lon="3.24877">
        <ele>51.383392</ele>
        <time>2018-11-06T13:24:52Z</time>
      </trkpt>
      <trkpt lat="50.56839" lon="3.2487">
        <ele>51.238014</ele>
        <time>2018-11-06T13:24:54Z</time>
      </trkpt>
      <trkpt lat="50.5683" lon="3.24862">
        <ele>51.059673</ele>
        <time>2018-11-06T13:24:56Z</time>
      </trkpt>
      <trkpt lat="50.56821" lon="3.24856">
        <ele>50.939339</ele>
        <time>2018-11-06T13:24:58Z</time>
      </trkpt>
      <trkpt lat="50.5681" lon="3.2485">
        <ele>50.761196</ele>
        <time>2018-11-06T13:25:00Z</time>
      </trkpt>
      <trkpt lat="50.568" lon="3.24844">
        <ele>50.619938</ele>
        <time>2018-11-06T13:25:02Z</time>
      </trkpt>
      <trkpt lat="50.5679" lon="3.24837">
        <ele>50.501713</ele>
        <time>2018-11-06T13:25:04Z</time>
      </trkpt>
      <trkpt lat="50.56781" lon="3.2483">
        <ele>50.366833</ele>
        <time>2018-11-06T13:25:06Z</time>
      </trkpt>
      <trkpt lat="50.56773" lon="3.24822">
        <ele>50.287338</ele>
        <time>2018-11-06T13:25:08Z</time>
      </trkpt>
      <trkpt lat="50.56766" lon="3.24812">
        <ele>50.160946</ele>
        <time>2018-11-06T13:25:10Z</time>
      </trkpt>
      <trkpt lat="50.56759" lon="3.24802">
        <ele>50.055897</ele>
        <time>2018-11-06T13:25:12Z</time>
      </trkpt>
      <trkpt lat="50.56753" lon="3.24791">
        <ele>49.955826</ele>
        <time>2018-11-06T13:25:14Z</time>
      </trkpt>
      <trkpt lat="50.56747" lon="3.24781">
        <ele>49.8657</ele>
        <time>2018-11-06T13:25:16Z</time>
      </trkpt>
      <trkpt lat="50.56741" lon="3.24771">
        <ele>49.794239</ele>
        <time>2018-11-06T13:25:18Z</time>
      </trkpt>
      <trkpt lat="50.56734" lon="3.24761">
        <ele>49.768623</ele>
        <time>2018-11-06T13:25:20Z</time>
      </trkpt>
      <trkpt lat="50.56727" lon="3.2475">
        <ele>49.754967</ele>
        <time>2018-11-06T13:25:22Z</time>
      </trkpt>
      <trkpt lat="50.5672" lon="3.24739">
        <ele>49.712822</ele>
        <time>2018-11-06T13:25:24Z</time>
      </trkpt>
      <trkpt lat="50.56713" lon="3.24727">
        <ele>49.641674</ele>
        <time>2018-11-06T13:25:26Z</time>
      </trkpt>
      <trkpt lat="50.56707" lon="3.24715">
        <ele>49.58773</ele>
        <time>2018-11-06T13:25:28Z</time>
      </trkpt>
      <trkpt lat="50.56703" lon="3.24701">
        <ele>49.543739</ele>
        <time>2018-11-06T13:25:30Z</time>
      </trkpt>
      <trkpt lat="50.56699" lon="3.24687">
        <ele>49.503643</ele>
        <time>2018-11-06T13:25:32Z</time>
      </trkpt>
      <trkpt lat="50.56696" lon="3.24673">
        <ele>49.514637</ele>
        <time>2018-11-06T13:25:34Z</time>
      </trkpt>
      <trkpt lat="50.56694" lon="3.24659">
        <ele>49.593193</ele>
        <time>2018-11-06T13:25:36Z</time>
      </trkpt>
      <trkpt lat="50.56691" lon="3.24645">
        <ele>49.575459</ele>
        <time>2018-11-06T13:25:38Z</time>
      </trkpt>
      <trkpt lat="50.5669" lon="3.24631">
        <ele>49.590736</ele>
        <time>2018-11-06T13:25:40Z</time>
      </trkpt>
      <trkpt lat="50.56687" lon="3.24616">
        <ele>49.68343</ele>
        <time>2018-11-06T13:25:42Z</time>
      </trkpt>
      <trkpt lat="50.56685" lon="3.24602">
        <ele>49.757366</ele>
        <time>2018-11-06T13:25:44Z</time>
      </trkpt>
      <trkpt lat="50.56683" lon="3.24588">
        <ele>49.828461</ele>
        <time>2018-11-06T13:25:46Z</time>
      </trkpt>
      <trkpt lat="50.56681" lon="3.24574">
        <ele>49.864632</ele>
        <time>2018-11-06T13:25:48Z</time>
      </trkpt>
      <trkpt lat="50.56679" lon="3.24559">
        <ele>49.851723</ele>
        <time>2018-11-06T13:25:50Z</time>
      </trkpt>
      <trkpt lat="50.56675" lon="3.24545">
        <ele>49.886078</ele>
        <time>2018-11-06T13:25:52Z</time>
      </trkpt>
      <trkpt lat="50.56671" lon="3.24531">
        <ele>49.889885</ele>
        <time>2018-11-06T13:25:54Z</time>
      </trkpt>
      <trkpt lat="50.56665" lon="3.24518">
        <ele>49.894417</ele>
        <time>2018-11-06T13:25:56Z</time>
      </trkpt>
      <trkpt lat="50.56659" lon="3.24506">
        <ele>49.952656</ele>
        <time>2018-11-06T13:25:58Z</time>
      </trkpt>
      <trkpt lat="50.56653" lon="3.24494">
        <ele>50.007484</ele>
        <time>2018-11-06T13:26:00Z</time>
      </trkpt>
      <trkpt lat="50.56646" lon="3.24482">
        <ele>50.029774</ele>
        <time>2018-11-06T13:26:02Z</time>
      </trkpt>
      <trkpt lat="50.5664" lon="3.24471">
        <ele>50.12336</ele>
        <time>2018-11-06T13:26:04Z</time>
      </trkpt>
      <trkpt lat="50.56633" lon="3.2446">
        <ele>50.187248</ele>
        <time>2018-11-06T13:26:06Z</time>
      </trkpt>
      <trkpt lat="50.56627" lon="3.24449">
        <ele>50.245522</ele>
        <time>2018-11-06T13:26:08Z</time>
      </trkpt>
      <trkpt lat="50.5662" lon="3.24438">
        <ele>50.317123</ele>
        <time>2018-11-06T13:26:10Z</time>
      </trkpt>
      <trkpt lat="50.56612" lon="3.24428">
        <ele>50.392338</ele>
        <time>2018-11-06T13:26:12Z</time>
      </trkpt>
      <trkpt lat="50.56606" lon="3.24419">
        <ele>50.49004</ele>
        <time>2018-11-06T13:26:14Z</time>
      </trkpt>
      <trkpt lat="50.56599" lon="3.2441">
        <ele>50.562641</ele>
        <time>2018-11-06T13:26:16Z</time>
      </trkpt>
      <trkpt lat="50.56592" lon="3.24401">
        <ele>50.583637</ele>
        <time>2018-11-06T13:26:18Z</time>
      </trkpt>
      <trkpt lat="50.56586" lon="3.24394">
        <ele>50.66885</ele>
        <time>2018-11-06T13:26:20Z</time>
      </trkpt>
      <trkpt lat="50.5658" lon="3.24387">
        <ele>50.729813</ele>
        <time>2018-11-06T13:26:22Z</time>
      </trkpt>
      <trkpt lat="50.56574" lon="3.24379">
        <ele>50.793026</ele>
        <time>2018-11-06T13:26:24Z</time>
      </trkpt>
      <trkpt lat="50.56567" lon="3.24371">
        <ele>50.877647</ele>
        <time>2018-11-06T13:26:26Z</time>
      </trkpt>
      <trkpt lat="50.56561" lon="3.24363">
        <ele>50.978642</ele>
        <time>2018-11-06T13:26:28Z</time>
      </trkpt>
      <trkpt lat="50.56555" lon="3.24355">
        <ele>51.094467</ele>
        <time>2018-11-06T13:26:30Z</time>
      </trkpt>
      <trkpt lat="50.56548" lon="3.24347">
        <ele>51.258751</ele>
        <time>2018-11-06T13:26:32Z</time>
      </trkpt>
      <trkpt lat="50.56542" lon="3.24339">
        <ele>51.385059</ele>
        <time>2018-11-06T13:26:34Z</time>
      </trkpt>
      <trkpt lat="50.56535" lon="3.24332">
        <ele>51.534584</ele>
        <time>2018-11-06T13:26:36Z</time>
      </trkpt>
      <trkpt lat="50.56528" lon="3.24324">
        <ele>51.653908</ele>
        <time>2018-11-06T13:26:38Z</time>
      </trkpt>
      <trkpt lat="50.56522" lon="3.24315">
        <ele>51.789581</ele>
        <time>2018-11-06T13:26:40Z</time>
      </trkpt>
      <trkpt lat="50.56515" lon="3.24307">
        <ele>51.978615</ele>
        <time>2018-11-06T13:26:42Z</time>
      </trkpt>
      <trkpt lat="50.56508" lon="3.24299">
        <ele>52.182331</ele>
        <time>2018-11-06T13:26:44Z</time>
      </trkpt>
      <trkpt lat="50.56501" lon="3.24291">
        <ele>52.351948</ele>
        <time>2018-11-06T13:26:46Z</time>
      </trkpt>
      <trkpt lat="50.56495" lon="3.24283">
        <ele>52.51128</ele>
        <time>2018-11-06T13:26:48Z</time>
      </trkpt>
      <trkpt lat="50.56488" lon="3.24274">
        <ele>52.716022</ele>
        <time>2018-11-06T13:26:50Z</time>
      </trkpt>
      <trkpt lat="50.56482" lon="3.24265">
        <ele>52.924477</ele>
        <time>2018-11-06T13:26:52Z</time>
      </trkpt>
      <trkpt lat="50.56475" lon="3.24256">
        <ele>53.160542</ele>
        <time>2018-11-06T13:26:54Z</time>
      </trkpt>
      <trkpt lat="50.56468" lon="3.24245">
        <ele>53.224133</ele>
        <time>2018-11-06T13:26:56Z</time>
      </trkpt>
      <trkpt lat="50.56463" lon="3.24233">
        <ele>53.406685</ele>
        <time>2018-11-06T13:26:58Z</time>
      </trkpt>
      <trkpt lat="50.56456" lon="3.24222">
        <ele>53.62138</ele>
        <time>2018-11-06T13:27:00Z</time>
      </trkpt>
      <trkpt lat="50.5645" lon="3.24211">
        <ele>53.851978</ele>
        <time>2018-11-06T13:27:02Z</time>
      </trkpt>
      <trkpt lat="50.56444" lon="3.24201">
        <ele>54.05838</ele>
        <time>2018-11-06T13:27:04Z</time>
      </trkpt>
      <trkpt lat="50.56438" lon="3.24191">
        <ele>54.212353</ele>
        <time>2018-11-06T13:27:06Z</time>
      </trkpt>
      <trkpt lat="50.56432" lon="3.24181">
        <ele>54.386635</ele>
        <time>2018-11-06T13:27:08Z</time>
      </trkpt>
      <trkpt lat="50.56426" lon="3.2417">
        <ele>54.51775</ele>
        <time>2018-11-06T13:27:10Z</time>
      </trkpt>
      <trkpt lat="50.56421" lon="3.24158">
        <ele>54.688347</ele>
        <time>2018-11-06T13:27:12Z</time>
      </trkpt>
      <trkpt lat="50.56415" lon="3.24147">
        <ele>54.796928</ele>
        <time>2018-11-06T13:27:14Z</time>
      </trkpt>
      <trkpt lat="50.5641" lon="3.24136">
        <ele>54.987404</ele>
        <time>2018-11-06T13:27:16Z</time>
      </trkpt>
      <trkpt lat="50.56405" lon="3.24125">
        <ele>55.150787</ele>
        <time>2018-11-06T13:27:18Z</time>
      </trkpt>
      <trkpt lat="50.564" lon="3.24116">
        <ele>55.370678</ele>
        <time>2018-11-06T13:27:20Z</time>
      </trkpt>
      <trkpt lat="50.56395" lon="3.24106">
        <ele>55.487083</ele>
        <time>2018-11-06T13:27:22Z</time>
      </trkpt>
      <trkpt lat="50.5639" lon="3.24097">
        <ele>55.648113</ele>
        <time>2018-11-06T13:27:24Z</time>
      </trkpt>
      <trkpt lat="50.56385" lon="3.24089">
        <ele>55.738701</ele>
        <time>2018-11-06T13:27:26Z</time>
      </trkpt>
      <trkpt lat="50.56381" lon="3.2408">
        <ele>55.853065</ele>
        <time>2018-11-06T13:27:28Z</time>
      </trkpt>
      <trkpt lat="50.5638" lon="3.2407">
        <ele>55.900043</ele>
        <time>2018-11-06T13:27:30Z</time>
      </trkpt>
      <trkpt lat="50.56384" lon="3.24059">
        <ele>55.941933</ele>
        <time>2018-11-06T13:27:32Z</time>
      </trkpt>
      <trkpt lat="50.56392" lon="3.24049">
        <ele>55.956951</ele>
        <time>2018-11-06T13:27:34Z</time>
      </trkpt>
      <trkpt lat="50.56401" lon="3.24039">
        <ele>55.855232</ele>
        <time>2018-11-06T13:27:36Z</time>
      </trkpt>
      <trkpt lat="50.5641" lon="3.24028">
        <ele>55.751446</ele>
        <time>2018-11-06T13:27:38Z</time>
      </trkpt>
      <trkpt lat="50.5642" lon="3.24018">
        <ele>55.593956</ele>
        <time>2018-11-06T13:27:40Z</time>
      </trkpt>
      <trkpt lat="50.5643" lon="3.24008">
        <ele>55.362293</ele>
        <time>2018-11-06T13:27:42Z</time>
      </trkpt>
      <trkpt lat="50.56441" lon="3.23997">
        <ele>55.158058</ele>
        <time>2018-11-06T13:27:44Z</time>
      </trkpt>
      <trkpt lat="50.5645" lon="3.23987">
        <ele>54.873146</ele>
        <time>2018-11-06T13:27:46Z</time>
      </trkpt>
      <trkpt lat="50.56459" lon="3.23976">
        <ele>54.558632</ele>
        <time>2018-11-06T13:27:48Z</time>
      </trkpt>
      <trkpt lat="50.56469" lon="3.23966">
        <ele>54.291462</ele>
        <time>2018-11-06T13:27:50Z</time>
      </trkpt>
      <trkpt lat="50.56478" lon="3.23956">
        <ele>54.001759</ele>
        <time>2018-11-06T13:27:52Z</time>
      </trkpt>
      <trkpt lat="50.56488" lon="3.23947">
        <ele>53.633381</ele>
        <time>2018-11-06T13:27:54Z</time>
      </trkpt>
      <trkpt lat="50.56497" lon="3.2394">
        <ele>53.276684</ele>
        <time>2018-11-06T13:27:56Z</time>
      </trkpt>
      <trkpt lat="50.56507" lon="3.23934">
        <ele>53.046196</ele>
        <time>2018-11-06T13:27:58Z</time>
      </trkpt>
      <trkpt lat="50.56517" lon="3.23927">
        <ele>52.617592</ele>
        <time>2018-11-06T13:28:00Z</time>
      </trkpt>
      <trkpt lat="50.56529" lon="3.23919">
        <ele>52.12685</ele>
        <time>2018-11-06T13:28:02Z</time>
      </trkpt>
      <trkpt lat="50.5654" lon="3.23911">
        <ele>51.644051</ele>
        <time>2018-11-06T13:28:04Z</time>
      </trkpt>
      <trkpt lat="50.56551" lon="3.23903">
        <ele>51.108257</ele>
        <time>2018-11-06T13:28:06Z</time>
      </trkpt>
      <trkpt lat="50.56562" lon="3.23893">
        <ele>50.662022</ele>
        <time>2018-11-06T13:28:08Z</time>
      </trkpt>
      <trkpt lat="50.56574" lon="3.23883">
        <ele>50.128036</ele>
        <time>2018-11-06T13:28:10Z</time>
      </trkpt>
      <trkpt lat="50.56583" lon="3.23873">
        <ele>49.674385</ele>
        <time>2018-11-06T13:28:12Z</time>
      </trkpt>
      <trkpt lat="50.56593" lon="3.23863">
        <ele>49.155655</ele>
        <time>2018-11-06T13:28:14Z</time>
      </trkpt>
      <trkpt lat="50.56601" lon="3.23853">
        <ele>48.737064</ele>
        <time>2018-11-06T13:28:16Z</time>
      </trkpt>
      <trkpt lat="50.56607" lon="3.23844">
        <ele>48.354275</ele>
        <time>2018-11-06T13:28:18Z</time>
      </trkpt>
      <trkpt lat="50.56609" lon="3.23831">
        <ele>47.959862</ele>
        <time>2018-11-06T13:28:20Z</time>
      </trkpt>
      <trkpt lat="50.56606" lon="3.23816">
        <ele>47.654701</ele>
        <time>2018-11-06T13:28:22Z</time>
      </trkpt>
      <trkpt lat="50.56601" lon="3.23803">
        <ele>47.484257</ele>
        <time>2018-11-06T13:28:24Z</time>
      </trkpt>
      <trkpt lat="50.56595" lon="3.23789">
        <ele>47.224033</ele>
        <time>2018-11-06T13:28:26Z</time>
      </trkpt>
      <trkpt lat="50.5659" lon="3.23775">
        <ele>47.138058</ele>
        <time>2018-11-06T13:28:28Z</time>
      </trkpt>
      <trkpt lat="50.56585" lon="3.23761">
        <ele>46.976761</ele>
        <time>2018-11-06T13:28:30Z</time>
      </trkpt>
      <trkpt lat="50.5658" lon="3.23747">
        <ele>46.791313</ele>
        <time>2018-11-06T13:28:32Z</time>
      </trkpt>
      <trkpt lat="50.56575" lon="3.23733">
        <ele>46.598869</ele>
        <time>2018-11-06T13:28:34Z</time>
      </trkpt>
      <trkpt lat="50.5657" lon="3.23719">
        <ele>46.454929</ele>
        <time>2018-11-06T13:28:36Z</time>
      </trkpt>
      <trkpt lat="50.56566" lon="3.23705">
        <ele>46.2915</ele>
        <time>2018-11-06T13:28:38Z</time>
      </trkpt>
      <trkpt lat="50.56561" lon="3.2369">
        <ele>46.125404</ele>
        <time>2018-11-06T13:28:40Z</time>
      </trkpt>
      <trkpt lat="50.56556" lon="3.23676">
        <ele>46.000298</ele>
        <time>2018-11-06T13:28:42Z</time>
      </trkpt>
      <trkpt lat="50.56552" lon="3.23662">
        <ele>45.847237</ele>
        <time>2018-11-06T13:28:44Z</time>
      </trkpt>
      <trkpt lat="50.56547" lon="3.23648">
        <ele>45.750706</ele>
        <time>2018-11-06T13:28:46Z</time>
      </trkpt>
      <trkpt lat="50.56543" lon="3.23633">
        <ele>45.635784</ele>
        <time>2018-11-06T13:28:48Z</time>
      </trkpt>
      <trkpt lat="50.56539" lon="3.23619">
        <ele>45.541531</ele>
        <time>2018-11-06T13:28:50Z</time>
      </trkpt>
      <trkpt lat="50.56535" lon="3.23605">
        <ele>45.443058</ele>
        <time>2018-11-06T13:28:52Z</time>
      </trkpt>
      <trkpt lat="50.56531" lon="3.23592">
        <ele>45.357918</ele>
        <time>2018-11-06T13:28:54Z</time>
      </trkpt>
      <trkpt lat="50.56527" lon="3.23582">
        <ele>45.259048</ele>
        <time>2018-11-06T13:28:56Z</time>
      </trkpt>
      <trkpt lat="50.56524" lon="3.23574">
        <ele>45.130711</ele>
        <time>2018-11-06T13:28:58Z</time>
      </trkpt>
      <trkpt lat="50.56522" lon="3.23566">
        <ele>45.009434</ele>
        <time>2018-11-06T13:29:00Z</time>
      </trkpt>
      <trkpt lat="50.56519" lon="3.2356">
        <ele>44.910915</ele>
        <time>2018-11-06T13:29:02Z</time>
      </trkpt>
      <trkpt lat="50.56517" lon="3.23553">
        <ele>44.77573</ele>
        <time>2018-11-06T13:29:04Z</time>
      </trkpt>
      <trkpt lat="50.56515" lon="3.23549">
        <ele>44.287468</ele>
        <time>2018-11-06T13:29:10Z</time>
      </trkpt>
      <trkpt lat="50.56514" lon="3.23547">
        <ele>43.5532</ele>
        <time>2018-11-06T13:29:27Z</time>
      </trkpt>
      <trkpt lat="50.56511" lon="3.23544">
        <ele>43.526917</ele>
        <time>2018-11-06T13:29:29Z</time>
      </trkpt>
      <trkpt lat="50.56507" lon="3.23544">
        <ele>43.512829</ele>
        <time>2018-11-06T13:29:31Z</time>
      </trkpt>
      <trkpt lat="50.56502" lon="3.23548">
        <ele>43.53315</ele>
        <time>2018-11-06T13:29:33Z</time>
      </trkpt>
      <trkpt lat="50.56498" lon="3.23553">
        <ele>43.542351</ele>
        <time>2018-11-06T13:29:35Z</time>
      </trkpt>
      <trkpt lat="50.56495" lon="3.23558">
        <ele>43.593502</ele>
        <time>2018-11-06T13:29:37Z</time>
      </trkpt>
      <trkpt lat="50.5649" lon="3.23563">
        <ele>43.654377</ele>
        <time>2018-11-06T13:29:39Z</time>
      </trkpt>
      <trkpt lat="50.56485" lon="3.23568">
        <ele>43.741253</ele>
        <time>2018-11-06T13:29:41Z</time>
      </trkpt>
      <trkpt lat="50.56479" lon="3.23575">
        <ele>43.826496</ele>
        <time>2018-11-06T13:29:43Z</time>
      </trkpt>
      <trkpt lat="50.56473" lon="3.23581">
        <ele>43.857647</ele>
        <time>2018-11-06T13:29:45Z</time>
      </trkpt>
      <trkpt lat="50.56467" lon="3.23587">
        <ele>43.916565</ele>
        <time>2018-11-06T13:29:47Z</time>
      </trkpt>
      <trkpt lat="50.56461" lon="3.23594">
        <ele>44.012707</ele>
        <time>2018-11-06T13:29:49Z</time>
      </trkpt>
      <trkpt lat="50.56456" lon="3.236">
        <ele>44.097466</ele>
        <time>2018-11-06T13:29:51Z</time>
      </trkpt>
      <trkpt lat="50.5645" lon="3.23606">
        <ele>44.172897</ele>
        <time>2018-11-06T13:29:53Z</time>
      </trkpt>
      <trkpt lat="50.56445" lon="3.23612">
        <ele>44.215996</ele>
        <time>2018-11-06T13:29:55Z</time>
      </trkpt>
      <trkpt lat="50.56439" lon="3.23618">
        <ele>44.290596</ele>
        <time>2018-11-06T13:29:57Z</time>
      </trkpt>
      <trkpt lat="50.56433" lon="3.23624">
        <ele>44.33786</ele>
        <time>2018-11-06T13:29:59Z</time>
      </trkpt>
      <trkpt lat="50.56427" lon="3.2363">
        <ele>44.383221</ele>
        <time>2018-11-06T13:30:01Z</time>
      </trkpt>
      <trkpt lat="50.56421" lon="3.23636">
        <ele>44.530968</ele>
        <time>2018-11-06T13:30:03Z</time>
      </trkpt>
      <trkpt lat="50.56415" lon="3.23642">
        <ele>44.677078</ele>
        <time>2018-11-06T13:30:05Z</time>
      </trkpt>
      <trkpt lat="50.5641" lon="3.23648">
        <ele>44.76939</ele>
        <time>2018-11-06T13:30:07Z</time>
      </trkpt>
      <trkpt lat="50.56405" lon="3.23653">
        <ele>44.859077</ele>
        <time>2018-11-06T13:30:09Z</time>
      </trkpt>
      <trkpt lat="50.564" lon="3.23659">
        <ele>44.929283</ele>
        <time>2018-11-06T13:30:11Z</time>
      </trkpt>
      <trkpt lat="50.56395" lon="3.23664">
        <ele>45.026188</ele>
        <time>2018-11-06T13:30:13Z</time>
      </trkpt>
      <trkpt lat="50.56389" lon="3.2367">
        <ele>45.114365</ele>
        <time>2018-11-06T13:30:15Z</time>
      </trkpt>
      <trkpt lat="50.56384" lon="3.23676">
        <ele>45.201267</ele>
        <time>2018-11-06T13:30:17Z</time>
      </trkpt>
      <trkpt lat="50.56379" lon="3.23682">
        <ele>45.321453</ele>
        <time>2018-11-06T13:30:19Z</time>
      </trkpt>
      <trkpt lat="50.56374" lon="3.23688">
        <ele>45.466999</ele>
        <time>2018-11-06T13:30:21Z</time>
      </trkpt>
      <trkpt lat="50.56369" lon="3.23693">
        <ele>45.632889</ele>
        <time>2018-11-06T13:30:23Z</time>
      </trkpt>
      <trkpt lat="50.56363" lon="3.23698">
        <ele>45.792511</ele>
        <time>2018-11-06T13:30:25Z</time>
      </trkpt>
      <trkpt lat="50.56358" lon="3.23704">
        <ele>45.966465</ele>
        <time>2018-11-06T13:30:27Z</time>
      </trkpt>
      <trkpt lat="50.56352" lon="3.23709">
        <ele>46.15469</ele>
        <time>2018-11-06T13:30:29Z</time>
      </trkpt>
      <trkpt lat="50.56347" lon="3.23714">
        <ele>46.353657</ele>
        <time>2018-11-06T13:30:31Z</time>
      </trkpt>
      <trkpt lat="50.56341" lon="3.23719">
        <ele>46.538689</ele>
        <time>2018-11-06T13:30:33Z</time>
      </trkpt>
      <trkpt lat="50.56336" lon="3.23723">
        <ele>46.727074</ele>
        <time>2018-11-06T13:30:35Z</time>
      </trkpt>
      <trkpt lat="50.56331" lon="3.23728">
        <ele>46.937309</ele>
        <time>2018-11-06T13:30:37Z</time>
      </trkpt>
      <trkpt lat="50.56325" lon="3.23732">
        <ele>47.036777</ele>
        <time>2018-11-06T13:30:39Z</time>
      </trkpt>
      <trkpt lat="50.56319" lon="3.23737">
        <ele>47.244469</ele>
        <time>2018-11-06T13:30:41Z</time>
      </trkpt>
      <trkpt lat="50.56313" lon="3.23741">
        <ele>47.391911</ele>
        <time>2018-11-06T13:30:43Z</time>
      </trkpt>
      <trkpt lat="50.56307" lon="3.23746">
        <ele>47.565086</ele>
        <time>2018-11-06T13:30:45Z</time>
      </trkpt>
      <trkpt lat="50.56302" lon="3.2375">
        <ele>47.708138</ele>
        <time>2018-11-06T13:30:47Z</time>
      </trkpt>
      <trkpt lat="50.56297" lon="3.23755">
        <ele>47.866917</ele>
        <time>2018-11-06T13:30:49Z</time>
      </trkpt>
      <trkpt lat="50.56291" lon="3.23759">
        <ele>48.045597</ele>
        <time>2018-11-06T13:30:51Z</time>
      </trkpt>
      <trkpt lat="50.56286" lon="3.23764">
        <ele>48.263161</ele>
        <time>2018-11-06T13:30:53Z</time>
      </trkpt>
      <trkpt lat="50.56281" lon="3.23769">
        <ele>48.406368</ele>
        <time>2018-11-06T13:30:55Z</time>
      </trkpt>
      <trkpt lat="50.56275" lon="3.23773">
        <ele>48.543545</ele>
        <time>2018-11-06T13:30:57Z</time>
      </trkpt>
      <trkpt lat="50.56269" lon="3.23778">
        <ele>48.619686</ele>
        <time>2018-11-06T13:30:59Z</time>
      </trkpt>
      <trkpt lat="50.56263" lon="3.23782">
        <ele>48.737568</ele>
        <time>2018-11-06T13:31:01Z</time>
      </trkpt>
      <trkpt lat="50.56257" lon="3.23785">
        <ele>48.80793</ele>
        <time>2018-11-06T13:31:03Z</time>
      </trkpt>
      <trkpt lat="50.56251" lon="3.23789">
        <ele>48.86689</ele>
        <time>2018-11-06T13:31:05Z</time>
      </trkpt>
      <trkpt lat="50.56244" lon="3.23793">
        <ele>48.952061</ele>
        <time>2018-11-06T13:31:07Z</time>
      </trkpt>
      <trkpt lat="50.56237" lon="3.23797">
        <ele>48.965076</ele>
        <time>2018-11-06T13:31:09Z</time>
      </trkpt>
      <trkpt lat="50.5623" lon="3.238">
        <ele>48.959805</ele>
        <time>2018-11-06T13:31:11Z</time>
      </trkpt>
      <trkpt lat="50.56223" lon="3.23804">
        <ele>48.942375</ele>
        <time>2018-11-06T13:31:13Z</time>
      </trkpt>
      <trkpt lat="50.56215" lon="3.23808">
        <ele>48.865799</ele>
        <time>2018-11-06T13:31:15Z</time>
      </trkpt>
      <trkpt lat="50.56208" lon="3.23811">
        <ele>48.81422</ele>
        <time>2018-11-06T13:31:17Z</time>
      </trkpt>
      <trkpt lat="50.56201" lon="3.23815">
        <ele>48.705257</ele>
        <time>2018-11-06T13:31:19Z</time>
      </trkpt>
      <trkpt lat="50.56193" lon="3.23817">
        <ele>48.600426</ele>
        <time>2018-11-06T13:31:21Z</time>
      </trkpt>
      <trkpt lat="50.56185" lon="3.23821">
        <ele>48.435658</ele>
        <time>2018-11-06T13:31:23Z</time>
      </trkpt>
      <trkpt lat="50.56176" lon="3.23826">
        <ele>48.259682</ele>
        <time>2018-11-06T13:31:25Z</time>
      </trkpt>
      <trkpt lat="50.56168" lon="3.2383">
        <ele>48.070747</ele>
        <time>2018-11-06T13:31:27Z</time>
      </trkpt>
      <trkpt lat="50.5616" lon="3.23836">
        <ele>47.883209</ele>
        <time>2018-11-06T13:31:29Z</time>
      </trkpt>
      <trkpt lat="50.5615" lon="3.23842">
        <ele>47.687374</ele>
        <time>2018-11-06T13:31:31Z</time>
      </trkpt>
      <trkpt lat="50.56141" lon="3.23848">
        <ele>47.379337</ele>
        <time>2018-11-06T13:31:33Z</time>
      </trkpt>
      <trkpt lat="50.56131" lon="3.23855">
        <ele>47.070366</ele>
        <time>2018-11-06T13:31:35Z</time>
      </trkpt>
      <trkpt lat="50.56121" lon="3.23863">
        <ele>46.761421</ele>
        <time>2018-11-06T13:31:37Z</time>
      </trkpt>
      <trkpt lat="50.56109" lon="3.2387">
        <ele>46.422585</ele>
        <time>2018-11-06T13:31:39Z</time>
      </trkpt>
      <trkpt lat="50.56098" lon="3.23876">
        <ele>46.034855</ele>
        <time>2018-11-06T13:31:41Z</time>
      </trkpt>
      <trkpt lat="50.56086" lon="3.2388">
        <ele>45.606377</ele>
        <time>2018-11-06T13:31:43Z</time>
      </trkpt>
      <trkpt lat="50.56073" lon="3.23883">
        <ele>45.146336</ele>
        <time>2018-11-06T13:31:45Z</time>
      </trkpt>
      <trkpt lat="50.56059" lon="3.23885">
        <ele>44.67622</ele>
        <time>2018-11-06T13:31:47Z</time>
      </trkpt>
      <trkpt lat="50.56045" lon="3.23884">
        <ele>44.237835</ele>
        <time>2018-11-06T13:31:49Z</time>
      </trkpt>
      <trkpt lat="50.56031" lon="3.2388">
        <ele>43.743019</ele>
        <time>2018-11-06T13:31:51Z</time>
      </trkpt>
      <trkpt lat="50.56018" lon="3.23875">
        <ele>43.328579</ele>
        <time>2018-11-06T13:31:53Z</time>
      </trkpt>
      <trkpt lat="50.56006" lon="3.2387">
        <ele>42.921902</ele>
        <time>2018-11-06T13:31:55Z</time>
      </trkpt>
      <trkpt lat="50.55994" lon="3.23864">
        <ele>42.506264</ele>
        <time>2018-11-06T13:31:57Z</time>
      </trkpt>
      <trkpt lat="50.55983" lon="3.2386">
        <ele>42.309437</ele>
        <time>2018-11-06T13:31:59Z</time>
      </trkpt>
      <trkpt lat="50.55972" lon="3.23857">
        <ele>41.885349</ele>
        <time>2018-11-06T13:32:01Z</time>
      </trkpt>
      <trkpt lat="50.55963" lon="3.23853">
        <ele>41.480293</ele>
        <time>2018-11-06T13:32:03Z</time>
      </trkpt>
      <trkpt lat="50.55955" lon="3.2385">
        <ele>41.15062</ele>
        <time>2018-11-06T13:32:05Z</time>
      </trkpt>
      <trkpt lat="50.55946" lon="3.23849">
        <ele>40.79644</ele>
        <time>2018-11-06T13:32:07Z</time>
      </trkpt>
      <trkpt lat="50.55938" lon="3.23848">
        <ele>40.502808</ele>
        <time>2018-11-06T13:32:09Z</time>
      </trkpt>
      <trkpt lat="50.55929" lon="3.23848">
        <ele>40.219292</ele>
        <time>2018-11-06T13:32:11Z</time>
      </trkpt>
      <trkpt lat="50.55922" lon="3.23847">
        <ele>39.945789</ele>
        <time>2018-11-06T13:32:13Z</time>
      </trkpt>
      <trkpt lat="50.55914" lon="3.23842">
        <ele>39.697277</ele>
        <time>2018-11-06T13:32:15Z</time>
      </trkpt>
      <trkpt lat="50.55907" lon="3.23838">
        <ele>39.45916</ele>
        <time>2018-11-06T13:32:17Z</time>
      </trkpt>
      <trkpt lat="50.55899" lon="3.23835">
        <ele>39.331055</ele>
        <time>2018-11-06T13:32:19Z</time>
      </trkpt>
      <trkpt lat="50.55893" lon="3.23832">
        <ele>39.263069</ele>
        <time>2018-11-06T13:32:21Z</time>
      </trkpt>
      <trkpt lat="50.55887" lon="3.2383">
        <ele>39.120991</ele>
        <time>2018-11-06T13:32:23Z</time>
      </trkpt>
      <trkpt lat="50.55884" lon="3.23829">
        <ele>39.104015</ele>
        <time>2018-11-06T13:32:25Z</time>
      </trkpt>
      <trkpt lat="50.55882" lon="3.23828">
        <ele>39.0648</ele>
        <time>2018-11-06T13:32:27Z</time>
      </trkpt>
      <trkpt lat="50.5588" lon="3.23829">
        <ele>39.021652</ele>
        <time>2018-11-06T13:32:43Z</time>
      </trkpt>
      <trkpt lat="50.55879" lon="3.23829">
        <ele>39.032993</ele>
        <time>2018-11-06T13:32:45Z</time>
      </trkpt>
      <trkpt lat="50.55878" lon="3.23829">
        <ele>39.028156</ele>
        <time>2018-11-06T13:32:47Z</time>
      </trkpt>
      <trkpt lat="50.55876" lon="3.23829">
        <ele>39.030575</ele>
        <time>2018-11-06T13:32:49Z</time>
      </trkpt>
      <trkpt lat="50.55874" lon="3.23828">
        <ele>39.049141</ele>
        <time>2018-11-06T13:32:51Z</time>
      </trkpt>
      <trkpt lat="50.55871" lon="3.23828">
        <ele>39.049938</ele>
        <time>2018-11-06T13:32:53Z</time>
      </trkpt>
      <trkpt lat="50.55868" lon="3.23827">
        <ele>39.061897</ele>
        <time>2018-11-06T13:32:55Z</time>
      </trkpt>
      <trkpt lat="50.55863" lon="3.23826">
        <ele>39.112465</ele>
        <time>2018-11-06T13:32:57Z</time>
      </trkpt>
      <trkpt lat="50.55857" lon="3.23825">
        <ele>39.06974</ele>
        <time>2018-11-06T13:32:59Z</time>
      </trkpt>
      <trkpt lat="50.55849" lon="3.23825">
        <ele>39.051491</ele>
        <time>2018-11-06T13:33:01Z</time>
      </trkpt>
      <trkpt lat="50.55841" lon="3.23826">
        <ele>39.063881</ele>
        <time>2018-11-06T13:33:03Z</time>
      </trkpt>
      <trkpt lat="50.55833" lon="3.23828">
        <ele>39.041958</ele>
        <time>2018-11-06T13:33:05Z</time>
      </trkpt>
      <trkpt lat="50.55826" lon="3.23829">
        <ele>38.98093</ele>
        <time>2018-11-06T13:33:07Z</time>
      </trkpt>
      <trkpt lat="50.55818" lon="3.2383">
        <ele>38.976402</ele>
        <time>2018-11-06T13:33:09Z</time>
      </trkpt>
      <trkpt lat="50.55811" lon="3.2383">
        <ele>38.969154</ele>
        <time>2018-11-06T13:33:11Z</time>
      </trkpt>
      <trkpt lat="50.55805" lon="3.23831">
        <ele>38.950363</ele>
        <time>2018-11-06T13:33:13Z</time>
      </trkpt>
      <trkpt lat="50.55798" lon="3.23833">
        <ele>38.931129</ele>
        <time>2018-11-06T13:33:15Z</time>
      </trkpt>
      <trkpt lat="50.55789" lon="3.23835">
        <ele>38.954655</ele>
        <time>2018-11-06T13:33:17Z</time>
      </trkpt>
      <trkpt lat="50.5578" lon="3.23837">
        <ele>38.931271</ele>
        <time>2018-11-06T13:33:19Z</time>
      </trkpt>
      <trkpt lat="50.55771" lon="3.23839">
        <ele>38.940304</ele>
        <time>2018-11-06T13:33:21Z</time>
      </trkpt>
      <trkpt lat="50.55762" lon="3.23841">
        <ele>38.998924</ele>
        <time>2018-11-06T13:33:23Z</time>
      </trkpt>
      <trkpt lat="50.55753" lon="3.23844">
        <ele>39.062286</ele>
        <time>2018-11-06T13:33:25Z</time>
      </trkpt>
      <trkpt lat="50.55744" lon="3.23847">
        <ele>39.165901</ele>
        <time>2018-11-06T13:33:27Z</time>
      </trkpt>
      <trkpt lat="50.55735" lon="3.2385">
        <ele>39.225426</ele>
        <time>2018-11-06T13:33:29Z</time>
      </trkpt>
      <trkpt lat="50.55726" lon="3.23853">
        <ele>39.255344</ele>
        <time>2018-11-06T13:33:31Z</time>
      </trkpt>
      <trkpt lat="50.55717" lon="3.23855">
        <ele>39.330811</ele>
        <time>2018-11-06T13:33:33Z</time>
      </trkpt>
      <trkpt lat="50.55708" lon="3.23857">
        <ele>39.387615</ele>
        <time>2018-11-06T13:33:35Z</time>
      </trkpt>
      <trkpt lat="50.55699" lon="3.23858">
        <ele>39.422726</ele>
        <time>2018-11-06T13:33:37Z</time>
      </trkpt>
      <trkpt lat="50.5569" lon="3.23859">
        <ele>39.46999</ele>
        <time>2018-11-06T13:33:39Z</time>
      </trkpt>
      <trkpt lat="50.55681" lon="3.23861">
        <ele>39.575241</ele>
        <time>2018-11-06T13:33:41Z</time>
      </trkpt>
      <trkpt lat="50.55672" lon="3.23863">
        <ele>39.65839</ele>
        <time>2018-11-06T13:33:43Z</time>
      </trkpt>
      <trkpt lat="50.55664" lon="3.23866">
        <ele>39.778435</ele>
        <time>2018-11-06T13:33:45Z</time>
      </trkpt>
      <trkpt lat="50.55655" lon="3.23869">
        <ele>39.907665</ele>
        <time>2018-11-06T13:33:47Z</time>
      </trkpt>
      <trkpt lat="50.55647" lon="3.23872">
        <ele>39.981514</ele>
        <time>2018-11-06T13:33:49Z</time>
      </trkpt>
      <trkpt lat="50.5564" lon="3.23876">
        <ele>40.132557</ele>
        <time>2018-11-06T13:33:51Z</time>
      </trkpt>
      <trkpt lat="50.55632" lon="3.23879">
        <ele>40.333214</ele>
        <time>2018-11-06T13:33:53Z</time>
      </trkpt>
      <trkpt lat="50.55623" lon="3.23883">
        <ele>40.525032</ele>
        <time>2018-11-06T13:33:55Z</time>
      </trkpt>
      <trkpt lat="50.55615" lon="3.23887">
        <ele>40.713783</ele>
        <time>2018-11-06T13:33:57Z</time>
      </trkpt>
      <trkpt lat="50.55607" lon="3.23891">
        <ele>40.959682</ele>
        <time>2018-11-06T13:33:59Z</time>
      </trkpt>
      <trkpt lat="50.55599" lon="3.23894">
        <ele>41.180698</ele>
        <time>2018-11-06T13:34:01Z</time>
      </trkpt>
      <trkpt lat="50.55591" lon="3.23898">
        <ele>41.391399</ele>
        <time>2018-11-06T13:34:03Z</time>
      </trkpt>
      <trkpt lat="50.55583" lon="3.23902">
        <ele>41.615044</ele>
        <time>2018-11-06T13:34:05Z</time>
      </trkpt>
      <trkpt lat="50.55575" lon="3.23905">
        <ele>41.833679</ele>
        <time>2018-11-06T13:34:07Z</time>
      </trkpt>
      <trkpt lat="50.55567" lon="3.23908">
        <ele>42.062271</ele>
        <time>2018-11-06T13:34:09Z</time>
      </trkpt>
      <trkpt lat="50.55558" lon="3.23912">
        <ele>42.334503</ele>
        <time>2018-11-06T13:34:11Z</time>
      </trkpt>
      <trkpt lat="50.5555" lon="3.23915">
        <ele>42.559311</ele>
        <time>2018-11-06T13:34:13Z</time>
      </trkpt>
      <trkpt lat="50.55542" lon="3.2392">
        <ele>42.798203</ele>
        <time>2018-11-06T13:34:15Z</time>
      </trkpt>
      <trkpt lat="50.55534" lon="3.23923">
        <ele>43.062901</ele>
        <time>2018-11-06T13:34:17Z</time>
      </trkpt>
      <trkpt lat="50.55526" lon="3.23926">
        <ele>43.367531</ele>
        <time>2018-11-06T13:34:19Z</time>
      </trkpt>
      <trkpt lat="50.55518" lon="3.2393">
        <ele>43.610619</ele>
        <time>2018-11-06T13:34:21Z</time>
      </trkpt>
      <trkpt lat="50.5551" lon="3.23934">
        <ele>43.900993</ele>
        <time>2018-11-06T13:34:23Z</time>
      </trkpt>
      <trkpt lat="50.55502" lon="3.23936">
        <ele>44.158401</ele>
        <time>2018-11-06T13:34:25Z</time>
      </trkpt>
      <trkpt lat="50.55494" lon="3.23937">
        <ele>44.2967</ele>
        <time>2018-11-06T13:34:27Z</time>
      </trkpt>
      <trkpt lat="50.55487" lon="3.23936">
        <ele>44.614792</ele>
        <time>2018-11-06T13:34:29Z</time>
      </trkpt>
      <trkpt lat="50.55479" lon="3.23934">
        <ele>44.924522</ele>
        <time>2018-11-06T13:34:31Z</time>
      </trkpt>
      <trkpt lat="50.55472" lon="3.23932">
        <ele>45.194981</ele>
        <time>2018-11-06T13:34:33Z</time>
      </trkpt>
      <trkpt lat="50.55464" lon="3.2393">
        <ele>45.432884</ele>
        <time>2018-11-06T13:34:35Z</time>
      </trkpt>
      <trkpt lat="50.55456" lon="3.23928">
        <ele>45.628708</ele>
        <time>2018-11-06T13:34:37Z</time>
      </trkpt>
      <trkpt lat="50.55449" lon="3.23925">
        <ele>45.818455</ele>
        <time>2018-11-06T13:34:39Z</time>
      </trkpt>
      <trkpt lat="50.55441" lon="3.23923">
        <ele>45.974052</ele>
        <time>2018-11-06T13:34:41Z</time>
      </trkpt>
      <trkpt lat="50.55433" lon="3.2392">
        <ele>46.116325</ele>
        <time>2018-11-06T13:34:43Z</time>
      </trkpt>
      <trkpt lat="50.55426" lon="3.23916">
        <ele>46.252541</ele>
        <time>2018-11-06T13:34:45Z</time>
      </trkpt>
      <trkpt lat="50.55419" lon="3.23913">
        <ele>46.408142</ele>
        <time>2018-11-06T13:34:47Z</time>
      </trkpt>
      <trkpt lat="50.55412" lon="3.2391">
        <ele>46.48497</ele>
        <time>2018-11-06T13:34:49Z</time>
      </trkpt>
      <trkpt lat="50.55405" lon="3.23906">
        <ele>46.48558</ele>
        <time>2018-11-06T13:34:51Z</time>
      </trkpt>
      <trkpt lat="50.55399" lon="3.23904">
        <ele>46.540962</ele>
        <time>2018-11-06T13:34:53Z</time>
      </trkpt>
      <trkpt lat="50.55393" lon="3.239">
        <ele>46.609604</ele>
        <time>2018-11-06T13:34:55Z</time>
      </trkpt>
      <trkpt lat="50.55386" lon="3.23897">
        <ele>46.622566</ele>
        <time>2018-11-06T13:34:57Z</time>
      </trkpt>
      <trkpt lat="50.55379" lon="3.23893">
        <ele>46.607563</ele>
        <time>2018-11-06T13:34:59Z</time>
      </trkpt>
      <trkpt lat="50.55373" lon="3.23889">
        <ele>46.624596</ele>
        <time>2018-11-06T13:35:01Z</time>
      </trkpt>
      <trkpt lat="50.55366" lon="3.23886">
        <ele>46.611229</ele>
        <time>2018-11-06T13:35:03Z</time>
      </trkpt>
      <trkpt lat="50.55359" lon="3.23882">
        <ele>46.631519</ele>
        <time>2018-11-06T13:35:05Z</time>
      </trkpt>
      <trkpt lat="50.55352" lon="3.23878">
        <ele>46.560825</ele>
        <time>2018-11-06T13:35:07Z</time>
      </trkpt>
      <trkpt lat="50.55345" lon="3.23874">
        <ele>46.445728</ele>
        <time>2018-11-06T13:35:09Z</time>
      </trkpt>
      <trkpt lat="50.55338" lon="3.2387">
        <ele>46.324528</ele>
        <time>2018-11-06T13:35:11Z</time>
      </trkpt>
      <trkpt lat="50.55332" lon="3.23866">
        <ele>46.293983</ele>
        <time>2018-11-06T13:35:13Z</time>
      </trkpt>
      <trkpt lat="50.55326" lon="3.23862">
        <ele>46.206676</ele>
        <time>2018-11-06T13:35:15Z</time>
      </trkpt>
      <trkpt lat="50.5532" lon="3.23858">
        <ele>46.174637</ele>
        <time>2018-11-06T13:35:17Z</time>
      </trkpt>
      <trkpt lat="50.55314" lon="3.23853">
        <ele>46.086239</ele>
        <time>2018-11-06T13:35:19Z</time>
      </trkpt>
      <trkpt lat="50.55307" lon="3.23848">
        <ele>46.041389</ele>
        <time>2018-11-06T13:35:21Z</time>
      </trkpt>
      <trkpt lat="50.55299" lon="3.23843">
        <ele>45.999626</ele>
        <time>2018-11-06T13:35:23Z</time>
      </trkpt>
      <trkpt lat="50.55292" lon="3.23837">
        <ele>45.949547</ele>
        <time>2018-11-06T13:35:25Z</time>
      </trkpt>
      <trkpt lat="50.55285" lon="3.23831">
        <ele>45.862377</ele>
        <time>2018-11-06T13:35:27Z</time>
      </trkpt>
      <trkpt lat="50.55277" lon="3.23825">
        <ele>45.756653</ele>
        <time>2018-11-06T13:35:29Z</time>
      </trkpt>
      <trkpt lat="50.55269" lon="3.2382">
        <ele>45.695259</ele>
        <time>2018-11-06T13:35:31Z</time>
      </trkpt>
      <trkpt lat="50.55262" lon="3.23815">
        <ele>45.680817</ele>
        <time>2018-11-06T13:35:33Z</time>
      </trkpt>
      <trkpt lat="50.55255" lon="3.2381">
        <ele>45.689857</ele>
        <time>2018-11-06T13:35:35Z</time>
      </trkpt>
      <trkpt lat="50.55247" lon="3.23804">
        <ele>45.63092</ele>
        <time>2018-11-06T13:35:37Z</time>
      </trkpt>
      <trkpt lat="50.55239" lon="3.23799">
        <ele>45.641781</ele>
        <time>2018-11-06T13:35:39Z</time>
      </trkpt>
      <trkpt lat="50.55232" lon="3.23794">
        <ele>45.626446</ele>
        <time>2018-11-06T13:35:41Z</time>
      </trkpt>
      <trkpt lat="50.55225" lon="3.2379">
        <ele>45.628754</ele>
        <time>2018-11-06T13:35:43Z</time>
      </trkpt>
      <trkpt lat="50.55219" lon="3.23786">
        <ele>45.621773</ele>
        <time>2018-11-06T13:35:45Z</time>
      </trkpt>
      <trkpt lat="50.55211" lon="3.23782">
        <ele>45.559067</ele>
        <time>2018-11-06T13:35:47Z</time>
      </trkpt>
      <trkpt lat="50.55203" lon="3.23778">
        <ele>45.536079</ele>
        <time>2018-11-06T13:35:49Z</time>
      </trkpt>
      <trkpt lat="50.55196" lon="3.23774">
        <ele>45.544304</ele>
        <time>2018-11-06T13:35:51Z</time>
      </trkpt>
      <trkpt lat="50.55188" lon="3.2377">
        <ele>45.495152</ele>
        <time>2018-11-06T13:35:53Z</time>
      </trkpt>
      <trkpt lat="50.5518" lon="3.23765">
        <ele>45.449631</ele>
        <time>2018-11-06T13:35:55Z</time>
      </trkpt>
      <trkpt lat="50.55172" lon="3.23761">
        <ele>45.456821</ele>
        <time>2018-11-06T13:35:57Z</time>
      </trkpt>
      <trkpt lat="50.55165" lon="3.23757">
        <ele>45.459846</ele>
        <time>2018-11-06T13:35:59Z</time>
      </trkpt>
      <trkpt lat="50.55158" lon="3.23753">
        <ele>45.434563</ele>
        <time>2018-11-06T13:36:01Z</time>
      </trkpt>
      <trkpt lat="50.5515" lon="3.23749">
        <ele>45.404003</ele>
        <time>2018-11-06T13:36:03Z</time>
      </trkpt>
      <trkpt lat="50.55142" lon="3.23746">
        <ele>45.342201</ele>
        <time>2018-11-06T13:36:05Z</time>
      </trkpt>
      <trkpt lat="50.55134" lon="3.23741">
        <ele>45.378761</ele>
        <time>2018-11-06T13:36:07Z</time>
      </trkpt>
      <trkpt lat="50.55125" lon="3.23737">
        <ele>45.368443</ele>
        <time>2018-11-06T13:36:09Z</time>
      </trkpt>
      <trkpt lat="50.55117" lon="3.23733">
        <ele>45.358574</ele>
        <time>2018-11-06T13:36:11Z</time>
      </trkpt>
      <trkpt lat="50.55108" lon="3.23729">
        <ele>45.376118</ele>
        <time>2018-11-06T13:36:13Z</time>
      </trkpt>
      <trkpt lat="50.55099" lon="3.23726">
        <ele>45.293465</ele>
        <time>2018-11-06T13:36:15Z</time>
      </trkpt>
      <trkpt lat="50.5509" lon="3.23722">
        <ele>45.289154</ele>
        <time>2018-11-06T13:36:17Z</time>
      </trkpt>
      <trkpt lat="50.55082" lon="3.2372">
        <ele>45.266167</ele>
        <time>2018-11-06T13:36:19Z</time>
      </trkpt>
      <trkpt lat="50.55073" lon="3.23719">
        <ele>45.264442</ele>
        <time>2018-11-06T13:36:21Z</time>
      </trkpt>
      <trkpt lat="50.55064" lon="3.23718">
        <ele>45.209236</ele>
        <time>2018-11-06T13:36:23Z</time>
      </trkpt>
      <trkpt lat="50.55055" lon="3.23719">
        <ele>45.135262</ele>
        <time>2018-11-06T13:36:25Z</time>
      </trkpt>
      <trkpt lat="50.55047" lon="3.23719">
        <ele>45.081837</ele>
        <time>2018-11-06T13:36:27Z</time>
      </trkpt>
      <trkpt lat="50.55039" lon="3.2372">
        <ele>45.022709</ele>
        <time>2018-11-06T13:36:29Z</time>
      </trkpt>
      <trkpt lat="50.5503" lon="3.23721">
        <ele>44.98682</ele>
        <time>2018-11-06T13:36:31Z</time>
      </trkpt>
      <trkpt lat="50.55023" lon="3.23722">
        <ele>44.946918</ele>
        <time>2018-11-06T13:36:33Z</time>
      </trkpt>
      <trkpt lat="50.55015" lon="3.23723">
        <ele>44.937321</ele>
        <time>2018-11-06T13:36:35Z</time>
      </trkpt>
      <trkpt lat="50.55007" lon="3.23724">
        <ele>44.968388</ele>
        <time>2018-11-06T13:36:37Z</time>
      </trkpt>
      <trkpt lat="50.54999" lon="3.23723">
        <ele>44.984081</ele>
        <time>2018-11-06T13:36:39Z</time>
      </trkpt>
      <trkpt lat="50.5499" lon="3.23722">
        <ele>44.97686</ele>
        <time>2018-11-06T13:36:41Z</time>
      </trkpt>
      <trkpt lat="50.54982" lon="3.2372">
        <ele>44.989597</ele>
        <time>2018-11-06T13:36:43Z</time>
      </trkpt>
      <trkpt lat="50.54973" lon="3.23717">
        <ele>45.009399</ele>
        <time>2018-11-06T13:36:45Z</time>
      </trkpt>
      <trkpt lat="50.54965" lon="3.23713">
        <ele>45.006847</ele>
        <time>2018-11-06T13:36:47Z</time>
      </trkpt>
      <trkpt lat="50.54956" lon="3.23707">
        <ele>45.058563</ele>
        <time>2018-11-06T13:36:49Z</time>
      </trkpt>
      <trkpt lat="50.54948" lon="3.23701">
        <ele>45.122669</ele>
        <time>2018-11-06T13:36:51Z</time>
      </trkpt>
      <trkpt lat="50.5494" lon="3.23695">
        <ele>45.164116</ele>
        <time>2018-11-06T13:36:53Z</time>
      </trkpt>
      <trkpt lat="50.54932" lon="3.23689">
        <ele>45.226318</ele>
        <time>2018-11-06T13:36:55Z</time>
      </trkpt>
      <trkpt lat="50.54924" lon="3.23683">
        <ele>45.238701</ele>
        <time>2018-11-06T13:36:57Z</time>
      </trkpt>
      <trkpt lat="50.54917" lon="3.23677">
        <ele>45.283756</ele>
        <time>2018-11-06T13:36:59Z</time>
      </trkpt>
      <trkpt lat="50.54908" lon="3.23671">
        <ele>45.318386</ele>
        <time>2018-11-06T13:37:01Z</time>
      </trkpt>
      <trkpt lat="50.549" lon="3.23665">
        <ele>45.378128</ele>
        <time>2018-11-06T13:37:03Z</time>
      </trkpt>
      <trkpt lat="50.54892" lon="3.23659">
        <ele>45.433907</ele>
        <time>2018-11-06T13:37:05Z</time>
      </trkpt>
      <trkpt lat="50.54884" lon="3.23653">
        <ele>45.518288</ele>
        <time>2018-11-06T13:37:07Z</time>
      </trkpt>
      <trkpt lat="50.54876" lon="3.23647">
        <ele>45.584068</ele>
        <time>2018-11-06T13:37:09Z</time>
      </trkpt>
      <trkpt lat="50.54867" lon="3.23639">
        <ele>45.625912</ele>
        <time>2018-11-06T13:37:11Z</time>
      </trkpt>
      <trkpt lat="50.54858" lon="3.23632">
        <ele>45.707409</ele>
        <time>2018-11-06T13:37:13Z</time>
      </trkpt>
      <trkpt lat="50.5485" lon="3.23626">
        <ele>45.762947</ele>
        <time>2018-11-06T13:37:15Z</time>
      </trkpt>
      <trkpt lat="50.54842" lon="3.23621">
        <ele>45.820568</ele>
        <time>2018-11-06T13:37:17Z</time>
      </trkpt>
      <trkpt lat="50.54835" lon="3.23616">
        <ele>45.788322</ele>
        <time>2018-11-06T13:37:19Z</time>
      </trkpt>
      <trkpt lat="50.54827" lon="3.23611">
        <ele>45.781647</ele>
        <time>2018-11-06T13:37:21Z</time>
      </trkpt>
      <trkpt lat="50.54819" lon="3.23605">
        <ele>45.807686</ele>
        <time>2018-11-06T13:37:23Z</time>
      </trkpt>
      <trkpt lat="50.54811" lon="3.236">
        <ele>45.784672</ele>
        <time>2018-11-06T13:37:25Z</time>
      </trkpt>
      <trkpt lat="50.54803" lon="3.23596">
        <ele>45.791435</ele>
        <time>2018-11-06T13:37:27Z</time>
      </trkpt>
      <trkpt lat="50.54795" lon="3.23592">
        <ele>45.791573</ele>
        <time>2018-11-06T13:37:29Z</time>
      </trkpt>
      <trkpt lat="50.54787" lon="3.23587">
        <ele>45.736969</ele>
        <time>2018-11-06T13:37:31Z</time>
      </trkpt>
      <trkpt lat="50.54779" lon="3.23583">
        <ele>45.691845</ele>
        <time>2018-11-06T13:37:33Z</time>
      </trkpt>
      <trkpt lat="50.54771" lon="3.23578">
        <ele>45.681709</ele>
        <time>2018-11-06T13:37:35Z</time>
      </trkpt>
      <trkpt lat="50.54763" lon="3.23573">
        <ele>45.633678</ele>
        <time>2018-11-06T13:37:37Z</time>
      </trkpt>
      <trkpt lat="50.54755" lon="3.23568">
        <ele>45.535782</ele>
        <time>2018-11-06T13:37:39Z</time>
      </trkpt>
      <trkpt lat="50.54747" lon="3.23562">
        <ele>45.518192</ele>
        <time>2018-11-06T13:37:41Z</time>
      </trkpt>
      <trkpt lat="50.54739" lon="3.23556">
        <ele>45.449802</ele>
        <time>2018-11-06T13:37:43Z</time>
      </trkpt>
      <trkpt lat="50.54731" lon="3.23551">
        <ele>45.42318</ele>
        <time>2018-11-06T13:37:45Z</time>
      </trkpt>
      <trkpt lat="50.54724" lon="3.23547">
        <ele>45.357967</ele>
        <time>2018-11-06T13:37:47Z</time>
      </trkpt>
      <trkpt lat="50.54717" lon="3.23542">
        <ele>45.231148</ele>
        <time>2018-11-06T13:37:49Z</time>
      </trkpt>
      <trkpt lat="50.5471" lon="3.23538">
        <ele>45.17889</ele>
        <time>2018-11-06T13:37:51Z</time>
      </trkpt>
      <trkpt lat="50.54702" lon="3.23534">
        <ele>45.053337</ele>
        <time>2018-11-06T13:37:53Z</time>
      </trkpt>
      <trkpt lat="50.54694" lon="3.2353">
        <ele>44.920681</ele>
        <time>2018-11-06T13:37:55Z</time>
      </trkpt>
      <trkpt lat="50.54687" lon="3.23523">
        <ele>44.831516</ele>
        <time>2018-11-06T13:37:57Z</time>
      </trkpt>
      <trkpt lat="50.54681" lon="3.23515">
        <ele>44.748379</ele>
        <time>2018-11-06T13:37:59Z</time>
      </trkpt>
      <trkpt lat="50.54676" lon="3.23505">
        <ele>44.736275</ele>
        <time>2018-11-06T13:38:01Z</time>
      </trkpt>
      <trkpt lat="50.54672" lon="3.23494">
        <ele>44.702492</ele>
        <time>2018-11-06T13:38:03Z</time>
      </trkpt>
      <trkpt lat="50.54668" lon="3.23481">
        <ele>44.720169</ele>
        <time>2018-11-06T13:38:05Z</time>
      </trkpt>
      <trkpt lat="50.54666" lon="3.23468">
        <ele>44.615372</ele>
        <time>2018-11-06T13:38:07Z</time>
      </trkpt>
      <trkpt lat="50.54664" lon="3.23455">
        <ele>44.539394</ele>
        <time>2018-11-06T13:38:09Z</time>
      </trkpt>
      <trkpt lat="50.54662" lon="3.23441">
        <ele>44.481346</ele>
        <time>2018-11-06T13:38:11Z</time>
      </trkpt>
      <trkpt lat="50.5466" lon="3.23428">
        <ele>44.394966</ele>
        <time>2018-11-06T13:38:13Z</time>
      </trkpt>
      <trkpt lat="50.54659" lon="3.23414">
        <ele>44.295589</ele>
        <time>2018-11-06T13:38:15Z</time>
      </trkpt>
      <trkpt lat="50.54657" lon="3.23401">
        <ele>44.235397</ele>
        <time>2018-11-06T13:38:17Z</time>
      </trkpt>
      <trkpt lat="50.54653" lon="3.23388">
        <ele>44.127243</ele>
        <time>2018-11-06T13:38:19Z</time>
      </trkpt>
      <trkpt lat="50.54648" lon="3.23376">
        <ele>44.031666</ele>
        <time>2018-11-06T13:38:21Z</time>
      </trkpt>
      <trkpt lat="50.54643" lon="3.23365">
        <ele>43.969414</ele>
        <time>2018-11-06T13:38:23Z</time>
      </trkpt>
      <trkpt lat="50.54637" lon="3.23356">
        <ele>43.876564</ele>
        <time>2018-11-06T13:38:25Z</time>
      </trkpt>
      <trkpt lat="50.54631" lon="3.23347">
        <ele>43.888992</ele>
        <time>2018-11-06T13:38:27Z</time>
      </trkpt>
      <trkpt lat="50.54625" lon="3.23339">
        <ele>43.863903</ele>
        <time>2018-11-06T13:38:29Z</time>
      </trkpt>
      <trkpt lat="50.54618" lon="3.23331">
        <ele>43.857224</ele>
        <time>2018-11-06T13:38:31Z</time>
      </trkpt>
      <trkpt lat="50.5461" lon="3.23324">
        <ele>43.840771</ele>
        <time>2018-11-06T13:38:33Z</time>
      </trkpt>
      <trkpt lat="50.54602" lon="3.23317">
        <ele>43.824028</ele>
        <time>2018-11-06T13:38:35Z</time>
      </trkpt>
      <trkpt lat="50.54595" lon="3.23309">
        <ele>43.804409</ele>
        <time>2018-11-06T13:38:37Z</time>
      </trkpt>
      <trkpt lat="50.54588" lon="3.23302">
        <ele>43.770271</ele>
        <time>2018-11-06T13:38:39Z</time>
      </trkpt>
      <trkpt lat="50.54581" lon="3.23294">
        <ele>43.703529</ele>
        <time>2018-11-06T13:38:41Z</time>
      </trkpt>
      <trkpt lat="50.54573" lon="3.23287">
        <ele>43.577805</ele>
        <time>2018-11-06T13:38:43Z</time>
      </trkpt>
      <trkpt lat="50.54567" lon="3.23279">
        <ele>43.4925</ele>
        <time>2018-11-06T13:38:45Z</time>
      </trkpt>
      <trkpt lat="50.54561" lon="3.23271">
        <ele>43.393368</ele>
        <time>2018-11-06T13:38:47Z</time>
      </trkpt>
      <trkpt lat="50.54554" lon="3.23261">
        <ele>43.323879</ele>
        <time>2018-11-06T13:38:49Z</time>
      </trkpt>
      <trkpt lat="50.54548" lon="3.23252">
        <ele>43.310753</ele>
        <time>2018-11-06T13:38:51Z</time>
      </trkpt>
      <trkpt lat="50.54542" lon="3.23242">
        <ele>43.248928</ele>
        <time>2018-11-06T13:38:53Z</time>
      </trkpt>
      <trkpt lat="50.54538" lon="3.23233">
        <ele>43.076363</ele>
        <time>2018-11-06T13:38:55Z</time>
      </trkpt>
      <trkpt lat="50.54532" lon="3.23224">
        <ele>43.010586</ele>
        <time>2018-11-06T13:38:57Z</time>
      </trkpt>
      <trkpt lat="50.54525" lon="3.23215">
        <ele>42.934456</ele>
        <time>2018-11-06T13:38:59Z</time>
      </trkpt>
      <trkpt lat="50.54519" lon="3.23207">
        <ele>42.938332</ele>
        <time>2018-11-06T13:39:01Z</time>
      </trkpt>
      <trkpt lat="50.54513" lon="3.23198">
        <ele>42.83065</ele>
        <time>2018-11-06T13:39:03Z</time>
      </trkpt>
      <trkpt lat="50.54506" lon="3.2319">
        <ele>42.747898</ele>
        <time>2018-11-06T13:39:05Z</time>
      </trkpt>
      <trkpt lat="50.54499" lon="3.23182">
        <ele>42.598183</ele>
        <time>2018-11-06T13:39:07Z</time>
      </trkpt>
      <trkpt lat="50.54492" lon="3.23174">
        <ele>42.471607</ele>
        <time>2018-11-06T13:39:09Z</time>
      </trkpt>
      <trkpt lat="50.54486" lon="3.23166">
        <ele>42.347237</ele>
        <time>2018-11-06T13:39:11Z</time>
      </trkpt>
      <trkpt lat="50.5448" lon="3.2316">
        <ele>42.185123</ele>
        <time>2018-11-06T13:39:13Z</time>
      </trkpt>
      <trkpt lat="50.54474" lon="3.23153">
        <ele>42.085674</ele>
        <time>2018-11-06T13:39:15Z</time>
      </trkpt>
      <trkpt lat="50.54469" lon="3.23147">
        <ele>42.028038</ele>
        <time>2018-11-06T13:39:17Z</time>
      </trkpt>
      <trkpt lat="50.54463" lon="3.23142">
        <ele>41.938484</ele>
        <time>2018-11-06T13:39:19Z</time>
      </trkpt>
      <trkpt lat="50.54457" lon="3.23136">
        <ele>41.855328</ele>
        <time>2018-11-06T13:39:21Z</time>
      </trkpt>
      <trkpt lat="50.54452" lon="3.23128">
        <ele>41.680729</ele>
        <time>2018-11-06T13:39:23Z</time>
      </trkpt>
      <trkpt lat="50.54446" lon="3.23119">
        <ele>41.560135</ele>
        <time>2018-11-06T13:39:25Z</time>
      </trkpt>
      <trkpt lat="50.54441" lon="3.2311">
        <ele>41.42305</ele>
        <time>2018-11-06T13:39:27Z</time>
      </trkpt>
      <trkpt lat="50.54435" lon="3.23101">
        <ele>41.324825</ele>
        <time>2018-11-06T13:39:29Z</time>
      </trkpt>
      <trkpt lat="50.5443" lon="3.23091">
        <ele>41.166451</ele>
        <time>2018-11-06T13:39:31Z</time>
      </trkpt>
      <trkpt lat="50.54424" lon="3.23081">
        <ele>41.084816</ele>
        <time>2018-11-06T13:39:33Z</time>
      </trkpt>
      <trkpt lat="50.54417" lon="3.2307">
        <ele>40.959927</ele>
        <time>2018-11-06T13:39:35Z</time>
      </trkpt>
      <trkpt lat="50.54411" lon="3.2306">
        <ele>40.996979</ele>
        <time>2018-11-06T13:39:37Z</time>
      </trkpt>
      <trkpt lat="50.54406" lon="3.23049">
        <ele>40.922218</ele>
        <time>2018-11-06T13:39:39Z</time>
      </trkpt>
      <trkpt lat="50.544" lon="3.23038">
        <ele>40.82016</ele>
        <time>2018-11-06T13:39:41Z</time>
      </trkpt>
      <trkpt lat="50.54395" lon="3.23027">
        <ele>40.777924</ele>
        <time>2018-11-06T13:39:43Z</time>
      </trkpt>
      <trkpt lat="50.5439" lon="3.23016">
        <ele>40.754524</ele>
        <time>2018-11-06T13:39:45Z</time>
      </trkpt>
      <trkpt lat="50.54386" lon="3.23004">
        <ele>40.686874</ele>
        <time>2018-11-06T13:39:47Z</time>
      </trkpt>
      <trkpt lat="50.54381" lon="3.22992">
        <ele>40.64994</ele>
        <time>2018-11-06T13:39:49Z</time>
      </trkpt>
      <trkpt lat="50.54377" lon="3.22979">
        <ele>40.635006</ele>
        <time>2018-11-06T13:39:51Z</time>
      </trkpt>
      <trkpt lat="50.54373" lon="3.22965">
        <ele>40.573547</ele>
        <time>2018-11-06T13:39:53Z</time>
      </trkpt>
      <trkpt lat="50.54369" lon="3.22952">
        <ele>40.585999</ele>
        <time>2018-11-06T13:39:55Z</time>
      </trkpt>
      <trkpt lat="50.54365" lon="3.22939">
        <ele>40.552467</ele>
        <time>2018-11-06T13:39:57Z</time>
      </trkpt>
      <trkpt lat="50.54361" lon="3.22926">
        <ele>40.478428</ele>
        <time>2018-11-06T13:39:59Z</time>
      </trkpt>
      <trkpt lat="50.54356" lon="3.22914">
        <ele>40.390976</ele>
        <time>2018-11-06T13:40:01Z</time>
      </trkpt>
      <trkpt lat="50.54353" lon="3.22902">
        <ele>40.421486</ele>
        <time>2018-11-06T13:40:03Z</time>
      </trkpt>
      <trkpt lat="50.54348" lon="3.22889">
        <ele>40.422703</ele>
        <time>2018-11-06T13:40:05Z</time>
      </trkpt>
      <trkpt lat="50.54343" lon="3.22877">
        <ele>40.387852</ele>
        <time>2018-11-06T13:40:07Z</time>
      </trkpt>
      <trkpt lat="50.54337" lon="3.22865">
        <ele>40.344521</ele>
        <time>2018-11-06T13:40:09Z</time>
      </trkpt>
      <trkpt lat="50.54331" lon="3.22853">
        <ele>40.325394</ele>
        <time>2018-11-06T13:40:11Z</time>
      </trkpt>
      <trkpt lat="50.54325" lon="3.22843">
        <ele>40.29258</ele>
        <time>2018-11-06T13:40:13Z</time>
      </trkpt>
      <trkpt lat="50.54319" lon="3.22832">
        <ele>40.250805</ele>
        <time>2018-11-06T13:40:15Z</time>
      </trkpt>
      <trkpt lat="50.54312" lon="3.22822">
        <ele>40.24345</ele>
        <time>2018-11-06T13:40:17Z</time>
      </trkpt>
      <trkpt lat="50.54306" lon="3.22812">
        <ele>40.229099</ele>
        <time>2018-11-06T13:40:19Z</time>
      </trkpt>
      <trkpt lat="50.54299" lon="3.22801">
        <ele>40.157955</ele>
        <time>2018-11-06T13:40:21Z</time>
      </trkpt>
      <trkpt lat="50.54292" lon="3.22791">
        <ele>40.094978</ele>
        <time>2018-11-06T13:40:23Z</time>
      </trkpt>
      <trkpt lat="50.54285" lon="3.22781">
        <ele>40.046925</ele>
        <time>2018-11-06T13:40:25Z</time>
      </trkpt>
      <trkpt lat="50.54278" lon="3.22771">
        <ele>39.986229</ele>
        <time>2018-11-06T13:40:27Z</time>
      </trkpt>
      <trkpt lat="50.54272" lon="3.2276">
        <ele>39.89938</ele>
        <time>2018-11-06T13:40:29Z</time>
      </trkpt>
      <trkpt lat="50.54266" lon="3.22751">
        <ele>39.841549</ele>
        <time>2018-11-06T13:40:31Z</time>
      </trkpt>
      <trkpt lat="50.5426" lon="3.22741">
        <ele>39.7598</ele>
        <time>2018-11-06T13:40:33Z</time>
      </trkpt>
      <trkpt lat="50.54254" lon="3.2273">
        <ele>39.660263</ele>
        <time>2018-11-06T13:40:35Z</time>
      </trkpt>
      <trkpt lat="50.54248" lon="3.22719">
        <ele>39.503414</ele>
        <time>2018-11-06T13:40:37Z</time>
      </trkpt>
      <trkpt lat="50.54242" lon="3.22709">
        <ele>39.399193</ele>
        <time>2018-11-06T13:40:39Z</time>
      </trkpt>
      <trkpt lat="50.54237" lon="3.227">
        <ele>39.302036</ele>
        <time>2018-11-06T13:40:41Z</time>
      </trkpt>
      <trkpt lat="50.54232" lon="3.22692">
        <ele>39.214851</ele>
        <time>2018-11-06T13:40:43Z</time>
      </trkpt>
      <trkpt lat="50.54226" lon="3.22684">
        <ele>39.062618</ele>
        <time>2018-11-06T13:40:45Z</time>
      </trkpt>
      <trkpt lat="50.54221" lon="3.22674">
        <ele>38.953163</ele>
        <time>2018-11-06T13:40:47Z</time>
      </trkpt>
      <trkpt lat="50.54215" lon="3.22664">
        <ele>38.828384</ele>
        <time>2018-11-06T13:40:49Z</time>
      </trkpt>
      <trkpt lat="50.54208" lon="3.22653">
        <ele>38.743446</ele>
        <time>2018-11-06T13:40:51Z</time>
      </trkpt>
      <trkpt lat="50.54202" lon="3.22643">
        <ele>38.607445</ele>
        <time>2018-11-06T13:40:53Z</time>
      </trkpt>
      <trkpt lat="50.54195" lon="3.22633">
        <ele>38.45787</ele>
        <time>2018-11-06T13:40:55Z</time>
      </trkpt>
      <trkpt lat="50.54189" lon="3.22623">
        <ele>38.356026</ele>
        <time>2018-11-06T13:40:57Z</time>
      </trkpt>
      <trkpt lat="50.54184" lon="3.22613">
        <ele>38.291275</ele>
        <time>2018-11-06T13:40:59Z</time>
      </trkpt>
      <trkpt lat="50.54177" lon="3.22603">
        <ele>38.17654</ele>
        <time>2018-11-06T13:41:01Z</time>
      </trkpt>
      <trkpt lat="50.54171" lon="3.22593">
        <ele>38.13306</ele>
        <time>2018-11-06T13:41:03Z</time>
      </trkpt>
      <trkpt lat="50.54166" lon="3.22583">
        <ele>38.075626</ele>
        <time>2018-11-06T13:41:05Z</time>
      </trkpt>
      <trkpt lat="50.54162" lon="3.22571">
        <ele>38.028103</ele>
        <time>2018-11-06T13:41:07Z</time>
      </trkpt>
      <trkpt lat="50.54162" lon="3.22558">
        <ele>37.974617</ele>
        <time>2018-11-06T13:41:09Z</time>
      </trkpt>
      <trkpt lat="50.54162" lon="3.22545">
        <ele>37.910236</ele>
        <time>2018-11-06T13:41:11Z</time>
      </trkpt>
      <trkpt lat="50.54164" lon="3.22532">
        <ele>37.877708</ele>
        <time>2018-11-06T13:41:13Z</time>
      </trkpt>
      <trkpt lat="50.54166" lon="3.22519">
        <ele>37.860115</ele>
        <time>2018-11-06T13:41:15Z</time>
      </trkpt>
      <trkpt lat="50.54167" lon="3.22505">
        <ele>37.848457</ele>
        <time>2018-11-06T13:41:17Z</time>
      </trkpt>
      <trkpt lat="50.54168" lon="3.22492">
        <ele>37.913963</ele>
        <time>2018-11-06T13:41:19Z</time>
      </trkpt>
      <trkpt lat="50.5417" lon="3.22478">
        <ele>37.901253</ele>
        <time>2018-11-06T13:41:21Z</time>
      </trkpt>
      <trkpt lat="50.54171" lon="3.22466">
        <ele>37.856525</ele>
        <time>2018-11-06T13:41:23Z</time>
      </trkpt>
      <trkpt lat="50.54172" lon="3.22454">
        <ele>37.857494</ele>
        <time>2018-11-06T13:41:25Z</time>
      </trkpt>
      <trkpt lat="50.54173" lon="3.22442">
        <ele>37.891228</ele>
        <time>2018-11-06T13:41:27Z</time>
      </trkpt>
      <trkpt lat="50.54174" lon="3.22431">
        <ele>37.907475</ele>
        <time>2018-11-06T13:41:29Z</time>
      </trkpt>
      <trkpt lat="50.54176" lon="3.22422">
        <ele>37.925236</ele>
        <time>2018-11-06T13:41:31Z</time>
      </trkpt>
      <trkpt lat="50.5418" lon="3.22413">
        <ele>37.919891</ele>
        <time>2018-11-06T13:41:33Z</time>
      </trkpt>
      <trkpt lat="50.54184" lon="3.22402">
        <ele>37.93478</ele>
        <time>2018-11-06T13:41:35Z</time>
      </trkpt>
      <trkpt lat="50.54186" lon="3.22388">
        <ele>38.007755</ele>
        <time>2018-11-06T13:41:37Z</time>
      </trkpt>
      <trkpt lat="50.54188" lon="3.22375">
        <ele>37.991261</ele>
        <time>2018-11-06T13:41:39Z</time>
      </trkpt>
      <trkpt lat="50.5419" lon="3.22361">
        <ele>37.972252</ele>
        <time>2018-11-06T13:41:41Z</time>
      </trkpt>
      <trkpt lat="50.5419" lon="3.22348">
        <ele>37.917183</ele>
        <time>2018-11-06T13:41:43Z</time>
      </trkpt>
      <trkpt lat="50.5419" lon="3.22335">
        <ele>37.79718</ele>
        <time>2018-11-06T13:41:45Z</time>
      </trkpt>
      <trkpt lat="50.54189" lon="3.2232">
        <ele>37.74054</ele>
        <time>2018-11-06T13:41:47Z</time>
      </trkpt>
      <trkpt lat="50.54188" lon="3.22305">
        <ele>37.621502</ele>
        <time>2018-11-06T13:41:49Z</time>
      </trkpt>
      <trkpt lat="50.54187" lon="3.2229">
        <ele>37.547813</ele>
        <time>2018-11-06T13:41:51Z</time>
      </trkpt>
      <trkpt lat="50.54188" lon="3.22274">
        <ele>37.516052</ele>
        <time>2018-11-06T13:41:53Z</time>
      </trkpt>
      <trkpt lat="50.54188" lon="3.22259">
        <ele>37.417221</ele>
        <time>2018-11-06T13:41:55Z</time>
      </trkpt>
      <trkpt lat="50.54188" lon="3.22244">
        <ele>37.361744</ele>
        <time>2018-11-06T13:41:57Z</time>
      </trkpt>
      <trkpt lat="50.54189" lon="3.22231">
        <ele>37.259026</ele>
        <time>2018-11-06T13:41:59Z</time>
      </trkpt>
      <trkpt lat="50.5419" lon="3.22218">
        <ele>37.270599</ele>
        <time>2018-11-06T13:42:01Z</time>
      </trkpt>
      <trkpt lat="50.54188" lon="3.22206">
        <ele>37.249294</ele>
        <time>2018-11-06T13:42:03Z</time>
      </trkpt>
      <trkpt lat="50.54184" lon="3.22195">
        <ele>37.240974</ele>
        <time>2018-11-06T13:42:05Z</time>
      </trkpt>
      <trkpt lat="50.54178" lon="3.22185">
        <ele>37.211823</ele>
        <time>2018-11-06T13:42:07Z</time>
      </trkpt>
      <trkpt lat="50.5417" lon="3.22178">
        <ele>37.155663</ele>
        <time>2018-11-06T13:42:09Z</time>
      </trkpt>
      <trkpt lat="50.54161" lon="3.22172">
        <ele>37.11451</ele>
        <time>2018-11-06T13:42:11Z</time>
      </trkpt>
      <trkpt lat="50.54152" lon="3.22168">
        <ele>37.086937</ele>
        <time>2018-11-06T13:42:13Z</time>
      </trkpt>
      <trkpt lat="50.54143" lon="3.22164">
        <ele>36.995094</ele>
        <time>2018-11-06T13:42:15Z</time>
      </trkpt>
      <trkpt lat="50.54135" lon="3.2216">
        <ele>36.904133</ele>
        <time>2018-11-06T13:42:17Z</time>
      </trkpt>
      <trkpt lat="50.54126" lon="3.22154">
        <ele>36.858604</ele>
        <time>2018-11-06T13:42:19Z</time>
      </trkpt>
      <trkpt lat="50.54118" lon="3.22148">
        <ele>36.788326</ele>
        <time>2018-11-06T13:42:21Z</time>
      </trkpt>
      <trkpt lat="50.5411" lon="3.2214">
        <ele>36.73877</ele>
        <time>2018-11-06T13:42:23Z</time>
      </trkpt>
      <trkpt lat="50.54102" lon="3.22131">
        <ele>36.821426</ele>
        <time>2018-11-06T13:42:25Z</time>
      </trkpt>
      <trkpt lat="50.54095" lon="3.22123">
        <ele>36.806908</ele>
        <time>2018-11-06T13:42:27Z</time>
      </trkpt>
      <trkpt lat="50.54088" lon="3.22114">
        <ele>36.850163</ele>
        <time>2018-11-06T13:42:29Z</time>
      </trkpt>
      <trkpt lat="50.54081" lon="3.22107">
        <ele>36.909805</ele>
        <time>2018-11-06T13:42:31Z</time>
      </trkpt>
      <trkpt lat="50.54075" lon="3.22098">
        <ele>36.91827</ele>
        <time>2018-11-06T13:42:33Z</time>
      </trkpt>
      <trkpt lat="50.54067" lon="3.22091">
        <ele>36.943172</ele>
        <time>2018-11-06T13:42:35Z</time>
      </trkpt>
      <trkpt lat="50.5406" lon="3.22082">
        <ele>36.925289</ele>
        <time>2018-11-06T13:42:37Z</time>
      </trkpt>
      <trkpt lat="50.54053" lon="3.22074">
        <ele>36.932938</ele>
        <time>2018-11-06T13:42:39Z</time>
      </trkpt>
      <trkpt lat="50.54046" lon="3.22067">
        <ele>36.914028</ele>
        <time>2018-11-06T13:42:41Z</time>
      </trkpt>
      <trkpt lat="50.54039" lon="3.2206">
        <ele>36.86657</ele>
        <time>2018-11-06T13:42:43Z</time>
      </trkpt>
      <trkpt lat="50.54031" lon="3.22054">
        <ele>36.875496</ele>
        <time>2018-11-06T13:42:45Z</time>
      </trkpt>
      <trkpt lat="50.54023" lon="3.22049">
        <ele>36.885292</ele>
        <time>2018-11-06T13:42:47Z</time>
      </trkpt>
      <trkpt lat="50.54015" lon="3.22046">
        <ele>36.86869</ele>
        <time>2018-11-06T13:42:49Z</time>
      </trkpt>
      <trkpt lat="50.54007" lon="3.22043">
        <ele>36.879662</ele>
        <time>2018-11-06T13:42:51Z</time>
      </trkpt>
      <trkpt lat="50.53998" lon="3.22041">
        <ele>36.87075</ele>
        <time>2018-11-06T13:42:53Z</time>
      </trkpt>
      <trkpt lat="50.53989" lon="3.22039">
        <ele>36.89584</ele>
        <time>2018-11-06T13:42:55Z</time>
      </trkpt>
      <trkpt lat="50.53981" lon="3.22036">
        <ele>36.983952</ele>
        <time>2018-11-06T13:42:57Z</time>
      </trkpt>
      <trkpt lat="50.53972" lon="3.22034">
        <ele>37.003548</ele>
        <time>2018-11-06T13:42:59Z</time>
      </trkpt>
      <trkpt lat="50.53964" lon="3.2203">
        <ele>37.058933</ele>
        <time>2018-11-06T13:43:01Z</time>
      </trkpt>
      <trkpt lat="50.53956" lon="3.22027">
        <ele>37.115292</ele>
        <time>2018-11-06T13:43:03Z</time>
      </trkpt>
      <trkpt lat="50.53947" lon="3.22023">
        <ele>37.164455</ele>
        <time>2018-11-06T13:43:05Z</time>
      </trkpt>
      <trkpt lat="50.53939" lon="3.22019">
        <ele>37.277248</ele>
        <time>2018-11-06T13:43:07Z</time>
      </trkpt>
      <trkpt lat="50.53931" lon="3.22015">
        <ele>37.369576</ele>
        <time>2018-11-06T13:43:09Z</time>
      </trkpt>
      <trkpt lat="50.53923" lon="3.22011">
        <ele>37.470299</ele>
        <time>2018-11-06T13:43:11Z</time>
      </trkpt>
      <trkpt lat="50.53915" lon="3.22008">
        <ele>37.547432</ele>
        <time>2018-11-06T13:43:13Z</time>
      </trkpt>
      <trkpt lat="50.53907" lon="3.22006">
        <ele>37.615101</ele>
        <time>2018-11-06T13:43:15Z</time>
      </trkpt>
      <trkpt lat="50.53898" lon="3.22006">
        <ele>37.672508</ele>
        <time>2018-11-06T13:43:17Z</time>
      </trkpt>
      <trkpt lat="50.5389" lon="3.22008">
        <ele>37.795319</ele>
        <time>2018-11-06T13:43:19Z</time>
      </trkpt>
      <trkpt lat="50.53882" lon="3.22015">
        <ele>37.904205</ele>
        <time>2018-11-06T13:43:21Z</time>
      </trkpt>
      <trkpt lat="50.53876" lon="3.22024">
        <ele>38.031574</ele>
        <time>2018-11-06T13:43:23Z</time>
      </trkpt>
      <trkpt lat="50.53871" lon="3.22036">
        <ele>38.103794</ele>
        <time>2018-11-06T13:43:25Z</time>
      </trkpt>
      <trkpt lat="50.53866" lon="3.22048">
        <ele>38.207722</ele>
        <time>2018-11-06T13:43:27Z</time>
      </trkpt>
      <trkpt lat="50.53862" lon="3.22059">
        <ele>38.320885</ele>
        <time>2018-11-06T13:43:29Z</time>
      </trkpt>
      <trkpt lat="50.53858" lon="3.22069">
        <ele>38.384102</ele>
        <time>2018-11-06T13:43:31Z</time>
      </trkpt>
      <trkpt lat="50.53854" lon="3.2208">
        <ele>38.489773</ele>
        <time>2018-11-06T13:43:33Z</time>
      </trkpt>
      <trkpt lat="50.53851" lon="3.2209">
        <ele>38.55817</ele>
        <time>2018-11-06T13:43:35Z</time>
      </trkpt>
      <trkpt lat="50.53846" lon="3.22101">
        <ele>38.634544</ele>
        <time>2018-11-06T13:43:37Z</time>
      </trkpt>
      <trkpt lat="50.53843" lon="3.22113">
        <ele>38.663933</ele>
        <time>2018-11-06T13:43:39Z</time>
      </trkpt>
      <trkpt lat="50.53839" lon="3.22124">
        <ele>38.761261</ele>
        <time>2018-11-06T13:43:41Z</time>
      </trkpt>
      <trkpt lat="50.53836" lon="3.22136">
        <ele>38.828461</ele>
        <time>2018-11-06T13:43:43Z</time>
      </trkpt>
      <trkpt lat="50.53833" lon="3.22146">
        <ele>38.898266</ele>
        <time>2018-11-06T13:43:45Z</time>
      </trkpt>
      <trkpt lat="50.53828" lon="3.22154">
        <ele>38.942162</ele>
        <time>2018-11-06T13:43:47Z</time>
      </trkpt>
      <trkpt lat="50.53821" lon="3.22156">
        <ele>38.971088</ele>
        <time>2018-11-06T13:43:49Z</time>
      </trkpt>
      <trkpt lat="50.53814" lon="3.22153">
        <ele>38.998737</ele>
        <time>2018-11-06T13:43:51Z</time>
      </trkpt>
      <trkpt lat="50.53807" lon="3.22147">
        <ele>38.975357</ele>
        <time>2018-11-06T13:43:53Z</time>
      </trkpt>
      <trkpt lat="50.53801" lon="3.22141">
        <ele>38.914467</ele>
        <time>2018-11-06T13:43:55Z</time>
      </trkpt>
      <trkpt lat="50.53795" lon="3.22135">
        <ele>38.907646</ele>
        <time>2018-11-06T13:43:57Z</time>
      </trkpt>
      <trkpt lat="50.53788" lon="3.22131">
        <ele>38.92411</ele>
        <time>2018-11-06T13:43:59Z</time>
      </trkpt>
      <trkpt lat="50.53782" lon="3.22126">
        <ele>38.951046</ele>
        <time>2018-11-06T13:44:01Z</time>
      </trkpt>
      <trkpt lat="50.53774" lon="3.22121">
        <ele>38.95911</ele>
        <time>2018-11-06T13:44:03Z</time>
      </trkpt>
      <trkpt lat="50.53766" lon="3.22117">
        <ele>38.987015</ele>
        <time>2018-11-06T13:44:05Z</time>
      </trkpt>
      <trkpt lat="50.53758" lon="3.22116">
        <ele>39.0429</ele>
        <time>2018-11-06T13:44:07Z</time>
      </trkpt>
      <trkpt lat="50.53749" lon="3.22115">
        <ele>39.069374</ele>
        <time>2018-11-06T13:44:09Z</time>
      </trkpt>
      <trkpt lat="50.53742" lon="3.22117">
        <ele>39.099888</ele>
        <time>2018-11-06T13:44:11Z</time>
      </trkpt>
      <trkpt lat="50.53734" lon="3.22122">
        <ele>39.165653</ele>
        <time>2018-11-06T13:44:13Z</time>
      </trkpt>
      <trkpt lat="50.53727" lon="3.22128">
        <ele>39.23848</ele>
        <time>2018-11-06T13:44:15Z</time>
      </trkpt>
      <trkpt lat="50.53721" lon="3.22133">
        <ele>39.292667</ele>
        <time>2018-11-06T13:44:17Z</time>
      </trkpt>
      <trkpt lat="50.53715" lon="3.22139">
        <ele>39.357456</ele>
        <time>2018-11-06T13:44:19Z</time>
      </trkpt>
      <trkpt lat="50.53708" lon="3.22143">
        <ele>39.487167</ele>
        <time>2018-11-06T13:44:21Z</time>
      </trkpt>
      <trkpt lat="50.53701" lon="3.22144">
        <ele>39.512669</ele>
        <time>2018-11-06T13:44:23Z</time>
      </trkpt>
      <trkpt lat="50.53693" lon="3.22141">
        <ele>39.614426</ele>
        <time>2018-11-06T13:44:25Z</time>
      </trkpt>
      <trkpt lat="50.53685" lon="3.22135">
        <ele>39.688919</ele>
        <time>2018-11-06T13:44:27Z</time>
      </trkpt>
      <trkpt lat="50.53679" lon="3.22129">
        <ele>39.740669</ele>
        <time>2018-11-06T13:44:29Z</time>
      </trkpt>
      <trkpt lat="50.53672" lon="3.2212">
        <ele>39.764004</ele>
        <time>2018-11-06T13:44:31Z</time>
      </trkpt>
      <trkpt lat="50.53667" lon="3.22111">
        <ele>39.858086</ele>
        <time>2018-11-06T13:44:33Z</time>
      </trkpt>
      <trkpt lat="50.5366" lon="3.22103">
        <ele>40.017273</ele>
        <time>2018-11-06T13:44:35Z</time>
      </trkpt>
      <trkpt lat="50.53655" lon="3.22095">
        <ele>40.130737</ele>
        <time>2018-11-06T13:44:37Z</time>
      </trkpt>
      <trkpt lat="50.53648" lon="3.22086">
        <ele>40.248352</ele>
        <time>2018-11-06T13:44:39Z</time>
      </trkpt>
      <trkpt lat="50.53643" lon="3.22078">
        <ele>40.256313</ele>
        <time>2018-11-06T13:44:41Z</time>
      </trkpt>
      <trkpt lat="50.53637" lon="3.2207">
        <ele>40.306114</ele>
        <time>2018-11-06T13:44:43Z</time>
      </trkpt>
      <trkpt lat="50.53631" lon="3.22062">
        <ele>40.351768</ele>
        <time>2018-11-06T13:44:45Z</time>
      </trkpt>
      <trkpt lat="50.53625" lon="3.22053">
        <ele>40.384178</ele>
        <time>2018-11-06T13:44:47Z</time>
      </trkpt>
      <trkpt lat="50.53619" lon="3.22045">
        <ele>40.42551</ele>
        <time>2018-11-06T13:44:49Z</time>
      </trkpt>
      <trkpt lat="50.53613" lon="3.22037">
        <ele>40.533134</ele>
        <time>2018-11-06T13:44:51Z</time>
      </trkpt>
      <trkpt lat="50.53607" lon="3.22028">
        <ele>40.555588</ele>
        <time>2018-11-06T13:44:53Z</time>
      </trkpt>
      <trkpt lat="50.536" lon="3.22021">
        <ele>40.581425</ele>
        <time>2018-11-06T13:44:55Z</time>
      </trkpt>
      <trkpt lat="50.53593" lon="3.22016">
        <ele>40.629288</ele>
        <time>2018-11-06T13:44:57Z</time>
      </trkpt>
      <trkpt lat="50.53586" lon="3.22012">
        <ele>40.699596</ele>
        <time>2018-11-06T13:44:59Z</time>
      </trkpt>
      <trkpt lat="50.53578" lon="3.22011">
        <ele>40.749195</ele>
        <time>2018-11-06T13:45:01Z</time>
      </trkpt>
      <trkpt lat="50.53571" lon="3.22012">
        <ele>40.790936</ele>
        <time>2018-11-06T13:45:03Z</time>
      </trkpt>
      <trkpt lat="50.53564" lon="3.22013">
        <ele>40.940315</ele>
        <time>2018-11-06T13:45:05Z</time>
      </trkpt>
      <trkpt lat="50.53558" lon="3.22013">
        <ele>41.036224</ele>
        <time>2018-11-06T13:45:07Z</time>
      </trkpt>
      <trkpt lat="50.53553" lon="3.22013">
        <ele>41.1287</ele>
        <time>2018-11-06T13:45:09Z</time>
      </trkpt>
      <trkpt lat="50.53547" lon="3.22014">
        <ele>41.317299</ele>
        <time>2018-11-06T13:45:11Z</time>
      </trkpt>
      <trkpt lat="50.53542" lon="3.22014">
        <ele>41.463402</ele>
        <time>2018-11-06T13:45:13Z</time>
      </trkpt>
      <trkpt lat="50.53538" lon="3.22014">
        <ele>41.639709</ele>
        <time>2018-11-06T13:45:15Z</time>
      </trkpt>
      <trkpt lat="50.53534" lon="3.22013">
        <ele>41.784595</ele>
        <time>2018-11-06T13:45:17Z</time>
      </trkpt>
      <trkpt lat="50.5353" lon="3.22014">
        <ele>41.919441</ele>
        <time>2018-11-06T13:45:19Z</time>
      </trkpt>
      <trkpt lat="50.53526" lon="3.22015">
        <ele>42.073948</ele>
        <time>2018-11-06T13:45:21Z</time>
      </trkpt>
      <trkpt lat="50.53523" lon="3.22015">
        <ele>42.168209</ele>
        <time>2018-11-06T13:45:23Z</time>
      </trkpt>
      <trkpt lat="50.53519" lon="3.22014">
        <ele>42.318501</ele>
        <time>2018-11-06T13:45:25Z</time>
      </trkpt>
      <trkpt lat="50.53516" lon="3.22015">
        <ele>42.428684</ele>
        <time>2018-11-06T13:45:27Z</time>
      </trkpt>
      <trkpt lat="50.53513" lon="3.22015">
        <ele>42.596935</ele>
        <time>2018-11-06T13:45:29Z</time>
      </trkpt>
      <trkpt lat="50.53512" lon="3.22018">
        <ele>40.689373</ele>
        <time>2018-11-06T13:55:07Z</time>
      </trkpt>
      <trkpt lat="50.53511" lon="3.22021">
        <ele>40.709736</ele>
        <time>2018-11-06T13:55:09Z</time>
      </trkpt>
      <trkpt lat="50.53507" lon="3.22031">
        <ele>41.021191</ele>
        <time>2018-11-06T13:55:27Z</time>
      </trkpt>
      <trkpt lat="50.53502" lon="3.22038">
        <ele>41.058819</ele>
        <time>2018-11-06T13:55:29Z</time>
      </trkpt>
      <trkpt lat="50.53499" lon="3.22043">
        <ele>41.06776</ele>
        <time>2018-11-06T13:55:31Z</time>
      </trkpt>
      <trkpt lat="50.53495" lon="3.22049">
        <ele>41.136322</ele>
        <time>2018-11-06T13:55:33Z</time>
      </trkpt>
      <trkpt lat="50.53491" lon="3.22055">
        <ele>41.219868</ele>
        <time>2018-11-06T13:55:35Z</time>
      </trkpt>
      <trkpt lat="50.53486" lon="3.22062">
        <ele>41.273632</ele>
        <time>2018-11-06T13:55:37Z</time>
      </trkpt>
      <trkpt lat="50.53482" lon="3.2207">
        <ele>41.222942</ele>
        <time>2018-11-06T13:55:39Z</time>
      </trkpt>
      <trkpt lat="50.53478" lon="3.22077">
        <ele>42.485279</ele>
        <time>2018-11-06T13:55:41Z</time>
      </trkpt>
      <trkpt lat="50.53473" lon="3.22084">
        <ele>42.472801</ele>
        <time>2018-11-06T13:55:43Z</time>
      </trkpt>
      <trkpt lat="50.53467" lon="3.22092">
        <ele>42.535572</ele>
        <time>2018-11-06T13:55:45Z</time>
      </trkpt>
      <trkpt lat="50.53462" lon="3.22098">
        <ele>42.593544</ele>
        <time>2018-11-06T13:55:47Z</time>
      </trkpt>
      <trkpt lat="50.53456" lon="3.22104">
        <ele>42.674019</ele>
        <time>2018-11-06T13:55:49Z</time>
      </trkpt>
      <trkpt lat="50.5345" lon="3.22109">
        <ele>42.765858</ele>
        <time>2018-11-06T13:55:51Z</time>
      </trkpt>
      <trkpt lat="50.53444" lon="3.22113">
        <ele>42.887054</ele>
        <time>2018-11-06T13:55:53Z</time>
      </trkpt>
      <trkpt lat="50.53439" lon="3.22116">
        <ele>42.9608</ele>
        <time>2018-11-06T13:55:55Z</time>
      </trkpt>
      <trkpt lat="50.53433" lon="3.22119">
        <ele>43.050163</ele>
        <time>2018-11-06T13:55:57Z</time>
      </trkpt>
      <trkpt lat="50.53426" lon="3.22122">
        <ele>43.10136</ele>
        <time>2018-11-06T13:55:59Z</time>
      </trkpt>
      <trkpt lat="50.53421" lon="3.22125">
        <ele>43.126556</ele>
        <time>2018-11-06T13:56:01Z</time>
      </trkpt>
      <trkpt lat="50.53416" lon="3.22128">
        <ele>43.24448</ele>
        <time>2018-11-06T13:56:03Z</time>
      </trkpt>
      <trkpt lat="50.5341" lon="3.22132">
        <ele>43.312817</ele>
        <time>2018-11-06T13:56:05Z</time>
      </trkpt>
      <trkpt lat="50.53405" lon="3.22136">
        <ele>43.422829</ele>
        <time>2018-11-06T13:56:07Z</time>
      </trkpt>
      <trkpt lat="50.53399" lon="3.2214">
        <ele>43.490692</ele>
        <time>2018-11-06T13:56:09Z</time>
      </trkpt>
      <trkpt lat="50.53394" lon="3.22144">
        <ele>43.591537</ele>
        <time>2018-11-06T13:56:11Z</time>
      </trkpt>
      <trkpt lat="50.53388" lon="3.2215">
        <ele>43.651676</ele>
        <time>2018-11-06T13:56:13Z</time>
      </trkpt>
      <trkpt lat="50.53383" lon="3.22157">
        <ele>43.729271</ele>
        <time>2018-11-06T13:56:15Z</time>
      </trkpt>
      <trkpt lat="50.53378" lon="3.22163">
        <ele>43.804787</ele>
        <time>2018-11-06T13:56:17Z</time>
      </trkpt>
      <trkpt lat="50.53373" lon="3.22171">
        <ele>43.838764</ele>
        <time>2018-11-06T13:56:19Z</time>
      </trkpt>
      <trkpt lat="50.53367" lon="3.22179">
        <ele>43.924313</ele>
        <time>2018-11-06T13:56:21Z</time>
      </trkpt>
      <trkpt lat="50.53362" lon="3.22186">
        <ele>44.002495</ele>
        <time>2018-11-06T13:56:23Z</time>
      </trkpt>
      <trkpt lat="50.53356" lon="3.22193">
        <ele>44.101692</ele>
        <time>2018-11-06T13:56:25Z</time>
      </trkpt>
      <trkpt lat="50.5335" lon="3.222">
        <ele>44.166168</ele>
        <time>2018-11-06T13:56:27Z</time>
      </trkpt>
      <trkpt lat="50.53344" lon="3.22207">
        <ele>44.246193</ele>
        <time>2018-11-06T13:56:29Z</time>
      </trkpt>
      <trkpt lat="50.53336" lon="3.22213">
        <ele>44.321037</ele>
        <time>2018-11-06T13:56:31Z</time>
      </trkpt>
      <trkpt lat="50.53329" lon="3.22218">
        <ele>44.355675</ele>
        <time>2018-11-06T13:56:33Z</time>
      </trkpt>
      <trkpt lat="50.53322" lon="3.22223">
        <ele>44.394341</ele>
        <time>2018-11-06T13:56:35Z</time>
      </trkpt>
      <trkpt lat="50.53316" lon="3.22226">
        <ele>44.44046</ele>
        <time>2018-11-06T13:56:37Z</time>
      </trkpt>
      <trkpt lat="50.53309" lon="3.22229">
        <ele>44.514465</ele>
        <time>2018-11-06T13:56:39Z</time>
      </trkpt>
      <trkpt lat="50.53302" lon="3.22232">
        <ele>44.580326</ele>
        <time>2018-11-06T13:56:41Z</time>
      </trkpt>
      <trkpt lat="50.53294" lon="3.22234">
        <ele>44.632607</ele>
        <time>2018-11-06T13:56:43Z</time>
      </trkpt>
      <trkpt lat="50.53288" lon="3.22235">
        <ele>44.689262</ele>
        <time>2018-11-06T13:56:45Z</time>
      </trkpt>
      <trkpt lat="50.53281" lon="3.22237">
        <ele>44.712875</ele>
        <time>2018-11-06T13:56:47Z</time>
      </trkpt>
      <trkpt lat="50.53273" lon="3.22239">
        <ele>44.795513</ele>
        <time>2018-11-06T13:56:49Z</time>
      </trkpt>
      <trkpt lat="50.53267" lon="3.22241">
        <ele>44.877701</ele>
        <time>2018-11-06T13:56:51Z</time>
      </trkpt>
      <trkpt lat="50.5326" lon="3.22243">
        <ele>44.965431</ele>
        <time>2018-11-06T13:56:53Z</time>
      </trkpt>
      <trkpt lat="50.53255" lon="3.22244">
        <ele>45.032852</ele>
        <time>2018-11-06T13:56:55Z</time>
      </trkpt>
      <trkpt lat="50.53251" lon="3.22245">
        <ele>45.099575</ele>
        <time>2018-11-06T13:56:57Z</time>
      </trkpt>
      <trkpt lat="50.53248" lon="3.22246">
        <ele>45.171692</ele>
        <time>2018-11-06T13:56:59Z</time>
      </trkpt>
      <trkpt lat="50.53245" lon="3.22246">
        <ele>45.246803</ele>
        <time>2018-11-06T13:57:01Z</time>
      </trkpt>
      <trkpt lat="50.53243" lon="3.22246">
        <ele>45.284477</ele>
        <time>2018-11-06T13:57:03Z</time>
      </trkpt>
      <trkpt lat="50.53241" lon="3.22247">
        <ele>45.346931</ele>
        <time>2018-11-06T13:57:05Z</time>
      </trkpt>
      <trkpt lat="50.53238" lon="3.22246">
        <ele>45.447582</ele>
        <time>2018-11-06T13:57:09Z</time>
      </trkpt>
      <trkpt lat="50.53237" lon="3.22245">
        <ele>45.4977</ele>
        <time>2018-11-06T13:57:11Z</time>
      </trkpt>
      <trkpt lat="50.53235" lon="3.22244">
        <ele>45.519142</ele>
        <time>2018-11-06T13:57:13Z</time>
      </trkpt>
      <trkpt lat="50.53233" lon="3.22246">
        <ele>45.688057</ele>
        <time>2018-11-06T13:57:36Z</time>
      </trkpt>
      <trkpt lat="50.53231" lon="3.22248">
        <ele>45.685265</ele>
        <time>2018-11-06T13:57:38Z</time>
      </trkpt>
      <trkpt lat="50.53228" lon="3.2225">
        <ele>45.675243</ele>
        <time>2018-11-06T13:57:40Z</time>
      </trkpt>
      <trkpt lat="50.53224" lon="3.22252">
        <ele>45.710228</ele>
        <time>2018-11-06T13:57:42Z</time>
      </trkpt>
      <trkpt lat="50.53219" lon="3.22253">
        <ele>45.787281</ele>
        <time>2018-11-06T13:57:44Z</time>
      </trkpt>
      <trkpt lat="50.53212" lon="3.22254">
        <ele>45.812462</ele>
        <time>2018-11-06T13:57:46Z</time>
      </trkpt>
      <trkpt lat="50.53206" lon="3.22256">
        <ele>45.835163</ele>
        <time>2018-11-06T13:57:48Z</time>
      </trkpt>
      <trkpt lat="50.53199" lon="3.22255">
        <ele>45.856026</ele>
        <time>2018-11-06T13:57:50Z</time>
      </trkpt>
      <trkpt lat="50.53192" lon="3.22254">
        <ele>45.911827</ele>
        <time>2018-11-06T13:57:52Z</time>
      </trkpt>
      <trkpt lat="50.53185" lon="3.22253">
        <ele>45.951385</ele>
        <time>2018-11-06T13:57:54Z</time>
      </trkpt>
      <trkpt lat="50.53178" lon="3.22252">
        <ele>46.007057</ele>
        <time>2018-11-06T13:57:56Z</time>
      </trkpt>
      <trkpt lat="50.5317" lon="3.22253">
        <ele>46.103092</ele>
        <time>2018-11-06T13:57:58Z</time>
      </trkpt>
      <trkpt lat="50.53163" lon="3.22253">
        <ele>46.180511</ele>
        <time>2018-11-06T13:58:00Z</time>
      </trkpt>
      <trkpt lat="50.53156" lon="3.22252">
        <ele>46.285908</ele>
        <time>2018-11-06T13:58:02Z</time>
      </trkpt>
      <trkpt lat="50.53149" lon="3.22252">
        <ele>46.393456</ele>
        <time>2018-11-06T13:58:04Z</time>
      </trkpt>
      <trkpt lat="50.53141" lon="3.22251">
        <ele>46.45837</ele>
        <time>2018-11-06T13:58:06Z</time>
      </trkpt>
      <trkpt lat="50.53134" lon="3.22251">
        <ele>46.643105</ele>
        <time>2018-11-06T13:58:08Z</time>
      </trkpt>
      <trkpt lat="50.53127" lon="3.2225">
        <ele>46.778027</ele>
        <time>2018-11-06T13:58:10Z</time>
      </trkpt>
      <trkpt lat="50.5312" lon="3.2225">
        <ele>46.909081</ele>
        <time>2018-11-06T13:58:12Z</time>
      </trkpt>
      <trkpt lat="50.53112" lon="3.22249">
        <ele>47.092449</ele>
        <time>2018-11-06T13:58:14Z</time>
      </trkpt>
      <trkpt lat="50.53106" lon="3.22248">
        <ele>47.269051</ele>
        <time>2018-11-06T13:58:16Z</time>
      </trkpt>
      <trkpt lat="50.53099" lon="3.22247">
        <ele>47.453503</ele>
        <time>2018-11-06T13:58:18Z</time>
      </trkpt>
      <trkpt lat="50.53093" lon="3.22246">
        <ele>47.615219</ele>
        <time>2018-11-06T13:58:20Z</time>
      </trkpt>
      <trkpt lat="50.53088" lon="3.22245">
        <ele>47.785805</ele>
        <time>2018-11-06T13:58:22Z</time>
      </trkpt>
      <trkpt lat="50.53083" lon="3.22244">
        <ele>47.958096</ele>
        <time>2018-11-06T13:58:24Z</time>
      </trkpt>
      <trkpt lat="50.53079" lon="3.22244">
        <ele>48.154396</ele>
        <time>2018-11-06T13:58:26Z</time>
      </trkpt>
      <trkpt lat="50.53075" lon="3.22248">
        <ele>48.326332</ele>
        <time>2018-11-06T13:58:28Z</time>
      </trkpt>
      <trkpt lat="50.53074" lon="3.22256">
        <ele>48.402748</ele>
        <time>2018-11-06T13:58:30Z</time>
      </trkpt>
      <trkpt lat="50.53077" lon="3.22263">
        <ele>48.601357</ele>
        <time>2018-11-06T13:58:32Z</time>
      </trkpt>
      <trkpt lat="50.5308" lon="3.22272">
        <ele>48.738529</ele>
        <time>2018-11-06T13:58:34Z</time>
      </trkpt>
      <trkpt lat="50.53082" lon="3.22283">
        <ele>48.858925</ele>
        <time>2018-11-06T13:58:36Z</time>
      </trkpt>
      <trkpt lat="50.53082" lon="3.22295">
        <ele>48.983501</ele>
        <time>2018-11-06T13:58:38Z</time>
      </trkpt>
      <trkpt lat="50.53083" lon="3.22307">
        <ele>49.119423</ele>
        <time>2018-11-06T13:58:40Z</time>
      </trkpt>
      <trkpt lat="50.53083" lon="3.22317">
        <ele>49.313877</ele>
        <time>2018-11-06T13:58:42Z</time>
      </trkpt>
      <trkpt lat="50.53083" lon="3.22326">
        <ele>49.434025</ele>
        <time>2018-11-06T13:58:44Z</time>
      </trkpt>
      <trkpt lat="50.53083" lon="3.22334">
        <ele>49.568974</ele>
        <time>2018-11-06T13:58:46Z</time>
      </trkpt>
      <trkpt lat="50.53084" lon="3.22343">
        <ele>49.681358</ele>
        <time>2018-11-06T13:58:48Z</time>
      </trkpt>
      <trkpt lat="50.53085" lon="3.22353">
        <ele>49.748177</ele>
        <time>2018-11-06T13:58:50Z</time>
      </trkpt>
      <trkpt lat="50.53086" lon="3.22364">
        <ele>49.849842</ele>
        <time>2018-11-06T13:58:52Z</time>
      </trkpt>
      <trkpt lat="50.53087" lon="3.22374">
        <ele>49.99324</ele>
        <time>2018-11-06T13:58:54Z</time>
      </trkpt>
      <trkpt lat="50.53087" lon="3.22385">
        <ele>50.079239</ele>
        <time>2018-11-06T13:58:56Z</time>
      </trkpt>
      <trkpt lat="50.53087" lon="3.22396">
        <ele>50.116905</ele>
        <time>2018-11-06T13:58:58Z</time>
      </trkpt>
      <trkpt lat="50.53087" lon="3.22407">
        <ele>50.218025</ele>
        <time>2018-11-06T13:59:00Z</time>
      </trkpt>
      <trkpt lat="50.53088" lon="3.2242">
        <ele>50.319401</ele>
        <time>2018-11-06T13:59:02Z</time>
      </trkpt>
      <trkpt lat="50.5309" lon="3.22431">
        <ele>50.370285</ele>
        <time>2018-11-06T13:59:04Z</time>
      </trkpt>
      <trkpt lat="50.53093" lon="3.22442">
        <ele>50.44479</ele>
        <time>2018-11-06T13:59:06Z</time>
      </trkpt>
      <trkpt lat="50.53095" lon="3.22453">
        <ele>50.446945</ele>
        <time>2018-11-06T13:59:08Z</time>
      </trkpt>
      <trkpt lat="50.53097" lon="3.22464">
        <ele>50.499802</ele>
        <time>2018-11-06T13:59:10Z</time>
      </trkpt>
      <trkpt lat="50.53099" lon="3.22475">
        <ele>50.546867</ele>
        <time>2018-11-06T13:59:12Z</time>
      </trkpt>
      <trkpt lat="50.53101" lon="3.22486">
        <ele>50.591995</ele>
        <time>2018-11-06T13:59:14Z</time>
      </trkpt>
      <trkpt lat="50.53103" lon="3.22497">
        <ele>50.641121</ele>
        <time>2018-11-06T13:59:16Z</time>
      </trkpt>
      <trkpt lat="50.53104" lon="3.22507">
        <ele>50.725899</ele>
        <time>2018-11-06T13:59:18Z</time>
      </trkpt>
      <trkpt lat="50.53106" lon="3.22517">
        <ele>50.790909</ele>
        <time>2018-11-06T13:59:20Z</time>
      </trkpt>
      <trkpt lat="50.53107" lon="3.22529">
        <ele>50.790604</ele>
        <time>2018-11-06T13:59:22Z</time>
      </trkpt>
      <trkpt lat="50.53109" lon="3.22541">
        <ele>50.775871</ele>
        <time>2018-11-06T13:59:24Z</time>
      </trkpt>
      <trkpt lat="50.53109" lon="3.22554">
        <ele>50.77737</ele>
        <time>2018-11-06T13:59:26Z</time>
      </trkpt>
      <trkpt lat="50.53111" lon="3.22566">
        <ele>50.768898</ele>
        <time>2018-11-06T13:59:28Z</time>
      </trkpt>
      <trkpt lat="50.53113" lon="3.22578">
        <ele>50.786228</ele>
        <time>2018-11-06T13:59:30Z</time>
      </trkpt>
      <trkpt lat="50.53115" lon="3.22589">
        <ele>50.781898</ele>
        <time>2018-11-06T13:59:32Z</time>
      </trkpt>
      <trkpt lat="50.53117" lon="3.226">
        <ele>50.746788</ele>
        <time>2018-11-06T13:59:34Z</time>
      </trkpt>
      <trkpt lat="50.53119" lon="3.22613">
        <ele>50.691284</ele>
        <time>2018-11-06T13:59:36Z</time>
      </trkpt>
      <trkpt lat="50.5312" lon="3.22625">
        <ele>50.652382</ele>
        <time>2018-11-06T13:59:38Z</time>
      </trkpt>
      <trkpt lat="50.53124" lon="3.22637">
        <ele>50.595711</ele>
        <time>2018-11-06T13:59:40Z</time>
      </trkpt>
      <trkpt lat="50.53128" lon="3.22647">
        <ele>50.539581</ele>
        <time>2018-11-06T13:59:42Z</time>
      </trkpt>
      <trkpt lat="50.53133" lon="3.22656">
        <ele>50.476925</ele>
        <time>2018-11-06T13:59:44Z</time>
      </trkpt>
      <trkpt lat="50.53138" lon="3.22664">
        <ele>50.401291</ele>
        <time>2018-11-06T13:59:46Z</time>
      </trkpt>
      <trkpt lat="50.53144" lon="3.22673">
        <ele>50.268364</ele>
        <time>2018-11-06T13:59:48Z</time>
      </trkpt>
      <trkpt lat="50.53149" lon="3.22684">
        <ele>50.137642</ele>
        <time>2018-11-06T13:59:50Z</time>
      </trkpt>
      <trkpt lat="50.53154" lon="3.22697">
        <ele>50.018089</ele>
        <time>2018-11-06T13:59:52Z</time>
      </trkpt>
      <trkpt lat="50.53158" lon="3.2271">
        <ele>49.890804</ele>
        <time>2018-11-06T13:59:54Z</time>
      </trkpt>
      <trkpt lat="50.53161" lon="3.22724">
        <ele>49.795078</ele>
        <time>2018-11-06T13:59:56Z</time>
      </trkpt>
      <trkpt lat="50.53164" lon="3.22738">
        <ele>49.685936</ele>
        <time>2018-11-06T13:59:58Z</time>
      </trkpt>
      <trkpt lat="50.53166" lon="3.2275">
        <ele>49.584122</ele>
        <time>2018-11-06T14:00:00Z</time>
      </trkpt>
      <trkpt lat="50.53169" lon="3.22762">
        <ele>49.409031</ele>
        <time>2018-11-06T14:00:02Z</time>
      </trkpt>
      <trkpt lat="50.5317" lon="3.22775">
        <ele>49.264114</ele>
        <time>2018-11-06T14:00:04Z</time>
      </trkpt>
      <trkpt lat="50.53171" lon="3.22788">
        <ele>49.151741</ele>
        <time>2018-11-06T14:00:06Z</time>
      </trkpt>
      <trkpt lat="50.53172" lon="3.22801">
        <ele>48.992496</ele>
        <time>2018-11-06T14:00:08Z</time>
      </trkpt>
      <trkpt lat="50.53172" lon="3.22815">
        <ele>48.926449</ele>
        <time>2018-11-06T14:00:10Z</time>
      </trkpt>
      <trkpt lat="50.53172" lon="3.22826">
        <ele>48.800224</ele>
        <time>2018-11-06T14:00:12Z</time>
      </trkpt>
      <trkpt lat="50.53171" lon="3.22837">
        <ele>48.708263</ele>
        <time>2018-11-06T14:00:14Z</time>
      </trkpt>
      <trkpt lat="50.5317" lon="3.22847">
        <ele>48.574093</ele>
        <time>2018-11-06T14:00:16Z</time>
      </trkpt>
      <trkpt lat="50.5317" lon="3.22857">
        <ele>48.476254</ele>
        <time>2018-11-06T14:00:18Z</time>
      </trkpt>
      <trkpt lat="50.53172" lon="3.22865">
        <ele>48.378368</ele>
        <time>2018-11-06T14:00:20Z</time>
      </trkpt>
      <trkpt lat="50.53178" lon="3.22869">
        <ele>48.259609</ele>
        <time>2018-11-06T14:00:22Z</time>
      </trkpt>
      <trkpt lat="50.53186" lon="3.22867">
        <ele>48.143829</ele>
        <time>2018-11-06T14:00:24Z</time>
      </trkpt>
      <trkpt lat="50.53195" lon="3.22866">
        <ele>48.096241</ele>
        <time>2018-11-06T14:00:26Z</time>
      </trkpt>
      <trkpt lat="50.53204" lon="3.22865">
        <ele>48.030567</ele>
        <time>2018-11-06T14:00:28Z</time>
      </trkpt>
      <trkpt lat="50.53212" lon="3.22865">
        <ele>47.961437</ele>
        <time>2018-11-06T14:00:30Z</time>
      </trkpt>
      <trkpt lat="50.53221" lon="3.22865">
        <ele>47.912231</ele>
        <time>2018-11-06T14:00:32Z</time>
      </trkpt>
      <trkpt lat="50.5323" lon="3.22865">
        <ele>47.899933</ele>
        <time>2018-11-06T14:00:34Z</time>
      </trkpt>
      <trkpt lat="50.53237" lon="3.22865">
        <ele>47.855614</ele>
        <time>2018-11-06T14:00:36Z</time>
      </trkpt>
      <trkpt lat="50.53245" lon="3.22866">
        <ele>47.770885</ele>
        <time>2018-11-06T14:00:38Z</time>
      </trkpt>
      <trkpt lat="50.53254" lon="3.22866">
        <ele>47.728813</ele>
        <time>2018-11-06T14:00:40Z</time>
      </trkpt>
      <trkpt lat="50.53262" lon="3.22866">
        <ele>47.65081</ele>
        <time>2018-11-06T14:00:42Z</time>
      </trkpt>
      <trkpt lat="50.5327" lon="3.22866">
        <ele>47.603546</ele>
        <time>2018-11-06T14:00:44Z</time>
      </trkpt>
      <trkpt lat="50.53279" lon="3.22866">
        <ele>47.57531</ele>
        <time>2018-11-06T14:00:46Z</time>
      </trkpt>
      <trkpt lat="50.53288" lon="3.22866">
        <ele>47.566044</ele>
        <time>2018-11-06T14:00:48Z</time>
      </trkpt>
      <trkpt lat="50.53296" lon="3.22865">
        <ele>47.513927</ele>
        <time>2018-11-06T14:00:50Z</time>
      </trkpt>
      <trkpt lat="50.53305" lon="3.22863">
        <ele>47.378918</ele>
        <time>2018-11-06T14:00:52Z</time>
      </trkpt>
      <trkpt lat="50.53313" lon="3.22862">
        <ele>47.337925</ele>
        <time>2018-11-06T14:00:54Z</time>
      </trkpt>
      <trkpt lat="50.53322" lon="3.22862">
        <ele>47.230099</ele>
        <time>2018-11-06T14:00:56Z</time>
      </trkpt>
      <trkpt lat="50.5333" lon="3.22862">
        <ele>47.212757</ele>
        <time>2018-11-06T14:00:58Z</time>
      </trkpt>
      <trkpt lat="50.53339" lon="3.22862">
        <ele>47.096603</ele>
        <time>2018-11-06T14:01:00Z</time>
      </trkpt>
      <trkpt lat="50.53347" lon="3.22863">
        <ele>47.003971</ele>
        <time>2018-11-06T14:01:02Z</time>
      </trkpt>
      <trkpt lat="50.53357" lon="3.22864">
        <ele>46.916351</ele>
        <time>2018-11-06T14:01:04Z</time>
      </trkpt>
      <trkpt lat="50.53367" lon="3.22864">
        <ele>46.813457</ele>
        <time>2018-11-06T14:01:06Z</time>
      </trkpt>
      <trkpt lat="50.53377" lon="3.22866">
        <ele>46.658405</ele>
        <time>2018-11-06T14:01:08Z</time>
      </trkpt>
      <trkpt lat="50.53388" lon="3.22869">
        <ele>46.504398</ele>
        <time>2018-11-06T14:01:10Z</time>
      </trkpt>
      <trkpt lat="50.53398" lon="3.22872">
        <ele>46.367714</ele>
        <time>2018-11-06T14:01:12Z</time>
      </trkpt>
      <trkpt lat="50.53409" lon="3.22876">
        <ele>46.17791</ele>
        <time>2018-11-06T14:01:14Z</time>
      </trkpt>
      <trkpt lat="50.5342" lon="3.2288">
        <ele>46.025345</ele>
        <time>2018-11-06T14:01:16Z</time>
      </trkpt>
      <trkpt lat="50.53431" lon="3.22885">
        <ele>45.923473</ele>
        <time>2018-11-06T14:01:18Z</time>
      </trkpt>
      <trkpt lat="50.53442" lon="3.22892">
        <ele>45.714134</ele>
        <time>2018-11-06T14:01:20Z</time>
      </trkpt>
      <trkpt lat="50.53454" lon="3.22901">
        <ele>45.4468</ele>
        <time>2018-11-06T14:01:22Z</time>
      </trkpt>
      <trkpt lat="50.53465" lon="3.22911">
        <ele>45.139912</ele>
        <time>2018-11-06T14:01:24Z</time>
      </trkpt>
      <trkpt lat="50.53477" lon="3.22923">
        <ele>44.896912</ele>
        <time>2018-11-06T14:01:26Z</time>
      </trkpt>
      <trkpt lat="50.53489" lon="3.22935">
        <ele>44.562843</ele>
        <time>2018-11-06T14:01:28Z</time>
      </trkpt>
      <trkpt lat="50.53502" lon="3.22948">
        <ele>44.218761</ele>
        <time>2018-11-06T14:01:30Z</time>
      </trkpt>
      <trkpt lat="50.53515" lon="3.2296">
        <ele>43.914124</ele>
        <time>2018-11-06T14:01:32Z</time>
      </trkpt>
      <trkpt lat="50.53529" lon="3.22972">
        <ele>43.65786</ele>
        <time>2018-11-06T14:01:34Z</time>
      </trkpt>
      <trkpt lat="50.53542" lon="3.22983">
        <ele>43.328335</ele>
        <time>2018-11-06T14:01:36Z</time>
      </trkpt>
      <trkpt lat="50.53556" lon="3.22994">
        <ele>42.94875</ele>
        <time>2018-11-06T14:01:38Z</time>
      </trkpt>
      <trkpt lat="50.53569" lon="3.23005">
        <ele>42.57243</ele>
        <time>2018-11-06T14:01:40Z</time>
      </trkpt>
      <trkpt lat="50.53582" lon="3.23014">
        <ele>42.21273</ele>
        <time>2018-11-06T14:01:42Z</time>
      </trkpt>
      <trkpt lat="50.53594" lon="3.23022">
        <ele>41.84795</ele>
        <time>2018-11-06T14:01:44Z</time>
      </trkpt>
      <trkpt lat="50.53606" lon="3.2303">
        <ele>41.489681</ele>
        <time>2018-11-06T14:01:46Z</time>
      </trkpt>
      <trkpt lat="50.53618" lon="3.23038">
        <ele>41.152992</ele>
        <time>2018-11-06T14:01:48Z</time>
      </trkpt>
      <trkpt lat="50.5363" lon="3.23045">
        <ele>40.844593</ele>
        <time>2018-11-06T14:01:50Z</time>
      </trkpt>
      <trkpt lat="50.53641" lon="3.23052">
        <ele>40.536156</ele>
        <time>2018-11-06T14:01:52Z</time>
      </trkpt>
      <trkpt lat="50.53652" lon="3.23058">
        <ele>40.292526</ele>
        <time>2018-11-06T14:01:54Z</time>
      </trkpt>
      <trkpt lat="50.53662" lon="3.23065">
        <ele>40.019188</ele>
        <time>2018-11-06T14:01:56Z</time>
      </trkpt>
      <trkpt lat="50.53672" lon="3.23071">
        <ele>39.877876</ele>
        <time>2018-11-06T14:01:58Z</time>
      </trkpt>
      <trkpt lat="50.53682" lon="3.23078">
        <ele>39.579567</ele>
        <time>2018-11-06T14:02:00Z</time>
      </trkpt>
      <trkpt lat="50.53691" lon="3.23086">
        <ele>39.402439</ele>
        <time>2018-11-06T14:02:02Z</time>
      </trkpt>
      <trkpt lat="50.53698" lon="3.23097">
        <ele>39.204933</ele>
        <time>2018-11-06T14:02:04Z</time>
      </trkpt>
      <trkpt lat="50.53704" lon="3.2311">
        <ele>38.994408</ele>
        <time>2018-11-06T14:02:06Z</time>
      </trkpt>
      <trkpt lat="50.5371" lon="3.23123">
        <ele>38.883503</ele>
        <time>2018-11-06T14:02:08Z</time>
      </trkpt>
      <trkpt lat="50.53716" lon="3.23136">
        <ele>38.829117</ele>
        <time>2018-11-06T14:02:10Z</time>
      </trkpt>
      <trkpt lat="50.53721" lon="3.23148">
        <ele>38.748558</ele>
        <time>2018-11-06T14:02:12Z</time>
      </trkpt>
      <trkpt lat="50.53727" lon="3.23161">
        <ele>38.689117</ele>
        <time>2018-11-06T14:02:14Z</time>
      </trkpt>
      <trkpt lat="50.53733" lon="3.23173">
        <ele>38.622192</ele>
        <time>2018-11-06T14:02:16Z</time>
      </trkpt>
      <trkpt lat="50.53738" lon="3.23186">
        <ele>38.595249</ele>
        <time>2018-11-06T14:02:18Z</time>
      </trkpt>
      <trkpt lat="50.53743" lon="3.23199">
        <ele>38.662727</ele>
        <time>2018-11-06T14:02:20Z</time>
      </trkpt>
      <trkpt lat="50.53748" lon="3.23213">
        <ele>38.642487</ele>
        <time>2018-11-06T14:02:22Z</time>
      </trkpt>
      <trkpt lat="50.53753" lon="3.23227">
        <ele>38.674927</ele>
        <time>2018-11-06T14:02:24Z</time>
      </trkpt>
      <trkpt lat="50.53757" lon="3.2324">
        <ele>38.764137</ele>
        <time>2018-11-06T14:02:26Z</time>
      </trkpt>
      <trkpt lat="50.53761" lon="3.23254">
        <ele>38.837215</ele>
        <time>2018-11-06T14:02:28Z</time>
      </trkpt>
      <trkpt lat="50.53765" lon="3.23269">
        <ele>38.893082</ele>
        <time>2018-11-06T14:02:30Z</time>
      </trkpt>
      <trkpt lat="50.53769" lon="3.23283">
        <ele>38.986107</ele>
        <time>2018-11-06T14:02:32Z</time>
      </trkpt>
      <trkpt lat="50.53772" lon="3.23297">
        <ele>39.05286</ele>
        <time>2018-11-06T14:02:34Z</time>
      </trkpt>
      <trkpt lat="50.53776" lon="3.23311">
        <ele>39.078861</ele>
        <time>2018-11-06T14:02:36Z</time>
      </trkpt>
      <trkpt lat="50.53779" lon="3.23325">
        <ele>39.168087</ele>
        <time>2018-11-06T14:02:38Z</time>
      </trkpt>
      <trkpt lat="50.53782" lon="3.23339">
        <ele>39.285545</ele>
        <time>2018-11-06T14:02:40Z</time>
      </trkpt>
      <trkpt lat="50.53785" lon="3.23352">
        <ele>39.399143</ele>
        <time>2018-11-06T14:02:42Z</time>
      </trkpt>
      <trkpt lat="50.53788" lon="3.23365">
        <ele>39.518681</ele>
        <time>2018-11-06T14:02:44Z</time>
      </trkpt>
      <trkpt lat="50.53791" lon="3.23378">
        <ele>39.673977</ele>
        <time>2018-11-06T14:02:46Z</time>
      </trkpt>
      <trkpt lat="50.53795" lon="3.23391">
        <ele>39.79435</ele>
        <time>2018-11-06T14:02:48Z</time>
      </trkpt>
      <trkpt lat="50.53797" lon="3.23404">
        <ele>39.89719</ele>
        <time>2018-11-06T14:02:50Z</time>
      </trkpt>
      <trkpt lat="50.538" lon="3.23418">
        <ele>39.965519</ele>
        <time>2018-11-06T14:02:52Z</time>
      </trkpt>
      <trkpt lat="50.53803" lon="3.23431">
        <ele>40.071068</ele>
        <time>2018-11-06T14:02:54Z</time>
      </trkpt>
      <trkpt lat="50.53805" lon="3.23445">
        <ele>40.193405</ele>
        <time>2018-11-06T14:02:56Z</time>
      </trkpt>
      <trkpt lat="50.53808" lon="3.23458">
        <ele>40.322514</ele>
        <time>2018-11-06T14:02:58Z</time>
      </trkpt>
      <trkpt lat="50.53812" lon="3.23472">
        <ele>40.361305</ele>
        <time>2018-11-06T14:03:00Z</time>
      </trkpt>
      <trkpt lat="50.53815" lon="3.23486">
        <ele>40.456284</ele>
        <time>2018-11-06T14:03:02Z</time>
      </trkpt>
      <trkpt lat="50.53819" lon="3.23499">
        <ele>40.575542</ele>
        <time>2018-11-06T14:03:04Z</time>
      </trkpt>
      <trkpt lat="50.53822" lon="3.23511">
        <ele>40.648941</ele>
        <time>2018-11-06T14:03:06Z</time>
      </trkpt>
      <trkpt lat="50.53826" lon="3.23524">
        <ele>40.71154</ele>
        <time>2018-11-06T14:03:08Z</time>
      </trkpt>
      <trkpt lat="50.53829" lon="3.23537">
        <ele>40.798904</ele>
        <time>2018-11-06T14:03:10Z</time>
      </trkpt>
      <trkpt lat="50.53833" lon="3.2355">
        <ele>40.905281</ele>
        <time>2018-11-06T14:03:12Z</time>
      </trkpt>
      <trkpt lat="50.53836" lon="3.23563">
        <ele>40.940544</ele>
        <time>2018-11-06T14:03:14Z</time>
      </trkpt>
      <trkpt lat="50.53839" lon="3.23576">
        <ele>41.047112</ele>
        <time>2018-11-06T14:03:16Z</time>
      </trkpt>
      <trkpt lat="50.53843" lon="3.23589">
        <ele>41.196358</ele>
        <time>2018-11-06T14:03:18Z</time>
      </trkpt>
      <trkpt lat="50.53846" lon="3.23602">
        <ele>41.307323</ele>
        <time>2018-11-06T14:03:20Z</time>
      </trkpt>
      <trkpt lat="50.5385" lon="3.23614">
        <ele>41.434391</ele>
        <time>2018-11-06T14:03:22Z</time>
      </trkpt>
      <trkpt lat="50.53854" lon="3.23627">
        <ele>41.579296</ele>
        <time>2018-11-06T14:03:24Z</time>
      </trkpt>
      <trkpt lat="50.53858" lon="3.23638">
        <ele>41.721249</ele>
        <time>2018-11-06T14:03:26Z</time>
      </trkpt>
      <trkpt lat="50.53862" lon="3.2365">
        <ele>41.870567</ele>
        <time>2018-11-06T14:03:28Z</time>
      </trkpt>
      <trkpt lat="50.53867" lon="3.23661">
        <ele>41.99789</ele>
        <time>2018-11-06T14:03:30Z</time>
      </trkpt>
      <trkpt lat="50.53871" lon="3.23672">
        <ele>42.183174</ele>
        <time>2018-11-06T14:03:32Z</time>
      </trkpt>
      <trkpt lat="50.53877" lon="3.23683">
        <ele>42.302269</ele>
        <time>2018-11-06T14:03:34Z</time>
      </trkpt>
      <trkpt lat="50.53882" lon="3.23693">
        <ele>42.473827</ele>
        <time>2018-11-06T14:03:36Z</time>
      </trkpt>
      <trkpt lat="50.53887" lon="3.23704">
        <ele>42.615238</ele>
        <time>2018-11-06T14:03:38Z</time>
      </trkpt>
      <trkpt lat="50.53892" lon="3.23716">
        <ele>42.782791</ele>
        <time>2018-11-06T14:03:40Z</time>
      </trkpt>
      <trkpt lat="50.53896" lon="3.23727">
        <ele>42.959805</ele>
        <time>2018-11-06T14:03:42Z</time>
      </trkpt>
      <trkpt lat="50.53901" lon="3.23739">
        <ele>43.078712</ele>
        <time>2018-11-06T14:03:44Z</time>
      </trkpt>
      <trkpt lat="50.53906" lon="3.2375">
        <ele>43.305523</ele>
        <time>2018-11-06T14:03:46Z</time>
      </trkpt>
      <trkpt lat="50.5391" lon="3.23762">
        <ele>43.540459</ele>
        <time>2018-11-06T14:03:48Z</time>
      </trkpt>
      <trkpt lat="50.53914" lon="3.23774">
        <ele>43.764576</ele>
        <time>2018-11-06T14:03:50Z</time>
      </trkpt>
      <trkpt lat="50.53919" lon="3.23786">
        <ele>43.964333</ele>
        <time>2018-11-06T14:03:52Z</time>
      </trkpt>
      <trkpt lat="50.53922" lon="3.23798">
        <ele>44.180004</ele>
        <time>2018-11-06T14:03:54Z</time>
      </trkpt>
      <trkpt lat="50.53926" lon="3.23811">
        <ele>44.38509</ele>
        <time>2018-11-06T14:03:56Z</time>
      </trkpt>
      <trkpt lat="50.53928" lon="3.23824">
        <ele>44.526161</ele>
        <time>2018-11-06T14:03:58Z</time>
      </trkpt>
      <trkpt lat="50.53931" lon="3.23837">
        <ele>44.671677</ele>
        <time>2018-11-06T14:04:00Z</time>
      </trkpt>
      <trkpt lat="50.53934" lon="3.2385">
        <ele>44.819065</ele>
        <time>2018-11-06T14:04:02Z</time>
      </trkpt>
      <trkpt lat="50.53935" lon="3.23863">
        <ele>44.955845</ele>
        <time>2018-11-06T14:04:04Z</time>
      </trkpt>
      <trkpt lat="50.53935" lon="3.23877">
        <ele>45.110966</ele>
        <time>2018-11-06T14:04:06Z</time>
      </trkpt>
      <trkpt lat="50.53935" lon="3.2389">
        <ele>45.26453</ele>
        <time>2018-11-06T14:04:08Z</time>
      </trkpt>
      <trkpt lat="50.53935" lon="3.23904">
        <ele>45.421013</ele>
        <time>2018-11-06T14:04:10Z</time>
      </trkpt>
      <trkpt lat="50.53935" lon="3.23917">
        <ele>45.594826</ele>
        <time>2018-11-06T14:04:12Z</time>
      </trkpt>
      <trkpt lat="50.53936" lon="3.2393">
        <ele>45.784973</ele>
        <time>2018-11-06T14:04:14Z</time>
      </trkpt>
      <trkpt lat="50.53937" lon="3.23943">
        <ele>45.960911</ele>
        <time>2018-11-06T14:04:16Z</time>
      </trkpt>
      <trkpt lat="50.53939" lon="3.23957">
        <ele>46.035732</ele>
        <time>2018-11-06T14:04:18Z</time>
      </trkpt>
      <trkpt lat="50.53941" lon="3.2397">
        <ele>46.202972</ele>
        <time>2018-11-06T14:04:20Z</time>
      </trkpt>
      <trkpt lat="50.53944" lon="3.23983">
        <ele>46.383278</ele>
        <time>2018-11-06T14:04:22Z</time>
      </trkpt>
      <trkpt lat="50.53948" lon="3.23994">
        <ele>46.543007</ele>
        <time>2018-11-06T14:04:24Z</time>
      </trkpt>
      <trkpt lat="50.53952" lon="3.24007">
        <ele>46.70517</ele>
        <time>2018-11-06T14:04:26Z</time>
      </trkpt>
      <trkpt lat="50.53956" lon="3.24019">
        <ele>46.855202</ele>
        <time>2018-11-06T14:04:28Z</time>
      </trkpt>
      <trkpt lat="50.53959" lon="3.24031">
        <ele>47.009945</ele>
        <time>2018-11-06T14:04:30Z</time>
      </trkpt>
      <trkpt lat="50.53963" lon="3.24042">
        <ele>47.130909</ele>
        <time>2018-11-06T14:04:32Z</time>
      </trkpt>
      <trkpt lat="50.53966" lon="3.24054">
        <ele>47.264282</ele>
        <time>2018-11-06T14:04:34Z</time>
      </trkpt>
      <trkpt lat="50.53969" lon="3.24065">
        <ele>47.42881</ele>
        <time>2018-11-06T14:04:36Z</time>
      </trkpt>
      <trkpt lat="50.53973" lon="3.24075">
        <ele>47.547913</ele>
        <time>2018-11-06T14:04:38Z</time>
      </trkpt>
      <trkpt lat="50.53977" lon="3.24084">
        <ele>47.614674</ele>
        <time>2018-11-06T14:04:40Z</time>
      </trkpt>
      <trkpt lat="50.53981" lon="3.24093">
        <ele>47.730183</ele>
        <time>2018-11-06T14:04:42Z</time>
      </trkpt>
      <trkpt lat="50.53982" lon="3.24103">
        <ele>47.878296</ele>
        <time>2018-11-06T14:04:44Z</time>
      </trkpt>
      <trkpt lat="50.53978" lon="3.24112">
        <ele>48.053291</ele>
        <time>2018-11-06T14:04:46Z</time>
      </trkpt>
      <trkpt lat="50.53972" lon="3.24118">
        <ele>48.22831</ele>
        <time>2018-11-06T14:04:48Z</time>
      </trkpt>
      <trkpt lat="50.53965" lon="3.24124">
        <ele>48.365936</ele>
        <time>2018-11-06T14:04:50Z</time>
      </trkpt>
      <trkpt lat="50.53956" lon="3.24129">
        <ele>48.418129</ele>
        <time>2018-11-06T14:04:52Z</time>
      </trkpt>
      <trkpt lat="50.53947" lon="3.24132">
        <ele>48.579903</ele>
        <time>2018-11-06T14:04:54Z</time>
      </trkpt>
      <trkpt lat="50.53937" lon="3.24134">
        <ele>48.723469</ele>
        <time>2018-11-06T14:04:56Z</time>
      </trkpt>
      <trkpt lat="50.53928" lon="3.24135">
        <ele>48.889336</ele>
        <time>2018-11-06T14:04:58Z</time>
      </trkpt>
      <trkpt lat="50.53918" lon="3.24136">
        <ele>49.011787</ele>
        <time>2018-11-06T14:05:00Z</time>
      </trkpt>
      <trkpt lat="50.53909" lon="3.24137">
        <ele>49.112541</ele>
        <time>2018-11-06T14:05:02Z</time>
      </trkpt>
      <trkpt lat="50.53899" lon="3.24139">
        <ele>49.18882</ele>
        <time>2018-11-06T14:05:04Z</time>
      </trkpt>
      <trkpt lat="50.5389" lon="3.24139">
        <ele>49.298626</ele>
        <time>2018-11-06T14:05:06Z</time>
      </trkpt>
      <trkpt lat="50.5388" lon="3.2414">
        <ele>49.364189</ele>
        <time>2018-11-06T14:05:08Z</time>
      </trkpt>
      <trkpt lat="50.53871" lon="3.24141">
        <ele>49.407814</ele>
        <time>2018-11-06T14:05:10Z</time>
      </trkpt>
      <trkpt lat="50.53861" lon="3.24142">
        <ele>49.450199</ele>
        <time>2018-11-06T14:05:12Z</time>
      </trkpt>
      <trkpt lat="50.53853" lon="3.24143">
        <ele>49.495804</ele>
        <time>2018-11-06T14:05:14Z</time>
      </trkpt>
      <trkpt lat="50.53844" lon="3.24143">
        <ele>49.528381</ele>
        <time>2018-11-06T14:05:16Z</time>
      </trkpt>
      <trkpt lat="50.53836" lon="3.24144">
        <ele>49.531773</ele>
        <time>2018-11-06T14:05:18Z</time>
      </trkpt>
      <trkpt lat="50.53827" lon="3.24145">
        <ele>49.554092</ele>
        <time>2018-11-06T14:05:20Z</time>
      </trkpt>
      <trkpt lat="50.53819" lon="3.24146">
        <ele>49.687859</ele>
        <time>2018-11-06T14:05:22Z</time>
      </trkpt>
      <trkpt lat="50.53811" lon="3.24147">
        <ele>49.788891</ele>
        <time>2018-11-06T14:05:24Z</time>
      </trkpt>
      <trkpt lat="50.53803" lon="3.24148">
        <ele>49.80479</ele>
        <time>2018-11-06T14:05:26Z</time>
      </trkpt>
      <trkpt lat="50.53794" lon="3.24149">
        <ele>49.785732</ele>
        <time>2018-11-06T14:05:28Z</time>
      </trkpt>
      <trkpt lat="50.53785" lon="3.2415">
        <ele>49.786163</ele>
        <time>2018-11-06T14:05:30Z</time>
      </trkpt>
      <trkpt lat="50.53777" lon="3.24151">
        <ele>49.833992</ele>
        <time>2018-11-06T14:05:32Z</time>
      </trkpt>
      <trkpt lat="50.53768" lon="3.24152">
        <ele>49.769283</ele>
        <time>2018-11-06T14:05:34Z</time>
      </trkpt>
      <trkpt lat="50.53759" lon="3.24153">
        <ele>49.754829</ele>
        <time>2018-11-06T14:05:36Z</time>
      </trkpt>
      <trkpt lat="50.5375" lon="3.24154">
        <ele>49.698048</ele>
        <time>2018-11-06T14:05:38Z</time>
      </trkpt>
      <trkpt lat="50.53742" lon="3.24155">
        <ele>49.638931</ele>
        <time>2018-11-06T14:05:40Z</time>
      </trkpt>
      <trkpt lat="50.53733" lon="3.24156">
        <ele>49.572033</ele>
        <time>2018-11-06T14:05:42Z</time>
      </trkpt>
      <trkpt lat="50.53724" lon="3.24157">
        <ele>49.500328</ele>
        <time>2018-11-06T14:05:44Z</time>
      </trkpt>
      <trkpt lat="50.53714" lon="3.24159">
        <ele>49.410645</ele>
        <time>2018-11-06T14:05:46Z</time>
      </trkpt>
      <trkpt lat="50.53705" lon="3.24161">
        <ele>49.338505</ele>
        <time>2018-11-06T14:05:48Z</time>
      </trkpt>
      <trkpt lat="50.53697" lon="3.24166">
        <ele>49.286999</ele>
        <time>2018-11-06T14:05:50Z</time>
      </trkpt>
      <trkpt lat="50.53689" lon="3.24173">
        <ele>49.269783</ele>
        <time>2018-11-06T14:05:52Z</time>
      </trkpt>
      <trkpt lat="50.53683" lon="3.24183">
        <ele>49.266006</ele>
        <time>2018-11-06T14:05:54Z</time>
      </trkpt>
      <trkpt lat="50.53678" lon="3.24192">
        <ele>49.241646</ele>
        <time>2018-11-06T14:05:56Z</time>
      </trkpt>
      <trkpt lat="50.53674" lon="3.24202">
        <ele>49.230152</ele>
        <time>2018-11-06T14:05:58Z</time>
      </trkpt>
      <trkpt lat="50.53672" lon="3.24215">
        <ele>49.207977</ele>
        <time>2018-11-06T14:06:00Z</time>
      </trkpt>
      <trkpt lat="50.53671" lon="3.24228">
        <ele>49.147266</ele>
        <time>2018-11-06T14:06:02Z</time>
      </trkpt>
      <trkpt lat="50.53672" lon="3.24241">
        <ele>49.10004</ele>
        <time>2018-11-06T14:06:04Z</time>
      </trkpt>
      <trkpt lat="50.53673" lon="3.24254">
        <ele>49.051373</ele>
        <time>2018-11-06T14:06:06Z</time>
      </trkpt>
      <trkpt lat="50.53676" lon="3.24267">
        <ele>49.051785</ele>
        <time>2018-11-06T14:06:08Z</time>
      </trkpt>
      <trkpt lat="50.53678" lon="3.24279">
        <ele>49.012611</ele>
        <time>2018-11-06T14:06:10Z</time>
      </trkpt>
      <trkpt lat="50.5368" lon="3.24291">
        <ele>48.989632</ele>
        <time>2018-11-06T14:06:12Z</time>
      </trkpt>
      <trkpt lat="50.53682" lon="3.24303">
        <ele>48.962173</ele>
        <time>2018-11-06T14:06:14Z</time>
      </trkpt>
      <trkpt lat="50.53684" lon="3.24315">
        <ele>48.996296</ele>
        <time>2018-11-06T14:06:16Z</time>
      </trkpt>
      <trkpt lat="50.53685" lon="3.24328">
        <ele>48.996803</ele>
        <time>2018-11-06T14:06:18Z</time>
      </trkpt>
      <trkpt lat="50.53687" lon="3.24341">
        <ele>49.021599</ele>
        <time>2018-11-06T14:06:20Z</time>
      </trkpt>
      <trkpt lat="50.53688" lon="3.24353">
        <ele>49.143425</ele>
        <time>2018-11-06T14:06:22Z</time>
      </trkpt>
      <trkpt lat="50.53688" lon="3.24365">
        <ele>49.232922</ele>
        <time>2018-11-06T14:06:24Z</time>
      </trkpt>
      <trkpt lat="50.53687" lon="3.24376">
        <ele>49.34536</ele>
        <time>2018-11-06T14:06:26Z</time>
      </trkpt>
      <trkpt lat="50.53682" lon="3.24387">
        <ele>49.466679</ele>
        <time>2018-11-06T14:06:28Z</time>
      </trkpt>
      <trkpt lat="50.53677" lon="3.24396">
        <ele>49.610409</ele>
        <time>2018-11-06T14:06:30Z</time>
      </trkpt>
      <trkpt lat="50.53671" lon="3.24404">
        <ele>49.768963</ele>
        <time>2018-11-06T14:06:32Z</time>
      </trkpt>
      <trkpt lat="50.53666" lon="3.24413">
        <ele>49.960236</ele>
        <time>2018-11-06T14:06:34Z</time>
      </trkpt>
      <trkpt lat="50.5366" lon="3.24421">
        <ele>50.087395</ele>
        <time>2018-11-06T14:06:36Z</time>
      </trkpt>
      <trkpt lat="50.53655" lon="3.24429">
        <ele>50.232899</ele>
        <time>2018-11-06T14:06:38Z</time>
      </trkpt>
      <trkpt lat="50.53649" lon="3.24438">
        <ele>50.326488</ele>
        <time>2018-11-06T14:06:40Z</time>
      </trkpt>
      <trkpt lat="50.53643" lon="3.24448">
        <ele>50.500954</ele>
        <time>2018-11-06T14:06:42Z</time>
      </trkpt>
      <trkpt lat="50.53638" lon="3.24457">
        <ele>50.669884</ele>
        <time>2018-11-06T14:06:44Z</time>
      </trkpt>
      <trkpt lat="50.53632" lon="3.24466">
        <ele>50.863487</ele>
        <time>2018-11-06T14:06:46Z</time>
      </trkpt>
      <trkpt lat="50.53627" lon="3.24475">
        <ele>51.096066</ele>
        <time>2018-11-06T14:06:48Z</time>
      </trkpt>
      <trkpt lat="50.53621" lon="3.24485">
        <ele>51.273857</ele>
        <time>2018-11-06T14:06:50Z</time>
      </trkpt>
      <trkpt lat="50.53615" lon="3.24494">
        <ele>51.507984</ele>
        <time>2018-11-06T14:06:52Z</time>
      </trkpt>
      <trkpt lat="50.5361" lon="3.24503">
        <ele>51.698425</ele>
        <time>2018-11-06T14:06:54Z</time>
      </trkpt>
      <trkpt lat="50.53604" lon="3.24513">
        <ele>51.903584</ele>
        <time>2018-11-06T14:06:56Z</time>
      </trkpt>
      <trkpt lat="50.53598" lon="3.24522">
        <ele>52.14748</ele>
        <time>2018-11-06T14:06:58Z</time>
      </trkpt>
      <trkpt lat="50.53593" lon="3.24531">
        <ele>52.388588</ele>
        <time>2018-11-06T14:07:00Z</time>
      </trkpt>
      <trkpt lat="50.53587" lon="3.24541">
        <ele>52.613869</ele>
        <time>2018-11-06T14:07:02Z</time>
      </trkpt>
      <trkpt lat="50.53581" lon="3.2455">
        <ele>52.818348</ele>
        <time>2018-11-06T14:07:04Z</time>
      </trkpt>
      <trkpt lat="50.53576" lon="3.24559">
        <ele>53.078083</ele>
        <time>2018-11-06T14:07:06Z</time>
      </trkpt>
      <trkpt lat="50.5357" lon="3.24568">
        <ele>53.289818</ele>
        <time>2018-11-06T14:07:08Z</time>
      </trkpt>
      <trkpt lat="50.53564" lon="3.24577">
        <ele>53.536903</ele>
        <time>2018-11-06T14:07:10Z</time>
      </trkpt>
      <trkpt lat="50.53559" lon="3.24586">
        <ele>53.700153</ele>
        <time>2018-11-06T14:07:12Z</time>
      </trkpt>
      <trkpt lat="50.53554" lon="3.24594">
        <ele>53.905739</ele>
        <time>2018-11-06T14:07:14Z</time>
      </trkpt>
      <trkpt lat="50.53548" lon="3.24602">
        <ele>54.000389</ele>
        <time>2018-11-06T14:07:16Z</time>
      </trkpt>
      <trkpt lat="50.53544" lon="3.2461">
        <ele>54.215862</ele>
        <time>2018-11-06T14:07:18Z</time>
      </trkpt>
      <trkpt lat="50.53538" lon="3.24618">
        <ele>54.442871</ele>
        <time>2018-11-06T14:07:20Z</time>
      </trkpt>
      <trkpt lat="50.53533" lon="3.24626">
        <ele>54.663551</ele>
        <time>2018-11-06T14:07:22Z</time>
      </trkpt>
      <trkpt lat="50.53528" lon="3.24634">
        <ele>54.9412</ele>
        <time>2018-11-06T14:07:24Z</time>
      </trkpt>
      <trkpt lat="50.53523" lon="3.24643">
        <ele>55.217216</ele>
        <time>2018-11-06T14:07:26Z</time>
      </trkpt>
      <trkpt lat="50.53518" lon="3.24651">
        <ele>55.447998</ele>
        <time>2018-11-06T14:07:28Z</time>
      </trkpt>
      <trkpt lat="50.53513" lon="3.24658">
        <ele>55.691956</ele>
        <time>2018-11-06T14:07:30Z</time>
      </trkpt>
      <trkpt lat="50.53508" lon="3.24666">
        <ele>55.935539</ele>
        <time>2018-11-06T14:07:32Z</time>
      </trkpt>
      <trkpt lat="50.53503" lon="3.24673">
        <ele>56.160805</ele>
        <time>2018-11-06T14:07:34Z</time>
      </trkpt>
      <trkpt lat="50.53498" lon="3.24681">
        <ele>56.382416</ele>
        <time>2018-11-06T14:07:36Z</time>
      </trkpt>
      <trkpt lat="50.53493" lon="3.24689">
        <ele>56.60849</ele>
        <time>2018-11-06T14:07:38Z</time>
      </trkpt>
      <trkpt lat="50.53488" lon="3.24697">
        <ele>56.77309</ele>
        <time>2018-11-06T14:07:40Z</time>
      </trkpt>
      <trkpt lat="50.53482" lon="3.24706">
        <ele>57.008911</ele>
        <time>2018-11-06T14:07:42Z</time>
      </trkpt>
      <trkpt lat="50.53477" lon="3.24715">
        <ele>57.174389</ele>
        <time>2018-11-06T14:07:44Z</time>
      </trkpt>
      <trkpt lat="50.53471" lon="3.24724">
        <ele>57.375175</ele>
        <time>2018-11-06T14:07:46Z</time>
      </trkpt>
      <trkpt lat="50.53466" lon="3.24732">
        <ele>57.465473</ele>
        <time>2018-11-06T14:07:48Z</time>
      </trkpt>
      <trkpt lat="50.5346" lon="3.24741">
        <ele>57.63686</ele>
        <time>2018-11-06T14:07:50Z</time>
      </trkpt>
      <trkpt lat="50.53455" lon="3.2475">
        <ele>57.767712</ele>
        <time>2018-11-06T14:07:52Z</time>
      </trkpt>
      <trkpt lat="50.5345" lon="3.24758">
        <ele>57.929913</ele>
        <time>2018-11-06T14:07:54Z</time>
      </trkpt>
      <trkpt lat="50.53444" lon="3.24767">
        <ele>58.071037</ele>
        <time>2018-11-06T14:07:56Z</time>
      </trkpt>
      <trkpt lat="50.53439" lon="3.24776">
        <ele>58.174339</ele>
        <time>2018-11-06T14:07:58Z</time>
      </trkpt>
      <trkpt lat="50.53433" lon="3.24784">
        <ele>58.294025</ele>
        <time>2018-11-06T14:08:00Z</time>
      </trkpt>
      <trkpt lat="50.53428" lon="3.24793">
        <ele>58.426819</ele>
        <time>2018-11-06T14:08:02Z</time>
      </trkpt>
      <trkpt lat="50.53422" lon="3.24802">
        <ele>58.495094</ele>
        <time>2018-11-06T14:08:04Z</time>
      </trkpt>
      <trkpt lat="50.53417" lon="3.2481">
        <ele>58.535179</ele>
        <time>2018-11-06T14:08:06Z</time>
      </trkpt>
      <trkpt lat="50.53412" lon="3.24819">
        <ele>58.664146</ele>
        <time>2018-11-06T14:08:08Z</time>
      </trkpt>
      <trkpt lat="50.53406" lon="3.24828">
        <ele>58.736279</ele>
        <time>2018-11-06T14:08:10Z</time>
      </trkpt>
      <trkpt lat="50.53401" lon="3.24836">
        <ele>58.841309</ele>
        <time>2018-11-06T14:08:12Z</time>
      </trkpt>
      <trkpt lat="50.53396" lon="3.24845">
        <ele>58.922047</ele>
        <time>2018-11-06T14:08:14Z</time>
      </trkpt>
      <trkpt lat="50.5339" lon="3.24854">
        <ele>58.973816</ele>
        <time>2018-11-06T14:08:16Z</time>
      </trkpt>
      <trkpt lat="50.53385" lon="3.24862">
        <ele>59.027168</ele>
        <time>2018-11-06T14:08:18Z</time>
      </trkpt>
      <trkpt lat="50.53379" lon="3.24871">
        <ele>59.070442</ele>
        <time>2018-11-06T14:08:20Z</time>
      </trkpt>
      <trkpt lat="50.53374" lon="3.2488">
        <ele>59.112</ele>
        <time>2018-11-06T14:08:22Z</time>
      </trkpt>
      <trkpt lat="50.53368" lon="3.24889">
        <ele>59.145103</ele>
        <time>2018-11-06T14:08:24Z</time>
      </trkpt>
      <trkpt lat="50.53363" lon="3.24897">
        <ele>59.182442</ele>
        <time>2018-11-06T14:08:26Z</time>
      </trkpt>
      <trkpt lat="50.53357" lon="3.24906">
        <ele>59.187183</ele>
        <time>2018-11-06T14:08:28Z</time>
      </trkpt>
      <trkpt lat="50.53352" lon="3.24914">
        <ele>59.223213</ele>
        <time>2018-11-06T14:08:30Z</time>
      </trkpt>
      <trkpt lat="50.53347" lon="3.24923">
        <ele>59.265606</ele>
        <time>2018-11-06T14:08:32Z</time>
      </trkpt>
      <trkpt lat="50.53341" lon="3.24932">
        <ele>59.292278</ele>
        <time>2018-11-06T14:08:34Z</time>
      </trkpt>
      <trkpt lat="50.53336" lon="3.2494">
        <ele>59.315228</ele>
        <time>2018-11-06T14:08:36Z</time>
      </trkpt>
      <trkpt lat="50.5333" lon="3.24949">
        <ele>59.40028</ele>
        <time>2018-11-06T14:08:38Z</time>
      </trkpt>
      <trkpt lat="50.53325" lon="3.24957">
        <ele>59.462807</ele>
        <time>2018-11-06T14:08:40Z</time>
      </trkpt>
      <trkpt lat="50.53319" lon="3.24966">
        <ele>59.587811</ele>
        <time>2018-11-06T14:08:42Z</time>
      </trkpt>
      <trkpt lat="50.53314" lon="3.24975">
        <ele>59.641266</ele>
        <time>2018-11-06T14:08:44Z</time>
      </trkpt>
      <trkpt lat="50.53309" lon="3.24983">
        <ele>59.776226</ele>
        <time>2018-11-06T14:08:46Z</time>
      </trkpt>
      <trkpt lat="50.53303" lon="3.24992">
        <ele>59.827698</ele>
        <time>2018-11-06T14:08:48Z</time>
      </trkpt>
      <trkpt lat="50.53297" lon="3.25001">
        <ele>59.854717</ele>
        <time>2018-11-06T14:08:50Z</time>
      </trkpt>
      <trkpt lat="50.53292" lon="3.2501">
        <ele>59.912148</ele>
        <time>2018-11-06T14:08:52Z</time>
      </trkpt>
      <trkpt lat="50.53286" lon="3.25019">
        <ele>59.935478</ele>
        <time>2018-11-06T14:08:54Z</time>
      </trkpt>
      <trkpt lat="50.5328" lon="3.25028">
        <ele>59.975121</ele>
        <time>2018-11-06T14:08:56Z</time>
      </trkpt>
      <trkpt lat="50.53275" lon="3.25037">
        <ele>60.018169</ele>
        <time>2018-11-06T14:08:58Z</time>
      </trkpt>
      <trkpt lat="50.53269" lon="3.25046">
        <ele>60.081154</ele>
        <time>2018-11-06T14:09:00Z</time>
      </trkpt>
      <trkpt lat="50.53264" lon="3.25055">
        <ele>60.115456</ele>
        <time>2018-11-06T14:09:02Z</time>
      </trkpt>
      <trkpt lat="50.53258" lon="3.25064">
        <ele>60.15979</ele>
        <time>2018-11-06T14:09:04Z</time>
      </trkpt>
      <trkpt lat="50.53253" lon="3.25073">
        <ele>60.213097</ele>
        <time>2018-11-06T14:09:06Z</time>
      </trkpt>
      <trkpt lat="50.53247" lon="3.25082">
        <ele>60.221588</ele>
        <time>2018-11-06T14:09:08Z</time>
      </trkpt>
      <trkpt lat="50.53241" lon="3.25091">
        <ele>60.296867</ele>
        <time>2018-11-06T14:09:10Z</time>
      </trkpt>
      <trkpt lat="50.53236" lon="3.25099">
        <ele>60.384296</ele>
        <time>2018-11-06T14:09:12Z</time>
      </trkpt>
      <trkpt lat="50.53231" lon="3.25108">
        <ele>60.470802</ele>
        <time>2018-11-06T14:09:14Z</time>
      </trkpt>
      <trkpt lat="50.53225" lon="3.25117">
        <ele>60.552265</ele>
        <time>2018-11-06T14:09:16Z</time>
      </trkpt>
      <trkpt lat="50.5322" lon="3.25126">
        <ele>60.647034</ele>
        <time>2018-11-06T14:09:18Z</time>
      </trkpt>
      <trkpt lat="50.53214" lon="3.25134">
        <ele>60.667107</ele>
        <time>2018-11-06T14:09:20Z</time>
      </trkpt>
      <trkpt lat="50.53208" lon="3.25144">
        <ele>60.681965</ele>
        <time>2018-11-06T14:09:22Z</time>
      </trkpt>
      <trkpt lat="50.53202" lon="3.25153">
        <ele>60.660759</ele>
        <time>2018-11-06T14:09:24Z</time>
      </trkpt>
      <trkpt lat="50.53197" lon="3.25162">
        <ele>60.679249</ele>
        <time>2018-11-06T14:09:26Z</time>
      </trkpt>
      <trkpt lat="50.53191" lon="3.25171">
        <ele>60.661469</ele>
        <time>2018-11-06T14:09:28Z</time>
      </trkpt>
      <trkpt lat="50.53185" lon="3.25181">
        <ele>60.66872</ele>
        <time>2018-11-06T14:09:30Z</time>
      </trkpt>
      <trkpt lat="50.53179" lon="3.2519">
        <ele>60.687389</ele>
        <time>2018-11-06T14:09:32Z</time>
      </trkpt>
      <trkpt lat="50.53173" lon="3.252">
        <ele>60.682335</ele>
        <time>2018-11-06T14:09:34Z</time>
      </trkpt>
      <trkpt lat="50.53167" lon="3.25209">
        <ele>60.724434</ele>
        <time>2018-11-06T14:09:36Z</time>
      </trkpt>
      <trkpt lat="50.53161" lon="3.25218">
        <ele>60.763405</ele>
        <time>2018-11-06T14:09:38Z</time>
      </trkpt>
      <trkpt lat="50.53156" lon="3.25227">
        <ele>60.794598</ele>
        <time>2018-11-06T14:09:40Z</time>
      </trkpt>
      <trkpt lat="50.53149" lon="3.25237">
        <ele>60.805744</ele>
        <time>2018-11-06T14:09:42Z</time>
      </trkpt>
      <trkpt lat="50.53143" lon="3.25246">
        <ele>60.772163</ele>
        <time>2018-11-06T14:09:44Z</time>
      </trkpt>
      <trkpt lat="50.53138" lon="3.25256">
        <ele>60.728676</ele>
        <time>2018-11-06T14:09:46Z</time>
      </trkpt>
      <trkpt lat="50.53132" lon="3.25265">
        <ele>60.645927</ele>
        <time>2018-11-06T14:09:48Z</time>
      </trkpt>
      <trkpt lat="50.53126" lon="3.25274">
        <ele>60.609417</ele>
        <time>2018-11-06T14:09:50Z</time>
      </trkpt>
      <trkpt lat="50.5312" lon="3.25283">
        <ele>60.532356</ele>
        <time>2018-11-06T14:09:52Z</time>
      </trkpt>
      <trkpt lat="50.53114" lon="3.25293">
        <ele>60.483387</ele>
        <time>2018-11-06T14:09:54Z</time>
      </trkpt>
      <trkpt lat="50.53108" lon="3.25303">
        <ele>60.409019</ele>
        <time>2018-11-06T14:09:56Z</time>
      </trkpt>
      <trkpt lat="50.53102" lon="3.25313">
        <ele>60.315376</ele>
        <time>2018-11-06T14:09:58Z</time>
      </trkpt>
      <trkpt lat="50.53096" lon="3.25322">
        <ele>60.157085</ele>
        <time>2018-11-06T14:10:00Z</time>
      </trkpt>
      <trkpt lat="50.53088" lon="3.25328">
        <ele>60.096626</ele>
        <time>2018-11-06T14:10:02Z</time>
      </trkpt>
      <trkpt lat="50.53079" lon="3.25328">
        <ele>60.023354</ele>
        <time>2018-11-06T14:10:04Z</time>
      </trkpt>
      <trkpt lat="50.5307" lon="3.25326">
        <ele>59.854717</ele>
        <time>2018-11-06T14:10:06Z</time>
      </trkpt>
      <trkpt lat="50.53062" lon="3.25321">
        <ele>59.774792</ele>
        <time>2018-11-06T14:10:08Z</time>
      </trkpt>
      <trkpt lat="50.53054" lon="3.25316">
        <ele>59.722889</ele>
        <time>2018-11-06T14:10:10Z</time>
      </trkpt>
      <trkpt lat="50.53046" lon="3.2531">
        <ele>59.611469</ele>
        <time>2018-11-06T14:10:12Z</time>
      </trkpt>
      <trkpt lat="50.53038" lon="3.25304">
        <ele>59.540577</ele>
        <time>2018-11-06T14:10:14Z</time>
      </trkpt>
      <trkpt lat="50.5303" lon="3.25298">
        <ele>59.516998</ele>
        <time>2018-11-06T14:10:16Z</time>
      </trkpt>
      <trkpt lat="50.53022" lon="3.25293">
        <ele>59.442364</ele>
        <time>2018-11-06T14:10:18Z</time>
      </trkpt>
      <trkpt lat="50.53014" lon="3.25288">
        <ele>59.370079</ele>
        <time>2018-11-06T14:10:20Z</time>
      </trkpt>
      <trkpt lat="50.53006" lon="3.25284">
        <ele>59.281853</ele>
        <time>2018-11-06T14:10:22Z</time>
      </trkpt>
      <trkpt lat="50.52998" lon="3.25281">
        <ele>59.223145</ele>
        <time>2018-11-06T14:10:24Z</time>
      </trkpt>
      <trkpt lat="50.5299" lon="3.25279">
        <ele>59.212536</ele>
        <time>2018-11-06T14:10:26Z</time>
      </trkpt>
      <trkpt lat="50.52982" lon="3.25277">
        <ele>59.218651</ele>
        <time>2018-11-06T14:10:28Z</time>
      </trkpt>
      <trkpt lat="50.52973" lon="3.25275">
        <ele>59.278736</ele>
        <time>2018-11-06T14:10:30Z</time>
      </trkpt>
      <trkpt lat="50.52964" lon="3.25272">
        <ele>59.282757</ele>
        <time>2018-11-06T14:10:32Z</time>
      </trkpt>
      <trkpt lat="50.52955" lon="3.2527">
        <ele>59.261768</ele>
        <time>2018-11-06T14:10:34Z</time>
      </trkpt>
      <trkpt lat="50.52947" lon="3.25267">
        <ele>59.244637</ele>
        <time>2018-11-06T14:10:36Z</time>
      </trkpt>
      <trkpt lat="50.52937" lon="3.25265">
        <ele>59.232979</ele>
        <time>2018-11-06T14:10:38Z</time>
      </trkpt>
      <trkpt lat="50.52929" lon="3.25262">
        <ele>59.234814</ele>
        <time>2018-11-06T14:10:40Z</time>
      </trkpt>
      <trkpt lat="50.5292" lon="3.2526">
        <ele>59.247925</ele>
        <time>2018-11-06T14:10:42Z</time>
      </trkpt>
      <trkpt lat="50.52911" lon="3.25257">
        <ele>59.253029</ele>
        <time>2018-11-06T14:10:44Z</time>
      </trkpt>
      <trkpt lat="50.52902" lon="3.25253">
        <ele>59.325428</ele>
        <time>2018-11-06T14:10:46Z</time>
      </trkpt>
      <trkpt lat="50.52894" lon="3.2525">
        <ele>59.399059</ele>
        <time>2018-11-06T14:10:48Z</time>
      </trkpt>
      <trkpt lat="50.52886" lon="3.25247">
        <ele>59.386829</ele>
        <time>2018-11-06T14:10:50Z</time>
      </trkpt>
      <trkpt lat="50.52878" lon="3.25245">
        <ele>59.438366</ele>
        <time>2018-11-06T14:10:52Z</time>
      </trkpt>
      <trkpt lat="50.52871" lon="3.25243">
        <ele>59.439552</ele>
        <time>2018-11-06T14:10:54Z</time>
      </trkpt>
      <trkpt lat="50.52863" lon="3.2524">
        <ele>59.42984</ele>
        <time>2018-11-06T14:10:56Z</time>
      </trkpt>
      <trkpt lat="50.52855" lon="3.25239">
        <ele>59.375511</ele>
        <time>2018-11-06T14:10:58Z</time>
      </trkpt>
      <trkpt lat="50.52847" lon="3.25237">
        <ele>59.4198</ele>
        <time>2018-11-06T14:11:00Z</time>
      </trkpt>
      <trkpt lat="50.52839" lon="3.25235">
        <ele>59.428997</ele>
        <time>2018-11-06T14:11:02Z</time>
      </trkpt>
      <trkpt lat="50.52831" lon="3.25234">
        <ele>59.464314</ele>
        <time>2018-11-06T14:11:04Z</time>
      </trkpt>
      <trkpt lat="50.52823" lon="3.25233">
        <ele>59.521626</ele>
        <time>2018-11-06T14:11:06Z</time>
      </trkpt>
      <trkpt lat="50.52816" lon="3.25232">
        <ele>59.560894</ele>
        <time>2018-11-06T14:11:08Z</time>
      </trkpt>
      <trkpt lat="50.52808" lon="3.25231">
        <ele>59.605049</ele>
        <time>2018-11-06T14:11:10Z</time>
      </trkpt>
      <trkpt lat="50.52799" lon="3.25231">
        <ele>59.640057</ele>
        <time>2018-11-06T14:11:12Z</time>
      </trkpt>
      <trkpt lat="50.52791" lon="3.2523">
        <ele>59.67942</ele>
        <time>2018-11-06T14:11:14Z</time>
      </trkpt>
      <trkpt lat="50.52783" lon="3.2523">
        <ele>59.716572</ele>
        <time>2018-11-06T14:11:16Z</time>
      </trkpt>
      <trkpt lat="50.52774" lon="3.2523">
        <ele>59.780804</ele>
        <time>2018-11-06T14:11:18Z</time>
      </trkpt>
      <trkpt lat="50.52766" lon="3.2523">
        <ele>59.874096</ele>
        <time>2018-11-06T14:11:20Z</time>
      </trkpt>
      <trkpt lat="50.52757" lon="3.2523">
        <ele>59.939857</ele>
        <time>2018-11-06T14:11:22Z</time>
      </trkpt>
      <trkpt lat="50.52749" lon="3.25229">
        <ele>59.98175</ele>
        <time>2018-11-06T14:11:24Z</time>
      </trkpt>
      <trkpt lat="50.5274" lon="3.25229">
        <ele>60.061943</ele>
        <time>2018-11-06T14:11:26Z</time>
      </trkpt>
      <trkpt lat="50.52732" lon="3.25229">
        <ele>60.106091</ele>
        <time>2018-11-06T14:11:28Z</time>
      </trkpt>
      <trkpt lat="50.52723" lon="3.25229">
        <ele>60.164631</ele>
        <time>2018-11-06T14:11:30Z</time>
      </trkpt>
      <trkpt lat="50.52715" lon="3.25228">
        <ele>60.20039</ele>
        <time>2018-11-06T14:11:32Z</time>
      </trkpt>
      <trkpt lat="50.52706" lon="3.25228">
        <ele>60.237164</ele>
        <time>2018-11-06T14:11:34Z</time>
      </trkpt>
      <trkpt lat="50.52698" lon="3.25228">
        <ele>60.282494</ele>
        <time>2018-11-06T14:11:36Z</time>
      </trkpt>
      <trkpt lat="50.52689" lon="3.25228">
        <ele>60.351845</ele>
        <time>2018-11-06T14:11:38Z</time>
      </trkpt>
      <trkpt lat="50.52681" lon="3.25229">
        <ele>60.357117</ele>
        <time>2018-11-06T14:11:40Z</time>
      </trkpt>
      <trkpt lat="50.52672" lon="3.25229">
        <ele>60.34568</ele>
        <time>2018-11-06T14:11:42Z</time>
      </trkpt>
      <trkpt lat="50.52664" lon="3.2523">
        <ele>60.32851</ele>
        <time>2018-11-06T14:11:44Z</time>
      </trkpt>
      <trkpt lat="50.52656" lon="3.2523">
        <ele>60.352089</ele>
        <time>2018-11-06T14:11:46Z</time>
      </trkpt>
      <trkpt lat="50.52648" lon="3.2523">
        <ele>60.253925</ele>
        <time>2018-11-06T14:11:48Z</time>
      </trkpt>
      <trkpt lat="50.52639" lon="3.2523">
        <ele>60.163086</ele>
        <time>2018-11-06T14:11:50Z</time>
      </trkpt>
      <trkpt lat="50.52631" lon="3.25231">
        <ele>60.113323</ele>
        <time>2018-11-06T14:11:52Z</time>
      </trkpt>
      <trkpt lat="50.52623" lon="3.2523">
        <ele>60.108795</ele>
        <time>2018-11-06T14:11:54Z</time>
      </trkpt>
      <trkpt lat="50.52615" lon="3.2523">
        <ele>60.065063</ele>
        <time>2018-11-06T14:11:56Z</time>
      </trkpt>
      <trkpt lat="50.52607" lon="3.2523">
        <ele>60.019951</ele>
        <time>2018-11-06T14:11:58Z</time>
      </trkpt>
      <trkpt lat="50.52599" lon="3.2523">
        <ele>59.965477</ele>
        <time>2018-11-06T14:12:00Z</time>
      </trkpt>
      <trkpt lat="50.5259" lon="3.2523">
        <ele>59.921074</ele>
        <time>2018-11-06T14:12:02Z</time>
      </trkpt>
      <trkpt lat="50.52582" lon="3.2523">
        <ele>59.873878</ele>
        <time>2018-11-06T14:12:04Z</time>
      </trkpt>
      <trkpt lat="50.52574" lon="3.2523">
        <ele>59.779926</ele>
        <time>2018-11-06T14:12:06Z</time>
      </trkpt>
      <trkpt lat="50.52565" lon="3.25229">
        <ele>59.733421</ele>
        <time>2018-11-06T14:12:08Z</time>
      </trkpt>
      <trkpt lat="50.52557" lon="3.25229">
        <ele>59.669575</ele>
        <time>2018-11-06T14:12:10Z</time>
      </trkpt>
      <trkpt lat="50.52549" lon="3.2523">
        <ele>59.635406</ele>
        <time>2018-11-06T14:12:12Z</time>
      </trkpt>
      <trkpt lat="50.5254" lon="3.2523">
        <ele>59.634239</ele>
        <time>2018-11-06T14:12:14Z</time>
      </trkpt>
      <trkpt lat="50.52532" lon="3.2523">
        <ele>59.601044</ele>
        <time>2018-11-06T14:12:16Z</time>
      </trkpt>
      <trkpt lat="50.52524" lon="3.25231">
        <ele>59.5872</ele>
        <time>2018-11-06T14:12:18Z</time>
      </trkpt>
      <trkpt lat="50.52516" lon="3.25231">
        <ele>59.611652</ele>
        <time>2018-11-06T14:12:20Z</time>
      </trkpt>
      <trkpt lat="50.52509" lon="3.25231">
        <ele>59.645638</ele>
        <time>2018-11-06T14:12:22Z</time>
      </trkpt>
      <trkpt lat="50.52502" lon="3.25231">
        <ele>59.696106</ele>
        <time>2018-11-06T14:12:24Z</time>
      </trkpt>
      <trkpt lat="50.52496" lon="3.25229">
        <ele>59.712135</ele>
        <time>2018-11-06T14:12:26Z</time>
      </trkpt>
      <trkpt lat="50.52491" lon="3.25229">
        <ele>59.732567</ele>
        <time>2018-11-06T14:12:28Z</time>
      </trkpt>
      <trkpt lat="50.52488" lon="3.25229">
        <ele>59.738331</ele>
        <time>2018-11-06T14:12:30Z</time>
      </trkpt>
      <trkpt lat="50.52483" lon="3.25232">
        <ele>59.763256</ele>
        <time>2018-11-06T14:12:32Z</time>
      </trkpt>
      <trkpt lat="50.5248" lon="3.25237">
        <ele>59.768097</ele>
        <time>2018-11-06T14:12:34Z</time>
      </trkpt>
      <trkpt lat="50.52478" lon="3.25242">
        <ele>59.773609</ele>
        <time>2018-11-06T14:12:36Z</time>
      </trkpt>
      <trkpt lat="50.52478" lon="3.25247">
        <ele>59.761883</ele>
        <time>2018-11-06T14:12:38Z</time>
      </trkpt>
      <trkpt lat="50.52477" lon="3.25251">
        <ele>59.735424</ele>
        <time>2018-11-06T14:12:40Z</time>
      </trkpt>
      <trkpt lat="50.52477" lon="3.25255">
        <ele>59.198711</ele>
        <time>2018-11-06T14:13:01Z</time>
      </trkpt>
      <trkpt lat="50.52477" lon="3.25256">
        <ele>59.005394</ele>
        <time>2018-11-06T14:13:05Z</time>
      </trkpt>
      <trkpt lat="50.52476" lon="3.25259">
        <ele>58.367226</ele>
        <time>2018-11-06T14:14:23Z</time>
      </trkpt>
      <trkpt lat="50.52475" lon="3.25267">
        <ele>58.362068</ele>
        <time>2018-11-06T14:14:25Z</time>
      </trkpt>
      <trkpt lat="50.52473" lon="3.25274">
        <ele>58.381847</ele>
        <time>2018-11-06T14:14:27Z</time>
      </trkpt>
      <trkpt lat="50.52471" lon="3.25283">
        <ele>58.433052</ele>
        <time>2018-11-06T14:14:29Z</time>
      </trkpt>
      <trkpt lat="50.52468" lon="3.25293">
        <ele>58.443104</ele>
        <time>2018-11-06T14:14:31Z</time>
      </trkpt>
      <trkpt lat="50.52465" lon="3.25306">
        <ele>58.452942</ele>
        <time>2018-11-06T14:14:33Z</time>
      </trkpt>
      <trkpt lat="50.52462" lon="3.25318">
        <ele>58.490704</ele>
        <time>2018-11-06T14:14:35Z</time>
      </trkpt>
      <trkpt lat="50.52459" lon="3.25331">
        <ele>58.520874</ele>
        <time>2018-11-06T14:14:37Z</time>
      </trkpt>
      <trkpt lat="50.52456" lon="3.25345">
        <ele>58.55661</ele>
        <time>2018-11-06T14:14:39Z</time>
      </trkpt>
      <trkpt lat="50.52452" lon="3.25359">
        <ele>58.588005</ele>
        <time>2018-11-06T14:14:41Z</time>
      </trkpt>
      <trkpt lat="50.52449" lon="3.25372">
        <ele>58.613605</ele>
        <time>2018-11-06T14:14:43Z</time>
      </trkpt>
      <trkpt lat="50.52445" lon="3.25386">
        <ele>58.653221</ele>
        <time>2018-11-06T14:14:45Z</time>
      </trkpt>
      <trkpt lat="50.52441" lon="3.254">
        <ele>58.677143</ele>
        <time>2018-11-06T14:14:47Z</time>
      </trkpt>
      <trkpt lat="50.52437" lon="3.25414">
        <ele>58.696037</ele>
        <time>2018-11-06T14:14:49Z</time>
      </trkpt>
      <trkpt lat="50.52433" lon="3.25428">
        <ele>58.745216</ele>
        <time>2018-11-06T14:14:51Z</time>
      </trkpt>
      <trkpt lat="50.52429" lon="3.25442">
        <ele>58.753002</ele>
        <time>2018-11-06T14:14:53Z</time>
      </trkpt>
      <trkpt lat="50.52425" lon="3.25456">
        <ele>58.698639</ele>
        <time>2018-11-06T14:14:55Z</time>
      </trkpt>
      <trkpt lat="50.52421" lon="3.25469">
        <ele>58.71125</ele>
        <time>2018-11-06T14:14:57Z</time>
      </trkpt>
      <trkpt lat="50.52417" lon="3.25483">
        <ele>58.585426</ele>
        <time>2018-11-06T14:14:59Z</time>
      </trkpt>
      <trkpt lat="50.52413" lon="3.25495">
        <ele>58.464611</ele>
        <time>2018-11-06T14:15:01Z</time>
      </trkpt>
      <trkpt lat="50.52409" lon="3.25508">
        <ele>58.368874</ele>
        <time>2018-11-06T14:15:03Z</time>
      </trkpt>
      <trkpt lat="50.52405" lon="3.25521">
        <ele>58.204102</ele>
        <time>2018-11-06T14:15:05Z</time>
      </trkpt>
      <trkpt lat="50.52401" lon="3.25535">
        <ele>58.083778</ele>
        <time>2018-11-06T14:15:07Z</time>
      </trkpt>
      <trkpt lat="50.52397" lon="3.25549">
        <ele>57.94767</ele>
        <time>2018-11-06T14:15:09Z</time>
      </trkpt>
      <trkpt lat="50.52393" lon="3.25562">
        <ele>57.896881</ele>
        <time>2018-11-06T14:15:11Z</time>
      </trkpt>
      <trkpt lat="50.52389" lon="3.25574">
        <ele>57.790588</ele>
        <time>2018-11-06T14:15:13Z</time>
      </trkpt>
      <trkpt lat="50.52385" lon="3.25586">
        <ele>57.65218</ele>
        <time>2018-11-06T14:15:15Z</time>
      </trkpt>
      <trkpt lat="50.52382" lon="3.25598">
        <ele>57.510021</ele>
        <time>2018-11-06T14:15:17Z</time>
      </trkpt>
      <trkpt lat="50.52378" lon="3.2561">
        <ele>57.388359</ele>
        <time>2018-11-06T14:15:19Z</time>
      </trkpt>
      <trkpt lat="50.52374" lon="3.25621">
        <ele>57.253883</ele>
        <time>2018-11-06T14:15:21Z</time>
      </trkpt>
      <trkpt lat="50.52371" lon="3.25634">
        <ele>57.134247</ele>
        <time>2018-11-06T14:15:23Z</time>
      </trkpt>
      <trkpt lat="50.52367" lon="3.25647">
        <ele>56.984802</ele>
        <time>2018-11-06T14:15:25Z</time>
      </trkpt>
      <trkpt lat="50.52363" lon="3.25658">
        <ele>56.860016</ele>
        <time>2018-11-06T14:15:27Z</time>
      </trkpt>
      <trkpt lat="50.5236" lon="3.2567">
        <ele>56.748158</ele>
        <time>2018-11-06T14:15:29Z</time>
      </trkpt>
      <trkpt lat="50.52356" lon="3.25682">
        <ele>56.624676</ele>
        <time>2018-11-06T14:15:31Z</time>
      </trkpt>
      <trkpt lat="50.52353" lon="3.25694">
        <ele>56.461498</ele>
        <time>2018-11-06T14:15:33Z</time>
      </trkpt>
      <trkpt lat="50.5235" lon="3.25707">
        <ele>56.354271</ele>
        <time>2018-11-06T14:15:35Z</time>
      </trkpt>
      <trkpt lat="50.52347" lon="3.2572">
        <ele>56.208557</ele>
        <time>2018-11-06T14:15:37Z</time>
      </trkpt>
      <trkpt lat="50.52345" lon="3.25733">
        <ele>56.132397</ele>
        <time>2018-11-06T14:15:39Z</time>
      </trkpt>
      <trkpt lat="50.52343" lon="3.25746">
        <ele>56.105782</ele>
        <time>2018-11-06T14:15:41Z</time>
      </trkpt>
      <trkpt lat="50.5234" lon="3.2576">
        <ele>56.078442</ele>
        <time>2018-11-06T14:15:43Z</time>
      </trkpt>
      <trkpt lat="50.52338" lon="3.25773">
        <ele>56.017883</ele>
        <time>2018-11-06T14:15:45Z</time>
      </trkpt>
      <trkpt lat="50.52337" lon="3.25786">
        <ele>55.983856</ele>
        <time>2018-11-06T14:15:47Z</time>
      </trkpt>
      <trkpt lat="50.52335" lon="3.25799">
        <ele>55.921551</ele>
        <time>2018-11-06T14:15:49Z</time>
      </trkpt>
      <trkpt lat="50.52333" lon="3.25812">
        <ele>55.884132</ele>
        <time>2018-11-06T14:15:51Z</time>
      </trkpt>
      <trkpt lat="50.52331" lon="3.25825">
        <ele>55.804588</ele>
        <time>2018-11-06T14:15:53Z</time>
      </trkpt>
      <trkpt lat="50.52329" lon="3.25839">
        <ele>55.747078</ele>
        <time>2018-11-06T14:15:55Z</time>
      </trkpt>
      <trkpt lat="50.52327" lon="3.25852">
        <ele>55.709442</ele>
        <time>2018-11-06T14:15:57Z</time>
      </trkpt>
      <trkpt lat="50.52325" lon="3.25865">
        <ele>55.646526</ele>
        <time>2018-11-06T14:15:59Z</time>
      </trkpt>
      <trkpt lat="50.52323" lon="3.25879">
        <ele>55.544018</ele>
        <time>2018-11-06T14:16:01Z</time>
      </trkpt>
      <trkpt lat="50.52321" lon="3.25893">
        <ele>55.502644</ele>
        <time>2018-11-06T14:16:03Z</time>
      </trkpt>
      <trkpt lat="50.52319" lon="3.25907">
        <ele>55.444775</ele>
        <time>2018-11-06T14:16:05Z</time>
      </trkpt>
      <trkpt lat="50.52317" lon="3.25921">
        <ele>55.400959</ele>
        <time>2018-11-06T14:16:07Z</time>
      </trkpt>
      <trkpt lat="50.52314" lon="3.25935">
        <ele>55.304077</ele>
        <time>2018-11-06T14:16:09Z</time>
      </trkpt>
      <trkpt lat="50.52313" lon="3.25949">
        <ele>55.229332</ele>
        <time>2018-11-06T14:16:11Z</time>
      </trkpt>
      <trkpt lat="50.5231" lon="3.25963">
        <ele>55.136375</ele>
        <time>2018-11-06T14:16:13Z</time>
      </trkpt>
      <trkpt lat="50.52308" lon="3.25977">
        <ele>55.063091</ele>
        <time>2018-11-06T14:16:15Z</time>
      </trkpt>
      <trkpt lat="50.52306" lon="3.25991">
        <ele>55.003132</ele>
        <time>2018-11-06T14:16:17Z</time>
      </trkpt>
      <trkpt lat="50.52304" lon="3.26004">
        <ele>54.906536</ele>
        <time>2018-11-06T14:16:19Z</time>
      </trkpt>
      <trkpt lat="50.52302" lon="3.26018">
        <ele>54.878437</ele>
        <time>2018-11-06T14:16:21Z</time>
      </trkpt>
      <trkpt lat="50.523" lon="3.26033">
        <ele>54.81361</ele>
        <time>2018-11-06T14:16:23Z</time>
      </trkpt>
      <trkpt lat="50.52298" lon="3.26048">
        <ele>54.753395</ele>
        <time>2018-11-06T14:16:25Z</time>
      </trkpt>
      <trkpt lat="50.52296" lon="3.26063">
        <ele>54.71349</ele>
        <time>2018-11-06T14:16:27Z</time>
      </trkpt>
      <trkpt lat="50.52293" lon="3.26078">
        <ele>54.657032</ele>
        <time>2018-11-06T14:16:29Z</time>
      </trkpt>
      <trkpt lat="50.52292" lon="3.26092">
        <ele>54.608349</ele>
        <time>2018-11-06T14:16:31Z</time>
      </trkpt>
      <trkpt lat="50.52289" lon="3.26106">
        <ele>54.496422</ele>
        <time>2018-11-06T14:16:33Z</time>
      </trkpt>
      <trkpt lat="50.52287" lon="3.26121">
        <ele>54.450928</ele>
        <time>2018-11-06T14:16:35Z</time>
      </trkpt>
      <trkpt lat="50.52285" lon="3.26135">
        <ele>54.336418</ele>
        <time>2018-11-06T14:16:37Z</time>
      </trkpt>
      <trkpt lat="50.52283" lon="3.26149">
        <ele>54.269451</ele>
        <time>2018-11-06T14:16:39Z</time>
      </trkpt>
      <trkpt lat="50.52281" lon="3.26163">
        <ele>54.222271</ele>
        <time>2018-11-06T14:16:41Z</time>
      </trkpt>
      <trkpt lat="50.52279" lon="3.26176">
        <ele>54.132141</ele>
        <time>2018-11-06T14:16:43Z</time>
      </trkpt>
      <trkpt lat="50.52277" lon="3.26189">
        <ele>54.052929</ele>
        <time>2018-11-06T14:16:45Z</time>
      </trkpt>
      <trkpt lat="50.52275" lon="3.26203">
        <ele>53.965801</ele>
        <time>2018-11-06T14:16:47Z</time>
      </trkpt>
      <trkpt lat="50.52273" lon="3.26216">
        <ele>53.936951</ele>
        <time>2018-11-06T14:16:49Z</time>
      </trkpt>
      <trkpt lat="50.52271" lon="3.26229">
        <ele>53.899292</ele>
        <time>2018-11-06T14:16:51Z</time>
      </trkpt>
      <trkpt lat="50.52269" lon="3.26242">
        <ele>53.877483</ele>
        <time>2018-11-06T14:16:53Z</time>
      </trkpt>
      <trkpt lat="50.52267" lon="3.26254">
        <ele>53.80888</ele>
        <time>2018-11-06T14:16:55Z</time>
      </trkpt>
      <trkpt lat="50.52265" lon="3.26266">
        <ele>53.812031</ele>
        <time>2018-11-06T14:16:57Z</time>
      </trkpt>
      <trkpt lat="50.52263" lon="3.26278">
        <ele>53.772118</ele>
        <time>2018-11-06T14:16:59Z</time>
      </trkpt>
      <trkpt lat="50.52261" lon="3.26291">
        <ele>53.770416</ele>
        <time>2018-11-06T14:17:01Z</time>
      </trkpt>
      <trkpt lat="50.52259" lon="3.26304">
        <ele>53.736084</ele>
        <time>2018-11-06T14:17:03Z</time>
      </trkpt>
      <trkpt lat="50.52257" lon="3.26318">
        <ele>53.692188</ele>
        <time>2018-11-06T14:17:05Z</time>
      </trkpt>
      <trkpt lat="50.52255" lon="3.26331">
        <ele>53.647789</ele>
        <time>2018-11-06T14:17:07Z</time>
      </trkpt>
      <trkpt lat="50.52253" lon="3.26345">
        <ele>53.582836</ele>
        <time>2018-11-06T14:17:09Z</time>
      </trkpt>
      <trkpt lat="50.52251" lon="3.26358">
        <ele>53.538502</ele>
        <time>2018-11-06T14:17:11Z</time>
      </trkpt>
      <trkpt lat="50.5225" lon="3.2637">
        <ele>53.454967</ele>
        <time>2018-11-06T14:17:13Z</time>
      </trkpt>
      <trkpt lat="50.52248" lon="3.26383">
        <ele>53.4468</ele>
        <time>2018-11-06T14:17:15Z</time>
      </trkpt>
      <trkpt lat="50.52246" lon="3.26396">
        <ele>53.434277</ele>
        <time>2018-11-06T14:17:17Z</time>
      </trkpt>
      <trkpt lat="50.52244" lon="3.26409">
        <ele>53.400078</ele>
        <time>2018-11-06T14:17:19Z</time>
      </trkpt>
      <trkpt lat="50.52243" lon="3.26424">
        <ele>53.403374</ele>
        <time>2018-11-06T14:17:21Z</time>
      </trkpt>
      <trkpt lat="50.5224" lon="3.26441">
        <ele>53.426495</ele>
        <time>2018-11-06T14:17:23Z</time>
      </trkpt>
      <trkpt lat="50.52237" lon="3.2646">
        <ele>53.467579</ele>
        <time>2018-11-06T14:17:25Z</time>
      </trkpt>
      <trkpt lat="50.52234" lon="3.26479">
        <ele>53.516602</ele>
        <time>2018-11-06T14:17:27Z</time>
      </trkpt>
      <trkpt lat="50.52231" lon="3.26497">
        <ele>53.493187</ele>
        <time>2018-11-06T14:17:29Z</time>
      </trkpt>
      <trkpt lat="50.52229" lon="3.26512">
        <ele>53.54081</ele>
        <time>2018-11-06T14:17:31Z</time>
      </trkpt>
      <trkpt lat="50.52227" lon="3.26527">
        <ele>53.534172</ele>
        <time>2018-11-06T14:17:33Z</time>
      </trkpt>
      <trkpt lat="50.52225" lon="3.26541">
        <ele>53.534058</ele>
        <time>2018-11-06T14:17:35Z</time>
      </trkpt>
      <trkpt lat="50.52223" lon="3.26554">
        <ele>53.530914</ele>
        <time>2018-11-06T14:17:37Z</time>
      </trkpt>
      <trkpt lat="50.52221" lon="3.26568">
        <ele>53.534325</ele>
        <time>2018-11-06T14:17:39Z</time>
      </trkpt>
      <trkpt lat="50.52219" lon="3.26581">
        <ele>53.529346</ele>
        <time>2018-11-06T14:17:41Z</time>
      </trkpt>
      <trkpt lat="50.52216" lon="3.26594">
        <ele>53.505299</ele>
        <time>2018-11-06T14:17:43Z</time>
      </trkpt>
      <trkpt lat="50.52215" lon="3.26607">
        <ele>53.503822</ele>
        <time>2018-11-06T14:17:45Z</time>
      </trkpt>
      <trkpt lat="50.52213" lon="3.2662">
        <ele>53.499786</ele>
        <time>2018-11-06T14:17:47Z</time>
      </trkpt>
      <trkpt lat="50.52211" lon="3.26633">
        <ele>53.534363</ele>
        <time>2018-11-06T14:17:49Z</time>
      </trkpt>
      <trkpt lat="50.52209" lon="3.26647">
        <ele>53.52845</ele>
        <time>2018-11-06T14:17:51Z</time>
      </trkpt>
      <trkpt lat="50.52207" lon="3.2666">
        <ele>53.53904</ele>
        <time>2018-11-06T14:17:53Z</time>
      </trkpt>
      <trkpt lat="50.52205" lon="3.26673">
        <ele>53.536255</ele>
        <time>2018-11-06T14:17:55Z</time>
      </trkpt>
      <trkpt lat="50.52203" lon="3.26686">
        <ele>53.525764</ele>
        <time>2018-11-06T14:17:57Z</time>
      </trkpt>
      <trkpt lat="50.52201" lon="3.267">
        <ele>53.483265</ele>
        <time>2018-11-06T14:17:59Z</time>
      </trkpt>
      <trkpt lat="50.52199" lon="3.26714">
        <ele>53.460133</ele>
        <time>2018-11-06T14:18:01Z</time>
      </trkpt>
      <trkpt lat="50.52197" lon="3.26728">
        <ele>53.391777</ele>
        <time>2018-11-06T14:18:03Z</time>
      </trkpt>
      <trkpt lat="50.52195" lon="3.26741">
        <ele>53.375313</ele>
        <time>2018-11-06T14:18:05Z</time>
      </trkpt>
      <trkpt lat="50.52194" lon="3.26754">
        <ele>53.292976</ele>
        <time>2018-11-06T14:18:07Z</time>
      </trkpt>
      <trkpt lat="50.52191" lon="3.26768">
        <ele>53.229431</ele>
        <time>2018-11-06T14:18:09Z</time>
      </trkpt>
      <trkpt lat="50.52189" lon="3.26782">
        <ele>53.156013</ele>
        <time>2018-11-06T14:18:11Z</time>
      </trkpt>
      <trkpt lat="50.52187" lon="3.26796">
        <ele>53.022808</ele>
        <time>2018-11-06T14:18:13Z</time>
      </trkpt>
      <trkpt lat="50.52185" lon="3.26809">
        <ele>52.914497</ele>
        <time>2018-11-06T14:18:15Z</time>
      </trkpt>
      <trkpt lat="50.52183" lon="3.26822">
        <ele>52.833832</ele>
        <time>2018-11-06T14:18:17Z</time>
      </trkpt>
      <trkpt lat="50.52181" lon="3.26835">
        <ele>52.796715</ele>
        <time>2018-11-06T14:18:19Z</time>
      </trkpt>
      <trkpt lat="50.52179" lon="3.26848">
        <ele>52.63316</ele>
        <time>2018-11-06T14:18:21Z</time>
      </trkpt>
      <trkpt lat="50.52177" lon="3.26862">
        <ele>52.547272</ele>
        <time>2018-11-06T14:18:23Z</time>
      </trkpt>
      <trkpt lat="50.52175" lon="3.26875">
        <ele>52.503834</ele>
        <time>2018-11-06T14:18:25Z</time>
      </trkpt>
      <trkpt lat="50.52173" lon="3.26888">
        <ele>52.464527</ele>
        <time>2018-11-06T14:18:27Z</time>
      </trkpt>
      <trkpt lat="50.52171" lon="3.26901">
        <ele>52.414619</ele>
        <time>2018-11-06T14:18:29Z</time>
      </trkpt>
      <trkpt lat="50.52168" lon="3.26914">
        <ele>52.319653</ele>
        <time>2018-11-06T14:18:31Z</time>
      </trkpt>
      <trkpt lat="50.52166" lon="3.26928">
        <ele>52.222851</ele>
        <time>2018-11-06T14:18:33Z</time>
      </trkpt>
      <trkpt lat="50.52165" lon="3.26942">
        <ele>52.155342</ele>
        <time>2018-11-06T14:18:35Z</time>
      </trkpt>
      <trkpt lat="50.52163" lon="3.26956">
        <ele>52.120625</ele>
        <time>2018-11-06T14:18:37Z</time>
      </trkpt>
      <trkpt lat="50.52161" lon="3.2697">
        <ele>52.097466</ele>
        <time>2018-11-06T14:18:39Z</time>
      </trkpt>
      <trkpt lat="50.52159" lon="3.26984">
        <ele>52.077625</ele>
        <time>2018-11-06T14:18:41Z</time>
      </trkpt>
      <trkpt lat="50.52157" lon="3.26999">
        <ele>52.051147</ele>
        <time>2018-11-06T14:18:43Z</time>
      </trkpt>
      <trkpt lat="50.52155" lon="3.27013">
        <ele>52.021202</ele>
        <time>2018-11-06T14:18:45Z</time>
      </trkpt>
      <trkpt lat="50.52153" lon="3.27026">
        <ele>51.962025</ele>
        <time>2018-11-06T14:18:47Z</time>
      </trkpt>
      <trkpt lat="50.52151" lon="3.2704">
        <ele>51.93227</ele>
        <time>2018-11-06T14:18:49Z</time>
      </trkpt>
      <trkpt lat="50.52148" lon="3.27052">
        <ele>51.906036</ele>
        <time>2018-11-06T14:18:51Z</time>
      </trkpt>
      <trkpt lat="50.52146" lon="3.27065">
        <ele>51.892265</ele>
        <time>2018-11-06T14:18:53Z</time>
      </trkpt>
      <trkpt lat="50.52144" lon="3.2708">
        <ele>51.84008</ele>
        <time>2018-11-06T14:18:55Z</time>
      </trkpt>
      <trkpt lat="50.52142" lon="3.27095">
        <ele>51.830524</ele>
        <time>2018-11-06T14:18:57Z</time>
      </trkpt>
      <trkpt lat="50.5214" lon="3.2711">
        <ele>51.777618</ele>
        <time>2018-11-06T14:18:59Z</time>
      </trkpt>
      <trkpt lat="50.52137" lon="3.27125">
        <ele>51.754322</ele>
        <time>2018-11-06T14:19:01Z</time>
      </trkpt>
      <trkpt lat="50.52136" lon="3.2714">
        <ele>51.76767</ele>
        <time>2018-11-06T14:19:03Z</time>
      </trkpt>
      <trkpt lat="50.52134" lon="3.27154">
        <ele>51.737457</ele>
        <time>2018-11-06T14:19:05Z</time>
      </trkpt>
      <trkpt lat="50.52132" lon="3.27169">
        <ele>51.701557</ele>
        <time>2018-11-06T14:19:07Z</time>
      </trkpt>
      <trkpt lat="50.5213" lon="3.27184">
        <ele>51.600098</ele>
        <time>2018-11-06T14:19:09Z</time>
      </trkpt>
      <trkpt lat="50.52128" lon="3.27199">
        <ele>51.506062</ele>
        <time>2018-11-06T14:19:11Z</time>
      </trkpt>
      <trkpt lat="50.52125" lon="3.27213">
        <ele>51.445702</ele>
        <time>2018-11-06T14:19:13Z</time>
      </trkpt>
      <trkpt lat="50.52123" lon="3.27228">
        <ele>51.40678</ele>
        <time>2018-11-06T14:19:15Z</time>
      </trkpt>
      <trkpt lat="50.5212" lon="3.27243">
        <ele>51.37365</ele>
        <time>2018-11-06T14:19:17Z</time>
      </trkpt>
      <trkpt lat="50.52118" lon="3.27258">
        <ele>51.376526</ele>
        <time>2018-11-06T14:19:19Z</time>
      </trkpt>
      <trkpt lat="50.52116" lon="3.27272">
        <ele>51.329376</ele>
        <time>2018-11-06T14:19:21Z</time>
      </trkpt>
      <trkpt lat="50.52113" lon="3.27287">
        <ele>51.257397</ele>
        <time>2018-11-06T14:19:23Z</time>
      </trkpt>
      <trkpt lat="50.52111" lon="3.27302">
        <ele>51.180855</ele>
        <time>2018-11-06T14:19:25Z</time>
      </trkpt>
      <trkpt lat="50.52108" lon="3.27316">
        <ele>51.0881</ele>
        <time>2018-11-06T14:19:27Z</time>
      </trkpt>
      <trkpt lat="50.52106" lon="3.27331">
        <ele>50.979805</ele>
        <time>2018-11-06T14:19:29Z</time>
      </trkpt>
      <trkpt lat="50.52104" lon="3.27346">
        <ele>50.898006</ele>
        <time>2018-11-06T14:19:31Z</time>
      </trkpt>
      <trkpt lat="50.52102" lon="3.27361">
        <ele>50.826515</ele>
        <time>2018-11-06T14:19:33Z</time>
      </trkpt>
      <trkpt lat="50.521" lon="3.27376">
        <ele>50.763409</ele>
        <time>2018-11-06T14:19:35Z</time>
      </trkpt>
      <trkpt lat="50.52098" lon="3.2739">
        <ele>50.696732</ele>
        <time>2018-11-06T14:19:37Z</time>
      </trkpt>
      <trkpt lat="50.52095" lon="3.27405">
        <ele>50.647346</ele>
        <time>2018-11-06T14:19:39Z</time>
      </trkpt>
      <trkpt lat="50.52094" lon="3.2742">
        <ele>50.5546</ele>
        <time>2018-11-06T14:19:41Z</time>
      </trkpt>
      <trkpt lat="50.52091" lon="3.27435">
        <ele>50.455151</ele>
        <time>2018-11-06T14:19:43Z</time>
      </trkpt>
      <trkpt lat="50.52089" lon="3.27449">
        <ele>50.378208</ele>
        <time>2018-11-06T14:19:45Z</time>
      </trkpt>
      <trkpt lat="50.52087" lon="3.27463">
        <ele>50.307518</ele>
        <time>2018-11-06T14:19:47Z</time>
      </trkpt>
      <trkpt lat="50.52085" lon="3.27476">
        <ele>50.250957</ele>
        <time>2018-11-06T14:19:49Z</time>
      </trkpt>
      <trkpt lat="50.52083" lon="3.2749">
        <ele>50.146832</ele>
        <time>2018-11-06T14:19:51Z</time>
      </trkpt>
      <trkpt lat="50.52081" lon="3.27503">
        <ele>50.068886</ele>
        <time>2018-11-06T14:19:53Z</time>
      </trkpt>
      <trkpt lat="50.52079" lon="3.27518">
        <ele>49.986076</ele>
        <time>2018-11-06T14:19:55Z</time>
      </trkpt>
      <trkpt lat="50.52077" lon="3.27532">
        <ele>49.873966</ele>
        <time>2018-11-06T14:19:57Z</time>
      </trkpt>
      <trkpt lat="50.52075" lon="3.27547">
        <ele>49.720379</ele>
        <time>2018-11-06T14:19:59Z</time>
      </trkpt>
      <trkpt lat="50.52073" lon="3.27561">
        <ele>49.574135</ele>
        <time>2018-11-06T14:20:01Z</time>
      </trkpt>
      <trkpt lat="50.5207" lon="3.27575">
        <ele>49.425114</ele>
        <time>2018-11-06T14:20:03Z</time>
      </trkpt>
      <trkpt lat="50.52068" lon="3.27589">
        <ele>49.258076</ele>
        <time>2018-11-06T14:20:05Z</time>
      </trkpt>
      <trkpt lat="50.52066" lon="3.27603">
        <ele>49.114204</ele>
        <time>2018-11-06T14:20:07Z</time>
      </trkpt>
      <trkpt lat="50.52064" lon="3.27616">
        <ele>48.992962</ele>
        <time>2018-11-06T14:20:09Z</time>
      </trkpt>
      <trkpt lat="50.52062" lon="3.2763">
        <ele>48.891666</ele>
        <time>2018-11-06T14:20:11Z</time>
      </trkpt>
      <trkpt lat="50.5206" lon="3.27643">
        <ele>48.724037</ele>
        <time>2018-11-06T14:20:13Z</time>
      </trkpt>
      <trkpt lat="50.52058" lon="3.27654">
        <ele>48.673325</ele>
        <time>2018-11-06T14:20:15Z</time>
      </trkpt>
      <trkpt lat="50.52056" lon="3.27663">
        <ele>48.556969</ele>
        <time>2018-11-06T14:20:17Z</time>
      </trkpt>
      <trkpt lat="50.52054" lon="3.27671">
        <ele>48.449745</ele>
        <time>2018-11-06T14:20:19Z</time>
      </trkpt>
      <trkpt lat="50.52051" lon="3.27678">
        <ele>48.337368</ele>
        <time>2018-11-06T14:20:21Z</time>
      </trkpt>
      <trkpt lat="50.52046" lon="3.27683">
        <ele>48.233646</ele>
        <time>2018-11-06T14:20:23Z</time>
      </trkpt>
      <trkpt lat="50.52039" lon="3.27683">
        <ele>48.14537</ele>
        <time>2018-11-06T14:20:25Z</time>
      </trkpt>
      <trkpt lat="50.52032" lon="3.2768">
        <ele>48.02964</ele>
        <time>2018-11-06T14:20:27Z</time>
      </trkpt>
      <trkpt lat="50.52025" lon="3.27678">
        <ele>47.922501</ele>
        <time>2018-11-06T14:20:29Z</time>
      </trkpt>
      <trkpt lat="50.52018" lon="3.27676">
        <ele>47.870964</ele>
        <time>2018-11-06T14:20:31Z</time>
      </trkpt>
      <trkpt lat="50.52012" lon="3.27675">
        <ele>47.839905</ele>
        <time>2018-11-06T14:20:33Z</time>
      </trkpt>
      <trkpt lat="50.52005" lon="3.27676">
        <ele>47.770195</ele>
        <time>2018-11-06T14:20:35Z</time>
      </trkpt>
      <trkpt lat="50.52001" lon="3.27683">
        <ele>47.729916</ele>
        <time>2018-11-06T14:20:37Z</time>
      </trkpt>
      <trkpt lat="50.51999" lon="3.27694">
        <ele>47.700588</ele>
        <time>2018-11-06T14:20:39Z</time>
      </trkpt>
      <trkpt lat="50.51997" lon="3.27706">
        <ele>47.653442</ele>
        <time>2018-11-06T14:20:41Z</time>
      </trkpt>
      <trkpt lat="50.51993" lon="3.27719">
        <ele>47.6325</ele>
        <time>2018-11-06T14:20:43Z</time>
      </trkpt>
      <trkpt lat="50.51989" lon="3.2773">
        <ele>47.566868</ele>
        <time>2018-11-06T14:20:45Z</time>
      </trkpt>
      <trkpt lat="50.51984" lon="3.27741">
        <ele>47.551445</ele>
        <time>2018-11-06T14:20:47Z</time>
      </trkpt>
      <trkpt lat="50.5198" lon="3.27751">
        <ele>47.541782</ele>
        <time>2018-11-06T14:20:49Z</time>
      </trkpt>
      <trkpt lat="50.51976" lon="3.27763">
        <ele>47.504707</ele>
        <time>2018-11-06T14:20:51Z</time>
      </trkpt>
      <trkpt lat="50.51972" lon="3.27774">
        <ele>47.435604</ele>
        <time>2018-11-06T14:20:53Z</time>
      </trkpt>
      <trkpt lat="50.51968" lon="3.27785">
        <ele>47.387779</ele>
        <time>2018-11-06T14:20:55Z</time>
      </trkpt>
      <trkpt lat="50.51963" lon="3.27797">
        <ele>47.322975</ele>
        <time>2018-11-06T14:20:57Z</time>
      </trkpt>
      <trkpt lat="50.51959" lon="3.27809">
        <ele>47.28997</ele>
        <time>2018-11-06T14:20:59Z</time>
      </trkpt>
      <trkpt lat="50.51955" lon="3.27821">
        <ele>47.246315</ele>
        <time>2018-11-06T14:21:01Z</time>
      </trkpt>
      <trkpt lat="50.51951" lon="3.27833">
        <ele>47.209038</ele>
        <time>2018-11-06T14:21:03Z</time>
      </trkpt>
      <trkpt lat="50.51947" lon="3.27845">
        <ele>47.155052</ele>
        <time>2018-11-06T14:21:05Z</time>
      </trkpt>
      <trkpt lat="50.51943" lon="3.27858">
        <ele>47.038177</ele>
        <time>2018-11-06T14:21:07Z</time>
      </trkpt>
      <trkpt lat="50.51939" lon="3.27869">
        <ele>46.899529</ele>
        <time>2018-11-06T14:21:09Z</time>
      </trkpt>
      <trkpt lat="50.51936" lon="3.27881">
        <ele>46.788044</ele>
        <time>2018-11-06T14:21:11Z</time>
      </trkpt>
      <trkpt lat="50.51934" lon="3.27894">
        <ele>46.738667</ele>
        <time>2018-11-06T14:21:13Z</time>
      </trkpt>
      <trkpt lat="50.51935" lon="3.27906">
        <ele>46.624035</ele>
        <time>2018-11-06T14:21:15Z</time>
      </trkpt>
      <trkpt lat="50.51939" lon="3.27917">
        <ele>46.55072</ele>
        <time>2018-11-06T14:21:17Z</time>
      </trkpt>
      <trkpt lat="50.51945" lon="3.27927">
        <ele>46.470856</ele>
        <time>2018-11-06T14:21:19Z</time>
      </trkpt>
      <trkpt lat="50.51953" lon="3.27936">
        <ele>46.349712</ele>
        <time>2018-11-06T14:21:21Z</time>
      </trkpt>
      <trkpt lat="50.51961" lon="3.27946">
        <ele>46.221058</ele>
        <time>2018-11-06T14:21:23Z</time>
      </trkpt>
      <trkpt lat="50.51969" lon="3.27956">
        <ele>46.102318</ele>
        <time>2018-11-06T14:21:25Z</time>
      </trkpt>
      <trkpt lat="50.51976" lon="3.27967">
        <ele>46.068653</ele>
        <time>2018-11-06T14:21:27Z</time>
      </trkpt>
      <trkpt lat="50.51984" lon="3.27978">
        <ele>45.983227</ele>
        <time>2018-11-06T14:21:29Z</time>
      </trkpt>
      <trkpt lat="50.51992" lon="3.2799">
        <ele>45.826542</ele>
        <time>2018-11-06T14:21:31Z</time>
      </trkpt>
      <trkpt lat="50.51999" lon="3.28003">
        <ele>45.690544</ele>
        <time>2018-11-06T14:21:33Z</time>
      </trkpt>
      <trkpt lat="50.52005" lon="3.28015">
        <ele>45.597588</ele>
        <time>2018-11-06T14:21:35Z</time>
      </trkpt>
      <trkpt lat="50.5201" lon="3.28028">
        <ele>45.489552</ele>
        <time>2018-11-06T14:21:37Z</time>
      </trkpt>
      <trkpt lat="50.52016" lon="3.28041">
        <ele>45.360649</ele>
        <time>2018-11-06T14:21:39Z</time>
      </trkpt>
      <trkpt lat="50.52022" lon="3.28054">
        <ele>45.232384</ele>
        <time>2018-11-06T14:21:41Z</time>
      </trkpt>
      <trkpt lat="50.52028" lon="3.28067">
        <ele>45.12114</ele>
        <time>2018-11-06T14:21:43Z</time>
      </trkpt>
      <trkpt lat="50.52034" lon="3.2808">
        <ele>44.961571</ele>
        <time>2018-11-06T14:21:45Z</time>
      </trkpt>
      <trkpt lat="50.52041" lon="3.28094">
        <ele>44.825005</ele>
        <time>2018-11-06T14:21:47Z</time>
      </trkpt>
      <trkpt lat="50.52047" lon="3.28107">
        <ele>44.728062</ele>
        <time>2018-11-06T14:21:49Z</time>
      </trkpt>
      <trkpt lat="50.52053" lon="3.2812">
        <ele>44.679478</ele>
        <time>2018-11-06T14:21:51Z</time>
      </trkpt>
      <trkpt lat="50.52058" lon="3.28135">
        <ele>44.598564</ele>
        <time>2018-11-06T14:21:53Z</time>
      </trkpt>
      <trkpt lat="50.52063" lon="3.2815">
        <ele>44.46566</ele>
        <time>2018-11-06T14:21:55Z</time>
      </trkpt>
      <trkpt lat="50.52066" lon="3.28166">
        <ele>44.243675</ele>
        <time>2018-11-06T14:21:57Z</time>
      </trkpt>
      <trkpt lat="50.52071" lon="3.28182">
        <ele>44.053841</ele>
        <time>2018-11-06T14:21:59Z</time>
      </trkpt>
      <trkpt lat="50.52074" lon="3.28197">
        <ele>43.898464</ele>
        <time>2018-11-06T14:22:01Z</time>
      </trkpt>
      <trkpt lat="50.52078" lon="3.28212">
        <ele>43.750961</ele>
        <time>2018-11-06T14:22:03Z</time>
      </trkpt>
      <trkpt lat="50.52083" lon="3.28227">
        <ele>43.59951</ele>
        <time>2018-11-06T14:22:05Z</time>
      </trkpt>
      <trkpt lat="50.52087" lon="3.28241">
        <ele>43.459415</ele>
        <time>2018-11-06T14:22:07Z</time>
      </trkpt>
      <trkpt lat="50.52092" lon="3.28254">
        <ele>43.282177</ele>
        <time>2018-11-06T14:22:09Z</time>
      </trkpt>
      <trkpt lat="50.52097" lon="3.28268">
        <ele>43.122181</ele>
        <time>2018-11-06T14:22:11Z</time>
      </trkpt>
      <trkpt lat="50.52102" lon="3.28281">
        <ele>43.003033</ele>
        <time>2018-11-06T14:22:13Z</time>
      </trkpt>
      <trkpt lat="50.52106" lon="3.28295">
        <ele>42.875713</ele>
        <time>2018-11-06T14:22:15Z</time>
      </trkpt>
      <trkpt lat="50.52109" lon="3.2831">
        <ele>42.671017</ele>
        <time>2018-11-06T14:22:17Z</time>
      </trkpt>
      <trkpt lat="50.5211" lon="3.28325">
        <ele>42.51672</ele>
        <time>2018-11-06T14:22:19Z</time>
      </trkpt>
      <trkpt lat="50.52111" lon="3.28339">
        <ele>42.354805</ele>
        <time>2018-11-06T14:22:21Z</time>
      </trkpt>
      <trkpt lat="50.52111" lon="3.28353">
        <ele>42.215248</ele>
        <time>2018-11-06T14:22:23Z</time>
      </trkpt>
      <trkpt lat="50.52111" lon="3.28367">
        <ele>42.093391</ele>
        <time>2018-11-06T14:22:25Z</time>
      </trkpt>
      <trkpt lat="50.52112" lon="3.28379">
        <ele>41.95504</ele>
        <time>2018-11-06T14:22:27Z</time>
      </trkpt>
      <trkpt lat="50.52113" lon="3.28391">
        <ele>41.893253</ele>
        <time>2018-11-06T14:22:29Z</time>
      </trkpt>
      <trkpt lat="50.52114" lon="3.28403">
        <ele>41.734787</ele>
        <time>2018-11-06T14:22:31Z</time>
      </trkpt>
      <trkpt lat="50.52116" lon="3.28414">
        <ele>41.569576</ele>
        <time>2018-11-06T14:22:33Z</time>
      </trkpt>
      <trkpt lat="50.52117" lon="3.28421">
        <ele>41.365444</ele>
        <time>2018-11-06T14:22:35Z</time>
      </trkpt>
      <trkpt lat="50.52118" lon="3.28427">
        <ele>41.260342</ele>
        <time>2018-11-06T14:22:37Z</time>
      </trkpt>
      <trkpt lat="50.52118" lon="3.28434">
        <ele>41.186619</ele>
        <time>2018-11-06T14:22:39Z</time>
      </trkpt>
      <trkpt lat="50.52115" lon="3.28442">
        <ele>41.060951</ele>
        <time>2018-11-06T14:22:41Z</time>
      </trkpt>
      <trkpt lat="50.52111" lon="3.2845">
        <ele>40.988777</ele>
        <time>2018-11-06T14:22:43Z</time>
      </trkpt>
      <trkpt lat="50.52106" lon="3.2846">
        <ele>40.933922</ele>
        <time>2018-11-06T14:22:45Z</time>
      </trkpt>
      <trkpt lat="50.52101" lon="3.2847">
        <ele>40.86544</ele>
        <time>2018-11-06T14:22:47Z</time>
      </trkpt>
      <trkpt lat="50.52096" lon="3.28481">
        <ele>40.77634</ele>
        <time>2018-11-06T14:22:49Z</time>
      </trkpt>
      <trkpt lat="50.52091" lon="3.28492">
        <ele>40.760963</ele>
        <time>2018-11-06T14:22:51Z</time>
      </trkpt>
      <trkpt lat="50.52086" lon="3.28503">
        <ele>40.72538</ele>
        <time>2018-11-06T14:22:53Z</time>
      </trkpt>
      <trkpt lat="50.52081" lon="3.28513">
        <ele>40.731041</ele>
        <time>2018-11-06T14:22:55Z</time>
      </trkpt>
      <trkpt lat="50.52077" lon="3.28523">
        <ele>40.75898</ele>
        <time>2018-11-06T14:22:57Z</time>
      </trkpt>
      <trkpt lat="50.52072" lon="3.28534">
        <ele>40.814854</ele>
        <time>2018-11-06T14:22:59Z</time>
      </trkpt>
      <trkpt lat="50.52068" lon="3.28544">
        <ele>40.876209</ele>
        <time>2018-11-06T14:23:01Z</time>
      </trkpt>
      <trkpt lat="50.52064" lon="3.28555">
        <ele>40.909054</ele>
        <time>2018-11-06T14:23:03Z</time>
      </trkpt>
      <trkpt lat="50.5206" lon="3.28566">
        <ele>40.951813</ele>
        <time>2018-11-06T14:23:05Z</time>
      </trkpt>
      <trkpt lat="50.52057" lon="3.28578">
        <ele>40.980927</ele>
        <time>2018-11-06T14:23:07Z</time>
      </trkpt>
      <trkpt lat="50.52053" lon="3.2859">
        <ele>41.022854</ele>
        <time>2018-11-06T14:23:09Z</time>
      </trkpt>
      <trkpt lat="50.52049" lon="3.28603">
        <ele>41.080574</ele>
        <time>2018-11-06T14:23:11Z</time>
      </trkpt>
      <trkpt lat="50.52046" lon="3.28615">
        <ele>41.20649</ele>
        <time>2018-11-06T14:23:13Z</time>
      </trkpt>
      <trkpt lat="50.52042" lon="3.28627">
        <ele>41.28878</ele>
        <time>2018-11-06T14:23:15Z</time>
      </trkpt>
      <trkpt lat="50.52039" lon="3.28639">
        <ele>41.346806</ele>
        <time>2018-11-06T14:23:17Z</time>
      </trkpt>
      <trkpt lat="50.52034" lon="3.28651">
        <ele>41.462326</ele>
        <time>2018-11-06T14:23:19Z</time>
      </trkpt>
      <trkpt lat="50.5203" lon="3.28663">
        <ele>41.549953</ele>
        <time>2018-11-06T14:23:21Z</time>
      </trkpt>
      <trkpt lat="50.52026" lon="3.28675">
        <ele>41.585228</ele>
        <time>2018-11-06T14:23:23Z</time>
      </trkpt>
      <trkpt lat="50.52021" lon="3.28686">
        <ele>41.632561</ele>
        <time>2018-11-06T14:23:25Z</time>
      </trkpt>
      <trkpt lat="50.52017" lon="3.28696">
        <ele>41.671196</ele>
        <time>2018-11-06T14:23:27Z</time>
      </trkpt>
      <trkpt lat="50.52013" lon="3.28707">
        <ele>41.706505</ele>
        <time>2018-11-06T14:23:29Z</time>
      </trkpt>
      <trkpt lat="50.52008" lon="3.28718">
        <ele>41.755642</ele>
        <time>2018-11-06T14:23:31Z</time>
      </trkpt>
      <trkpt lat="50.52004" lon="3.28728">
        <ele>41.819023</ele>
        <time>2018-11-06T14:23:33Z</time>
      </trkpt>
      <trkpt lat="50.51999" lon="3.28739">
        <ele>41.8769</ele>
        <time>2018-11-06T14:23:35Z</time>
      </trkpt>
      <trkpt lat="50.51993" lon="3.28749">
        <ele>41.900787</ele>
        <time>2018-11-06T14:23:37Z</time>
      </trkpt>
      <trkpt lat="50.51988" lon="3.28759">
        <ele>41.953449</ele>
        <time>2018-11-06T14:23:39Z</time>
      </trkpt>
      <trkpt lat="50.51983" lon="3.2877">
        <ele>42.017357</ele>
        <time>2018-11-06T14:23:41Z</time>
      </trkpt>
      <trkpt lat="50.51978" lon="3.2878">
        <ele>42.060974</ele>
        <time>2018-11-06T14:23:43Z</time>
      </trkpt>
      <trkpt lat="50.51973" lon="3.2879">
        <ele>42.083092</ele>
        <time>2018-11-06T14:23:45Z</time>
      </trkpt>
      <trkpt lat="50.51968" lon="3.288">
        <ele>42.14183</ele>
        <time>2018-11-06T14:23:47Z</time>
      </trkpt>
      <trkpt lat="50.51962" lon="3.28809">
        <ele>42.183979</ele>
        <time>2018-11-06T14:23:49Z</time>
      </trkpt>
      <trkpt lat="50.51956" lon="3.28819">
        <ele>42.238213</ele>
        <time>2018-11-06T14:23:51Z</time>
      </trkpt>
      <trkpt lat="50.5195" lon="3.28827">
        <ele>42.262955</ele>
        <time>2018-11-06T14:23:53Z</time>
      </trkpt>
      <trkpt lat="50.51943" lon="3.28836">
        <ele>42.281837</ele>
        <time>2018-11-06T14:23:55Z</time>
      </trkpt>
      <trkpt lat="50.51936" lon="3.28844">
        <ele>42.317734</ele>
        <time>2018-11-06T14:23:57Z</time>
      </trkpt>
      <trkpt lat="50.5193" lon="3.28852">
        <ele>42.37381</ele>
        <time>2018-11-06T14:23:59Z</time>
      </trkpt>
      <trkpt lat="50.51924" lon="3.2886">
        <ele>42.371841</ele>
        <time>2018-11-06T14:24:01Z</time>
      </trkpt>
      <trkpt lat="50.51918" lon="3.28869">
        <ele>42.364937</ele>
        <time>2018-11-06T14:24:03Z</time>
      </trkpt>
      <trkpt lat="50.51912" lon="3.28879">
        <ele>42.426674</ele>
        <time>2018-11-06T14:24:05Z</time>
      </trkpt>
      <trkpt lat="50.51906" lon="3.28888">
        <ele>42.430931</ele>
        <time>2018-11-06T14:24:07Z</time>
      </trkpt>
      <trkpt lat="50.51901" lon="3.28897">
        <ele>42.478798</ele>
        <time>2018-11-06T14:24:09Z</time>
      </trkpt>
      <trkpt lat="50.51896" lon="3.28908">
        <ele>42.520802</ele>
        <time>2018-11-06T14:24:11Z</time>
      </trkpt>
      <trkpt lat="50.51891" lon="3.2892">
        <ele>42.512264</ele>
        <time>2018-11-06T14:24:13Z</time>
      </trkpt>
      <trkpt lat="50.51887" lon="3.28932">
        <ele>42.447968</ele>
        <time>2018-11-06T14:24:15Z</time>
      </trkpt>
      <trkpt lat="50.51883" lon="3.28944">
        <ele>42.436485</ele>
        <time>2018-11-06T14:24:17Z</time>
      </trkpt>
      <trkpt lat="50.51879" lon="3.28956">
        <ele>42.400818</ele>
        <time>2018-11-06T14:24:19Z</time>
      </trkpt>
      <trkpt lat="50.51875" lon="3.28968">
        <ele>42.408463</ele>
        <time>2018-11-06T14:24:21Z</time>
      </trkpt>
      <trkpt lat="50.51871" lon="3.2898">
        <ele>42.371544</ele>
        <time>2018-11-06T14:24:23Z</time>
      </trkpt>
      <trkpt lat="50.51867" lon="3.28992">
        <ele>42.327961</ele>
        <time>2018-11-06T14:24:25Z</time>
      </trkpt>
      <trkpt lat="50.51863" lon="3.29003">
        <ele>42.297527</ele>
        <time>2018-11-06T14:24:27Z</time>
      </trkpt>
      <trkpt lat="50.51859" lon="3.29015">
        <ele>42.262714</ele>
        <time>2018-11-06T14:24:29Z</time>
      </trkpt>
      <trkpt lat="50.51855" lon="3.29026">
        <ele>42.248913</ele>
        <time>2018-11-06T14:24:31Z</time>
      </trkpt>
      <trkpt lat="50.51852" lon="3.29037">
        <ele>42.224358</ele>
        <time>2018-11-06T14:24:33Z</time>
      </trkpt>
      <trkpt lat="50.51848" lon="3.29049">
        <ele>42.213562</ele>
        <time>2018-11-06T14:24:35Z</time>
      </trkpt>
      <trkpt lat="50.51844" lon="3.2906">
        <ele>42.257332</ele>
        <time>2018-11-06T14:24:37Z</time>
      </trkpt>
      <trkpt lat="50.5184" lon="3.29071">
        <ele>42.332195</ele>
        <time>2018-11-06T14:24:39Z</time>
      </trkpt>
      <trkpt lat="50.51836" lon="3.29083">
        <ele>42.343254</ele>
        <time>2018-11-06T14:24:41Z</time>
      </trkpt>
      <trkpt lat="50.51832" lon="3.29094">
        <ele>42.354885</ele>
        <time>2018-11-06T14:24:43Z</time>
      </trkpt>
      <trkpt lat="50.51828" lon="3.29105">
        <ele>42.424171</ele>
        <time>2018-11-06T14:24:45Z</time>
      </trkpt>
      <trkpt lat="50.51824" lon="3.29116">
        <ele>42.446629</ele>
        <time>2018-11-06T14:24:47Z</time>
      </trkpt>
      <trkpt lat="50.51819" lon="3.29128">
        <ele>42.455791</ele>
        <time>2018-11-06T14:24:49Z</time>
      </trkpt>
      <trkpt lat="50.51815" lon="3.29139">
        <ele>42.501476</ele>
        <time>2018-11-06T14:24:51Z</time>
      </trkpt>
      <trkpt lat="50.51811" lon="3.29149">
        <ele>42.514175</ele>
        <time>2018-11-06T14:24:53Z</time>
      </trkpt>
      <trkpt lat="50.51806" lon="3.2916">
        <ele>42.611263</ele>
        <time>2018-11-06T14:24:55Z</time>
      </trkpt>
      <trkpt lat="50.51801" lon="3.29171">
        <ele>42.71489</ele>
        <time>2018-11-06T14:24:57Z</time>
      </trkpt>
      <trkpt lat="50.51796" lon="3.29183">
        <ele>42.833378</ele>
        <time>2018-11-06T14:24:59Z</time>
      </trkpt>
      <trkpt lat="50.51792" lon="3.29195">
        <ele>42.862236</ele>
        <time>2018-11-06T14:25:01Z</time>
      </trkpt>
      <trkpt lat="50.51789" lon="3.29209">
        <ele>42.940498</ele>
        <time>2018-11-06T14:25:03Z</time>
      </trkpt>
      <trkpt lat="50.51788" lon="3.29223">
        <ele>43.023922</ele>
        <time>2018-11-06T14:25:05Z</time>
      </trkpt>
      <trkpt lat="50.51788" lon="3.29237">
        <ele>43.132999</ele>
        <time>2018-11-06T14:25:07Z</time>
      </trkpt>
      <trkpt lat="50.51791" lon="3.2925">
        <ele>43.24131</ele>
        <time>2018-11-06T14:25:09Z</time>
      </trkpt>
      <trkpt lat="50.51794" lon="3.29263">
        <ele>43.316879</ele>
        <time>2018-11-06T14:25:11Z</time>
      </trkpt>
      <trkpt lat="50.51798" lon="3.29275">
        <ele>43.361702</ele>
        <time>2018-11-06T14:25:13Z</time>
      </trkpt>
      <trkpt lat="50.51802" lon="3.29287">
        <ele>43.392166</ele>
        <time>2018-11-06T14:25:15Z</time>
      </trkpt>
      <trkpt lat="50.51806" lon="3.29297">
        <ele>43.386803</ele>
        <time>2018-11-06T14:25:17Z</time>
      </trkpt>
      <trkpt lat="50.5181" lon="3.29307">
        <ele>43.352379</ele>
        <time>2018-11-06T14:25:19Z</time>
      </trkpt>
      <trkpt lat="50.51814" lon="3.29318">
        <ele>43.303787</ele>
        <time>2018-11-06T14:25:21Z</time>
      </trkpt>
      <trkpt lat="50.51818" lon="3.29329">
        <ele>43.293037</ele>
        <time>2018-11-06T14:25:23Z</time>
      </trkpt>
      <trkpt lat="50.51822" lon="3.29342">
        <ele>43.253567</ele>
        <time>2018-11-06T14:25:25Z</time>
      </trkpt>
      <trkpt lat="50.51827" lon="3.29356">
        <ele>43.151909</ele>
        <time>2018-11-06T14:25:27Z</time>
      </trkpt>
      <trkpt lat="50.51832" lon="3.29369">
        <ele>43.095634</ele>
        <time>2018-11-06T14:25:29Z</time>
      </trkpt>
      <trkpt lat="50.51837" lon="3.29383">
        <ele>43.031059</ele>
        <time>2018-11-06T14:25:31Z</time>
      </trkpt>
      <trkpt lat="50.51842" lon="3.29398">
        <ele>42.936008</ele>
        <time>2018-11-06T14:25:33Z</time>
      </trkpt>
      <trkpt lat="50.51848" lon="3.29412">
        <ele>42.874001</ele>
        <time>2018-11-06T14:25:35Z</time>
      </trkpt>
      <trkpt lat="50.51853" lon="3.29426">
        <ele>42.796562</ele>
        <time>2018-11-06T14:25:37Z</time>
      </trkpt>
      <trkpt lat="50.51857" lon="3.29442">
        <ele>42.671349</ele>
        <time>2018-11-06T14:25:39Z</time>
      </trkpt>
      <trkpt lat="50.5186" lon="3.29458">
        <ele>42.574387</ele>
        <time>2018-11-06T14:25:41Z</time>
      </trkpt>
      <trkpt lat="50.51862" lon="3.29473">
        <ele>42.457047</ele>
        <time>2018-11-06T14:25:43Z</time>
      </trkpt>
      <trkpt lat="50.51865" lon="3.29488">
        <ele>42.281109</ele>
        <time>2018-11-06T14:25:45Z</time>
      </trkpt>
      <trkpt lat="50.51867" lon="3.29502">
        <ele>42.07431</ele>
        <time>2018-11-06T14:25:47Z</time>
      </trkpt>
      <trkpt lat="50.5187" lon="3.29517">
        <ele>41.955421</ele>
        <time>2018-11-06T14:25:49Z</time>
      </trkpt>
      <trkpt lat="50.51872" lon="3.29531">
        <ele>41.794788</ele>
        <time>2018-11-06T14:25:51Z</time>
      </trkpt>
      <trkpt lat="50.51874" lon="3.29545">
        <ele>41.61842</ele>
        <time>2018-11-06T14:25:53Z</time>
      </trkpt>
      <trkpt lat="50.51876" lon="3.29559">
        <ele>41.441093</ele>
        <time>2018-11-06T14:25:55Z</time>
      </trkpt>
      <trkpt lat="50.51878" lon="3.29573">
        <ele>41.306347</ele>
        <time>2018-11-06T14:25:57Z</time>
      </trkpt>
      <trkpt lat="50.51879" lon="3.29588">
        <ele>41.168507</ele>
        <time>2018-11-06T14:25:59Z</time>
      </trkpt>
      <trkpt lat="50.51882" lon="3.29602">
        <ele>40.940277</ele>
        <time>2018-11-06T14:26:01Z</time>
      </trkpt>
      <trkpt lat="50.51886" lon="3.29616">
        <ele>40.725819</ele>
        <time>2018-11-06T14:26:03Z</time>
      </trkpt>
      <trkpt lat="50.5189" lon="3.29629">
        <ele>40.56966</ele>
        <time>2018-11-06T14:26:05Z</time>
      </trkpt>
      <trkpt lat="50.51895" lon="3.29643">
        <ele>40.440582</ele>
        <time>2018-11-06T14:26:07Z</time>
      </trkpt>
      <trkpt lat="50.51899" lon="3.29656">
        <ele>40.208424</ele>
        <time>2018-11-06T14:26:09Z</time>
      </trkpt>
      <trkpt lat="50.51904" lon="3.29669">
        <ele>39.981304</ele>
        <time>2018-11-06T14:26:11Z</time>
      </trkpt>
      <trkpt lat="50.51907" lon="3.29682">
        <ele>39.815624</ele>
        <time>2018-11-06T14:26:13Z</time>
      </trkpt>
      <trkpt lat="50.51913" lon="3.29694">
        <ele>39.622753</ele>
        <time>2018-11-06T14:26:15Z</time>
      </trkpt>
      <trkpt lat="50.51919" lon="3.29704">
        <ele>39.41877</ele>
        <time>2018-11-06T14:26:17Z</time>
      </trkpt>
      <trkpt lat="50.51926" lon="3.29715">
        <ele>39.328163</ele>
        <time>2018-11-06T14:26:19Z</time>
      </trkpt>
      <trkpt lat="50.51934" lon="3.29726">
        <ele>39.166683</ele>
        <time>2018-11-06T14:26:21Z</time>
      </trkpt>
      <trkpt lat="50.51942" lon="3.29736">
        <ele>38.973679</ele>
        <time>2018-11-06T14:26:23Z</time>
      </trkpt>
      <trkpt lat="50.5195" lon="3.29746">
        <ele>38.792156</ele>
        <time>2018-11-06T14:26:25Z</time>
      </trkpt>
      <trkpt lat="50.51958" lon="3.29755">
        <ele>38.680565</ele>
        <time>2018-11-06T14:26:27Z</time>
      </trkpt>
      <trkpt lat="50.51966" lon="3.29765">
        <ele>38.558994</ele>
        <time>2018-11-06T14:26:29Z</time>
      </trkpt>
      <trkpt lat="50.51974" lon="3.29775">
        <ele>38.426689</ele>
        <time>2018-11-06T14:26:31Z</time>
      </trkpt>
      <trkpt lat="50.51981" lon="3.29784">
        <ele>38.257469</ele>
        <time>2018-11-06T14:26:33Z</time>
      </trkpt>
      <trkpt lat="50.51989" lon="3.29794">
        <ele>38.130455</ele>
        <time>2018-11-06T14:26:35Z</time>
      </trkpt>
      <trkpt lat="50.51997" lon="3.29803">
        <ele>37.978916</ele>
        <time>2018-11-06T14:26:37Z</time>
      </trkpt>
      <trkpt lat="50.52004" lon="3.29812">
        <ele>37.835045</ele>
        <time>2018-11-06T14:26:39Z</time>
      </trkpt>
      <trkpt lat="50.52011" lon="3.29821">
        <ele>37.729038</ele>
        <time>2018-11-06T14:26:41Z</time>
      </trkpt>
      <trkpt lat="50.52019" lon="3.2983">
        <ele>37.662678</ele>
        <time>2018-11-06T14:26:43Z</time>
      </trkpt>
      <trkpt lat="50.52027" lon="3.2984">
        <ele>37.519684</ele>
        <time>2018-11-06T14:26:45Z</time>
      </trkpt>
      <trkpt lat="50.52035" lon="3.29849">
        <ele>37.372498</ele>
        <time>2018-11-06T14:26:47Z</time>
      </trkpt>
      <trkpt lat="50.52043" lon="3.29859">
        <ele>37.307137</ele>
        <time>2018-11-06T14:26:49Z</time>
      </trkpt>
      <trkpt lat="50.5205" lon="3.29868">
        <ele>37.268303</ele>
        <time>2018-11-06T14:26:51Z</time>
      </trkpt>
      <trkpt lat="50.52057" lon="3.29877">
        <ele>37.169395</ele>
        <time>2018-11-06T14:26:53Z</time>
      </trkpt>
      <trkpt lat="50.52065" lon="3.29886">
        <ele>37.088524</ele>
        <time>2018-11-06T14:26:55Z</time>
      </trkpt>
      <trkpt lat="50.52072" lon="3.29896">
        <ele>37.007698</ele>
        <time>2018-11-06T14:26:57Z</time>
      </trkpt>
      <trkpt lat="50.52078" lon="3.29905">
        <ele>36.904121</ele>
        <time>2018-11-06T14:26:59Z</time>
      </trkpt>
      <trkpt lat="50.52085" lon="3.29914">
        <ele>36.842918</ele>
        <time>2018-11-06T14:27:01Z</time>
      </trkpt>
      <trkpt lat="50.52092" lon="3.29923">
        <ele>36.74509</ele>
        <time>2018-11-06T14:27:03Z</time>
      </trkpt>
      <trkpt lat="50.52099" lon="3.29932">
        <ele>36.631748</ele>
        <time>2018-11-06T14:27:05Z</time>
      </trkpt>
      <trkpt lat="50.52107" lon="3.29941">
        <ele>36.497414</ele>
        <time>2018-11-06T14:27:07Z</time>
      </trkpt>
      <trkpt lat="50.52115" lon="3.2995">
        <ele>36.362789</ele>
        <time>2018-11-06T14:27:09Z</time>
      </trkpt>
      <trkpt lat="50.52123" lon="3.2996">
        <ele>36.234093</ele>
        <time>2018-11-06T14:27:11Z</time>
      </trkpt>
      <trkpt lat="50.52128" lon="3.29972">
        <ele>36.161259</ele>
        <time>2018-11-06T14:27:13Z</time>
      </trkpt>
      <trkpt lat="50.52129" lon="3.29987">
        <ele>36.016331</ele>
        <time>2018-11-06T14:27:15Z</time>
      </trkpt>
      <trkpt lat="50.52125" lon="3.30002">
        <ele>35.887764</ele>
        <time>2018-11-06T14:27:17Z</time>
      </trkpt>
      <trkpt lat="50.52121" lon="3.30016">
        <ele>35.742897</ele>
        <time>2018-11-06T14:27:19Z</time>
      </trkpt>
      <trkpt lat="50.52118" lon="3.3003">
        <ele>35.635826</ele>
        <time>2018-11-06T14:27:21Z</time>
      </trkpt>
      <trkpt lat="50.52113" lon="3.30042">
        <ele>35.507896</ele>
        <time>2018-11-06T14:27:23Z</time>
      </trkpt>
      <trkpt lat="50.5211" lon="3.30055">
        <ele>35.408531</ele>
        <time>2018-11-06T14:27:25Z</time>
      </trkpt>
      <trkpt lat="50.52107" lon="3.30068">
        <ele>35.364754</ele>
        <time>2018-11-06T14:27:27Z</time>
      </trkpt>
      <trkpt lat="50.52103" lon="3.3008">
        <ele>35.248856</ele>
        <time>2018-11-06T14:27:29Z</time>
      </trkpt>
      <trkpt lat="50.521" lon="3.30091">
        <ele>35.196251</ele>
        <time>2018-11-06T14:27:31Z</time>
      </trkpt>
      <trkpt lat="50.52097" lon="3.30101">
        <ele>35.067814</ele>
        <time>2018-11-06T14:27:33Z</time>
      </trkpt>
      <trkpt lat="50.52095" lon="3.30108">
        <ele>34.954079</ele>
        <time>2018-11-06T14:27:35Z</time>
      </trkpt>
      <trkpt lat="50.52094" lon="3.30114">
        <ele>34.828377</ele>
        <time>2018-11-06T14:27:37Z</time>
      </trkpt>
      <trkpt lat="50.52095" lon="3.30121">
        <ele>34.751549</ele>
        <time>2018-11-06T14:27:39Z</time>
      </trkpt>
      <trkpt lat="50.521" lon="3.30128">
        <ele>34.602207</ele>
        <time>2018-11-06T14:27:41Z</time>
      </trkpt>
      <trkpt lat="50.52107" lon="3.30136">
        <ele>34.484154</ele>
        <time>2018-11-06T14:27:43Z</time>
      </trkpt>
      <trkpt lat="50.52115" lon="3.30145">
        <ele>34.387291</ele>
        <time>2018-11-06T14:27:45Z</time>
      </trkpt>
      <trkpt lat="50.52123" lon="3.30154">
        <ele>34.272301</ele>
        <time>2018-11-06T14:27:47Z</time>
      </trkpt>
      <trkpt lat="50.5213" lon="3.30162">
        <ele>34.230377</ele>
        <time>2018-11-06T14:27:49Z</time>
      </trkpt>
      <trkpt lat="50.52137" lon="3.3017">
        <ele>34.194244</ele>
        <time>2018-11-06T14:27:51Z</time>
      </trkpt>
      <trkpt lat="50.52144" lon="3.30178">
        <ele>34.109447</ele>
        <time>2018-11-06T14:27:53Z</time>
      </trkpt>
      <trkpt lat="50.5215" lon="3.30186">
        <ele>34.06797</ele>
        <time>2018-11-06T14:27:55Z</time>
      </trkpt>
      <trkpt lat="50.52156" lon="3.30193">
        <ele>34.044769</ele>
        <time>2018-11-06T14:27:57Z</time>
      </trkpt>
      <trkpt lat="50.52163" lon="3.30199">
        <ele>34.015705</ele>
        <time>2018-11-06T14:27:59Z</time>
      </trkpt>
      <trkpt lat="50.5217" lon="3.30206">
        <ele>34.011086</ele>
        <time>2018-11-06T14:28:01Z</time>
      </trkpt>
      <trkpt lat="50.52177" lon="3.30212">
        <ele>33.981529</ele>
        <time>2018-11-06T14:28:03Z</time>
      </trkpt>
      <trkpt lat="50.52185" lon="3.30219">
        <ele>33.945637</ele>
        <time>2018-11-06T14:28:05Z</time>
      </trkpt>
      <trkpt lat="50.52194" lon="3.30226">
        <ele>33.88192</ele>
        <time>2018-11-06T14:28:07Z</time>
      </trkpt>
      <trkpt lat="50.52202" lon="3.30232">
        <ele>33.877087</ele>
        <time>2018-11-06T14:28:09Z</time>
      </trkpt>
      <trkpt lat="50.52209" lon="3.30239">
        <ele>33.866455</ele>
        <time>2018-11-06T14:28:11Z</time>
      </trkpt>
      <trkpt lat="50.52217" lon="3.30246">
        <ele>33.871407</ele>
        <time>2018-11-06T14:28:13Z</time>
      </trkpt>
      <trkpt lat="50.52226" lon="3.30252">
        <ele>33.9133</ele>
        <time>2018-11-06T14:28:15Z</time>
      </trkpt>
      <trkpt lat="50.52234" lon="3.30259">
        <ele>33.957436</ele>
        <time>2018-11-06T14:28:17Z</time>
      </trkpt>
      <trkpt lat="50.52242" lon="3.30266">
        <ele>34.002125</ele>
        <time>2018-11-06T14:28:19Z</time>
      </trkpt>
      <trkpt lat="50.52249" lon="3.30272">
        <ele>34.037922</ele>
        <time>2018-11-06T14:28:21Z</time>
      </trkpt>
      <trkpt lat="50.52257" lon="3.30278">
        <ele>34.08329</ele>
        <time>2018-11-06T14:28:23Z</time>
      </trkpt>
      <trkpt lat="50.52264" lon="3.30284">
        <ele>34.125305</ele>
        <time>2018-11-06T14:28:25Z</time>
      </trkpt>
      <trkpt lat="50.52272" lon="3.3029">
        <ele>34.171642</ele>
        <time>2018-11-06T14:28:27Z</time>
      </trkpt>
      <trkpt lat="50.52279" lon="3.30293">
        <ele>34.223549</ele>
        <time>2018-11-06T14:28:29Z</time>
      </trkpt>
      <trkpt lat="50.52287" lon="3.30297">
        <ele>34.227303</ele>
        <time>2018-11-06T14:28:31Z</time>
      </trkpt>
      <trkpt lat="50.52295" lon="3.30299">
        <ele>34.199669</ele>
        <time>2018-11-06T14:28:33Z</time>
      </trkpt>
      <trkpt lat="50.52303" lon="3.30301">
        <ele>34.265381</ele>
        <time>2018-11-06T14:28:35Z</time>
      </trkpt>
      <trkpt lat="50.52311" lon="3.30303">
        <ele>34.289177</ele>
        <time>2018-11-06T14:28:37Z</time>
      </trkpt>
      <trkpt lat="50.52319" lon="3.30304">
        <ele>34.283424</ele>
        <time>2018-11-06T14:28:39Z</time>
      </trkpt>
      <trkpt lat="50.52327" lon="3.30305">
        <ele>34.3619</ele>
        <time>2018-11-06T14:28:41Z</time>
      </trkpt>
      <trkpt lat="50.52335" lon="3.30307">
        <ele>34.396034</ele>
        <time>2018-11-06T14:28:43Z</time>
      </trkpt>
      <trkpt lat="50.52343" lon="3.3031">
        <ele>34.457886</ele>
        <time>2018-11-06T14:28:45Z</time>
      </trkpt>
      <trkpt lat="50.52351" lon="3.30312">
        <ele>34.572388</ele>
        <time>2018-11-06T14:28:47Z</time>
      </trkpt>
      <trkpt lat="50.5236" lon="3.30315">
        <ele>34.658836</ele>
        <time>2018-11-06T14:28:49Z</time>
      </trkpt>
      <trkpt lat="50.52368" lon="3.30318">
        <ele>34.731316</ele>
        <time>2018-11-06T14:28:51Z</time>
      </trkpt>
      <trkpt lat="50.52376" lon="3.30321">
        <ele>34.81488</ele>
        <time>2018-11-06T14:28:53Z</time>
      </trkpt>
      <trkpt lat="50.52384" lon="3.30325">
        <ele>34.900658</ele>
        <time>2018-11-06T14:28:55Z</time>
      </trkpt>
      <trkpt lat="50.52392" lon="3.3033">
        <ele>35.058907</ele>
        <time>2018-11-06T14:28:57Z</time>
      </trkpt>
      <trkpt lat="50.524" lon="3.30336">
        <ele>35.196209</ele>
        <time>2018-11-06T14:28:59Z</time>
      </trkpt>
      <trkpt lat="50.52408" lon="3.30341">
        <ele>35.355541</ele>
        <time>2018-11-06T14:29:01Z</time>
      </trkpt>
      <trkpt lat="50.52416" lon="3.30348">
        <ele>35.511848</ele>
        <time>2018-11-06T14:29:03Z</time>
      </trkpt>
      <trkpt lat="50.52423" lon="3.30355">
        <ele>35.631348</ele>
        <time>2018-11-06T14:29:05Z</time>
      </trkpt>
      <trkpt lat="50.52429" lon="3.30364">
        <ele>35.791573</ele>
        <time>2018-11-06T14:29:07Z</time>
      </trkpt>
      <trkpt lat="50.52436" lon="3.30373">
        <ele>35.934742</ele>
        <time>2018-11-06T14:29:09Z</time>
      </trkpt>
      <trkpt lat="50.52442" lon="3.30382">
        <ele>36.11219</ele>
        <time>2018-11-06T14:29:11Z</time>
      </trkpt>
      <trkpt lat="50.52449" lon="3.30391">
        <ele>36.305092</ele>
        <time>2018-11-06T14:29:13Z</time>
      </trkpt>
      <trkpt lat="50.52455" lon="3.30401">
        <ele>36.476517</ele>
        <time>2018-11-06T14:29:15Z</time>
      </trkpt>
      <trkpt lat="50.52462" lon="3.3041">
        <ele>36.605389</ele>
        <time>2018-11-06T14:29:17Z</time>
      </trkpt>
      <trkpt lat="50.52469" lon="3.30419">
        <ele>36.786125</ele>
        <time>2018-11-06T14:29:19Z</time>
      </trkpt>
      <trkpt lat="50.52477" lon="3.30426">
        <ele>36.949036</ele>
        <time>2018-11-06T14:29:21Z</time>
      </trkpt>
      <trkpt lat="50.52485" lon="3.30433">
        <ele>37.144207</ele>
        <time>2018-11-06T14:29:23Z</time>
      </trkpt>
      <trkpt lat="50.52493" lon="3.3044">
        <ele>37.317242</ele>
        <time>2018-11-06T14:29:25Z</time>
      </trkpt>
      <trkpt lat="50.52501" lon="3.30447">
        <ele>37.4254</ele>
        <time>2018-11-06T14:29:27Z</time>
      </trkpt>
      <trkpt lat="50.52509" lon="3.30454">
        <ele>37.622593</ele>
        <time>2018-11-06T14:29:29Z</time>
      </trkpt>
      <trkpt lat="50.52516" lon="3.30461">
        <ele>37.785713</ele>
        <time>2018-11-06T14:29:31Z</time>
      </trkpt>
      <trkpt lat="50.52524" lon="3.30467">
        <ele>37.916344</ele>
        <time>2018-11-06T14:29:33Z</time>
      </trkpt>
      <trkpt lat="50.52532" lon="3.30474">
        <ele>38.02467</ele>
        <time>2018-11-06T14:29:35Z</time>
      </trkpt>
      <trkpt lat="50.52541" lon="3.3048">
        <ele>38.153374</ele>
        <time>2018-11-06T14:29:37Z</time>
      </trkpt>
      <trkpt lat="50.52549" lon="3.30487">
        <ele>38.251068</ele>
        <time>2018-11-06T14:29:39Z</time>
      </trkpt>
      <trkpt lat="50.52557" lon="3.30494">
        <ele>38.329231</ele>
        <time>2018-11-06T14:29:41Z</time>
      </trkpt>
      <trkpt lat="50.52565" lon="3.30501">
        <ele>38.409401</ele>
        <time>2018-11-06T14:29:43Z</time>
      </trkpt>
      <trkpt lat="50.52572" lon="3.30509">
        <ele>38.527748</ele>
        <time>2018-11-06T14:29:45Z</time>
      </trkpt>
      <trkpt lat="50.52579" lon="3.30517">
        <ele>38.632336</ele>
        <time>2018-11-06T14:29:47Z</time>
      </trkpt>
      <trkpt lat="50.52586" lon="3.30527">
        <ele>38.758034</ele>
        <time>2018-11-06T14:29:49Z</time>
      </trkpt>
      <trkpt lat="50.52593" lon="3.30536">
        <ele>38.82103</ele>
        <time>2018-11-06T14:29:51Z</time>
      </trkpt>
      <trkpt lat="50.526" lon="3.30547">
        <ele>38.896976</ele>
        <time>2018-11-06T14:29:53Z</time>
      </trkpt>
      <trkpt lat="50.52606" lon="3.30559">
        <ele>39.028694</ele>
        <time>2018-11-06T14:29:55Z</time>
      </trkpt>
      <trkpt lat="50.52612" lon="3.3057">
        <ele>39.095306</ele>
        <time>2018-11-06T14:29:57Z</time>
      </trkpt>
      <trkpt lat="50.52619" lon="3.30581">
        <ele>39.23481</ele>
        <time>2018-11-06T14:29:59Z</time>
      </trkpt>
      <trkpt lat="50.52625" lon="3.30592">
        <ele>39.323723</ele>
        <time>2018-11-06T14:30:01Z</time>
      </trkpt>
      <trkpt lat="50.5263" lon="3.30602">
        <ele>39.385033</ele>
        <time>2018-11-06T14:30:03Z</time>
      </trkpt>
      <trkpt lat="50.52635" lon="3.30612">
        <ele>39.483734</ele>
        <time>2018-11-06T14:30:05Z</time>
      </trkpt>
      <trkpt lat="50.52641" lon="3.30622">
        <ele>39.522289</ele>
        <time>2018-11-06T14:30:07Z</time>
      </trkpt>
      <trkpt lat="50.52647" lon="3.30631">
        <ele>39.561703</ele>
        <time>2018-11-06T14:30:09Z</time>
      </trkpt>
      <trkpt lat="50.52655" lon="3.30634">
        <ele>39.563187</ele>
        <time>2018-11-06T14:30:11Z</time>
      </trkpt>
      <trkpt lat="50.52663" lon="3.3063">
        <ele>39.625435</ele>
        <time>2018-11-06T14:30:13Z</time>
      </trkpt>
      <trkpt lat="50.5267" lon="3.3062">
        <ele>39.674706</ele>
        <time>2018-11-06T14:30:15Z</time>
      </trkpt>
      <trkpt lat="50.52675" lon="3.30608">
        <ele>39.767658</ele>
        <time>2018-11-06T14:30:17Z</time>
      </trkpt>
      <trkpt lat="50.5268" lon="3.30596">
        <ele>39.819008</ele>
        <time>2018-11-06T14:30:19Z</time>
      </trkpt>
      <trkpt lat="50.52686" lon="3.30584">
        <ele>39.914867</ele>
        <time>2018-11-06T14:30:21Z</time>
      </trkpt>
      <trkpt lat="50.52691" lon="3.30572">
        <ele>39.974117</ele>
        <time>2018-11-06T14:30:23Z</time>
      </trkpt>
      <trkpt lat="50.52696" lon="3.3056">
        <ele>40.029953</ele>
        <time>2018-11-06T14:30:25Z</time>
      </trkpt>
      <trkpt lat="50.52701" lon="3.30548">
        <ele>40.030773</ele>
        <time>2018-11-06T14:30:27Z</time>
      </trkpt>
      <trkpt lat="50.52706" lon="3.30536">
        <ele>40.098106</ele>
        <time>2018-11-06T14:30:29Z</time>
      </trkpt>
      <trkpt lat="50.52711" lon="3.30525">
        <ele>40.225258</ele>
        <time>2018-11-06T14:30:31Z</time>
      </trkpt>
      <trkpt lat="50.52716" lon="3.30513">
        <ele>40.338539</ele>
        <time>2018-11-06T14:30:33Z</time>
      </trkpt>
      <trkpt lat="50.52721" lon="3.30502">
        <ele>40.43792</ele>
        <time>2018-11-06T14:30:35Z</time>
      </trkpt>
      <trkpt lat="50.52726" lon="3.30491">
        <ele>40.48983</ele>
        <time>2018-11-06T14:30:37Z</time>
      </trkpt>
      <trkpt lat="50.52731" lon="3.3048">
        <ele>40.637947</ele>
        <time>2018-11-06T14:30:39Z</time>
      </trkpt>
      <trkpt lat="50.52736" lon="3.30469">
        <ele>40.734455</ele>
        <time>2018-11-06T14:30:41Z</time>
      </trkpt>
      <trkpt lat="50.52741" lon="3.30458">
        <ele>40.831345</ele>
        <time>2018-11-06T14:30:43Z</time>
      </trkpt>
      <trkpt lat="50.52746" lon="3.30447">
        <ele>40.899273</ele>
        <time>2018-11-06T14:30:45Z</time>
      </trkpt>
      <trkpt lat="50.52752" lon="3.30436">
        <ele>40.924603</ele>
        <time>2018-11-06T14:30:47Z</time>
      </trkpt>
      <trkpt lat="50.52757" lon="3.30424">
        <ele>40.990437</ele>
        <time>2018-11-06T14:30:49Z</time>
      </trkpt>
      <trkpt lat="50.52763" lon="3.30413">
        <ele>41.087841</ele>
        <time>2018-11-06T14:30:51Z</time>
      </trkpt>
      <trkpt lat="50.52768" lon="3.30402">
        <ele>41.221138</ele>
        <time>2018-11-06T14:30:53Z</time>
      </trkpt>
      <trkpt lat="50.52774" lon="3.3039">
        <ele>41.288841</ele>
        <time>2018-11-06T14:30:55Z</time>
      </trkpt>
      <trkpt lat="50.52779" lon="3.30379">
        <ele>41.431316</ele>
        <time>2018-11-06T14:30:57Z</time>
      </trkpt>
      <trkpt lat="50.52784" lon="3.30367">
        <ele>41.486092</ele>
        <time>2018-11-06T14:30:59Z</time>
      </trkpt>
      <trkpt lat="50.52789" lon="3.30356">
        <ele>41.601791</ele>
        <time>2018-11-06T14:31:01Z</time>
      </trkpt>
      <trkpt lat="50.52794" lon="3.30344">
        <ele>41.688297</ele>
        <time>2018-11-06T14:31:03Z</time>
      </trkpt>
      <trkpt lat="50.52799" lon="3.30332">
        <ele>41.817158</ele>
        <time>2018-11-06T14:31:05Z</time>
      </trkpt>
      <trkpt lat="50.52803" lon="3.30319">
        <ele>41.918312</ele>
        <time>2018-11-06T14:31:07Z</time>
      </trkpt>
      <trkpt lat="50.52806" lon="3.30306">
        <ele>42.056515</ele>
        <time>2018-11-06T14:31:09Z</time>
      </trkpt>
      <trkpt lat="50.52809" lon="3.30292">
        <ele>42.154442</ele>
        <time>2018-11-06T14:31:11Z</time>
      </trkpt>
      <trkpt lat="50.5281" lon="3.30278">
        <ele>42.251659</ele>
        <time>2018-11-06T14:31:13Z</time>
      </trkpt>
      <trkpt lat="50.5281" lon="3.30264">
        <ele>42.333679</ele>
        <time>2018-11-06T14:31:15Z</time>
      </trkpt>
      <trkpt lat="50.52811" lon="3.30249">
        <ele>42.402805</ele>
        <time>2018-11-06T14:31:17Z</time>
      </trkpt>
      <trkpt lat="50.52811" lon="3.30234">
        <ele>42.492622</ele>
        <time>2018-11-06T14:31:19Z</time>
      </trkpt>
      <trkpt lat="50.52814" lon="3.3022">
        <ele>42.606541</ele>
        <time>2018-11-06T14:31:21Z</time>
      </trkpt>
      <trkpt lat="50.52818" lon="3.30206">
        <ele>42.656216</ele>
        <time>2018-11-06T14:31:23Z</time>
      </trkpt>
      <trkpt lat="50.52823" lon="3.30194">
        <ele>42.727001</ele>
        <time>2018-11-06T14:31:25Z</time>
      </trkpt>
      <trkpt lat="50.5283" lon="3.30184">
        <ele>42.818657</ele>
        <time>2018-11-06T14:31:27Z</time>
      </trkpt>
      <trkpt lat="50.52837" lon="3.30175">
        <ele>42.935837</ele>
        <time>2018-11-06T14:31:29Z</time>
      </trkpt>
      <trkpt lat="50.52845" lon="3.30166">
        <ele>43.062355</ele>
        <time>2018-11-06T14:31:31Z</time>
      </trkpt>
      <trkpt lat="50.52853" lon="3.30157">
        <ele>43.14497</ele>
        <time>2018-11-06T14:31:33Z</time>
      </trkpt>
      <trkpt lat="50.52861" lon="3.30148">
        <ele>43.224232</ele>
        <time>2018-11-06T14:31:35Z</time>
      </trkpt>
      <trkpt lat="50.52868" lon="3.30138">
        <ele>43.2481</ele>
        <time>2018-11-06T14:31:37Z</time>
      </trkpt>
      <trkpt lat="50.52876" lon="3.30129">
        <ele>43.309341</ele>
        <time>2018-11-06T14:31:39Z</time>
      </trkpt>
      <trkpt lat="50.52884" lon="3.3012">
        <ele>43.37796</ele>
        <time>2018-11-06T14:31:41Z</time>
      </trkpt>
      <trkpt lat="50.52892" lon="3.30111">
        <ele>43.411568</ele>
        <time>2018-11-06T14:31:43Z</time>
      </trkpt>
      <trkpt lat="50.52899" lon="3.30102">
        <ele>43.417076</ele>
        <time>2018-11-06T14:31:45Z</time>
      </trkpt>
      <trkpt lat="50.52907" lon="3.30093">
        <ele>43.443512</ele>
        <time>2018-11-06T14:31:47Z</time>
      </trkpt>
      <trkpt lat="50.52915" lon="3.30083">
        <ele>43.431873</ele>
        <time>2018-11-06T14:31:49Z</time>
      </trkpt>
      <trkpt lat="50.52923" lon="3.30073">
        <ele>43.337212</ele>
        <time>2018-11-06T14:31:51Z</time>
      </trkpt>
      <trkpt lat="50.52931" lon="3.30066">
        <ele>43.245888</ele>
        <time>2018-11-06T14:31:53Z</time>
      </trkpt>
      <trkpt lat="50.52939" lon="3.30067">
        <ele>43.20216</ele>
        <time>2018-11-06T14:31:55Z</time>
      </trkpt>
      <trkpt lat="50.52947" lon="3.30074">
        <ele>43.118271</ele>
        <time>2018-11-06T14:31:57Z</time>
      </trkpt>
      <trkpt lat="50.52953" lon="3.30084">
        <ele>43.077797</ele>
        <time>2018-11-06T14:31:59Z</time>
      </trkpt>
      <trkpt lat="50.52959" lon="3.30094">
        <ele>42.973763</ele>
        <time>2018-11-06T14:32:01Z</time>
      </trkpt>
      <trkpt lat="50.52966" lon="3.30104">
        <ele>42.877617</ele>
        <time>2018-11-06T14:32:03Z</time>
      </trkpt>
      <trkpt lat="50.52973" lon="3.30113">
        <ele>42.807644</ele>
        <time>2018-11-06T14:32:05Z</time>
      </trkpt>
      <trkpt lat="50.52979" lon="3.30122">
        <ele>42.777214</ele>
        <time>2018-11-06T14:32:07Z</time>
      </trkpt>
      <trkpt lat="50.52986" lon="3.30131">
        <ele>42.730789</ele>
        <time>2018-11-06T14:32:09Z</time>
      </trkpt>
      <trkpt lat="50.52993" lon="3.30141">
        <ele>42.656132</ele>
        <time>2018-11-06T14:32:11Z</time>
      </trkpt>
      <trkpt lat="50.53" lon="3.30151">
        <ele>42.58934</ele>
        <time>2018-11-06T14:32:13Z</time>
      </trkpt>
      <trkpt lat="50.53006" lon="3.3016">
        <ele>42.533302</ele>
        <time>2018-11-06T14:32:15Z</time>
      </trkpt>
      <trkpt lat="50.53013" lon="3.30169">
        <ele>42.499874</ele>
        <time>2018-11-06T14:32:17Z</time>
      </trkpt>
      <trkpt lat="50.5302" lon="3.30178">
        <ele>42.443668</ele>
        <time>2018-11-06T14:32:19Z</time>
      </trkpt>
      <trkpt lat="50.53027" lon="3.30188">
        <ele>42.418575</ele>
        <time>2018-11-06T14:32:21Z</time>
      </trkpt>
      <trkpt lat="50.53033" lon="3.30198">
        <ele>42.431786</ele>
        <time>2018-11-06T14:32:23Z</time>
      </trkpt>
      <trkpt lat="50.5304" lon="3.30207">
        <ele>42.424313</ele>
        <time>2018-11-06T14:32:25Z</time>
      </trkpt>
      <trkpt lat="50.53047" lon="3.30216">
        <ele>42.434994</ele>
        <time>2018-11-06T14:32:27Z</time>
      </trkpt>
      <trkpt lat="50.53054" lon="3.30225">
        <ele>42.459099</ele>
        <time>2018-11-06T14:32:29Z</time>
      </trkpt>
      <trkpt lat="50.53059" lon="3.30237">
        <ele>42.497826</ele>
        <time>2018-11-06T14:32:31Z</time>
      </trkpt>
      <trkpt lat="50.53064" lon="3.30249">
        <ele>42.550819</ele>
        <time>2018-11-06T14:32:33Z</time>
      </trkpt>
      <trkpt lat="50.53067" lon="3.30262">
        <ele>42.747341</ele>
        <time>2018-11-06T14:32:35Z</time>
      </trkpt>
      <trkpt lat="50.5307" lon="3.30275">
        <ele>42.837833</ele>
        <time>2018-11-06T14:32:37Z</time>
      </trkpt>
      <trkpt lat="50.53072" lon="3.30287">
        <ele>42.978252</ele>
        <time>2018-11-06T14:32:39Z</time>
      </trkpt>
      <trkpt lat="50.53075" lon="3.303">
        <ele>43.097618</ele>
        <time>2018-11-06T14:32:41Z</time>
      </trkpt>
      <trkpt lat="50.53077" lon="3.30314">
        <ele>43.282845</ele>
        <time>2018-11-06T14:32:43Z</time>
      </trkpt>
      <trkpt lat="50.53079" lon="3.30328">
        <ele>43.39426</ele>
        <time>2018-11-06T14:32:45Z</time>
      </trkpt>
      <trkpt lat="50.53081" lon="3.30342">
        <ele>43.546772</ele>
        <time>2018-11-06T14:32:47Z</time>
      </trkpt>
      <trkpt lat="50.53082" lon="3.30356">
        <ele>43.639919</ele>
        <time>2018-11-06T14:32:49Z</time>
      </trkpt>
      <trkpt lat="50.53083" lon="3.3037">
        <ele>43.778431</ele>
        <time>2018-11-06T14:32:51Z</time>
      </trkpt>
      <trkpt lat="50.53085" lon="3.30383">
        <ele>43.93037</ele>
        <time>2018-11-06T14:32:53Z</time>
      </trkpt>
      <trkpt lat="50.53087" lon="3.30396">
        <ele>44.097267</ele>
        <time>2018-11-06T14:32:55Z</time>
      </trkpt>
      <trkpt lat="50.53087" lon="3.30411">
        <ele>44.264271</ele>
        <time>2018-11-06T14:32:57Z</time>
      </trkpt>
      <trkpt lat="50.53088" lon="3.30424">
        <ele>44.407253</ele>
        <time>2018-11-06T14:32:59Z</time>
      </trkpt>
      <trkpt lat="50.53088" lon="3.30438">
        <ele>44.525612</ele>
        <time>2018-11-06T14:33:01Z</time>
      </trkpt>
      <trkpt lat="50.53089" lon="3.30451">
        <ele>44.571316</ele>
        <time>2018-11-06T14:33:03Z</time>
      </trkpt>
      <trkpt lat="50.53089" lon="3.30465">
        <ele>44.634132</ele>
        <time>2018-11-06T14:33:05Z</time>
      </trkpt>
      <trkpt lat="50.5309" lon="3.30478">
        <ele>44.682323</ele>
        <time>2018-11-06T14:33:07Z</time>
      </trkpt>
      <trkpt lat="50.5309" lon="3.30492">
        <ele>44.738419</ele>
        <time>2018-11-06T14:33:09Z</time>
      </trkpt>
      <trkpt lat="50.53091" lon="3.30505">
        <ele>44.828999</ele>
        <time>2018-11-06T14:33:11Z</time>
      </trkpt>
      <trkpt lat="50.53093" lon="3.30518">
        <ele>44.909416</ele>
        <time>2018-11-06T14:33:13Z</time>
      </trkpt>
      <trkpt lat="50.53099" lon="3.3053">
        <ele>44.968285</ele>
        <time>2018-11-06T14:33:15Z</time>
      </trkpt>
      <trkpt lat="50.53106" lon="3.30538">
        <ele>44.965729</ele>
        <time>2018-11-06T14:33:17Z</time>
      </trkpt>
      <trkpt lat="50.53113" lon="3.30547">
        <ele>44.959145</ele>
        <time>2018-11-06T14:33:19Z</time>
      </trkpt>
      <trkpt lat="50.5312" lon="3.30556">
        <ele>44.977028</ele>
        <time>2018-11-06T14:33:21Z</time>
      </trkpt>
      <trkpt lat="50.53127" lon="3.30565">
        <ele>44.99033</ele>
        <time>2018-11-06T14:33:23Z</time>
      </trkpt>
      <trkpt lat="50.53133" lon="3.30575">
        <ele>44.997158</ele>
        <time>2018-11-06T14:33:25Z</time>
      </trkpt>
      <trkpt lat="50.5314" lon="3.30583">
        <ele>45.028152</ele>
        <time>2018-11-06T14:33:27Z</time>
      </trkpt>
      <trkpt lat="50.53146" lon="3.30592">
        <ele>45.066971</ele>
        <time>2018-11-06T14:33:29Z</time>
      </trkpt>
      <trkpt lat="50.53153" lon="3.30602">
        <ele>45.123905</ele>
        <time>2018-11-06T14:33:31Z</time>
      </trkpt>
      <trkpt lat="50.5316" lon="3.30611">
        <ele>45.133095</ele>
        <time>2018-11-06T14:33:33Z</time>
      </trkpt>
      <trkpt lat="50.53167" lon="3.3062">
        <ele>45.122353</ele>
        <time>2018-11-06T14:33:35Z</time>
      </trkpt>
      <trkpt lat="50.53173" lon="3.3063">
        <ele>45.144131</ele>
        <time>2018-11-06T14:33:37Z</time>
      </trkpt>
      <trkpt lat="50.5318" lon="3.30639">
        <ele>45.17017</ele>
        <time>2018-11-06T14:33:39Z</time>
      </trkpt>
      <trkpt lat="50.53187" lon="3.30649">
        <ele>45.211571</ele>
        <time>2018-11-06T14:33:41Z</time>
      </trkpt>
      <trkpt lat="50.53194" lon="3.30658">
        <ele>45.262192</ele>
        <time>2018-11-06T14:33:43Z</time>
      </trkpt>
      <trkpt lat="50.53201" lon="3.30667">
        <ele>45.377171</ele>
        <time>2018-11-06T14:33:45Z</time>
      </trkpt>
      <trkpt lat="50.53208" lon="3.30676">
        <ele>45.467453</ele>
        <time>2018-11-06T14:33:47Z</time>
      </trkpt>
      <trkpt lat="50.53215" lon="3.30686">
        <ele>45.500099</ele>
        <time>2018-11-06T14:33:49Z</time>
      </trkpt>
      <trkpt lat="50.53223" lon="3.30694">
        <ele>45.582813</ele>
        <time>2018-11-06T14:33:51Z</time>
      </trkpt>
      <trkpt lat="50.5323" lon="3.30701">
        <ele>45.61882</ele>
        <time>2018-11-06T14:33:53Z</time>
      </trkpt>
      <trkpt lat="50.53238" lon="3.30707">
        <ele>45.734413</ele>
        <time>2018-11-06T14:33:55Z</time>
      </trkpt>
      <trkpt lat="50.53247" lon="3.30711">
        <ele>45.839931</ele>
        <time>2018-11-06T14:33:57Z</time>
      </trkpt>
      <trkpt lat="50.53256" lon="3.30715">
        <ele>45.962193</ele>
        <time>2018-11-06T14:33:59Z</time>
      </trkpt>
      <trkpt lat="50.53265" lon="3.30719">
        <ele>46.009384</ele>
        <time>2018-11-06T14:34:01Z</time>
      </trkpt>
      <trkpt lat="50.53274" lon="3.30722">
        <ele>46.118408</ele>
        <time>2018-11-06T14:34:03Z</time>
      </trkpt>
      <trkpt lat="50.53283" lon="3.30726">
        <ele>46.14724</ele>
        <time>2018-11-06T14:34:05Z</time>
      </trkpt>
      <trkpt lat="50.53291" lon="3.3073">
        <ele>46.17577</ele>
        <time>2018-11-06T14:34:07Z</time>
      </trkpt>
      <trkpt lat="50.53299" lon="3.30733">
        <ele>46.214245</ele>
        <time>2018-11-06T14:34:09Z</time>
      </trkpt>
      <trkpt lat="50.53307" lon="3.30737">
        <ele>46.220142</ele>
        <time>2018-11-06T14:34:11Z</time>
      </trkpt>
      <trkpt lat="50.53315" lon="3.30741">
        <ele>46.274395</ele>
        <time>2018-11-06T14:34:13Z</time>
      </trkpt>
      <trkpt lat="50.53324" lon="3.30744">
        <ele>46.265659</ele>
        <time>2018-11-06T14:34:15Z</time>
      </trkpt>
      <trkpt lat="50.53333" lon="3.30747">
        <ele>46.292545</ele>
        <time>2018-11-06T14:34:17Z</time>
      </trkpt>
      <trkpt lat="50.53341" lon="3.30751">
        <ele>46.320984</ele>
        <time>2018-11-06T14:34:19Z</time>
      </trkpt>
      <trkpt lat="50.53349" lon="3.30754">
        <ele>46.315178</ele>
        <time>2018-11-06T14:34:21Z</time>
      </trkpt>
      <trkpt lat="50.53357" lon="3.30758">
        <ele>46.364319</ele>
        <time>2018-11-06T14:34:23Z</time>
      </trkpt>
      <trkpt lat="50.53365" lon="3.30762">
        <ele>46.40493</ele>
        <time>2018-11-06T14:34:25Z</time>
      </trkpt>
      <trkpt lat="50.53373" lon="3.30764">
        <ele>46.428558</ele>
        <time>2018-11-06T14:34:27Z</time>
      </trkpt>
      <trkpt lat="50.53382" lon="3.30765">
        <ele>46.479115</ele>
        <time>2018-11-06T14:34:29Z</time>
      </trkpt>
      <trkpt lat="50.53391" lon="3.30768">
        <ele>46.541874</ele>
        <time>2018-11-06T14:34:31Z</time>
      </trkpt>
      <trkpt lat="50.53399" lon="3.30772">
        <ele>46.596207</ele>
        <time>2018-11-06T14:34:33Z</time>
      </trkpt>
      <trkpt lat="50.53407" lon="3.30774">
        <ele>46.645016</ele>
        <time>2018-11-06T14:34:35Z</time>
      </trkpt>
      <trkpt lat="50.53416" lon="3.30777">
        <ele>46.713531</ele>
        <time>2018-11-06T14:34:37Z</time>
      </trkpt>
      <trkpt lat="50.53425" lon="3.3078">
        <ele>46.803844</ele>
        <time>2018-11-06T14:34:39Z</time>
      </trkpt>
      <trkpt lat="50.53433" lon="3.30782">
        <ele>46.900948</ele>
        <time>2018-11-06T14:34:41Z</time>
      </trkpt>
      <trkpt lat="50.53442" lon="3.30785">
        <ele>47.054779</ele>
        <time>2018-11-06T14:34:43Z</time>
      </trkpt>
      <trkpt lat="50.5345" lon="3.30789">
        <ele>47.118401</ele>
        <time>2018-11-06T14:34:45Z</time>
      </trkpt>
      <trkpt lat="50.53459" lon="3.30792">
        <ele>47.26725</ele>
        <time>2018-11-06T14:34:47Z</time>
      </trkpt>
      <trkpt lat="50.53468" lon="3.30795">
        <ele>47.364906</ele>
        <time>2018-11-06T14:34:49Z</time>
      </trkpt>
      <trkpt lat="50.53476" lon="3.30798">
        <ele>47.456093</ele>
        <time>2018-11-06T14:34:51Z</time>
      </trkpt>
      <trkpt lat="50.53486" lon="3.30801">
        <ele>47.567081</ele>
        <time>2018-11-06T14:34:53Z</time>
      </trkpt>
      <trkpt lat="50.53494" lon="3.30806">
        <ele>47.680504</ele>
        <time>2018-11-06T14:34:55Z</time>
      </trkpt>
      <trkpt lat="50.53503" lon="3.30811">
        <ele>47.840355</ele>
        <time>2018-11-06T14:34:57Z</time>
      </trkpt>
      <trkpt lat="50.53511" lon="3.30817">
        <ele>47.935665</ele>
        <time>2018-11-06T14:34:59Z</time>
      </trkpt>
      <trkpt lat="50.53519" lon="3.30824">
        <ele>48.033127</ele>
        <time>2018-11-06T14:35:01Z</time>
      </trkpt>
      <trkpt lat="50.53527" lon="3.30831">
        <ele>48.160839</ele>
        <time>2018-11-06T14:35:03Z</time>
      </trkpt>
      <trkpt lat="50.53534" lon="3.30839">
        <ele>48.282059</ele>
        <time>2018-11-06T14:35:05Z</time>
      </trkpt>
      <trkpt lat="50.53542" lon="3.30847">
        <ele>48.328594</ele>
        <time>2018-11-06T14:35:07Z</time>
      </trkpt>
      <trkpt lat="50.5355" lon="3.30854">
        <ele>48.464066</ele>
        <time>2018-11-06T14:35:09Z</time>
      </trkpt>
      <trkpt lat="50.53558" lon="3.3086">
        <ele>48.585323</ele>
        <time>2018-11-06T14:35:11Z</time>
      </trkpt>
      <trkpt lat="50.53566" lon="3.30866">
        <ele>48.737694</ele>
        <time>2018-11-06T14:35:13Z</time>
      </trkpt>
      <trkpt lat="50.53574" lon="3.30871">
        <ele>48.860535</ele>
        <time>2018-11-06T14:35:15Z</time>
      </trkpt>
      <trkpt lat="50.53582" lon="3.30875">
        <ele>49.014584</ele>
        <time>2018-11-06T14:35:17Z</time>
      </trkpt>
      <trkpt lat="50.5359" lon="3.30879">
        <ele>49.09185</ele>
        <time>2018-11-06T14:35:19Z</time>
      </trkpt>
      <trkpt lat="50.53599" lon="3.30881">
        <ele>49.219444</ele>
        <time>2018-11-06T14:35:21Z</time>
      </trkpt>
      <trkpt lat="50.53608" lon="3.30883">
        <ele>49.270668</ele>
        <time>2018-11-06T14:35:23Z</time>
      </trkpt>
      <trkpt lat="50.53617" lon="3.30884">
        <ele>49.335728</ele>
        <time>2018-11-06T14:35:25Z</time>
      </trkpt>
      <trkpt lat="50.53626" lon="3.30884">
        <ele>49.480995</ele>
        <time>2018-11-06T14:35:27Z</time>
      </trkpt>
      <trkpt lat="50.53635" lon="3.30884">
        <ele>49.603428</ele>
        <time>2018-11-06T14:35:29Z</time>
      </trkpt>
      <trkpt lat="50.53644" lon="3.30885">
        <ele>49.717373</ele>
        <time>2018-11-06T14:35:31Z</time>
      </trkpt>
      <trkpt lat="50.53653" lon="3.30885">
        <ele>49.883244</ele>
        <time>2018-11-06T14:35:33Z</time>
      </trkpt>
      <trkpt lat="50.53661" lon="3.30885">
        <ele>50.034878</ele>
        <time>2018-11-06T14:35:35Z</time>
      </trkpt>
      <trkpt lat="50.5367" lon="3.30885">
        <ele>50.135185</ele>
        <time>2018-11-06T14:35:37Z</time>
      </trkpt>
      <trkpt lat="50.53678" lon="3.30885">
        <ele>50.309788</ele>
        <time>2018-11-06T14:35:39Z</time>
      </trkpt>
      <trkpt lat="50.53687" lon="3.30885">
        <ele>50.438175</ele>
        <time>2018-11-06T14:35:41Z</time>
      </trkpt>
      <trkpt lat="50.53695" lon="3.30885">
        <ele>50.545006</ele>
        <time>2018-11-06T14:35:43Z</time>
      </trkpt>
      <trkpt lat="50.53705" lon="3.30885">
        <ele>50.618309</ele>
        <time>2018-11-06T14:35:45Z</time>
      </trkpt>
      <trkpt lat="50.53713" lon="3.30885">
        <ele>50.738762</ele>
        <time>2018-11-06T14:35:47Z</time>
      </trkpt>
      <trkpt lat="50.53722" lon="3.30885">
        <ele>50.870964</ele>
        <time>2018-11-06T14:35:49Z</time>
      </trkpt>
      <trkpt lat="50.5373" lon="3.30884">
        <ele>50.948483</ele>
        <time>2018-11-06T14:35:51Z</time>
      </trkpt>
      <trkpt lat="50.53739" lon="3.30884">
        <ele>51.079411</ele>
        <time>2018-11-06T14:35:53Z</time>
      </trkpt>
      <trkpt lat="50.53747" lon="3.30885">
        <ele>51.148342</ele>
        <time>2018-11-06T14:35:55Z</time>
      </trkpt>
      <trkpt lat="50.53756" lon="3.30884">
        <ele>51.197498</ele>
        <time>2018-11-06T14:35:57Z</time>
      </trkpt>
      <trkpt lat="50.53764" lon="3.30885">
        <ele>51.297981</ele>
        <time>2018-11-06T14:35:59Z</time>
      </trkpt>
      <trkpt lat="50.53773" lon="3.30885">
        <ele>51.370686</ele>
        <time>2018-11-06T14:36:01Z</time>
      </trkpt>
      <trkpt lat="50.53781" lon="3.30885">
        <ele>51.456799</ele>
        <time>2018-11-06T14:36:03Z</time>
      </trkpt>
      <trkpt lat="50.53788" lon="3.30885">
        <ele>51.516937</ele>
        <time>2018-11-06T14:36:05Z</time>
      </trkpt>
      <trkpt lat="50.53797" lon="3.30885">
        <ele>51.590199</ele>
        <time>2018-11-06T14:36:07Z</time>
      </trkpt>
      <trkpt lat="50.53806" lon="3.30885">
        <ele>51.657562</ele>
        <time>2018-11-06T14:36:09Z</time>
      </trkpt>
      <trkpt lat="50.53816" lon="3.30885">
        <ele>51.701599</ele>
        <time>2018-11-06T14:36:11Z</time>
      </trkpt>
      <trkpt lat="50.53825" lon="3.30886">
        <ele>51.726856</ele>
        <time>2018-11-06T14:36:13Z</time>
      </trkpt>
      <trkpt lat="50.53835" lon="3.30886">
        <ele>51.762901</ele>
        <time>2018-11-06T14:36:15Z</time>
      </trkpt>
      <trkpt lat="50.53845" lon="3.30886">
        <ele>51.795368</ele>
        <time>2018-11-06T14:36:17Z</time>
      </trkpt>
      <trkpt lat="50.53854" lon="3.30887">
        <ele>51.814137</ele>
        <time>2018-11-06T14:36:19Z</time>
      </trkpt>
      <trkpt lat="50.53864" lon="3.30887">
        <ele>51.750751</ele>
        <time>2018-11-06T14:36:21Z</time>
      </trkpt>
      <trkpt lat="50.53874" lon="3.30887">
        <ele>51.729103</ele>
        <time>2018-11-06T14:36:23Z</time>
      </trkpt>
      <trkpt lat="50.53885" lon="3.30888">
        <ele>51.744781</ele>
        <time>2018-11-06T14:36:25Z</time>
      </trkpt>
      <trkpt lat="50.53894" lon="3.30888">
        <ele>51.708076</ele>
        <time>2018-11-06T14:36:27Z</time>
      </trkpt>
      <trkpt lat="50.53904" lon="3.30888">
        <ele>51.679558</ele>
        <time>2018-11-06T14:36:29Z</time>
      </trkpt>
      <trkpt lat="50.53914" lon="3.30887">
        <ele>51.670849</ele>
        <time>2018-11-06T14:36:31Z</time>
      </trkpt>
      <trkpt lat="50.53922" lon="3.30888">
        <ele>51.678883</ele>
        <time>2018-11-06T14:36:33Z</time>
      </trkpt>
      <trkpt lat="50.53931" lon="3.30888">
        <ele>51.672249</ele>
        <time>2018-11-06T14:36:35Z</time>
      </trkpt>
      <trkpt lat="50.53941" lon="3.30888">
        <ele>51.69059</ele>
        <time>2018-11-06T14:36:37Z</time>
      </trkpt>
      <trkpt lat="50.53949" lon="3.3089">
        <ele>51.680901</ele>
        <time>2018-11-06T14:36:39Z</time>
      </trkpt>
      <trkpt lat="50.53959" lon="3.30892">
        <ele>51.730774</ele>
        <time>2018-11-06T14:36:41Z</time>
      </trkpt>
      <trkpt lat="50.53968" lon="3.30894">
        <ele>51.771355</ele>
        <time>2018-11-06T14:36:43Z</time>
      </trkpt>
      <trkpt lat="50.53978" lon="3.30893">
        <ele>51.859306</ele>
        <time>2018-11-06T14:36:45Z</time>
      </trkpt>
      <trkpt lat="50.53987" lon="3.30893">
        <ele>51.91399</ele>
        <time>2018-11-06T14:36:47Z</time>
      </trkpt>
      <trkpt lat="50.53996" lon="3.30894">
        <ele>51.956337</ele>
        <time>2018-11-06T14:36:49Z</time>
      </trkpt>
      <trkpt lat="50.54005" lon="3.30895">
        <ele>52.035866</ele>
        <time>2018-11-06T14:36:51Z</time>
      </trkpt>
      <trkpt lat="50.54014" lon="3.30896">
        <ele>52.084858</ele>
        <time>2018-11-06T14:36:53Z</time>
      </trkpt>
      <trkpt lat="50.54024" lon="3.30896">
        <ele>52.108925</ele>
        <time>2018-11-06T14:36:55Z</time>
      </trkpt>
      <trkpt lat="50.54033" lon="3.30896">
        <ele>52.156933</ele>
        <time>2018-11-06T14:36:57Z</time>
      </trkpt>
      <trkpt lat="50.54042" lon="3.30896">
        <ele>52.201488</ele>
        <time>2018-11-06T14:36:59Z</time>
      </trkpt>
      <trkpt lat="50.54052" lon="3.30896">
        <ele>52.230389</ele>
        <time>2018-11-06T14:37:01Z</time>
      </trkpt>
      <trkpt lat="50.54062" lon="3.30897">
        <ele>52.332146</ele>
        <time>2018-11-06T14:37:03Z</time>
      </trkpt>
      <trkpt lat="50.54071" lon="3.30897">
        <ele>52.349152</ele>
        <time>2018-11-06T14:37:05Z</time>
      </trkpt>
      <trkpt lat="50.54079" lon="3.30898">
        <ele>52.411133</ele>
        <time>2018-11-06T14:37:07Z</time>
      </trkpt>
      <trkpt lat="50.54089" lon="3.30898">
        <ele>52.495461</ele>
        <time>2018-11-06T14:37:09Z</time>
      </trkpt>
      <trkpt lat="50.54097" lon="3.30898">
        <ele>52.578411</ele>
        <time>2018-11-06T14:37:11Z</time>
      </trkpt>
      <trkpt lat="50.54107" lon="3.30897">
        <ele>52.645222</ele>
        <time>2018-11-06T14:37:13Z</time>
      </trkpt>
      <trkpt lat="50.54115" lon="3.30897">
        <ele>52.682167</ele>
        <time>2018-11-06T14:37:15Z</time>
      </trkpt>
      <trkpt lat="50.54124" lon="3.30897">
        <ele>52.733826</ele>
        <time>2018-11-06T14:37:17Z</time>
      </trkpt>
      <trkpt lat="50.54133" lon="3.30896">
        <ele>52.725422</ele>
        <time>2018-11-06T14:37:19Z</time>
      </trkpt>
      <trkpt lat="50.54142" lon="3.30896">
        <ele>52.720844</ele>
        <time>2018-11-06T14:37:21Z</time>
      </trkpt>
      <trkpt lat="50.5415" lon="3.30895">
        <ele>52.705254</ele>
        <time>2018-11-06T14:37:23Z</time>
      </trkpt>
      <trkpt lat="50.5416" lon="3.30895">
        <ele>52.675568</ele>
        <time>2018-11-06T14:37:25Z</time>
      </trkpt>
      <trkpt lat="50.54169" lon="3.30894">
        <ele>52.650658</ele>
        <time>2018-11-06T14:37:27Z</time>
      </trkpt>
      <trkpt lat="50.54178" lon="3.30893">
        <ele>52.660126</ele>
        <time>2018-11-06T14:37:29Z</time>
      </trkpt>
      <trkpt lat="50.54187" lon="3.30892">
        <ele>52.674946</ele>
        <time>2018-11-06T14:37:31Z</time>
      </trkpt>
      <trkpt lat="50.54197" lon="3.3089">
        <ele>52.668407</ele>
        <time>2018-11-06T14:37:33Z</time>
      </trkpt>
      <trkpt lat="50.54205" lon="3.30888">
        <ele>52.622253</ele>
        <time>2018-11-06T14:37:35Z</time>
      </trkpt>
      <trkpt lat="50.54215" lon="3.30884">
        <ele>52.602711</ele>
        <time>2018-11-06T14:37:37Z</time>
      </trkpt>
      <trkpt lat="50.54223" lon="3.3088">
        <ele>52.595184</ele>
        <time>2018-11-06T14:37:39Z</time>
      </trkpt>
      <trkpt lat="50.54232" lon="3.30875">
        <ele>52.626789</ele>
        <time>2018-11-06T14:37:41Z</time>
      </trkpt>
      <trkpt lat="50.54241" lon="3.3087">
        <ele>52.644112</ele>
        <time>2018-11-06T14:37:43Z</time>
      </trkpt>
      <trkpt lat="50.54249" lon="3.30864">
        <ele>52.670525</ele>
        <time>2018-11-06T14:37:45Z</time>
      </trkpt>
      <trkpt lat="50.54258" lon="3.30857">
        <ele>52.712654</ele>
        <time>2018-11-06T14:37:47Z</time>
      </trkpt>
      <trkpt lat="50.54267" lon="3.30849">
        <ele>52.726318</ele>
        <time>2018-11-06T14:37:49Z</time>
      </trkpt>
      <trkpt lat="50.54274" lon="3.3084">
        <ele>52.739525</ele>
        <time>2018-11-06T14:37:51Z</time>
      </trkpt>
      <trkpt lat="50.54282" lon="3.30832">
        <ele>52.728985</ele>
        <time>2018-11-06T14:37:53Z</time>
      </trkpt>
      <trkpt lat="50.54289" lon="3.30822">
        <ele>52.694344</ele>
        <time>2018-11-06T14:37:55Z</time>
      </trkpt>
      <trkpt lat="50.54295" lon="3.30812">
        <ele>52.736614</ele>
        <time>2018-11-06T14:37:57Z</time>
      </trkpt>
      <trkpt lat="50.54302" lon="3.30801">
        <ele>52.762123</ele>
        <time>2018-11-06T14:37:59Z</time>
      </trkpt>
      <trkpt lat="50.54309" lon="3.3079">
        <ele>52.779041</ele>
        <time>2018-11-06T14:38:01Z</time>
      </trkpt>
      <trkpt lat="50.54314" lon="3.3078">
        <ele>52.855476</ele>
        <time>2018-11-06T14:38:03Z</time>
      </trkpt>
      <trkpt lat="50.5432" lon="3.3077">
        <ele>52.88216</ele>
        <time>2018-11-06T14:38:05Z</time>
      </trkpt>
      <trkpt lat="50.54325" lon="3.30759">
        <ele>52.966255</ele>
        <time>2018-11-06T14:38:07Z</time>
      </trkpt>
      <trkpt lat="50.5433" lon="3.30749">
        <ele>53.020233</ele>
        <time>2018-11-06T14:38:09Z</time>
      </trkpt>
      <trkpt lat="50.54335" lon="3.30738">
        <ele>53.065834</ele>
        <time>2018-11-06T14:38:11Z</time>
      </trkpt>
      <trkpt lat="50.5434" lon="3.30728">
        <ele>53.075829</ele>
        <time>2018-11-06T14:38:13Z</time>
      </trkpt>
      <trkpt lat="50.54345" lon="3.30718">
        <ele>53.142681</ele>
        <time>2018-11-06T14:38:15Z</time>
      </trkpt>
      <trkpt lat="50.5435" lon="3.30708">
        <ele>53.264214</ele>
        <time>2018-11-06T14:38:17Z</time>
      </trkpt>
      <trkpt lat="50.54355" lon="3.30699">
        <ele>53.307457</ele>
        <time>2018-11-06T14:38:19Z</time>
      </trkpt>
      <trkpt lat="50.54361" lon="3.3069">
        <ele>53.434814</ele>
        <time>2018-11-06T14:38:21Z</time>
      </trkpt>
      <trkpt lat="50.54367" lon="3.30682">
        <ele>53.484821</ele>
        <time>2018-11-06T14:38:23Z</time>
      </trkpt>
      <trkpt lat="50.54374" lon="3.30674">
        <ele>53.561726</ele>
        <time>2018-11-06T14:38:25Z</time>
      </trkpt>
      <trkpt lat="50.54381" lon="3.30668">
        <ele>53.622559</ele>
        <time>2018-11-06T14:38:27Z</time>
      </trkpt>
      <trkpt lat="50.54388" lon="3.30661">
        <ele>53.742992</ele>
        <time>2018-11-06T14:38:29Z</time>
      </trkpt>
      <trkpt lat="50.54396" lon="3.30655">
        <ele>53.826031</ele>
        <time>2018-11-06T14:38:31Z</time>
      </trkpt>
      <trkpt lat="50.54404" lon="3.3065">
        <ele>53.904518</ele>
        <time>2018-11-06T14:38:33Z</time>
      </trkpt>
      <trkpt lat="50.54412" lon="3.30646">
        <ele>54.012268</ele>
        <time>2018-11-06T14:38:35Z</time>
      </trkpt>
      <trkpt lat="50.54421" lon="3.30642">
        <ele>54.126335</ele>
        <time>2018-11-06T14:38:37Z</time>
      </trkpt>
      <trkpt lat="50.5443" lon="3.3064">
        <ele>54.205376</ele>
        <time>2018-11-06T14:38:39Z</time>
      </trkpt>
      <trkpt lat="50.54438" lon="3.30638">
        <ele>54.320568</ele>
        <time>2018-11-06T14:38:41Z</time>
      </trkpt>
      <trkpt lat="50.54448" lon="3.30637">
        <ele>54.428413</ele>
        <time>2018-11-06T14:38:43Z</time>
      </trkpt>
      <trkpt lat="50.54457" lon="3.30637">
        <ele>54.486683</ele>
        <time>2018-11-06T14:38:45Z</time>
      </trkpt>
      <trkpt lat="50.54466" lon="3.30638">
        <ele>54.600288</ele>
        <time>2018-11-06T14:38:47Z</time>
      </trkpt>
      <trkpt lat="50.54476" lon="3.30639">
        <ele>54.563698</ele>
        <time>2018-11-06T14:38:49Z</time>
      </trkpt>
      <trkpt lat="50.54485" lon="3.3064">
        <ele>54.577595</ele>
        <time>2018-11-06T14:38:51Z</time>
      </trkpt>
      <trkpt lat="50.54494" lon="3.30641">
        <ele>54.663475</ele>
        <time>2018-11-06T14:38:53Z</time>
      </trkpt>
      <trkpt lat="50.54503" lon="3.30642">
        <ele>54.773968</ele>
        <time>2018-11-06T14:38:55Z</time>
      </trkpt>
      <trkpt lat="50.54511" lon="3.30643">
        <ele>54.81707</ele>
        <time>2018-11-06T14:38:57Z</time>
      </trkpt>
      <trkpt lat="50.54521" lon="3.30644">
        <ele>54.849373</ele>
        <time>2018-11-06T14:38:59Z</time>
      </trkpt>
      <trkpt lat="50.5453" lon="3.30645">
        <ele>54.903606</ele>
        <time>2018-11-06T14:39:01Z</time>
      </trkpt>
      <trkpt lat="50.5454" lon="3.30646">
        <ele>55.000023</ele>
        <time>2018-11-06T14:39:03Z</time>
      </trkpt>
      <trkpt lat="50.54549" lon="3.30646">
        <ele>55.051117</ele>
        <time>2018-11-06T14:39:05Z</time>
      </trkpt>
      <trkpt lat="50.54557" lon="3.30646">
        <ele>55.172394</ele>
        <time>2018-11-06T14:39:07Z</time>
      </trkpt>
      <trkpt lat="50.54566" lon="3.30643">
        <ele>55.234367</ele>
        <time>2018-11-06T14:39:09Z</time>
      </trkpt>
      <trkpt lat="50.54575" lon="3.30639">
        <ele>55.29192</ele>
        <time>2018-11-06T14:39:11Z</time>
      </trkpt>
      <trkpt lat="50.54583" lon="3.30634">
        <ele>55.398701</ele>
        <time>2018-11-06T14:39:13Z</time>
      </trkpt>
      <trkpt lat="50.5459" lon="3.30628">
        <ele>55.475189</ele>
        <time>2018-11-06T14:39:15Z</time>
      </trkpt>
      <trkpt lat="50.54598" lon="3.30621">
        <ele>55.551003</ele>
        <time>2018-11-06T14:39:17Z</time>
      </trkpt>
      <trkpt lat="50.54606" lon="3.30614">
        <ele>55.63932</ele>
        <time>2018-11-06T14:39:19Z</time>
      </trkpt>
      <trkpt lat="50.54613" lon="3.30608">
        <ele>55.76112</ele>
        <time>2018-11-06T14:39:21Z</time>
      </trkpt>
      <trkpt lat="50.54621" lon="3.306">
        <ele>55.764629</ele>
        <time>2018-11-06T14:39:23Z</time>
      </trkpt>
      <trkpt lat="50.54628" lon="3.30594">
        <ele>55.889626</ele>
        <time>2018-11-06T14:39:25Z</time>
      </trkpt>
      <trkpt lat="50.54636" lon="3.30587">
        <ele>56.020622</ele>
        <time>2018-11-06T14:39:27Z</time>
      </trkpt>
      <trkpt lat="50.54643" lon="3.30581">
        <ele>56.188061</ele>
        <time>2018-11-06T14:39:29Z</time>
      </trkpt>
      <trkpt lat="50.54651" lon="3.30575">
        <ele>56.376263</ele>
        <time>2018-11-06T14:39:31Z</time>
      </trkpt>
      <trkpt lat="50.54657" lon="3.30568">
        <ele>56.617027</ele>
        <time>2018-11-06T14:39:33Z</time>
      </trkpt>
      <trkpt lat="50.54664" lon="3.30563">
        <ele>56.757549</ele>
        <time>2018-11-06T14:39:35Z</time>
      </trkpt>
      <trkpt lat="50.54672" lon="3.30562">
        <ele>56.885773</ele>
        <time>2018-11-06T14:39:37Z</time>
      </trkpt>
      <trkpt lat="50.54679" lon="3.30567">
        <ele>57.087044</ele>
        <time>2018-11-06T14:39:39Z</time>
      </trkpt>
      <trkpt lat="50.54686" lon="3.30576">
        <ele>57.255775</ele>
        <time>2018-11-06T14:39:41Z</time>
      </trkpt>
      <trkpt lat="50.54693" lon="3.30587">
        <ele>57.424896</ele>
        <time>2018-11-06T14:39:43Z</time>
      </trkpt>
      <trkpt lat="50.54699" lon="3.30599">
        <ele>57.559471</ele>
        <time>2018-11-06T14:39:45Z</time>
      </trkpt>
      <trkpt lat="50.54705" lon="3.30611">
        <ele>57.703747</ele>
        <time>2018-11-06T14:39:47Z</time>
      </trkpt>
      <trkpt lat="50.54709" lon="3.30624">
        <ele>57.821026</ele>
        <time>2018-11-06T14:39:49Z</time>
      </trkpt>
      <trkpt lat="50.54713" lon="3.30637">
        <ele>57.965534</ele>
        <time>2018-11-06T14:39:51Z</time>
      </trkpt>
      <trkpt lat="50.54717" lon="3.3065">
        <ele>58.069176</ele>
        <time>2018-11-06T14:39:53Z</time>
      </trkpt>
      <trkpt lat="50.54721" lon="3.30663">
        <ele>58.275352</ele>
        <time>2018-11-06T14:39:55Z</time>
      </trkpt>
      <trkpt lat="50.54725" lon="3.30676">
        <ele>58.344349</ele>
        <time>2018-11-06T14:39:57Z</time>
      </trkpt>
      <trkpt lat="50.54728" lon="3.30687">
        <ele>58.518475</ele>
        <time>2018-11-06T14:39:59Z</time>
      </trkpt>
      <trkpt lat="50.54731" lon="3.30697">
        <ele>58.713512</ele>
        <time>2018-11-06T14:40:01Z</time>
      </trkpt>
      <trkpt lat="50.54735" lon="3.30706">
        <ele>58.902916</ele>
        <time>2018-11-06T14:40:03Z</time>
      </trkpt>
      <trkpt lat="50.54738" lon="3.30716">
        <ele>59.067383</ele>
        <time>2018-11-06T14:40:05Z</time>
      </trkpt>
      <trkpt lat="50.54742" lon="3.30726">
        <ele>59.231121</ele>
        <time>2018-11-06T14:40:07Z</time>
      </trkpt>
      <trkpt lat="50.54745" lon="3.30736">
        <ele>59.362793</ele>
        <time>2018-11-06T14:40:09Z</time>
      </trkpt>
      <trkpt lat="50.54748" lon="3.30746">
        <ele>59.51878</ele>
        <time>2018-11-06T14:40:11Z</time>
      </trkpt>
      <trkpt lat="50.5475" lon="3.30757">
        <ele>59.605186</ele>
        <time>2018-11-06T14:40:13Z</time>
      </trkpt>
      <trkpt lat="50.54753" lon="3.3077">
        <ele>59.780598</ele>
        <time>2018-11-06T14:40:15Z</time>
      </trkpt>
      <trkpt lat="50.54757" lon="3.30782">
        <ele>59.862629</ele>
        <time>2018-11-06T14:40:17Z</time>
      </trkpt>
      <trkpt lat="50.5476" lon="3.30794">
        <ele>60.019642</ele>
        <time>2018-11-06T14:40:19Z</time>
      </trkpt>
      <trkpt lat="50.54765" lon="3.30806">
        <ele>60.139565</ele>
        <time>2018-11-06T14:40:21Z</time>
      </trkpt>
      <trkpt lat="50.54769" lon="3.30818">
        <ele>60.28997</ele>
        <time>2018-11-06T14:40:23Z</time>
      </trkpt>
      <trkpt lat="50.54773" lon="3.30831">
        <ele>60.416767</ele>
        <time>2018-11-06T14:40:25Z</time>
      </trkpt>
      <trkpt lat="50.54777" lon="3.30843">
        <ele>60.616352</ele>
        <time>2018-11-06T14:40:27Z</time>
      </trkpt>
      <trkpt lat="50.54781" lon="3.30855">
        <ele>60.784477</ele>
        <time>2018-11-06T14:40:29Z</time>
      </trkpt>
      <trkpt lat="50.54785" lon="3.30866">
        <ele>60.944176</ele>
        <time>2018-11-06T14:40:31Z</time>
      </trkpt>
      <trkpt lat="50.54788" lon="3.30877">
        <ele>61.106453</ele>
        <time>2018-11-06T14:40:33Z</time>
      </trkpt>
      <trkpt lat="50.54792" lon="3.30886">
        <ele>61.27356</ele>
        <time>2018-11-06T14:40:35Z</time>
      </trkpt>
      <trkpt lat="50.54795" lon="3.30895">
        <ele>61.400871</ele>
        <time>2018-11-06T14:40:37Z</time>
      </trkpt>
      <trkpt lat="50.54799" lon="3.30903">
        <ele>61.511677</ele>
        <time>2018-11-06T14:40:39Z</time>
      </trkpt>
      <trkpt lat="50.54803" lon="3.30909">
        <ele>61.591442</ele>
        <time>2018-11-06T14:40:41Z</time>
      </trkpt>
      <trkpt lat="50.54808" lon="3.30915">
        <ele>61.727406</ele>
        <time>2018-11-06T14:40:43Z</time>
      </trkpt>
      <trkpt lat="50.54811" lon="3.30921">
        <ele>61.809216</ele>
        <time>2018-11-06T14:40:45Z</time>
      </trkpt>
      <trkpt lat="50.54816" lon="3.30924">
        <ele>61.872276</ele>
        <time>2018-11-06T14:40:47Z</time>
      </trkpt>
      <trkpt lat="50.54823" lon="3.30925">
        <ele>61.993237</ele>
        <time>2018-11-06T14:40:49Z</time>
      </trkpt>
      <trkpt lat="50.5483" lon="3.30922">
        <ele>62.101013</ele>
        <time>2018-11-06T14:40:51Z</time>
      </trkpt>
      <trkpt lat="50.54837" lon="3.30916">
        <ele>62.123241</ele>
        <time>2018-11-06T14:40:53Z</time>
      </trkpt>
      <trkpt lat="50.54845" lon="3.30911">
        <ele>62.196007</ele>
        <time>2018-11-06T14:40:55Z</time>
      </trkpt>
      <trkpt lat="50.54853" lon="3.30907">
        <ele>62.25285</ele>
        <time>2018-11-06T14:40:57Z</time>
      </trkpt>
      <trkpt lat="50.54861" lon="3.30903">
        <ele>62.342377</ele>
        <time>2018-11-06T14:40:59Z</time>
      </trkpt>
      <trkpt lat="50.54868" lon="3.30899">
        <ele>62.404152</ele>
        <time>2018-11-06T14:41:01Z</time>
      </trkpt>
      <trkpt lat="50.54876" lon="3.30895">
        <ele>62.420055</ele>
        <time>2018-11-06T14:41:03Z</time>
      </trkpt>
      <trkpt lat="50.54884" lon="3.30891">
        <ele>62.437115</ele>
        <time>2018-11-06T14:41:05Z</time>
      </trkpt>
      <trkpt lat="50.54892" lon="3.30886">
        <ele>62.444805</ele>
        <time>2018-11-06T14:41:07Z</time>
      </trkpt>
      <trkpt lat="50.549" lon="3.30882">
        <ele>62.434357</ele>
        <time>2018-11-06T14:41:09Z</time>
      </trkpt>
      <trkpt lat="50.54908" lon="3.30878">
        <ele>62.472267</ele>
        <time>2018-11-06T14:41:11Z</time>
      </trkpt>
      <trkpt lat="50.54916" lon="3.30874">
        <ele>62.487701</ele>
        <time>2018-11-06T14:41:13Z</time>
      </trkpt>
      <trkpt lat="50.54925" lon="3.30869">
        <ele>62.535225</ele>
        <time>2018-11-06T14:41:15Z</time>
      </trkpt>
      <trkpt lat="50.54934" lon="3.30864">
        <ele>62.523994</ele>
        <time>2018-11-06T14:41:17Z</time>
      </trkpt>
      <trkpt lat="50.54942" lon="3.30859">
        <ele>62.549232</ele>
        <time>2018-11-06T14:41:19Z</time>
      </trkpt>
      <trkpt lat="50.5495" lon="3.30853">
        <ele>62.541191</ele>
        <time>2018-11-06T14:41:21Z</time>
      </trkpt>
      <trkpt lat="50.54957" lon="3.30847">
        <ele>62.573406</ele>
        <time>2018-11-06T14:41:23Z</time>
      </trkpt>
      <trkpt lat="50.54964" lon="3.30841">
        <ele>62.534027</ele>
        <time>2018-11-06T14:41:25Z</time>
      </trkpt>
      <trkpt lat="50.54972" lon="3.30835">
        <ele>62.608337</ele>
        <time>2018-11-06T14:41:27Z</time>
      </trkpt>
      <trkpt lat="50.54979" lon="3.30829">
        <ele>62.64571</ele>
        <time>2018-11-06T14:41:29Z</time>
      </trkpt>
      <trkpt lat="50.54986" lon="3.30824">
        <ele>62.706646</ele>
        <time>2018-11-06T14:41:31Z</time>
      </trkpt>
      <trkpt lat="50.54993" lon="3.30818">
        <ele>62.739979</ele>
        <time>2018-11-06T14:41:33Z</time>
      </trkpt>
      <trkpt lat="50.55" lon="3.30813">
        <ele>62.769085</ele>
        <time>2018-11-06T14:41:35Z</time>
      </trkpt>
      <trkpt lat="50.55007" lon="3.30807">
        <ele>62.786255</ele>
        <time>2018-11-06T14:41:37Z</time>
      </trkpt>
      <trkpt lat="50.55015" lon="3.30801">
        <ele>62.777557</ele>
        <time>2018-11-06T14:41:39Z</time>
      </trkpt>
      <trkpt lat="50.55023" lon="3.30795">
        <ele>62.77779</ele>
        <time>2018-11-06T14:41:41Z</time>
      </trkpt>
      <trkpt lat="50.55031" lon="3.30788">
        <ele>62.827637</ele>
        <time>2018-11-06T14:41:43Z</time>
      </trkpt>
      <trkpt lat="50.55039" lon="3.30781">
        <ele>62.864967</ele>
        <time>2018-11-06T14:41:45Z</time>
      </trkpt>
      <trkpt lat="50.55047" lon="3.30775">
        <ele>62.952839</ele>
        <time>2018-11-06T14:41:47Z</time>
      </trkpt>
      <trkpt lat="50.55055" lon="3.30769">
        <ele>62.978832</ele>
        <time>2018-11-06T14:41:49Z</time>
      </trkpt>
      <trkpt lat="50.55064" lon="3.30762">
        <ele>63.022003</ele>
        <time>2018-11-06T14:41:51Z</time>
      </trkpt>
      <trkpt lat="50.55072" lon="3.30754">
        <ele>63.058357</ele>
        <time>2018-11-06T14:41:53Z</time>
      </trkpt>
      <trkpt lat="50.55079" lon="3.30746">
        <ele>63.098625</ele>
        <time>2018-11-06T14:41:55Z</time>
      </trkpt>
      <trkpt lat="50.55087" lon="3.30738">
        <ele>63.123676</ele>
        <time>2018-11-06T14:41:57Z</time>
      </trkpt>
      <trkpt lat="50.55094" lon="3.30732">
        <ele>63.19976</ele>
        <time>2018-11-06T14:41:59Z</time>
      </trkpt>
      <trkpt lat="50.55102" lon="3.30725">
        <ele>63.176392</ele>
        <time>2018-11-06T14:42:01Z</time>
      </trkpt>
      <trkpt lat="50.5511" lon="3.30718">
        <ele>63.281483</ele>
        <time>2018-11-06T14:42:03Z</time>
      </trkpt>
      <trkpt lat="50.55117" lon="3.30711">
        <ele>63.398781</ele>
        <time>2018-11-06T14:42:05Z</time>
      </trkpt>
      <trkpt lat="50.55125" lon="3.30704">
        <ele>63.44059</ele>
        <time>2018-11-06T14:42:07Z</time>
      </trkpt>
      <trkpt lat="50.55132" lon="3.30698">
        <ele>63.46109</ele>
        <time>2018-11-06T14:42:09Z</time>
      </trkpt>
      <trkpt lat="50.5514" lon="3.30691">
        <ele>63.481621</ele>
        <time>2018-11-06T14:42:11Z</time>
      </trkpt>
      <trkpt lat="50.55147" lon="3.30684">
        <ele>63.489876</ele>
        <time>2018-11-06T14:42:13Z</time>
      </trkpt>
      <trkpt lat="50.55154" lon="3.30678">
        <ele>63.538231</ele>
        <time>2018-11-06T14:42:15Z</time>
      </trkpt>
      <trkpt lat="50.55162" lon="3.30672">
        <ele>63.588097</ele>
        <time>2018-11-06T14:42:17Z</time>
      </trkpt>
      <trkpt lat="50.5517" lon="3.30666">
        <ele>63.603035</ele>
        <time>2018-11-06T14:42:19Z</time>
      </trkpt>
      <trkpt lat="50.55178" lon="3.3066">
        <ele>63.678242</ele>
        <time>2018-11-06T14:42:21Z</time>
      </trkpt>
      <trkpt lat="50.55186" lon="3.30655">
        <ele>63.709454</ele>
        <time>2018-11-06T14:42:23Z</time>
      </trkpt>
      <trkpt lat="50.55195" lon="3.30649">
        <ele>63.726513</ele>
        <time>2018-11-06T14:42:25Z</time>
      </trkpt>
      <trkpt lat="50.55203" lon="3.30643">
        <ele>63.792858</ele>
        <time>2018-11-06T14:42:27Z</time>
      </trkpt>
      <trkpt lat="50.55211" lon="3.30637">
        <ele>63.785461</ele>
        <time>2018-11-06T14:42:29Z</time>
      </trkpt>
      <trkpt lat="50.55219" lon="3.30631">
        <ele>63.799633</ele>
        <time>2018-11-06T14:42:31Z</time>
      </trkpt>
      <trkpt lat="50.55228" lon="3.30625">
        <ele>63.815754</ele>
        <time>2018-11-06T14:42:33Z</time>
      </trkpt>
      <trkpt lat="50.55236" lon="3.30619">
        <ele>63.862019</ele>
        <time>2018-11-06T14:42:35Z</time>
      </trkpt>
      <trkpt lat="50.55244" lon="3.30613">
        <ele>63.831707</ele>
        <time>2018-11-06T14:42:37Z</time>
      </trkpt>
      <trkpt lat="50.55252" lon="3.30608">
        <ele>63.84782</ele>
        <time>2018-11-06T14:42:39Z</time>
      </trkpt>
      <trkpt lat="50.55259" lon="3.30603">
        <ele>63.908424</ele>
        <time>2018-11-06T14:42:41Z</time>
      </trkpt>
      <trkpt lat="50.55267" lon="3.30597">
        <ele>63.911957</ele>
        <time>2018-11-06T14:42:43Z</time>
      </trkpt>
      <trkpt lat="50.55274" lon="3.30591">
        <ele>63.842552</ele>
        <time>2018-11-06T14:42:45Z</time>
      </trkpt>
      <trkpt lat="50.55281" lon="3.30586">
        <ele>63.809013</ele>
        <time>2018-11-06T14:42:47Z</time>
      </trkpt>
      <trkpt lat="50.55288" lon="3.30581">
        <ele>63.795757</ele>
        <time>2018-11-06T14:42:49Z</time>
      </trkpt>
      <trkpt lat="50.55296" lon="3.30575">
        <ele>63.78017</ele>
        <time>2018-11-06T14:42:51Z</time>
      </trkpt>
      <trkpt lat="50.55304" lon="3.30569">
        <ele>63.758739</ele>
        <time>2018-11-06T14:42:53Z</time>
      </trkpt>
      <trkpt lat="50.55311" lon="3.30563">
        <ele>63.727821</ele>
        <time>2018-11-06T14:42:55Z</time>
      </trkpt>
      <trkpt lat="50.55319" lon="3.30558">
        <ele>63.726067</ele>
        <time>2018-11-06T14:42:57Z</time>
      </trkpt>
      <trkpt lat="50.55327" lon="3.30552">
        <ele>63.679493</ele>
        <time>2018-11-06T14:42:59Z</time>
      </trkpt>
      <trkpt lat="50.55333" lon="3.30547">
        <ele>63.661476</ele>
        <time>2018-11-06T14:43:01Z</time>
      </trkpt>
      <trkpt lat="50.55339" lon="3.30544">
        <ele>63.62928</ele>
        <time>2018-11-06T14:43:03Z</time>
      </trkpt>
      <trkpt lat="50.55344" lon="3.30541">
        <ele>63.565269</ele>
        <time>2018-11-06T14:43:05Z</time>
      </trkpt>
      <trkpt lat="50.55349" lon="3.30538">
        <ele>63.541832</ele>
        <time>2018-11-06T14:43:07Z</time>
      </trkpt>
      <trkpt lat="50.55354" lon="3.30536">
        <ele>63.523651</ele>
        <time>2018-11-06T14:43:09Z</time>
      </trkpt>
      <trkpt lat="50.55359" lon="3.30538">
        <ele>63.447426</ele>
        <time>2018-11-06T14:43:11Z</time>
      </trkpt>
      <trkpt lat="50.55365" lon="3.30543">
        <ele>63.394684</ele>
        <time>2018-11-06T14:43:13Z</time>
      </trkpt>
      <trkpt lat="50.5537" lon="3.30549">
        <ele>63.337475</ele>
        <time>2018-11-06T14:43:15Z</time>
      </trkpt>
      <trkpt lat="50.55375" lon="3.30554">
        <ele>63.292412</ele>
        <time>2018-11-06T14:43:17Z</time>
      </trkpt>
      <trkpt lat="50.5538" lon="3.30559">
        <ele>63.261555</ele>
        <time>2018-11-06T14:43:19Z</time>
      </trkpt>
      <trkpt lat="50.55386" lon="3.30559">
        <ele>63.206409</ele>
        <time>2018-11-06T14:43:21Z</time>
      </trkpt>
      <trkpt lat="50.55393" lon="3.30555">
        <ele>63.219799</ele>
        <time>2018-11-06T14:43:23Z</time>
      </trkpt>
      <trkpt lat="50.55401" lon="3.3055">
        <ele>63.233498</ele>
        <time>2018-11-06T14:43:25Z</time>
      </trkpt>
      <trkpt lat="50.55408" lon="3.30543">
        <ele>63.216499</ele>
        <time>2018-11-06T14:43:27Z</time>
      </trkpt>
      <trkpt lat="50.55415" lon="3.30536">
        <ele>63.199768</ele>
        <time>2018-11-06T14:43:29Z</time>
      </trkpt>
      <trkpt lat="50.55422" lon="3.30528">
        <ele>63.169209</ele>
        <time>2018-11-06T14:43:31Z</time>
      </trkpt>
      <trkpt lat="50.55431" lon="3.30522">
        <ele>63.105518</ele>
        <time>2018-11-06T14:43:33Z</time>
      </trkpt>
      <trkpt lat="50.55439" lon="3.30516">
        <ele>63.032276</ele>
        <time>2018-11-06T14:43:35Z</time>
      </trkpt>
      <trkpt lat="50.55447" lon="3.3051">
        <ele>62.976398</ele>
        <time>2018-11-06T14:43:37Z</time>
      </trkpt>
      <trkpt lat="50.55455" lon="3.30503">
        <ele>62.906445</ele>
        <time>2018-11-06T14:43:39Z</time>
      </trkpt>
      <trkpt lat="50.55463" lon="3.30497">
        <ele>62.853657</ele>
        <time>2018-11-06T14:43:41Z</time>
      </trkpt>
      <trkpt lat="50.55472" lon="3.3049">
        <ele>62.810646</ele>
        <time>2018-11-06T14:43:43Z</time>
      </trkpt>
      <trkpt lat="50.5548" lon="3.30484">
        <ele>62.753784</ele>
        <time>2018-11-06T14:43:45Z</time>
      </trkpt>
      <trkpt lat="50.55488" lon="3.30478">
        <ele>62.699615</ele>
        <time>2018-11-06T14:43:47Z</time>
      </trkpt>
      <trkpt lat="50.55497" lon="3.30473">
        <ele>62.56971</ele>
        <time>2018-11-06T14:43:49Z</time>
      </trkpt>
      <trkpt lat="50.55505" lon="3.30467">
        <ele>62.554878</ele>
        <time>2018-11-06T14:43:51Z</time>
      </trkpt>
      <trkpt lat="50.55514" lon="3.3046">
        <ele>62.465435</ele>
        <time>2018-11-06T14:43:53Z</time>
      </trkpt>
      <trkpt lat="50.55522" lon="3.30453">
        <ele>62.39201</ele>
        <time>2018-11-06T14:43:55Z</time>
      </trkpt>
      <trkpt lat="50.5553" lon="3.30446">
        <ele>62.341492</ele>
        <time>2018-11-06T14:43:57Z</time>
      </trkpt>
      <trkpt lat="50.55539" lon="3.30439">
        <ele>62.239674</ele>
        <time>2018-11-06T14:43:59Z</time>
      </trkpt>
      <trkpt lat="50.55547" lon="3.30432">
        <ele>62.123188</ele>
        <time>2018-11-06T14:44:01Z</time>
      </trkpt>
      <trkpt lat="50.55555" lon="3.30427">
        <ele>62.09613</ele>
        <time>2018-11-06T14:44:03Z</time>
      </trkpt>
      <trkpt lat="50.55562" lon="3.3042">
        <ele>61.912365</ele>
        <time>2018-11-06T14:44:05Z</time>
      </trkpt>
      <trkpt lat="50.55565" lon="3.3041">
        <ele>61.778755</ele>
        <time>2018-11-06T14:44:07Z</time>
      </trkpt>
      <trkpt lat="50.55565" lon="3.304">
        <ele>61.542015</ele>
        <time>2018-11-06T14:44:09Z</time>
      </trkpt>
      <trkpt lat="50.55563" lon="3.30391">
        <ele>61.392067</ele>
        <time>2018-11-06T14:44:11Z</time>
      </trkpt>
      <trkpt lat="50.55565" lon="3.30385">
        <ele>61.239532</ele>
        <time>2018-11-06T14:44:13Z</time>
      </trkpt>
      <trkpt lat="50.55569" lon="3.30382">
        <ele>61.11747</ele>
        <time>2018-11-06T14:44:15Z</time>
      </trkpt>
    </trkseg>
  </trk>
</gpx>